<?xml version="1.0" encoding="UTF-8" standalone="no" ?>
<gpx xmlns="http://www.topografix.com/GPX/1/1" xmlns:xsi="http://www.w3.org/2001/XMLSchema-instance" xsi:schemaLocation="http://www.topografix.com/GPX/1/1 http://www.topografix.com/GPX/1/1/gpx.xsd" version="1.1" creator="VisuGPX - https://www.visugpx.com">
  <metadata>
    <name>Activité Randonnée TwoNav</name>
    <desc><![CDATA[2023-04-10_125627.trk]]></desc>
  </metadata>
  <trk>
    <name><![CDATA[Activité Randonnée TwoNav_1]]></name>
    <trkseg>
      <trkpt lat="47.81642" lon="6.60457">
        <ele>464.6</ele>
        <time>2023-04-10T10:56:27Z</time>
      </trkpt>
      <trkpt lat="47.81645" lon="6.60449">
        <ele>464.5</ele>
        <time>2023-04-10T10:56:28Z</time>
      </trkpt>
      <trkpt lat="47.81647" lon="6.60443">
        <ele>464.4</ele>
        <time>2023-04-10T10:56:36Z</time>
      </trkpt>
      <trkpt lat="47.81649" lon="6.60437">
        <ele>464.3</ele>
        <time>2023-04-10T10:56:45Z</time>
      </trkpt>
      <trkpt lat="47.81651" lon="6.6043">
        <ele>464.3</ele>
        <time>2023-04-10T10:56:45Z</time>
      </trkpt>
      <trkpt lat="47.81654" lon="6.60416">
        <ele>464.2</ele>
        <time>2023-04-10T10:56:53Z</time>
      </trkpt>
      <trkpt lat="47.81657" lon="6.60403">
        <ele>464.2</ele>
        <time>2023-04-10T10:57:01Z</time>
      </trkpt>
      <trkpt lat="47.81659" lon="6.6039">
        <ele>464.3</ele>
        <time>2023-04-10T10:57:08Z</time>
      </trkpt>
      <trkpt lat="47.81663" lon="6.60376">
        <ele>464.5</ele>
        <time>2023-04-10T10:57:16Z</time>
      </trkpt>
      <trkpt lat="47.81668" lon="6.60364">
        <ele>464.7</ele>
        <time>2023-04-10T10:57:24Z</time>
      </trkpt>
      <trkpt lat="47.81674" lon="6.60352">
        <ele>464.9</ele>
        <time>2023-04-10T10:57:32Z</time>
      </trkpt>
      <trkpt lat="47.81682" lon="6.60344">
        <ele>465.2</ele>
        <time>2023-04-10T10:57:40Z</time>
      </trkpt>
      <trkpt lat="47.8169" lon="6.60335">
        <ele>465.5</ele>
        <time>2023-04-10T10:57:48Z</time>
      </trkpt>
      <trkpt lat="47.81699" lon="6.60329">
        <ele>465.7</ele>
        <time>2023-04-10T10:57:55Z</time>
      </trkpt>
      <trkpt lat="47.81707" lon="6.60323">
        <ele>466</ele>
        <time>2023-04-10T10:58:02Z</time>
      </trkpt>
      <trkpt lat="47.81715" lon="6.60317">
        <ele>466.3</ele>
        <time>2023-04-10T10:58:09Z</time>
      </trkpt>
      <trkpt lat="47.81724" lon="6.6031">
        <ele>466.6</ele>
        <time>2023-04-10T10:58:16Z</time>
      </trkpt>
      <trkpt lat="47.81732" lon="6.60305">
        <ele>467</ele>
        <time>2023-04-10T10:58:23Z</time>
      </trkpt>
      <trkpt lat="47.81741" lon="6.60296">
        <ele>467.5</ele>
        <time>2023-04-10T10:58:31Z</time>
      </trkpt>
      <trkpt lat="47.81749" lon="6.60288">
        <ele>468</ele>
        <time>2023-04-10T10:58:38Z</time>
      </trkpt>
      <trkpt lat="47.8175" lon="6.60274">
        <ele>468.1</ele>
        <time>2023-04-10T10:58:46Z</time>
      </trkpt>
      <trkpt lat="47.8175" lon="6.60273">
        <ele>468.1</ele>
        <time>2023-04-10T10:58:49Z</time>
      </trkpt>
      <trkpt lat="47.8175" lon="6.60273">
        <ele>468.1</ele>
        <time>2023-04-10T10:58:50Z</time>
      </trkpt>
      <trkpt lat="47.8175" lon="6.60271">
        <ele>468.2</ele>
        <time>2023-04-10T10:58:53Z</time>
      </trkpt>
      <trkpt lat="47.8175" lon="6.6027">
        <ele>468.2</ele>
        <time>2023-04-10T10:58:56Z</time>
      </trkpt>
      <trkpt lat="47.81748" lon="6.60261">
        <ele>468.3</ele>
        <time>2023-04-10T10:59:05Z</time>
      </trkpt>
      <trkpt lat="47.81748" lon="6.60261">
        <ele>468.3</ele>
        <time>2023-04-10T10:59:09Z</time>
      </trkpt>
      <trkpt lat="47.81745" lon="6.60248">
        <ele>468.4</ele>
        <time>2023-04-10T10:59:19Z</time>
      </trkpt>
      <trkpt lat="47.81742" lon="6.60233">
        <ele>468.6</ele>
        <time>2023-04-10T10:59:27Z</time>
      </trkpt>
      <trkpt lat="47.8174" lon="6.60219">
        <ele>469</ele>
        <time>2023-04-10T10:59:35Z</time>
      </trkpt>
      <trkpt lat="47.81739" lon="6.60204">
        <ele>469.3</ele>
        <time>2023-04-10T10:59:43Z</time>
      </trkpt>
      <trkpt lat="47.81739" lon="6.6019">
        <ele>469.7</ele>
        <time>2023-04-10T10:59:50Z</time>
      </trkpt>
      <trkpt lat="47.8174" lon="6.60177">
        <ele>470</ele>
        <time>2023-04-10T10:59:57Z</time>
      </trkpt>
      <trkpt lat="47.81741" lon="6.60163">
        <ele>470.4</ele>
        <time>2023-04-10T11:00:04Z</time>
      </trkpt>
      <trkpt lat="47.81746" lon="6.6015">
        <ele>470.8</ele>
        <time>2023-04-10T11:00:12Z</time>
      </trkpt>
      <trkpt lat="47.81752" lon="6.60139">
        <ele>471.1</ele>
        <time>2023-04-10T11:00:19Z</time>
      </trkpt>
      <trkpt lat="47.81758" lon="6.60127">
        <ele>471.6</ele>
        <time>2023-04-10T11:00:26Z</time>
      </trkpt>
      <trkpt lat="47.81764" lon="6.60115">
        <ele>472.2</ele>
        <time>2023-04-10T11:00:33Z</time>
      </trkpt>
      <trkpt lat="47.81769" lon="6.60102">
        <ele>473</ele>
        <time>2023-04-10T11:00:40Z</time>
      </trkpt>
      <trkpt lat="47.8177" lon="6.60087">
        <ele>473.6</ele>
        <time>2023-04-10T11:00:47Z</time>
      </trkpt>
      <trkpt lat="47.81766" lon="6.60074">
        <ele>474</ele>
        <time>2023-04-10T11:00:55Z</time>
      </trkpt>
      <trkpt lat="47.81762" lon="6.6006">
        <ele>474</ele>
        <time>2023-04-10T11:01:03Z</time>
      </trkpt>
      <trkpt lat="47.8176" lon="6.60047">
        <ele>473.6</ele>
        <time>2023-04-10T11:01:11Z</time>
      </trkpt>
      <trkpt lat="47.8176" lon="6.60033">
        <ele>473</ele>
        <time>2023-04-10T11:01:19Z</time>
      </trkpt>
      <trkpt lat="47.8176" lon="6.60019">
        <ele>472.3</ele>
        <time>2023-04-10T11:01:28Z</time>
      </trkpt>
      <trkpt lat="47.81762" lon="6.60005">
        <ele>471.6</ele>
        <time>2023-04-10T11:01:36Z</time>
      </trkpt>
      <trkpt lat="47.81762" lon="6.59991">
        <ele>471</ele>
        <time>2023-04-10T11:01:44Z</time>
      </trkpt>
      <trkpt lat="47.81764" lon="6.59977">
        <ele>470.6</ele>
        <time>2023-04-10T11:01:52Z</time>
      </trkpt>
      <trkpt lat="47.81765" lon="6.59961">
        <ele>470.4</ele>
        <time>2023-04-10T11:02:00Z</time>
      </trkpt>
      <trkpt lat="47.81768" lon="6.59947">
        <ele>470.2</ele>
        <time>2023-04-10T11:02:07Z</time>
      </trkpt>
      <trkpt lat="47.81771" lon="6.59934">
        <ele>470.1</ele>
        <time>2023-04-10T11:02:14Z</time>
      </trkpt>
      <trkpt lat="47.81774" lon="6.59921">
        <ele>470.1</ele>
        <time>2023-04-10T11:02:22Z</time>
      </trkpt>
      <trkpt lat="47.81778" lon="6.59908">
        <ele>470.2</ele>
        <time>2023-04-10T11:02:30Z</time>
      </trkpt>
      <trkpt lat="47.81782" lon="6.59895">
        <ele>470.4</ele>
        <time>2023-04-10T11:02:37Z</time>
      </trkpt>
      <trkpt lat="47.81785" lon="6.59881">
        <ele>470.7</ele>
        <time>2023-04-10T11:02:44Z</time>
      </trkpt>
      <trkpt lat="47.81788" lon="6.59866">
        <ele>471</ele>
        <time>2023-04-10T11:02:51Z</time>
      </trkpt>
      <trkpt lat="47.81789" lon="6.59852">
        <ele>471.2</ele>
        <time>2023-04-10T11:02:59Z</time>
      </trkpt>
      <trkpt lat="47.81786" lon="6.59838">
        <ele>471.3</ele>
        <time>2023-04-10T11:03:06Z</time>
      </trkpt>
      <trkpt lat="47.8178" lon="6.59827">
        <ele>471.2</ele>
        <time>2023-04-10T11:03:13Z</time>
      </trkpt>
      <trkpt lat="47.81772" lon="6.5982">
        <ele>471.2</ele>
        <time>2023-04-10T11:03:20Z</time>
      </trkpt>
      <trkpt lat="47.81763" lon="6.59814">
        <ele>471.1</ele>
        <time>2023-04-10T11:03:27Z</time>
      </trkpt>
      <trkpt lat="47.81754" lon="6.5981">
        <ele>471.1</ele>
        <time>2023-04-10T11:03:35Z</time>
      </trkpt>
      <trkpt lat="47.81745" lon="6.59806">
        <ele>471</ele>
        <time>2023-04-10T11:03:42Z</time>
      </trkpt>
      <trkpt lat="47.81736" lon="6.59803">
        <ele>471</ele>
        <time>2023-04-10T11:03:48Z</time>
      </trkpt>
      <trkpt lat="47.81727" lon="6.598">
        <ele>471.1</ele>
        <time>2023-04-10T11:03:54Z</time>
      </trkpt>
      <trkpt lat="47.81718" lon="6.59798">
        <ele>471.1</ele>
        <time>2023-04-10T11:04:01Z</time>
      </trkpt>
      <trkpt lat="47.81708" lon="6.59796">
        <ele>471</ele>
        <time>2023-04-10T11:04:07Z</time>
      </trkpt>
      <trkpt lat="47.81699" lon="6.59794">
        <ele>471</ele>
        <time>2023-04-10T11:04:13Z</time>
      </trkpt>
      <trkpt lat="47.81689" lon="6.5979">
        <ele>470.9</ele>
        <time>2023-04-10T11:04:21Z</time>
      </trkpt>
      <trkpt lat="47.8168" lon="6.59783">
        <ele>471</ele>
        <time>2023-04-10T11:04:29Z</time>
      </trkpt>
      <trkpt lat="47.81671" lon="6.59776">
        <ele>471.1</ele>
        <time>2023-04-10T11:04:37Z</time>
      </trkpt>
      <trkpt lat="47.81662" lon="6.59768">
        <ele>471.2</ele>
        <time>2023-04-10T11:04:44Z</time>
      </trkpt>
      <trkpt lat="47.81654" lon="6.5976">
        <ele>471.1</ele>
        <time>2023-04-10T11:04:53Z</time>
      </trkpt>
      <trkpt lat="47.81647" lon="6.5975">
        <ele>471</ele>
        <time>2023-04-10T11:05:01Z</time>
      </trkpt>
      <trkpt lat="47.81641" lon="6.5974">
        <ele>470.8</ele>
        <time>2023-04-10T11:05:08Z</time>
      </trkpt>
      <trkpt lat="47.81637" lon="6.59728">
        <ele>470.5</ele>
        <time>2023-04-10T11:05:15Z</time>
      </trkpt>
      <trkpt lat="47.81633" lon="6.59716">
        <ele>470.2</ele>
        <time>2023-04-10T11:05:22Z</time>
      </trkpt>
      <trkpt lat="47.81627" lon="6.59704">
        <ele>469.8</ele>
        <time>2023-04-10T11:05:29Z</time>
      </trkpt>
      <trkpt lat="47.81625" lon="6.59701">
        <ele>469.7</ele>
        <time>2023-04-10T11:05:34Z</time>
      </trkpt>
      <trkpt lat="47.81625" lon="6.59701">
        <ele>469.7</ele>
        <time>2023-04-10T11:05:39Z</time>
      </trkpt>
      <trkpt lat="47.8162" lon="6.59689">
        <ele>469.2</ele>
        <time>2023-04-10T11:05:49Z</time>
      </trkpt>
      <trkpt lat="47.81616" lon="6.59677">
        <ele>468.6</ele>
        <time>2023-04-10T11:06:00Z</time>
      </trkpt>
      <trkpt lat="47.81612" lon="6.59663">
        <ele>467.7</ele>
        <time>2023-04-10T11:06:09Z</time>
      </trkpt>
      <trkpt lat="47.8161" lon="6.59649">
        <ele>466.7</ele>
        <time>2023-04-10T11:06:16Z</time>
      </trkpt>
      <trkpt lat="47.81609" lon="6.59634">
        <ele>465.6</ele>
        <time>2023-04-10T11:06:24Z</time>
      </trkpt>
      <trkpt lat="47.81608" lon="6.59621">
        <ele>464.7</ele>
        <time>2023-04-10T11:06:31Z</time>
      </trkpt>
      <trkpt lat="47.81604" lon="6.59608">
        <ele>464.1</ele>
        <time>2023-04-10T11:06:38Z</time>
      </trkpt>
      <trkpt lat="47.81606" lon="6.59594">
        <ele>463.8</ele>
        <time>2023-04-10T11:06:46Z</time>
      </trkpt>
      <trkpt lat="47.81608" lon="6.59579">
        <ele>463.6</ele>
        <time>2023-04-10T11:06:54Z</time>
      </trkpt>
      <trkpt lat="47.81609" lon="6.59565">
        <ele>463.5</ele>
        <time>2023-04-10T11:07:00Z</time>
      </trkpt>
      <trkpt lat="47.81612" lon="6.59551">
        <ele>463.5</ele>
        <time>2023-04-10T11:07:08Z</time>
      </trkpt>
      <trkpt lat="47.81615" lon="6.59538">
        <ele>463.6</ele>
        <time>2023-04-10T11:07:15Z</time>
      </trkpt>
      <trkpt lat="47.81618" lon="6.59523">
        <ele>463.7</ele>
        <time>2023-04-10T11:07:20Z</time>
      </trkpt>
      <trkpt lat="47.81617" lon="6.59509">
        <ele>463.8</ele>
        <time>2023-04-10T11:07:29Z</time>
      </trkpt>
      <trkpt lat="47.81612" lon="6.59497">
        <ele>464</ele>
        <time>2023-04-10T11:07:37Z</time>
      </trkpt>
      <trkpt lat="47.81607" lon="6.59487">
        <ele>464.2</ele>
        <time>2023-04-10T11:07:44Z</time>
      </trkpt>
      <trkpt lat="47.81601" lon="6.59475">
        <ele>464.3</ele>
        <time>2023-04-10T11:07:52Z</time>
      </trkpt>
      <trkpt lat="47.81594" lon="6.59464">
        <ele>464.4</ele>
        <time>2023-04-10T11:08:00Z</time>
      </trkpt>
      <trkpt lat="47.81588" lon="6.59454">
        <ele>464.4</ele>
        <time>2023-04-10T11:08:08Z</time>
      </trkpt>
      <trkpt lat="47.8158" lon="6.59446">
        <ele>464.4</ele>
        <time>2023-04-10T11:08:15Z</time>
      </trkpt>
      <trkpt lat="47.81572" lon="6.5944">
        <ele>464.3</ele>
        <time>2023-04-10T11:08:23Z</time>
      </trkpt>
      <trkpt lat="47.81563" lon="6.59437">
        <ele>464.3</ele>
        <time>2023-04-10T11:08:30Z</time>
      </trkpt>
      <trkpt lat="47.81553" lon="6.59437">
        <ele>464.2</ele>
        <time>2023-04-10T11:08:37Z</time>
      </trkpt>
      <trkpt lat="47.81544" lon="6.59437">
        <ele>464.1</ele>
        <time>2023-04-10T11:08:45Z</time>
      </trkpt>
      <trkpt lat="47.81534" lon="6.59435">
        <ele>464</ele>
        <time>2023-04-10T11:08:52Z</time>
      </trkpt>
      <trkpt lat="47.81524" lon="6.59431">
        <ele>463.8</ele>
        <time>2023-04-10T11:08:59Z</time>
      </trkpt>
      <trkpt lat="47.81516" lon="6.59423">
        <ele>463.7</ele>
        <time>2023-04-10T11:09:07Z</time>
      </trkpt>
      <trkpt lat="47.81509" lon="6.59413">
        <ele>463.5</ele>
        <time>2023-04-10T11:09:15Z</time>
      </trkpt>
      <trkpt lat="47.81503" lon="6.59403">
        <ele>463.4</ele>
        <time>2023-04-10T11:09:22Z</time>
      </trkpt>
      <trkpt lat="47.81499" lon="6.5939">
        <ele>463.2</ele>
        <time>2023-04-10T11:09:31Z</time>
      </trkpt>
      <trkpt lat="47.81497" lon="6.59376">
        <ele>463</ele>
        <time>2023-04-10T11:09:39Z</time>
      </trkpt>
      <trkpt lat="47.81496" lon="6.59369">
        <ele>462.9</ele>
        <time>2023-04-10T11:09:45Z</time>
      </trkpt>
      <trkpt lat="47.81496" lon="6.5937">
        <ele>462.9</ele>
        <time>2023-04-10T11:09:46Z</time>
      </trkpt>
      <trkpt lat="47.81496" lon="6.5937">
        <ele>462.9</ele>
        <time>2023-04-10T11:09:47Z</time>
      </trkpt>
      <trkpt lat="47.81496" lon="6.5937">
        <ele>462.9</ele>
        <time>2023-04-10T11:09:50Z</time>
      </trkpt>
      <trkpt lat="47.81495" lon="6.59356">
        <ele>462.8</ele>
        <time>2023-04-10T11:09:58Z</time>
      </trkpt>
      <trkpt lat="47.81497" lon="6.59341">
        <ele>462.7</ele>
        <time>2023-04-10T11:10:05Z</time>
      </trkpt>
      <trkpt lat="47.81498" lon="6.59326">
        <ele>462.6</ele>
        <time>2023-04-10T11:10:11Z</time>
      </trkpt>
      <trkpt lat="47.81498" lon="6.59313">
        <ele>462.5</ele>
        <time>2023-04-10T11:10:17Z</time>
      </trkpt>
      <trkpt lat="47.81499" lon="6.59297">
        <ele>462.5</ele>
        <time>2023-04-10T11:10:24Z</time>
      </trkpt>
      <trkpt lat="47.81498" lon="6.59283">
        <ele>462.4</ele>
        <time>2023-04-10T11:10:31Z</time>
      </trkpt>
      <trkpt lat="47.81497" lon="6.59269">
        <ele>462.3</ele>
        <time>2023-04-10T11:10:38Z</time>
      </trkpt>
      <trkpt lat="47.81496" lon="6.59256">
        <ele>462.3</ele>
        <time>2023-04-10T11:10:44Z</time>
      </trkpt>
      <trkpt lat="47.81495" lon="6.59242">
        <ele>462.2</ele>
        <time>2023-04-10T11:10:51Z</time>
      </trkpt>
      <trkpt lat="47.81494" lon="6.59228">
        <ele>462.2</ele>
        <time>2023-04-10T11:10:59Z</time>
      </trkpt>
      <trkpt lat="47.81494" lon="6.59212">
        <ele>462.2</ele>
        <time>2023-04-10T11:11:06Z</time>
      </trkpt>
      <trkpt lat="47.81495" lon="6.59197">
        <ele>462.3</ele>
        <time>2023-04-10T11:11:14Z</time>
      </trkpt>
      <trkpt lat="47.81495" lon="6.59183">
        <ele>462.3</ele>
        <time>2023-04-10T11:11:21Z</time>
      </trkpt>
      <trkpt lat="47.81495" lon="6.59169">
        <ele>462.5</ele>
        <time>2023-04-10T11:11:28Z</time>
      </trkpt>
      <trkpt lat="47.81494" lon="6.59155">
        <ele>462.7</ele>
        <time>2023-04-10T11:11:35Z</time>
      </trkpt>
      <trkpt lat="47.81491" lon="6.5914">
        <ele>462.9</ele>
        <time>2023-04-10T11:11:44Z</time>
      </trkpt>
      <trkpt lat="47.81491" lon="6.59126">
        <ele>463.2</ele>
        <time>2023-04-10T11:11:51Z</time>
      </trkpt>
      <trkpt lat="47.81492" lon="6.59113">
        <ele>463.6</ele>
        <time>2023-04-10T11:11:59Z</time>
      </trkpt>
      <trkpt lat="47.81493" lon="6.59098">
        <ele>464.1</ele>
        <time>2023-04-10T11:12:06Z</time>
      </trkpt>
      <trkpt lat="47.81494" lon="6.59083">
        <ele>464.7</ele>
        <time>2023-04-10T11:12:13Z</time>
      </trkpt>
      <trkpt lat="47.81495" lon="6.59068">
        <ele>465.4</ele>
        <time>2023-04-10T11:12:20Z</time>
      </trkpt>
      <trkpt lat="47.81494" lon="6.59054">
        <ele>466.2</ele>
        <time>2023-04-10T11:12:28Z</time>
      </trkpt>
      <trkpt lat="47.81494" lon="6.59039">
        <ele>467.1</ele>
        <time>2023-04-10T11:12:36Z</time>
      </trkpt>
      <trkpt lat="47.81499" lon="6.59025">
        <ele>468.1</ele>
        <time>2023-04-10T11:12:43Z</time>
      </trkpt>
      <trkpt lat="47.81506" lon="6.59014">
        <ele>468.9</ele>
        <time>2023-04-10T11:12:51Z</time>
      </trkpt>
      <trkpt lat="47.81513" lon="6.59005">
        <ele>469.4</ele>
        <time>2023-04-10T11:12:58Z</time>
      </trkpt>
      <trkpt lat="47.81517" lon="6.58992">
        <ele>469.6</ele>
        <time>2023-04-10T11:13:06Z</time>
      </trkpt>
      <trkpt lat="47.81521" lon="6.58978">
        <ele>469.3</ele>
        <time>2023-04-10T11:13:15Z</time>
      </trkpt>
      <trkpt lat="47.81522" lon="6.58965">
        <ele>468.8</ele>
        <time>2023-04-10T11:13:22Z</time>
      </trkpt>
      <trkpt lat="47.81523" lon="6.58957">
        <ele>468.5</ele>
        <time>2023-04-10T11:13:29Z</time>
      </trkpt>
      <trkpt lat="47.81523" lon="6.58955">
        <ele>468.4</ele>
        <time>2023-04-10T11:13:30Z</time>
      </trkpt>
      <trkpt lat="47.81525" lon="6.58942">
        <ele>467.9</ele>
        <time>2023-04-10T11:13:36Z</time>
      </trkpt>
      <trkpt lat="47.81528" lon="6.58928">
        <ele>467.5</ele>
        <time>2023-04-10T11:13:43Z</time>
      </trkpt>
      <trkpt lat="47.81531" lon="6.58915">
        <ele>467.3</ele>
        <time>2023-04-10T11:13:49Z</time>
      </trkpt>
      <trkpt lat="47.81533" lon="6.589">
        <ele>467.5</ele>
        <time>2023-04-10T11:13:56Z</time>
      </trkpt>
      <trkpt lat="47.81535" lon="6.58885">
        <ele>467.8</ele>
        <time>2023-04-10T11:14:03Z</time>
      </trkpt>
      <trkpt lat="47.81541" lon="6.58872">
        <ele>468.2</ele>
        <time>2023-04-10T11:14:10Z</time>
      </trkpt>
      <trkpt lat="47.81546" lon="6.58861">
        <ele>468.2</ele>
        <time>2023-04-10T11:14:17Z</time>
      </trkpt>
      <trkpt lat="47.81552" lon="6.58851">
        <ele>468</ele>
        <time>2023-04-10T11:14:24Z</time>
      </trkpt>
      <trkpt lat="47.81558" lon="6.5884">
        <ele>467.9</ele>
        <time>2023-04-10T11:14:31Z</time>
      </trkpt>
      <trkpt lat="47.8156" lon="6.58829">
        <ele>467.8</ele>
        <time>2023-04-10T11:14:39Z</time>
      </trkpt>
      <trkpt lat="47.8156" lon="6.58828">
        <ele>467.8</ele>
        <time>2023-04-10T11:14:40Z</time>
      </trkpt>
      <trkpt lat="47.81561" lon="6.58813">
        <ele>468</ele>
        <time>2023-04-10T11:14:46Z</time>
      </trkpt>
      <trkpt lat="47.81562" lon="6.58799">
        <ele>468.4</ele>
        <time>2023-04-10T11:14:52Z</time>
      </trkpt>
      <trkpt lat="47.81562" lon="6.58784">
        <ele>469</ele>
        <time>2023-04-10T11:14:59Z</time>
      </trkpt>
      <trkpt lat="47.81561" lon="6.58769">
        <ele>469.5</ele>
        <time>2023-04-10T11:15:07Z</time>
      </trkpt>
      <trkpt lat="47.8156" lon="6.58755">
        <ele>469.8</ele>
        <time>2023-04-10T11:15:14Z</time>
      </trkpt>
      <trkpt lat="47.81559" lon="6.58741">
        <ele>470</ele>
        <time>2023-04-10T11:15:21Z</time>
      </trkpt>
      <trkpt lat="47.81558" lon="6.58727">
        <ele>470.1</ele>
        <time>2023-04-10T11:15:28Z</time>
      </trkpt>
      <trkpt lat="47.81557" lon="6.58713">
        <ele>470.1</ele>
        <time>2023-04-10T11:15:35Z</time>
      </trkpt>
      <trkpt lat="47.81556" lon="6.58699">
        <ele>470</ele>
        <time>2023-04-10T11:15:42Z</time>
      </trkpt>
      <trkpt lat="47.81556" lon="6.58685">
        <ele>469.7</ele>
        <time>2023-04-10T11:15:50Z</time>
      </trkpt>
      <trkpt lat="47.81556" lon="6.58671">
        <ele>469.4</ele>
        <time>2023-04-10T11:15:57Z</time>
      </trkpt>
      <trkpt lat="47.81558" lon="6.58656">
        <ele>469.1</ele>
        <time>2023-04-10T11:16:04Z</time>
      </trkpt>
      <trkpt lat="47.81562" lon="6.58642">
        <ele>468.9</ele>
        <time>2023-04-10T11:16:11Z</time>
      </trkpt>
      <trkpt lat="47.81566" lon="6.58629">
        <ele>468.9</ele>
        <time>2023-04-10T11:16:18Z</time>
      </trkpt>
      <trkpt lat="47.8157" lon="6.58617">
        <ele>468.9</ele>
        <time>2023-04-10T11:16:25Z</time>
      </trkpt>
      <trkpt lat="47.81575" lon="6.58605">
        <ele>468.9</ele>
        <time>2023-04-10T11:16:33Z</time>
      </trkpt>
      <trkpt lat="47.81582" lon="6.58594">
        <ele>468.9</ele>
        <time>2023-04-10T11:16:41Z</time>
      </trkpt>
      <trkpt lat="47.81588" lon="6.58581">
        <ele>468.8</ele>
        <time>2023-04-10T11:16:49Z</time>
      </trkpt>
      <trkpt lat="47.81594" lon="6.58571">
        <ele>468.9</ele>
        <time>2023-04-10T11:16:56Z</time>
      </trkpt>
      <trkpt lat="47.81599" lon="6.58559">
        <ele>468.9</ele>
        <time>2023-04-10T11:17:04Z</time>
      </trkpt>
      <trkpt lat="47.81603" lon="6.58545">
        <ele>468.9</ele>
        <time>2023-04-10T11:17:12Z</time>
      </trkpt>
      <trkpt lat="47.81605" lon="6.58532">
        <ele>468.9</ele>
        <time>2023-04-10T11:17:20Z</time>
      </trkpt>
      <trkpt lat="47.81606" lon="6.58517">
        <ele>468.9</ele>
        <time>2023-04-10T11:17:28Z</time>
      </trkpt>
      <trkpt lat="47.81606" lon="6.58503">
        <ele>468.9</ele>
        <time>2023-04-10T11:17:37Z</time>
      </trkpt>
      <trkpt lat="47.81607" lon="6.58487">
        <ele>468.9</ele>
        <time>2023-04-10T11:17:45Z</time>
      </trkpt>
      <trkpt lat="47.81607" lon="6.58472">
        <ele>468.9</ele>
        <time>2023-04-10T11:17:52Z</time>
      </trkpt>
      <trkpt lat="47.81606" lon="6.58457">
        <ele>468.9</ele>
        <time>2023-04-10T11:17:59Z</time>
      </trkpt>
      <trkpt lat="47.81602" lon="6.58444">
        <ele>468.9</ele>
        <time>2023-04-10T11:18:06Z</time>
      </trkpt>
      <trkpt lat="47.81595" lon="6.58433">
        <ele>468.9</ele>
        <time>2023-04-10T11:18:13Z</time>
      </trkpt>
      <trkpt lat="47.81588" lon="6.58425">
        <ele>468.9</ele>
        <time>2023-04-10T11:18:20Z</time>
      </trkpt>
      <trkpt lat="47.81579" lon="6.58418">
        <ele>468.9</ele>
        <time>2023-04-10T11:18:27Z</time>
      </trkpt>
      <trkpt lat="47.81571" lon="6.58412">
        <ele>468.9</ele>
        <time>2023-04-10T11:18:34Z</time>
      </trkpt>
      <trkpt lat="47.81562" lon="6.58406">
        <ele>469</ele>
        <time>2023-04-10T11:18:41Z</time>
      </trkpt>
      <trkpt lat="47.81553" lon="6.58399">
        <ele>469.2</ele>
        <time>2023-04-10T11:18:49Z</time>
      </trkpt>
      <trkpt lat="47.81546" lon="6.58389">
        <ele>469.8</ele>
        <time>2023-04-10T11:18:57Z</time>
      </trkpt>
      <trkpt lat="47.81542" lon="6.58375">
        <ele>470.4</ele>
        <time>2023-04-10T11:19:04Z</time>
      </trkpt>
      <trkpt lat="47.8154" lon="6.58361">
        <ele>471.2</ele>
        <time>2023-04-10T11:19:12Z</time>
      </trkpt>
      <trkpt lat="47.81539" lon="6.58348">
        <ele>471.9</ele>
        <time>2023-04-10T11:19:19Z</time>
      </trkpt>
      <trkpt lat="47.81536" lon="6.58333">
        <ele>472.5</ele>
        <time>2023-04-10T11:19:26Z</time>
      </trkpt>
      <trkpt lat="47.81532" lon="6.58319">
        <ele>473</ele>
        <time>2023-04-10T11:19:33Z</time>
      </trkpt>
      <trkpt lat="47.81529" lon="6.58306">
        <ele>473.4</ele>
        <time>2023-04-10T11:19:40Z</time>
      </trkpt>
      <trkpt lat="47.81526" lon="6.58292">
        <ele>473.8</ele>
        <time>2023-04-10T11:19:47Z</time>
      </trkpt>
      <trkpt lat="47.81526" lon="6.58278">
        <ele>474.4</ele>
        <time>2023-04-10T11:19:55Z</time>
      </trkpt>
      <trkpt lat="47.81527" lon="6.58263">
        <ele>474.9</ele>
        <time>2023-04-10T11:20:02Z</time>
      </trkpt>
      <trkpt lat="47.81527" lon="6.5825">
        <ele>475.4</ele>
        <time>2023-04-10T11:20:09Z</time>
      </trkpt>
      <trkpt lat="47.81529" lon="6.58236">
        <ele>475.8</ele>
        <time>2023-04-10T11:20:16Z</time>
      </trkpt>
      <trkpt lat="47.81531" lon="6.58223">
        <ele>476.3</ele>
        <time>2023-04-10T11:20:23Z</time>
      </trkpt>
      <trkpt lat="47.81532" lon="6.58208">
        <ele>476.7</ele>
        <time>2023-04-10T11:20:32Z</time>
      </trkpt>
      <trkpt lat="47.81527" lon="6.58196">
        <ele>477.1</ele>
        <time>2023-04-10T11:20:40Z</time>
      </trkpt>
      <trkpt lat="47.81523" lon="6.58184">
        <ele>477.6</ele>
        <time>2023-04-10T11:20:48Z</time>
      </trkpt>
      <trkpt lat="47.81519" lon="6.58171">
        <ele>478.2</ele>
        <time>2023-04-10T11:20:56Z</time>
      </trkpt>
      <trkpt lat="47.81516" lon="6.58156">
        <ele>478.8</ele>
        <time>2023-04-10T11:21:05Z</time>
      </trkpt>
      <trkpt lat="47.81512" lon="6.58143">
        <ele>479.3</ele>
        <time>2023-04-10T11:21:13Z</time>
      </trkpt>
      <trkpt lat="47.8151" lon="6.58129">
        <ele>479.8</ele>
        <time>2023-04-10T11:21:21Z</time>
      </trkpt>
      <trkpt lat="47.81505" lon="6.58116">
        <ele>480.4</ele>
        <time>2023-04-10T11:21:29Z</time>
      </trkpt>
      <trkpt lat="47.81501" lon="6.58102">
        <ele>480.9</ele>
        <time>2023-04-10T11:21:37Z</time>
      </trkpt>
      <trkpt lat="47.81496" lon="6.58089">
        <ele>481.3</ele>
        <time>2023-04-10T11:21:45Z</time>
      </trkpt>
      <trkpt lat="47.81492" lon="6.58076">
        <ele>481.7</ele>
        <time>2023-04-10T11:21:53Z</time>
      </trkpt>
      <trkpt lat="47.81488" lon="6.58062">
        <ele>481.9</ele>
        <time>2023-04-10T11:22:01Z</time>
      </trkpt>
      <trkpt lat="47.81485" lon="6.58049">
        <ele>482.1</ele>
        <time>2023-04-10T11:22:09Z</time>
      </trkpt>
      <trkpt lat="47.81482" lon="6.58034">
        <ele>482.2</ele>
        <time>2023-04-10T11:22:18Z</time>
      </trkpt>
      <trkpt lat="47.8148" lon="6.58021">
        <ele>482.2</ele>
        <time>2023-04-10T11:22:26Z</time>
      </trkpt>
      <trkpt lat="47.81478" lon="6.58007">
        <ele>482.3</ele>
        <time>2023-04-10T11:22:34Z</time>
      </trkpt>
      <trkpt lat="47.81478" lon="6.57993">
        <ele>482.3</ele>
        <time>2023-04-10T11:22:42Z</time>
      </trkpt>
      <trkpt lat="47.81477" lon="6.57979">
        <ele>482.3</ele>
        <time>2023-04-10T11:22:51Z</time>
      </trkpt>
      <trkpt lat="47.81476" lon="6.57965">
        <ele>482.2</ele>
        <time>2023-04-10T11:22:59Z</time>
      </trkpt>
      <trkpt lat="47.81476" lon="6.57951">
        <ele>482.2</ele>
        <time>2023-04-10T11:23:07Z</time>
      </trkpt>
      <trkpt lat="47.81475" lon="6.57937">
        <ele>482</ele>
        <time>2023-04-10T11:23:15Z</time>
      </trkpt>
      <trkpt lat="47.81476" lon="6.57923">
        <ele>481.8</ele>
        <time>2023-04-10T11:23:23Z</time>
      </trkpt>
      <trkpt lat="47.81476" lon="6.5791">
        <ele>481.6</ele>
        <time>2023-04-10T11:23:30Z</time>
      </trkpt>
      <trkpt lat="47.81475" lon="6.57895">
        <ele>481.4</ele>
        <time>2023-04-10T11:23:38Z</time>
      </trkpt>
      <trkpt lat="47.81475" lon="6.57881">
        <ele>481.2</ele>
        <time>2023-04-10T11:23:47Z</time>
      </trkpt>
      <trkpt lat="47.81475" lon="6.57867">
        <ele>481.1</ele>
        <time>2023-04-10T11:23:55Z</time>
      </trkpt>
      <trkpt lat="47.81475" lon="6.57854">
        <ele>480.9</ele>
        <time>2023-04-10T11:24:02Z</time>
      </trkpt>
      <trkpt lat="47.81476" lon="6.5784">
        <ele>480.8</ele>
        <time>2023-04-10T11:24:09Z</time>
      </trkpt>
      <trkpt lat="47.81475" lon="6.57826">
        <ele>480.6</ele>
        <time>2023-04-10T11:24:16Z</time>
      </trkpt>
      <trkpt lat="47.81474" lon="6.57811">
        <ele>480.5</ele>
        <time>2023-04-10T11:24:24Z</time>
      </trkpt>
      <trkpt lat="47.8147" lon="6.57797">
        <ele>480.5</ele>
        <time>2023-04-10T11:24:31Z</time>
      </trkpt>
      <trkpt lat="47.81466" lon="6.57784">
        <ele>480.5</ele>
        <time>2023-04-10T11:24:39Z</time>
      </trkpt>
      <trkpt lat="47.81462" lon="6.5777">
        <ele>480.4</ele>
        <time>2023-04-10T11:24:48Z</time>
      </trkpt>
      <trkpt lat="47.8146" lon="6.57757">
        <ele>480.4</ele>
        <time>2023-04-10T11:24:57Z</time>
      </trkpt>
      <trkpt lat="47.81459" lon="6.57743">
        <ele>480.3</ele>
        <time>2023-04-10T11:25:06Z</time>
      </trkpt>
      <trkpt lat="47.8146" lon="6.57728">
        <ele>480.3</ele>
        <time>2023-04-10T11:25:13Z</time>
      </trkpt>
      <trkpt lat="47.8146" lon="6.57713">
        <ele>480.3</ele>
        <time>2023-04-10T11:25:22Z</time>
      </trkpt>
      <trkpt lat="47.81462" lon="6.57699">
        <ele>480.3</ele>
        <time>2023-04-10T11:25:30Z</time>
      </trkpt>
      <trkpt lat="47.81464" lon="6.57684">
        <ele>480.5</ele>
        <time>2023-04-10T11:25:38Z</time>
      </trkpt>
      <trkpt lat="47.81466" lon="6.5767">
        <ele>480.7</ele>
        <time>2023-04-10T11:25:45Z</time>
      </trkpt>
      <trkpt lat="47.81467" lon="6.57656">
        <ele>481</ele>
        <time>2023-04-10T11:25:53Z</time>
      </trkpt>
      <trkpt lat="47.81467" lon="6.57642">
        <ele>481.3</ele>
        <time>2023-04-10T11:26:01Z</time>
      </trkpt>
      <trkpt lat="47.81468" lon="6.57628">
        <ele>481.5</ele>
        <time>2023-04-10T11:26:09Z</time>
      </trkpt>
      <trkpt lat="47.81467" lon="6.57614">
        <ele>481.6</ele>
        <time>2023-04-10T11:26:18Z</time>
      </trkpt>
      <trkpt lat="47.81465" lon="6.576">
        <ele>481.7</ele>
        <time>2023-04-10T11:26:27Z</time>
      </trkpt>
      <trkpt lat="47.81462" lon="6.57586">
        <ele>481.6</ele>
        <time>2023-04-10T11:26:35Z</time>
      </trkpt>
      <trkpt lat="47.81459" lon="6.57573">
        <ele>481.4</ele>
        <time>2023-04-10T11:26:43Z</time>
      </trkpt>
      <trkpt lat="47.81456" lon="6.5756">
        <ele>481.2</ele>
        <time>2023-04-10T11:26:50Z</time>
      </trkpt>
      <trkpt lat="47.81452" lon="6.57546">
        <ele>481.1</ele>
        <time>2023-04-10T11:26:58Z</time>
      </trkpt>
      <trkpt lat="47.81448" lon="6.57533">
        <ele>480.9</ele>
        <time>2023-04-10T11:27:06Z</time>
      </trkpt>
      <trkpt lat="47.81444" lon="6.5752">
        <ele>480.8</ele>
        <time>2023-04-10T11:27:15Z</time>
      </trkpt>
      <trkpt lat="47.81439" lon="6.57508">
        <ele>480.7</ele>
        <time>2023-04-10T11:27:24Z</time>
      </trkpt>
      <trkpt lat="47.81435" lon="6.57495">
        <ele>480.6</ele>
        <time>2023-04-10T11:27:33Z</time>
      </trkpt>
      <trkpt lat="47.8143" lon="6.57482">
        <ele>480.6</ele>
        <time>2023-04-10T11:27:43Z</time>
      </trkpt>
      <trkpt lat="47.81425" lon="6.57471">
        <ele>480.5</ele>
        <time>2023-04-10T11:27:51Z</time>
      </trkpt>
      <trkpt lat="47.8142" lon="6.57459">
        <ele>480.3</ele>
        <time>2023-04-10T11:27:59Z</time>
      </trkpt>
      <trkpt lat="47.81416" lon="6.57446">
        <ele>480.2</ele>
        <time>2023-04-10T11:28:07Z</time>
      </trkpt>
      <trkpt lat="47.81411" lon="6.57434">
        <ele>479.9</ele>
        <time>2023-04-10T11:28:16Z</time>
      </trkpt>
      <trkpt lat="47.81408" lon="6.5742">
        <ele>479.7</ele>
        <time>2023-04-10T11:28:24Z</time>
      </trkpt>
      <trkpt lat="47.81407" lon="6.57406">
        <ele>479.6</ele>
        <time>2023-04-10T11:28:31Z</time>
      </trkpt>
      <trkpt lat="47.81405" lon="6.57392">
        <ele>479.4</ele>
        <time>2023-04-10T11:28:39Z</time>
      </trkpt>
      <trkpt lat="47.81404" lon="6.57377">
        <ele>479.3</ele>
        <time>2023-04-10T11:28:48Z</time>
      </trkpt>
      <trkpt lat="47.81402" lon="6.57363">
        <ele>479.2</ele>
        <time>2023-04-10T11:28:57Z</time>
      </trkpt>
      <trkpt lat="47.81399" lon="6.5735">
        <ele>479.1</ele>
        <time>2023-04-10T11:29:05Z</time>
      </trkpt>
      <trkpt lat="47.81395" lon="6.57336">
        <ele>479.1</ele>
        <time>2023-04-10T11:29:15Z</time>
      </trkpt>
      <trkpt lat="47.81394" lon="6.57322">
        <ele>479</ele>
        <time>2023-04-10T11:29:22Z</time>
      </trkpt>
      <trkpt lat="47.81392" lon="6.57309">
        <ele>478.9</ele>
        <time>2023-04-10T11:29:29Z</time>
      </trkpt>
      <trkpt lat="47.81389" lon="6.57295">
        <ele>478.8</ele>
        <time>2023-04-10T11:29:37Z</time>
      </trkpt>
      <trkpt lat="47.81386" lon="6.57282">
        <ele>478.9</ele>
        <time>2023-04-10T11:29:44Z</time>
      </trkpt>
      <trkpt lat="47.81381" lon="6.5727">
        <ele>479</ele>
        <time>2023-04-10T11:29:52Z</time>
      </trkpt>
      <trkpt lat="47.81375" lon="6.57258">
        <ele>479.1</ele>
        <time>2023-04-10T11:30:01Z</time>
      </trkpt>
      <trkpt lat="47.8137" lon="6.57245">
        <ele>479.1</ele>
        <time>2023-04-10T11:30:10Z</time>
      </trkpt>
      <trkpt lat="47.81367" lon="6.57231">
        <ele>479</ele>
        <time>2023-04-10T11:30:18Z</time>
      </trkpt>
      <trkpt lat="47.81365" lon="6.57217">
        <ele>478.8</ele>
        <time>2023-04-10T11:30:26Z</time>
      </trkpt>
      <trkpt lat="47.81361" lon="6.57204">
        <ele>478.6</ele>
        <time>2023-04-10T11:30:35Z</time>
      </trkpt>
      <trkpt lat="47.81359" lon="6.5719">
        <ele>478.3</ele>
        <time>2023-04-10T11:30:43Z</time>
      </trkpt>
      <trkpt lat="47.81356" lon="6.57176">
        <ele>477.9</ele>
        <time>2023-04-10T11:30:51Z</time>
      </trkpt>
      <trkpt lat="47.81352" lon="6.57163">
        <ele>477.4</ele>
        <time>2023-04-10T11:30:58Z</time>
      </trkpt>
      <trkpt lat="47.81348" lon="6.57149">
        <ele>476.9</ele>
        <time>2023-04-10T11:31:06Z</time>
      </trkpt>
      <trkpt lat="47.81341" lon="6.57139">
        <ele>476.4</ele>
        <time>2023-04-10T11:31:14Z</time>
      </trkpt>
      <trkpt lat="47.81333" lon="6.57132">
        <ele>475.9</ele>
        <time>2023-04-10T11:31:23Z</time>
      </trkpt>
      <trkpt lat="47.81324" lon="6.57124">
        <ele>475.4</ele>
        <time>2023-04-10T11:31:32Z</time>
      </trkpt>
      <trkpt lat="47.81317" lon="6.57115">
        <ele>475</ele>
        <time>2023-04-10T11:31:39Z</time>
      </trkpt>
      <trkpt lat="47.81313" lon="6.57109">
        <ele>474.8</ele>
        <time>2023-04-10T11:31:45Z</time>
      </trkpt>
      <trkpt lat="47.81313" lon="6.57108">
        <ele>474.8</ele>
        <time>2023-04-10T11:31:50Z</time>
      </trkpt>
      <trkpt lat="47.81307" lon="6.57097">
        <ele>474.5</ele>
        <time>2023-04-10T11:31:59Z</time>
      </trkpt>
      <trkpt lat="47.81301" lon="6.57085">
        <ele>474.3</ele>
        <time>2023-04-10T11:32:08Z</time>
      </trkpt>
      <trkpt lat="47.81297" lon="6.57073">
        <ele>474.2</ele>
        <time>2023-04-10T11:32:15Z</time>
      </trkpt>
      <trkpt lat="47.81291" lon="6.57061">
        <ele>474</ele>
        <time>2023-04-10T11:32:22Z</time>
      </trkpt>
      <trkpt lat="47.81284" lon="6.57051">
        <ele>473.9</ele>
        <time>2023-04-10T11:32:29Z</time>
      </trkpt>
      <trkpt lat="47.81276" lon="6.57045">
        <ele>473.9</ele>
        <time>2023-04-10T11:32:36Z</time>
      </trkpt>
      <trkpt lat="47.81267" lon="6.57039">
        <ele>473.8</ele>
        <time>2023-04-10T11:32:44Z</time>
      </trkpt>
      <trkpt lat="47.81258" lon="6.57033">
        <ele>473.8</ele>
        <time>2023-04-10T11:32:52Z</time>
      </trkpt>
      <trkpt lat="47.81249" lon="6.57029">
        <ele>473.7</ele>
        <time>2023-04-10T11:33:00Z</time>
      </trkpt>
      <trkpt lat="47.8124" lon="6.57027">
        <ele>473.6</ele>
        <time>2023-04-10T11:33:07Z</time>
      </trkpt>
      <trkpt lat="47.8123" lon="6.57026">
        <ele>473.5</ele>
        <time>2023-04-10T11:33:14Z</time>
      </trkpt>
      <trkpt lat="47.8122" lon="6.57025">
        <ele>473.5</ele>
        <time>2023-04-10T11:33:22Z</time>
      </trkpt>
      <trkpt lat="47.81211" lon="6.57025">
        <ele>473.3</ele>
        <time>2023-04-10T11:33:30Z</time>
      </trkpt>
      <trkpt lat="47.81202" lon="6.57021">
        <ele>473</ele>
        <time>2023-04-10T11:33:38Z</time>
      </trkpt>
      <trkpt lat="47.81194" lon="6.57015">
        <ele>472.7</ele>
        <time>2023-04-10T11:33:46Z</time>
      </trkpt>
      <trkpt lat="47.81185" lon="6.5701">
        <ele>472.4</ele>
        <time>2023-04-10T11:33:54Z</time>
      </trkpt>
      <trkpt lat="47.81175" lon="6.57005">
        <ele>472.1</ele>
        <time>2023-04-10T11:34:02Z</time>
      </trkpt>
      <trkpt lat="47.81166" lon="6.57001">
        <ele>471.9</ele>
        <time>2023-04-10T11:34:11Z</time>
      </trkpt>
      <trkpt lat="47.81157" lon="6.56998">
        <ele>471.8</ele>
        <time>2023-04-10T11:34:19Z</time>
      </trkpt>
      <trkpt lat="47.81147" lon="6.56995">
        <ele>471.7</ele>
        <time>2023-04-10T11:34:27Z</time>
      </trkpt>
      <trkpt lat="47.81138" lon="6.56991">
        <ele>471.6</ele>
        <time>2023-04-10T11:34:35Z</time>
      </trkpt>
      <trkpt lat="47.81129" lon="6.56987">
        <ele>471.5</ele>
        <time>2023-04-10T11:34:42Z</time>
      </trkpt>
      <trkpt lat="47.8112" lon="6.56983">
        <ele>471.4</ele>
        <time>2023-04-10T11:34:50Z</time>
      </trkpt>
      <trkpt lat="47.81111" lon="6.56978">
        <ele>471.3</ele>
        <time>2023-04-10T11:34:59Z</time>
      </trkpt>
      <trkpt lat="47.81102" lon="6.56976">
        <ele>471.3</ele>
        <time>2023-04-10T11:35:06Z</time>
      </trkpt>
      <trkpt lat="47.81093" lon="6.56973">
        <ele>471.4</ele>
        <time>2023-04-10T11:35:14Z</time>
      </trkpt>
      <trkpt lat="47.81092" lon="6.56973">
        <ele>471.4</ele>
        <time>2023-04-10T11:35:16Z</time>
      </trkpt>
      <trkpt lat="47.81092" lon="6.56973">
        <ele>471.4</ele>
        <time>2023-04-10T11:35:17Z</time>
      </trkpt>
      <trkpt lat="47.81092" lon="6.56973">
        <ele>471.4</ele>
        <time>2023-04-10T11:35:18Z</time>
      </trkpt>
      <trkpt lat="47.81091" lon="6.56973">
        <ele>471.4</ele>
        <time>2023-04-10T11:35:19Z</time>
      </trkpt>
      <trkpt lat="47.81082" lon="6.56971">
        <ele>471.5</ele>
        <time>2023-04-10T11:35:30Z</time>
      </trkpt>
      <trkpt lat="47.81073" lon="6.56966">
        <ele>471.5</ele>
        <time>2023-04-10T11:35:38Z</time>
      </trkpt>
      <trkpt lat="47.81065" lon="6.56962">
        <ele>471.5</ele>
        <time>2023-04-10T11:35:45Z</time>
      </trkpt>
      <trkpt lat="47.81056" lon="6.56956">
        <ele>471.4</ele>
        <time>2023-04-10T11:35:53Z</time>
      </trkpt>
      <trkpt lat="47.81047" lon="6.56949">
        <ele>471.4</ele>
        <time>2023-04-10T11:36:01Z</time>
      </trkpt>
      <trkpt lat="47.81039" lon="6.56938">
        <ele>471.4</ele>
        <time>2023-04-10T11:36:09Z</time>
      </trkpt>
      <trkpt lat="47.81034" lon="6.56927">
        <ele>471.4</ele>
        <time>2023-04-10T11:36:16Z</time>
      </trkpt>
      <trkpt lat="47.8103" lon="6.56914">
        <ele>471.3</ele>
        <time>2023-04-10T11:36:27Z</time>
      </trkpt>
      <trkpt lat="47.81026" lon="6.56901">
        <ele>471.3</ele>
        <time>2023-04-10T11:36:35Z</time>
      </trkpt>
      <trkpt lat="47.81022" lon="6.56887">
        <ele>471.3</ele>
        <time>2023-04-10T11:36:44Z</time>
      </trkpt>
      <trkpt lat="47.81017" lon="6.56876">
        <ele>471.3</ele>
        <time>2023-04-10T11:36:52Z</time>
      </trkpt>
      <trkpt lat="47.8101" lon="6.56867">
        <ele>471.4</ele>
        <time>2023-04-10T11:37:00Z</time>
      </trkpt>
      <trkpt lat="47.81002" lon="6.56859">
        <ele>471.5</ele>
        <time>2023-04-10T11:37:09Z</time>
      </trkpt>
      <trkpt lat="47.80992" lon="6.56858">
        <ele>471.7</ele>
        <time>2023-04-10T11:37:18Z</time>
      </trkpt>
      <trkpt lat="47.80983" lon="6.56859">
        <ele>471.9</ele>
        <time>2023-04-10T11:37:26Z</time>
      </trkpt>
      <trkpt lat="47.80974" lon="6.5686">
        <ele>472</ele>
        <time>2023-04-10T11:37:35Z</time>
      </trkpt>
      <trkpt lat="47.80964" lon="6.56858">
        <ele>472.1</ele>
        <time>2023-04-10T11:37:42Z</time>
      </trkpt>
      <trkpt lat="47.80955" lon="6.56855">
        <ele>472.3</ele>
        <time>2023-04-10T11:37:48Z</time>
      </trkpt>
      <trkpt lat="47.80947" lon="6.56849">
        <ele>472.7</ele>
        <time>2023-04-10T11:37:54Z</time>
      </trkpt>
      <trkpt lat="47.8094" lon="6.56839">
        <ele>473</ele>
        <time>2023-04-10T11:38:02Z</time>
      </trkpt>
      <trkpt lat="47.80938" lon="6.56825">
        <ele>473.4</ele>
        <time>2023-04-10T11:38:10Z</time>
      </trkpt>
      <trkpt lat="47.8094" lon="6.56811">
        <ele>473.8</ele>
        <time>2023-04-10T11:38:18Z</time>
      </trkpt>
      <trkpt lat="47.80944" lon="6.56799">
        <ele>474.2</ele>
        <time>2023-04-10T11:38:25Z</time>
      </trkpt>
      <trkpt lat="47.80947" lon="6.56786">
        <ele>474.6</ele>
        <time>2023-04-10T11:38:33Z</time>
      </trkpt>
      <trkpt lat="47.80948" lon="6.56772">
        <ele>475.1</ele>
        <time>2023-04-10T11:38:42Z</time>
      </trkpt>
      <trkpt lat="47.80948" lon="6.56757">
        <ele>475.7</ele>
        <time>2023-04-10T11:38:51Z</time>
      </trkpt>
      <trkpt lat="47.80947" lon="6.56748">
        <ele>476.1</ele>
        <time>2023-04-10T11:38:58Z</time>
      </trkpt>
      <trkpt lat="47.80947" lon="6.56747">
        <ele>476.2</ele>
        <time>2023-04-10T11:39:00Z</time>
      </trkpt>
      <trkpt lat="47.80948" lon="6.56747">
        <ele>476.2</ele>
        <time>2023-04-10T11:39:02Z</time>
      </trkpt>
      <trkpt lat="47.80947" lon="6.56746">
        <ele>476.2</ele>
        <time>2023-04-10T11:39:03Z</time>
      </trkpt>
      <trkpt lat="47.80944" lon="6.56732">
        <ele>477</ele>
        <time>2023-04-10T11:39:12Z</time>
      </trkpt>
      <trkpt lat="47.80942" lon="6.56718">
        <ele>477.8</ele>
        <time>2023-04-10T11:39:21Z</time>
      </trkpt>
      <trkpt lat="47.80942" lon="6.56716">
        <ele>478</ele>
        <time>2023-04-10T11:39:25Z</time>
      </trkpt>
      <trkpt lat="47.80942" lon="6.56716">
        <ele>478</ele>
        <time>2023-04-10T11:39:40Z</time>
      </trkpt>
      <trkpt lat="47.80942" lon="6.56716">
        <ele>478</ele>
        <time>2023-04-10T11:39:41Z</time>
      </trkpt>
      <trkpt lat="47.80942" lon="6.56715">
        <ele>478</ele>
        <time>2023-04-10T11:40:07Z</time>
      </trkpt>
      <trkpt lat="47.80935" lon="6.56707">
        <ele>478.9</ele>
        <time>2023-04-10T11:40:15Z</time>
      </trkpt>
      <trkpt lat="47.80928" lon="6.56696">
        <ele>479.9</ele>
        <time>2023-04-10T11:40:24Z</time>
      </trkpt>
      <trkpt lat="47.80922" lon="6.56686">
        <ele>480.7</ele>
        <time>2023-04-10T11:40:36Z</time>
      </trkpt>
      <trkpt lat="47.80915" lon="6.56676">
        <ele>481.1</ele>
        <time>2023-04-10T11:40:43Z</time>
      </trkpt>
      <trkpt lat="47.80906" lon="6.56667">
        <ele>481.5</ele>
        <time>2023-04-10T11:40:48Z</time>
      </trkpt>
      <trkpt lat="47.80898" lon="6.56658">
        <ele>481.9</ele>
        <time>2023-04-10T11:40:53Z</time>
      </trkpt>
      <trkpt lat="47.8089" lon="6.5665">
        <ele>482.1</ele>
        <time>2023-04-10T11:41:03Z</time>
      </trkpt>
      <trkpt lat="47.80882" lon="6.56642">
        <ele>482.3</ele>
        <time>2023-04-10T11:41:15Z</time>
      </trkpt>
      <trkpt lat="47.80876" lon="6.56637">
        <ele>482.5</ele>
        <time>2023-04-10T11:41:24Z</time>
      </trkpt>
      <trkpt lat="47.80877" lon="6.56637">
        <ele>482.5</ele>
        <time>2023-04-10T11:41:25Z</time>
      </trkpt>
      <trkpt lat="47.80874" lon="6.56634">
        <ele>482.5</ele>
        <time>2023-04-10T11:41:32Z</time>
      </trkpt>
      <trkpt lat="47.80874" lon="6.56634">
        <ele>482.5</ele>
        <time>2023-04-10T11:41:42Z</time>
      </trkpt>
      <trkpt lat="47.80871" lon="6.56631">
        <ele>482.6</ele>
        <time>2023-04-10T11:41:48Z</time>
      </trkpt>
      <trkpt lat="47.80871" lon="6.56631">
        <ele>482.6</ele>
        <time>2023-04-10T11:41:52Z</time>
      </trkpt>
      <trkpt lat="47.8087" lon="6.56633">
        <ele>482.6</ele>
        <time>2023-04-10T11:41:59Z</time>
      </trkpt>
      <trkpt lat="47.80869" lon="6.56633">
        <ele>482.6</ele>
        <time>2023-04-10T11:42:17Z</time>
      </trkpt>
      <trkpt lat="47.80869" lon="6.56633">
        <ele>482.6</ele>
        <time>2023-04-10T11:42:18Z</time>
      </trkpt>
      <trkpt lat="47.80869" lon="6.56633">
        <ele>482.6</ele>
        <time>2023-04-10T11:42:19Z</time>
      </trkpt>
      <trkpt lat="47.80868" lon="6.56633">
        <ele>482.7</ele>
        <time>2023-04-10T11:42:22Z</time>
      </trkpt>
      <trkpt lat="47.80868" lon="6.56634">
        <ele>482.7</ele>
        <time>2023-04-10T11:42:28Z</time>
      </trkpt>
      <trkpt lat="47.80867" lon="6.56634">
        <ele>482.7</ele>
        <time>2023-04-10T11:42:30Z</time>
      </trkpt>
      <trkpt lat="47.80867" lon="6.56634">
        <ele>482.7</ele>
        <time>2023-04-10T11:42:32Z</time>
      </trkpt>
      <trkpt lat="47.80867" lon="6.56634">
        <ele>482.7</ele>
        <time>2023-04-10T11:42:33Z</time>
      </trkpt>
      <trkpt lat="47.80867" lon="6.56634">
        <ele>482.7</ele>
        <time>2023-04-10T11:42:58Z</time>
      </trkpt>
      <trkpt lat="47.80867" lon="6.56634">
        <ele>482.7</ele>
        <time>2023-04-10T11:42:59Z</time>
      </trkpt>
      <trkpt lat="47.80868" lon="6.56634">
        <ele>482.7</ele>
        <time>2023-04-10T11:43:07Z</time>
      </trkpt>
      <trkpt lat="47.80868" lon="6.56634">
        <ele>482.7</ele>
        <time>2023-04-10T11:43:08Z</time>
      </trkpt>
      <trkpt lat="47.80867" lon="6.56634">
        <ele>482.7</ele>
        <time>2023-04-10T11:43:10Z</time>
      </trkpt>
      <trkpt lat="47.80867" lon="6.56634">
        <ele>482.7</ele>
        <time>2023-04-10T11:43:11Z</time>
      </trkpt>
      <trkpt lat="47.80867" lon="6.56634">
        <ele>482.7</ele>
        <time>2023-04-10T11:43:38Z</time>
      </trkpt>
      <trkpt lat="47.80867" lon="6.56633">
        <ele>482.7</ele>
        <time>2023-04-10T11:43:42Z</time>
      </trkpt>
      <trkpt lat="47.80867" lon="6.56633">
        <ele>482.7</ele>
        <time>2023-04-10T11:43:44Z</time>
      </trkpt>
      <trkpt lat="47.80866" lon="6.56633">
        <ele>482.7</ele>
        <time>2023-04-10T11:43:46Z</time>
      </trkpt>
      <trkpt lat="47.80867" lon="6.56634">
        <ele>482.7</ele>
        <time>2023-04-10T11:43:53Z</time>
      </trkpt>
      <trkpt lat="47.80866" lon="6.56633">
        <ele>482.7</ele>
        <time>2023-04-10T11:43:56Z</time>
      </trkpt>
      <trkpt lat="47.80866" lon="6.56633">
        <ele>482.7</ele>
        <time>2023-04-10T11:44:13Z</time>
      </trkpt>
      <trkpt lat="47.80866" lon="6.56633">
        <ele>482.7</ele>
        <time>2023-04-10T11:44:14Z</time>
      </trkpt>
      <trkpt lat="47.80866" lon="6.56633">
        <ele>482.7</ele>
        <time>2023-04-10T11:44:31Z</time>
      </trkpt>
      <trkpt lat="47.80867" lon="6.56635">
        <ele>482.7</ele>
        <time>2023-04-10T11:44:37Z</time>
      </trkpt>
      <trkpt lat="47.80867" lon="6.56635">
        <ele>482.7</ele>
        <time>2023-04-10T11:44:38Z</time>
      </trkpt>
      <trkpt lat="47.80868" lon="6.56635">
        <ele>482.7</ele>
        <time>2023-04-10T11:44:41Z</time>
      </trkpt>
      <trkpt lat="47.80868" lon="6.56635">
        <ele>482.8</ele>
        <time>2023-04-10T11:45:14Z</time>
      </trkpt>
      <trkpt lat="47.80868" lon="6.56635">
        <ele>482.8</ele>
        <time>2023-04-10T11:45:15Z</time>
      </trkpt>
      <trkpt lat="47.80868" lon="6.56635">
        <ele>482.8</ele>
        <time>2023-04-10T11:45:19Z</time>
      </trkpt>
      <trkpt lat="47.80868" lon="6.56635">
        <ele>482.8</ele>
        <time>2023-04-10T11:45:20Z</time>
      </trkpt>
      <trkpt lat="47.80868" lon="6.56636">
        <ele>482.8</ele>
        <time>2023-04-10T11:45:23Z</time>
      </trkpt>
      <trkpt lat="47.80868" lon="6.56636">
        <ele>482.8</ele>
        <time>2023-04-10T11:45:24Z</time>
      </trkpt>
      <trkpt lat="47.80868" lon="6.56636">
        <ele>482.8</ele>
        <time>2023-04-10T11:45:30Z</time>
      </trkpt>
      <trkpt lat="47.80868" lon="6.56636">
        <ele>482.8</ele>
        <time>2023-04-10T11:45:31Z</time>
      </trkpt>
      <trkpt lat="47.80868" lon="6.56636">
        <ele>482.8</ele>
        <time>2023-04-10T11:45:38Z</time>
      </trkpt>
      <trkpt lat="47.80868" lon="6.56635">
        <ele>482.8</ele>
        <time>2023-04-10T11:45:39Z</time>
      </trkpt>
      <trkpt lat="47.80866" lon="6.56634">
        <ele>482.8</ele>
        <time>2023-04-10T11:45:40Z</time>
      </trkpt>
      <trkpt lat="47.80866" lon="6.56634">
        <ele>482.8</ele>
        <time>2023-04-10T11:45:41Z</time>
      </trkpt>
      <trkpt lat="47.80866" lon="6.56634">
        <ele>482.8</ele>
        <time>2023-04-10T11:45:51Z</time>
      </trkpt>
      <trkpt lat="47.80866" lon="6.56634">
        <ele>482.8</ele>
        <time>2023-04-10T11:45:55Z</time>
      </trkpt>
      <trkpt lat="47.80867" lon="6.56635">
        <ele>482.8</ele>
        <time>2023-04-10T11:46:03Z</time>
      </trkpt>
      <trkpt lat="47.80867" lon="6.56635">
        <ele>482.8</ele>
        <time>2023-04-10T11:46:04Z</time>
      </trkpt>
      <trkpt lat="47.80866" lon="6.56635">
        <ele>482.8</ele>
        <time>2023-04-10T11:46:05Z</time>
      </trkpt>
      <trkpt lat="47.80866" lon="6.56635">
        <ele>482.8</ele>
        <time>2023-04-10T11:46:06Z</time>
      </trkpt>
      <trkpt lat="47.80867" lon="6.56636">
        <ele>482.8</ele>
        <time>2023-04-10T11:46:17Z</time>
      </trkpt>
      <trkpt lat="47.80867" lon="6.56636">
        <ele>482.8</ele>
        <time>2023-04-10T11:46:18Z</time>
      </trkpt>
      <trkpt lat="47.80867" lon="6.56636">
        <ele>482.8</ele>
        <time>2023-04-10T11:46:24Z</time>
      </trkpt>
      <trkpt lat="47.80867" lon="6.56636">
        <ele>482.8</ele>
        <time>2023-04-10T11:46:25Z</time>
      </trkpt>
      <trkpt lat="47.80867" lon="6.56636">
        <ele>482.8</ele>
        <time>2023-04-10T11:46:46Z</time>
      </trkpt>
      <trkpt lat="47.80867" lon="6.56636">
        <ele>482.8</ele>
        <time>2023-04-10T11:46:47Z</time>
      </trkpt>
      <trkpt lat="47.80867" lon="6.56636">
        <ele>482.8</ele>
        <time>2023-04-10T11:46:54Z</time>
      </trkpt>
      <trkpt lat="47.80867" lon="6.56636">
        <ele>482.8</ele>
        <time>2023-04-10T11:46:55Z</time>
      </trkpt>
      <trkpt lat="47.80868" lon="6.56636">
        <ele>482.8</ele>
        <time>2023-04-10T11:47:00Z</time>
      </trkpt>
      <trkpt lat="47.80868" lon="6.56638">
        <ele>482.8</ele>
        <time>2023-04-10T11:47:02Z</time>
      </trkpt>
      <trkpt lat="47.80869" lon="6.56638">
        <ele>482.8</ele>
        <time>2023-04-10T11:47:04Z</time>
      </trkpt>
      <trkpt lat="47.80869" lon="6.56639">
        <ele>482.8</ele>
        <time>2023-04-10T11:47:07Z</time>
      </trkpt>
      <trkpt lat="47.80869" lon="6.56639">
        <ele>482.8</ele>
        <time>2023-04-10T11:47:08Z</time>
      </trkpt>
      <trkpt lat="47.80871" lon="6.56634">
        <ele>482.8</ele>
        <time>2023-04-10T11:47:14Z</time>
      </trkpt>
      <trkpt lat="47.80871" lon="6.56635">
        <ele>482.8</ele>
        <time>2023-04-10T11:47:16Z</time>
      </trkpt>
      <trkpt lat="47.8088" lon="6.56633">
        <ele>482.8</ele>
        <time>2023-04-10T11:47:38Z</time>
      </trkpt>
      <trkpt lat="47.80889" lon="6.5664">
        <ele>482.8</ele>
        <time>2023-04-10T11:47:48Z</time>
      </trkpt>
      <trkpt lat="47.80897" lon="6.56647">
        <ele>482.6</ele>
        <time>2023-04-10T11:47:57Z</time>
      </trkpt>
      <trkpt lat="47.80905" lon="6.56656">
        <ele>482.3</ele>
        <time>2023-04-10T11:48:07Z</time>
      </trkpt>
      <trkpt lat="47.80914" lon="6.56664">
        <ele>481.8</ele>
        <time>2023-04-10T11:48:16Z</time>
      </trkpt>
      <trkpt lat="47.8092" lon="6.56675">
        <ele>481.3</ele>
        <time>2023-04-10T11:48:21Z</time>
      </trkpt>
      <trkpt lat="47.80929" lon="6.56677">
        <ele>480.5</ele>
        <time>2023-04-10T11:48:30Z</time>
      </trkpt>
      <trkpt lat="47.80935" lon="6.56664">
        <ele>480.7</ele>
        <time>2023-04-10T11:48:42Z</time>
      </trkpt>
      <trkpt lat="47.8093" lon="6.5665">
        <ele>481</ele>
        <time>2023-04-10T11:48:52Z</time>
      </trkpt>
      <trkpt lat="47.80931" lon="6.56635">
        <ele>481.3</ele>
        <time>2023-04-10T11:48:58Z</time>
      </trkpt>
      <trkpt lat="47.80931" lon="6.56621">
        <ele>481.7</ele>
        <time>2023-04-10T11:49:05Z</time>
      </trkpt>
      <trkpt lat="47.80932" lon="6.56608">
        <ele>482</ele>
        <time>2023-04-10T11:49:15Z</time>
      </trkpt>
      <trkpt lat="47.80935" lon="6.56594">
        <ele>482.3</ele>
        <time>2023-04-10T11:49:21Z</time>
      </trkpt>
      <trkpt lat="47.80931" lon="6.56579">
        <ele>482.6</ele>
        <time>2023-04-10T11:49:26Z</time>
      </trkpt>
      <trkpt lat="47.80927" lon="6.56566">
        <ele>482.9</ele>
        <time>2023-04-10T11:49:32Z</time>
      </trkpt>
      <trkpt lat="47.80929" lon="6.56563">
        <ele>483</ele>
        <time>2023-04-10T11:49:46Z</time>
      </trkpt>
      <trkpt lat="47.80929" lon="6.56563">
        <ele>483</ele>
        <time>2023-04-10T11:49:58Z</time>
      </trkpt>
      <trkpt lat="47.80928" lon="6.56561">
        <ele>483</ele>
        <time>2023-04-10T11:50:06Z</time>
      </trkpt>
      <trkpt lat="47.80928" lon="6.56561">
        <ele>483</ele>
        <time>2023-04-10T11:50:08Z</time>
      </trkpt>
      <trkpt lat="47.80928" lon="6.56561">
        <ele>483</ele>
        <time>2023-04-10T11:50:09Z</time>
      </trkpt>
      <trkpt lat="47.80928" lon="6.56561">
        <ele>483</ele>
        <time>2023-04-10T11:50:10Z</time>
      </trkpt>
      <trkpt lat="47.80928" lon="6.56561">
        <ele>483</ele>
        <time>2023-04-10T11:50:11Z</time>
      </trkpt>
      <trkpt lat="47.80928" lon="6.5656">
        <ele>483</ele>
        <time>2023-04-10T11:50:14Z</time>
      </trkpt>
      <trkpt lat="47.80928" lon="6.5656">
        <ele>483</ele>
        <time>2023-04-10T11:50:15Z</time>
      </trkpt>
      <trkpt lat="47.80927" lon="6.5656">
        <ele>483.1</ele>
        <time>2023-04-10T11:50:17Z</time>
      </trkpt>
      <trkpt lat="47.80927" lon="6.5656">
        <ele>483.1</ele>
        <time>2023-04-10T11:50:18Z</time>
      </trkpt>
      <trkpt lat="47.80927" lon="6.5656">
        <ele>483.1</ele>
        <time>2023-04-10T11:50:25Z</time>
      </trkpt>
      <trkpt lat="47.80927" lon="6.5656">
        <ele>483.1</ele>
        <time>2023-04-10T11:50:26Z</time>
      </trkpt>
      <trkpt lat="47.80927" lon="6.5656">
        <ele>483.1</ele>
        <time>2023-04-10T11:50:51Z</time>
      </trkpt>
      <trkpt lat="47.80927" lon="6.56561">
        <ele>483.1</ele>
        <time>2023-04-10T11:50:53Z</time>
      </trkpt>
      <trkpt lat="47.80927" lon="6.56561">
        <ele>483.1</ele>
        <time>2023-04-10T11:50:54Z</time>
      </trkpt>
      <trkpt lat="47.80927" lon="6.56561">
        <ele>483.1</ele>
        <time>2023-04-10T11:50:55Z</time>
      </trkpt>
      <trkpt lat="47.80927" lon="6.5656">
        <ele>483.1</ele>
        <time>2023-04-10T11:50:56Z</time>
      </trkpt>
      <trkpt lat="47.80925" lon="6.56545">
        <ele>483.1</ele>
        <time>2023-04-10T11:51:07Z</time>
      </trkpt>
      <trkpt lat="47.80923" lon="6.56532">
        <ele>483.1</ele>
        <time>2023-04-10T11:51:13Z</time>
      </trkpt>
      <trkpt lat="47.80921" lon="6.56518">
        <ele>483</ele>
        <time>2023-04-10T11:51:21Z</time>
      </trkpt>
      <trkpt lat="47.80918" lon="6.56504">
        <ele>482.8</ele>
        <time>2023-04-10T11:51:29Z</time>
      </trkpt>
      <trkpt lat="47.80919" lon="6.5649">
        <ele>482.7</ele>
        <time>2023-04-10T11:51:35Z</time>
      </trkpt>
      <trkpt lat="47.80916" lon="6.56477">
        <ele>482.5</ele>
        <time>2023-04-10T11:51:46Z</time>
      </trkpt>
      <trkpt lat="47.80912" lon="6.56464">
        <ele>482.5</ele>
        <time>2023-04-10T11:51:56Z</time>
      </trkpt>
      <trkpt lat="47.80905" lon="6.56455">
        <ele>482.6</ele>
        <time>2023-04-10T11:52:05Z</time>
      </trkpt>
      <trkpt lat="47.80895" lon="6.56459">
        <ele>482.8</ele>
        <time>2023-04-10T11:52:17Z</time>
      </trkpt>
      <trkpt lat="47.80886" lon="6.56462">
        <ele>482.6</ele>
        <time>2023-04-10T11:52:30Z</time>
      </trkpt>
      <trkpt lat="47.80877" lon="6.56465">
        <ele>482.4</ele>
        <time>2023-04-10T11:52:36Z</time>
      </trkpt>
      <trkpt lat="47.80866" lon="6.56468">
        <ele>482.1</ele>
        <time>2023-04-10T11:52:43Z</time>
      </trkpt>
      <trkpt lat="47.80856" lon="6.5647">
        <ele>481.6</ele>
        <time>2023-04-10T11:52:50Z</time>
      </trkpt>
      <trkpt lat="47.80846" lon="6.56472">
        <ele>481</ele>
        <time>2023-04-10T11:52:58Z</time>
      </trkpt>
      <trkpt lat="47.80836" lon="6.56476">
        <ele>480.5</ele>
        <time>2023-04-10T11:53:04Z</time>
      </trkpt>
      <trkpt lat="47.80828" lon="6.56484">
        <ele>479.9</ele>
        <time>2023-04-10T11:53:09Z</time>
      </trkpt>
      <trkpt lat="47.80824" lon="6.56498">
        <ele>479.2</ele>
        <time>2023-04-10T11:53:20Z</time>
      </trkpt>
      <trkpt lat="47.80815" lon="6.56502">
        <ele>478.6</ele>
        <time>2023-04-10T11:53:28Z</time>
      </trkpt>
      <trkpt lat="47.80808" lon="6.56511">
        <ele>478</ele>
        <time>2023-04-10T11:53:35Z</time>
      </trkpt>
      <trkpt lat="47.80799" lon="6.56514">
        <ele>477.4</ele>
        <time>2023-04-10T11:53:39Z</time>
      </trkpt>
      <trkpt lat="47.80798" lon="6.5652">
        <ele>477</ele>
        <time>2023-04-10T11:53:44Z</time>
      </trkpt>
      <trkpt lat="47.80797" lon="6.5652">
        <ele>477</ele>
        <time>2023-04-10T11:53:45Z</time>
      </trkpt>
      <trkpt lat="47.80788" lon="6.56515">
        <ele>476</ele>
        <time>2023-04-10T11:53:58Z</time>
      </trkpt>
      <trkpt lat="47.8078" lon="6.56506">
        <ele>474.4</ele>
        <time>2023-04-10T11:54:08Z</time>
      </trkpt>
      <trkpt lat="47.80775" lon="6.56494">
        <ele>474</ele>
        <time>2023-04-10T11:54:16Z</time>
      </trkpt>
      <trkpt lat="47.80768" lon="6.56484">
        <ele>473.7</ele>
        <time>2023-04-10T11:54:23Z</time>
      </trkpt>
      <trkpt lat="47.80764" lon="6.56469">
        <ele>473.3</ele>
        <time>2023-04-10T11:54:28Z</time>
      </trkpt>
      <trkpt lat="47.8076" lon="6.56454">
        <ele>473.1</ele>
        <time>2023-04-10T11:54:32Z</time>
      </trkpt>
      <trkpt lat="47.80757" lon="6.56441">
        <ele>473</ele>
        <time>2023-04-10T11:54:37Z</time>
      </trkpt>
      <trkpt lat="47.80756" lon="6.56427">
        <ele>472.8</ele>
        <time>2023-04-10T11:54:44Z</time>
      </trkpt>
      <trkpt lat="47.80752" lon="6.56412">
        <ele>472.6</ele>
        <time>2023-04-10T11:54:52Z</time>
      </trkpt>
      <trkpt lat="47.80749" lon="6.56399">
        <ele>472.4</ele>
        <time>2023-04-10T11:54:59Z</time>
      </trkpt>
      <trkpt lat="47.80744" lon="6.56386">
        <ele>472.2</ele>
        <time>2023-04-10T11:55:07Z</time>
      </trkpt>
      <trkpt lat="47.80742" lon="6.56372">
        <ele>471.9</ele>
        <time>2023-04-10T11:55:15Z</time>
      </trkpt>
      <trkpt lat="47.80733" lon="6.56364">
        <ele>471.7</ele>
        <time>2023-04-10T11:55:22Z</time>
      </trkpt>
      <trkpt lat="47.80729" lon="6.56352">
        <ele>471.5</ele>
        <time>2023-04-10T11:55:29Z</time>
      </trkpt>
      <trkpt lat="47.80723" lon="6.5634">
        <ele>471.4</ele>
        <time>2023-04-10T11:55:36Z</time>
      </trkpt>
      <trkpt lat="47.80717" lon="6.56329">
        <ele>471.2</ele>
        <time>2023-04-10T11:55:43Z</time>
      </trkpt>
      <trkpt lat="47.80711" lon="6.56317">
        <ele>471</ele>
        <time>2023-04-10T11:55:50Z</time>
      </trkpt>
      <trkpt lat="47.80706" lon="6.56305">
        <ele>470.6</ele>
        <time>2023-04-10T11:55:57Z</time>
      </trkpt>
      <trkpt lat="47.80701" lon="6.56294">
        <ele>470.2</ele>
        <time>2023-04-10T11:56:03Z</time>
      </trkpt>
      <trkpt lat="47.80696" lon="6.56282">
        <ele>469.8</ele>
        <time>2023-04-10T11:56:11Z</time>
      </trkpt>
      <trkpt lat="47.8069" lon="6.5627">
        <ele>469.4</ele>
        <time>2023-04-10T11:56:17Z</time>
      </trkpt>
      <trkpt lat="47.80684" lon="6.5626">
        <ele>469</ele>
        <time>2023-04-10T11:56:25Z</time>
      </trkpt>
      <trkpt lat="47.80678" lon="6.56248">
        <ele>468.7</ele>
        <time>2023-04-10T11:56:32Z</time>
      </trkpt>
      <trkpt lat="47.80673" lon="6.56237">
        <ele>468.4</ele>
        <time>2023-04-10T11:56:39Z</time>
      </trkpt>
      <trkpt lat="47.80667" lon="6.56225">
        <ele>468</ele>
        <time>2023-04-10T11:56:47Z</time>
      </trkpt>
      <trkpt lat="47.80661" lon="6.56214">
        <ele>467.6</ele>
        <time>2023-04-10T11:56:54Z</time>
      </trkpt>
      <trkpt lat="47.80654" lon="6.56204">
        <ele>467.2</ele>
        <time>2023-04-10T11:57:00Z</time>
      </trkpt>
      <trkpt lat="47.80647" lon="6.56193">
        <ele>466.8</ele>
        <time>2023-04-10T11:57:07Z</time>
      </trkpt>
      <trkpt lat="47.8064" lon="6.56183">
        <ele>466.5</ele>
        <time>2023-04-10T11:57:14Z</time>
      </trkpt>
      <trkpt lat="47.80633" lon="6.56174">
        <ele>466.2</ele>
        <time>2023-04-10T11:57:20Z</time>
      </trkpt>
      <trkpt lat="47.80627" lon="6.56163">
        <ele>465.9</ele>
        <time>2023-04-10T11:57:27Z</time>
      </trkpt>
      <trkpt lat="47.80619" lon="6.56155">
        <ele>465.6</ele>
        <time>2023-04-10T11:57:34Z</time>
      </trkpt>
      <trkpt lat="47.80613" lon="6.56144">
        <ele>465.3</ele>
        <time>2023-04-10T11:57:41Z</time>
      </trkpt>
      <trkpt lat="47.80609" lon="6.56132">
        <ele>465.1</ele>
        <time>2023-04-10T11:57:49Z</time>
      </trkpt>
      <trkpt lat="47.80607" lon="6.56117">
        <ele>464.9</ele>
        <time>2023-04-10T11:57:57Z</time>
      </trkpt>
      <trkpt lat="47.80603" lon="6.56104">
        <ele>464.7</ele>
        <time>2023-04-10T11:58:04Z</time>
      </trkpt>
      <trkpt lat="47.80602" lon="6.5609">
        <ele>464.3</ele>
        <time>2023-04-10T11:58:10Z</time>
      </trkpt>
      <trkpt lat="47.80593" lon="6.56088">
        <ele>464.3</ele>
        <time>2023-04-10T11:58:17Z</time>
      </trkpt>
      <trkpt lat="47.80582" lon="6.5609">
        <ele>464.4</ele>
        <time>2023-04-10T11:58:24Z</time>
      </trkpt>
      <trkpt lat="47.80572" lon="6.56093">
        <ele>464.4</ele>
        <time>2023-04-10T11:58:31Z</time>
      </trkpt>
      <trkpt lat="47.80562" lon="6.56098">
        <ele>464.4</ele>
        <time>2023-04-10T11:58:38Z</time>
      </trkpt>
      <trkpt lat="47.80553" lon="6.56103">
        <ele>464.4</ele>
        <time>2023-04-10T11:58:45Z</time>
      </trkpt>
      <trkpt lat="47.80543" lon="6.56107">
        <ele>464.4</ele>
        <time>2023-04-10T11:58:52Z</time>
      </trkpt>
      <trkpt lat="47.80534" lon="6.56109">
        <ele>464.3</ele>
        <time>2023-04-10T11:58:59Z</time>
      </trkpt>
      <trkpt lat="47.80525" lon="6.56114">
        <ele>464.2</ele>
        <time>2023-04-10T11:59:07Z</time>
      </trkpt>
      <trkpt lat="47.80517" lon="6.56119">
        <ele>464</ele>
        <time>2023-04-10T11:59:13Z</time>
      </trkpt>
      <trkpt lat="47.80507" lon="6.56125">
        <ele>463.8</ele>
        <time>2023-04-10T11:59:20Z</time>
      </trkpt>
      <trkpt lat="47.80498" lon="6.56131">
        <ele>463.7</ele>
        <time>2023-04-10T11:59:27Z</time>
      </trkpt>
      <trkpt lat="47.80489" lon="6.56137">
        <ele>463.5</ele>
        <time>2023-04-10T11:59:34Z</time>
      </trkpt>
      <trkpt lat="47.80479" lon="6.56141">
        <ele>463.4</ele>
        <time>2023-04-10T11:59:41Z</time>
      </trkpt>
      <trkpt lat="47.8047" lon="6.56145">
        <ele>463.3</ele>
        <time>2023-04-10T11:59:48Z</time>
      </trkpt>
      <trkpt lat="47.80462" lon="6.56152">
        <ele>463.2</ele>
        <time>2023-04-10T11:59:54Z</time>
      </trkpt>
      <trkpt lat="47.80453" lon="6.56158">
        <ele>463.1</ele>
        <time>2023-04-10T12:00:02Z</time>
      </trkpt>
      <trkpt lat="47.80444" lon="6.56163">
        <ele>463</ele>
        <time>2023-04-10T12:00:10Z</time>
      </trkpt>
      <trkpt lat="47.80434" lon="6.56166">
        <ele>462.8</ele>
        <time>2023-04-10T12:00:18Z</time>
      </trkpt>
      <trkpt lat="47.80426" lon="6.56159">
        <ele>463</ele>
        <time>2023-04-10T12:00:27Z</time>
      </trkpt>
      <trkpt lat="47.80423" lon="6.56145">
        <ele>463.9</ele>
        <time>2023-04-10T12:00:34Z</time>
      </trkpt>
      <trkpt lat="47.8042" lon="6.5613">
        <ele>464.8</ele>
        <time>2023-04-10T12:00:41Z</time>
      </trkpt>
      <trkpt lat="47.80416" lon="6.56117">
        <ele>465.7</ele>
        <time>2023-04-10T12:00:48Z</time>
      </trkpt>
      <trkpt lat="47.8041" lon="6.56106">
        <ele>466.3</ele>
        <time>2023-04-10T12:00:56Z</time>
      </trkpt>
      <trkpt lat="47.80405" lon="6.56093">
        <ele>466.8</ele>
        <time>2023-04-10T12:01:03Z</time>
      </trkpt>
      <trkpt lat="47.804" lon="6.56082">
        <ele>467.2</ele>
        <time>2023-04-10T12:01:09Z</time>
      </trkpt>
      <trkpt lat="47.80394" lon="6.5607">
        <ele>467.6</ele>
        <time>2023-04-10T12:01:16Z</time>
      </trkpt>
      <trkpt lat="47.80388" lon="6.56059">
        <ele>467.9</ele>
        <time>2023-04-10T12:01:22Z</time>
      </trkpt>
      <trkpt lat="47.80383" lon="6.56047">
        <ele>468.2</ele>
        <time>2023-04-10T12:01:29Z</time>
      </trkpt>
      <trkpt lat="47.80377" lon="6.56035">
        <ele>468.6</ele>
        <time>2023-04-10T12:01:35Z</time>
      </trkpt>
      <trkpt lat="47.80373" lon="6.56021">
        <ele>469</ele>
        <time>2023-04-10T12:01:41Z</time>
      </trkpt>
      <trkpt lat="47.80369" lon="6.56007">
        <ele>469.4</ele>
        <time>2023-04-10T12:01:48Z</time>
      </trkpt>
      <trkpt lat="47.80364" lon="6.55995">
        <ele>469.8</ele>
        <time>2023-04-10T12:01:55Z</time>
      </trkpt>
      <trkpt lat="47.80359" lon="6.55982">
        <ele>470.3</ele>
        <time>2023-04-10T12:02:03Z</time>
      </trkpt>
      <trkpt lat="47.80355" lon="6.5597">
        <ele>470.7</ele>
        <time>2023-04-10T12:02:11Z</time>
      </trkpt>
      <trkpt lat="47.80351" lon="6.55957">
        <ele>471.2</ele>
        <time>2023-04-10T12:02:18Z</time>
      </trkpt>
      <trkpt lat="47.80347" lon="6.55943">
        <ele>471.7</ele>
        <time>2023-04-10T12:02:26Z</time>
      </trkpt>
      <trkpt lat="47.80344" lon="6.55928">
        <ele>472.3</ele>
        <time>2023-04-10T12:02:35Z</time>
      </trkpt>
      <trkpt lat="47.80339" lon="6.55916">
        <ele>473</ele>
        <time>2023-04-10T12:02:41Z</time>
      </trkpt>
      <trkpt lat="47.80333" lon="6.55904">
        <ele>473.6</ele>
        <time>2023-04-10T12:02:49Z</time>
      </trkpt>
      <trkpt lat="47.8033" lon="6.5589">
        <ele>474.3</ele>
        <time>2023-04-10T12:02:55Z</time>
      </trkpt>
      <trkpt lat="47.80328" lon="6.55877">
        <ele>474.7</ele>
        <time>2023-04-10T12:03:02Z</time>
      </trkpt>
      <trkpt lat="47.80325" lon="6.55864">
        <ele>475</ele>
        <time>2023-04-10T12:03:08Z</time>
      </trkpt>
      <trkpt lat="47.80323" lon="6.55849">
        <ele>475.2</ele>
        <time>2023-04-10T12:03:15Z</time>
      </trkpt>
      <trkpt lat="47.8032" lon="6.55834">
        <ele>475.4</ele>
        <time>2023-04-10T12:03:21Z</time>
      </trkpt>
      <trkpt lat="47.80316" lon="6.5582">
        <ele>475.6</ele>
        <time>2023-04-10T12:03:28Z</time>
      </trkpt>
      <trkpt lat="47.80311" lon="6.55807">
        <ele>475.7</ele>
        <time>2023-04-10T12:03:36Z</time>
      </trkpt>
      <trkpt lat="47.80307" lon="6.55794">
        <ele>475.9</ele>
        <time>2023-04-10T12:03:43Z</time>
      </trkpt>
      <trkpt lat="47.80301" lon="6.55782">
        <ele>476.3</ele>
        <time>2023-04-10T12:03:49Z</time>
      </trkpt>
      <trkpt lat="47.80298" lon="6.55768">
        <ele>476.6</ele>
        <time>2023-04-10T12:03:55Z</time>
      </trkpt>
      <trkpt lat="47.80293" lon="6.55755">
        <ele>476.9</ele>
        <time>2023-04-10T12:04:02Z</time>
      </trkpt>
      <trkpt lat="47.8029" lon="6.55741">
        <ele>477.4</ele>
        <time>2023-04-10T12:04:09Z</time>
      </trkpt>
      <trkpt lat="47.80286" lon="6.55727">
        <ele>477.9</ele>
        <time>2023-04-10T12:04:16Z</time>
      </trkpt>
      <trkpt lat="47.80282" lon="6.55713">
        <ele>478.4</ele>
        <time>2023-04-10T12:04:22Z</time>
      </trkpt>
      <trkpt lat="47.80277" lon="6.55702">
        <ele>478.7</ele>
        <time>2023-04-10T12:04:28Z</time>
      </trkpt>
      <trkpt lat="47.80273" lon="6.55689">
        <ele>479</ele>
        <time>2023-04-10T12:04:34Z</time>
      </trkpt>
      <trkpt lat="47.80267" lon="6.55678">
        <ele>479.4</ele>
        <time>2023-04-10T12:04:40Z</time>
      </trkpt>
      <trkpt lat="47.80261" lon="6.55667">
        <ele>479.7</ele>
        <time>2023-04-10T12:04:46Z</time>
      </trkpt>
      <trkpt lat="47.80255" lon="6.55654">
        <ele>480</ele>
        <time>2023-04-10T12:04:54Z</time>
      </trkpt>
      <trkpt lat="47.80249" lon="6.55643">
        <ele>480.2</ele>
        <time>2023-04-10T12:05:00Z</time>
      </trkpt>
      <trkpt lat="47.80244" lon="6.5563">
        <ele>480.4</ele>
        <time>2023-04-10T12:05:08Z</time>
      </trkpt>
      <trkpt lat="47.80236" lon="6.55619">
        <ele>480.6</ele>
        <time>2023-04-10T12:05:15Z</time>
      </trkpt>
      <trkpt lat="47.80232" lon="6.55607">
        <ele>480.6</ele>
        <time>2023-04-10T12:05:22Z</time>
      </trkpt>
      <trkpt lat="47.80231" lon="6.55593">
        <ele>480.5</ele>
        <time>2023-04-10T12:05:32Z</time>
      </trkpt>
      <trkpt lat="47.80225" lon="6.5558">
        <ele>480.5</ele>
        <time>2023-04-10T12:05:39Z</time>
      </trkpt>
      <trkpt lat="47.8022" lon="6.55569">
        <ele>480.5</ele>
        <time>2023-04-10T12:05:47Z</time>
      </trkpt>
      <trkpt lat="47.80217" lon="6.55555">
        <ele>480.5</ele>
        <time>2023-04-10T12:05:54Z</time>
      </trkpt>
      <trkpt lat="47.80217" lon="6.55541">
        <ele>480.4</ele>
        <time>2023-04-10T12:06:00Z</time>
      </trkpt>
      <trkpt lat="47.80216" lon="6.55526">
        <ele>480.3</ele>
        <time>2023-04-10T12:06:06Z</time>
      </trkpt>
      <trkpt lat="47.80218" lon="6.55512">
        <ele>480.1</ele>
        <time>2023-04-10T12:06:13Z</time>
      </trkpt>
      <trkpt lat="47.80221" lon="6.55498">
        <ele>479.7</ele>
        <time>2023-04-10T12:06:19Z</time>
      </trkpt>
      <trkpt lat="47.80221" lon="6.55484">
        <ele>479.4</ele>
        <time>2023-04-10T12:06:25Z</time>
      </trkpt>
      <trkpt lat="47.80222" lon="6.55471">
        <ele>479.1</ele>
        <time>2023-04-10T12:06:31Z</time>
      </trkpt>
      <trkpt lat="47.80224" lon="6.55457">
        <ele>478.8</ele>
        <time>2023-04-10T12:06:37Z</time>
      </trkpt>
      <trkpt lat="47.80228" lon="6.55443">
        <ele>478.7</ele>
        <time>2023-04-10T12:06:44Z</time>
      </trkpt>
      <trkpt lat="47.80233" lon="6.5543">
        <ele>478.5</ele>
        <time>2023-04-10T12:06:51Z</time>
      </trkpt>
      <trkpt lat="47.80239" lon="6.55417">
        <ele>478.4</ele>
        <time>2023-04-10T12:06:58Z</time>
      </trkpt>
      <trkpt lat="47.80245" lon="6.55408">
        <ele>478.3</ele>
        <time>2023-04-10T12:07:05Z</time>
      </trkpt>
      <trkpt lat="47.80251" lon="6.55396">
        <ele>478.4</ele>
        <time>2023-04-10T12:07:11Z</time>
      </trkpt>
      <trkpt lat="47.80255" lon="6.55384">
        <ele>478.6</ele>
        <time>2023-04-10T12:07:18Z</time>
      </trkpt>
      <trkpt lat="47.8026" lon="6.55371">
        <ele>479</ele>
        <time>2023-04-10T12:07:27Z</time>
      </trkpt>
      <trkpt lat="47.80261" lon="6.55357">
        <ele>479.5</ele>
        <time>2023-04-10T12:07:35Z</time>
      </trkpt>
      <trkpt lat="47.80262" lon="6.55339">
        <ele>480.4</ele>
        <time>2023-04-10T12:07:42Z</time>
      </trkpt>
      <trkpt lat="47.80254" lon="6.55333">
        <ele>481.3</ele>
        <time>2023-04-10T12:07:50Z</time>
      </trkpt>
      <trkpt lat="47.80243" lon="6.55333">
        <ele>481.4</ele>
        <time>2023-04-10T12:07:56Z</time>
      </trkpt>
      <trkpt lat="47.80234" lon="6.55335">
        <ele>481.5</ele>
        <time>2023-04-10T12:08:02Z</time>
      </trkpt>
      <trkpt lat="47.80224" lon="6.55331">
        <ele>481.7</ele>
        <time>2023-04-10T12:08:15Z</time>
      </trkpt>
      <trkpt lat="47.80216" lon="6.55324">
        <ele>481.8</ele>
        <time>2023-04-10T12:08:25Z</time>
      </trkpt>
      <trkpt lat="47.80208" lon="6.55318">
        <ele>481.9</ele>
        <time>2023-04-10T12:08:32Z</time>
      </trkpt>
      <trkpt lat="47.802" lon="6.55312">
        <ele>482</ele>
        <time>2023-04-10T12:08:39Z</time>
      </trkpt>
      <trkpt lat="47.80192" lon="6.55303">
        <ele>482.1</ele>
        <time>2023-04-10T12:08:47Z</time>
      </trkpt>
      <trkpt lat="47.80185" lon="6.55293">
        <ele>482.4</ele>
        <time>2023-04-10T12:08:54Z</time>
      </trkpt>
      <trkpt lat="47.80176" lon="6.55285">
        <ele>482.6</ele>
        <time>2023-04-10T12:09:02Z</time>
      </trkpt>
      <trkpt lat="47.80167" lon="6.55277">
        <ele>482.9</ele>
        <time>2023-04-10T12:09:08Z</time>
      </trkpt>
      <trkpt lat="47.80159" lon="6.55266">
        <ele>483.2</ele>
        <time>2023-04-10T12:09:14Z</time>
      </trkpt>
      <trkpt lat="47.80151" lon="6.55259">
        <ele>483.4</ele>
        <time>2023-04-10T12:09:20Z</time>
      </trkpt>
      <trkpt lat="47.80142" lon="6.55251">
        <ele>483.6</ele>
        <time>2023-04-10T12:09:29Z</time>
      </trkpt>
      <trkpt lat="47.80136" lon="6.55241">
        <ele>484.8</ele>
        <time>2023-04-10T12:09:36Z</time>
      </trkpt>
      <trkpt lat="47.80134" lon="6.55226">
        <ele>484.2</ele>
        <time>2023-04-10T12:09:43Z</time>
      </trkpt>
      <trkpt lat="47.80135" lon="6.55212">
        <ele>483.8</ele>
        <time>2023-04-10T12:09:49Z</time>
      </trkpt>
      <trkpt lat="47.80132" lon="6.55199">
        <ele>483.9</ele>
        <time>2023-04-10T12:09:56Z</time>
      </trkpt>
      <trkpt lat="47.80135" lon="6.55185">
        <ele>483.6</ele>
        <time>2023-04-10T12:10:02Z</time>
      </trkpt>
      <trkpt lat="47.80143" lon="6.55174">
        <ele>481.7</ele>
        <time>2023-04-10T12:10:09Z</time>
      </trkpt>
      <trkpt lat="47.80151" lon="6.55165">
        <ele>481.1</ele>
        <time>2023-04-10T12:10:18Z</time>
      </trkpt>
      <trkpt lat="47.80156" lon="6.55153">
        <ele>481.1</ele>
        <time>2023-04-10T12:10:26Z</time>
      </trkpt>
      <trkpt lat="47.80156" lon="6.5514">
        <ele>481.2</ele>
        <time>2023-04-10T12:10:35Z</time>
      </trkpt>
      <trkpt lat="47.80157" lon="6.5514">
        <ele>481.3</ele>
        <time>2023-04-10T12:10:38Z</time>
      </trkpt>
      <trkpt lat="47.80158" lon="6.55134">
        <ele>481.4</ele>
        <time>2023-04-10T12:10:50Z</time>
      </trkpt>
      <trkpt lat="47.80158" lon="6.55134">
        <ele>481.4</ele>
        <time>2023-04-10T12:11:20Z</time>
      </trkpt>
      <trkpt lat="47.80158" lon="6.55134">
        <ele>481.4</ele>
        <time>2023-04-10T12:11:21Z</time>
      </trkpt>
      <trkpt lat="47.80158" lon="6.55133">
        <ele>481.4</ele>
        <time>2023-04-10T12:11:23Z</time>
      </trkpt>
      <trkpt lat="47.80157" lon="6.55131">
        <ele>481.4</ele>
        <time>2023-04-10T12:11:27Z</time>
      </trkpt>
      <trkpt lat="47.80158" lon="6.55131">
        <ele>481.4</ele>
        <time>2023-04-10T12:11:28Z</time>
      </trkpt>
      <trkpt lat="47.80158" lon="6.5513">
        <ele>481.5</ele>
        <time>2023-04-10T12:11:31Z</time>
      </trkpt>
      <trkpt lat="47.80158" lon="6.55129">
        <ele>481.5</ele>
        <time>2023-04-10T12:11:32Z</time>
      </trkpt>
      <trkpt lat="47.80156" lon="6.55124">
        <ele>481.6</ele>
        <time>2023-04-10T12:11:41Z</time>
      </trkpt>
      <trkpt lat="47.80156" lon="6.55124">
        <ele>481.6</ele>
        <time>2023-04-10T12:11:43Z</time>
      </trkpt>
      <trkpt lat="47.80156" lon="6.55123">
        <ele>481.7</ele>
        <time>2023-04-10T12:11:44Z</time>
      </trkpt>
      <trkpt lat="47.80155" lon="6.55123">
        <ele>481.7</ele>
        <time>2023-04-10T12:12:05Z</time>
      </trkpt>
      <trkpt lat="47.80145" lon="6.55125">
        <ele>482.1</ele>
        <time>2023-04-10T12:12:12Z</time>
      </trkpt>
      <trkpt lat="47.80136" lon="6.55125">
        <ele>482.5</ele>
        <time>2023-04-10T12:12:20Z</time>
      </trkpt>
      <trkpt lat="47.80126" lon="6.55122">
        <ele>482.9</ele>
        <time>2023-04-10T12:12:27Z</time>
      </trkpt>
      <trkpt lat="47.80116" lon="6.55116">
        <ele>483.3</ele>
        <time>2023-04-10T12:12:35Z</time>
      </trkpt>
      <trkpt lat="47.80108" lon="6.55112">
        <ele>483.7</ele>
        <time>2023-04-10T12:12:41Z</time>
      </trkpt>
      <trkpt lat="47.801" lon="6.55108">
        <ele>484</ele>
        <time>2023-04-10T12:12:49Z</time>
      </trkpt>
      <trkpt lat="47.801" lon="6.55108">
        <ele>484.1</ele>
        <time>2023-04-10T12:12:50Z</time>
      </trkpt>
      <trkpt lat="47.80092" lon="6.551">
        <ele>484.4</ele>
        <time>2023-04-10T12:13:01Z</time>
      </trkpt>
      <trkpt lat="47.80082" lon="6.55097">
        <ele>484.4</ele>
        <time>2023-04-10T12:13:05Z</time>
      </trkpt>
      <trkpt lat="47.80073" lon="6.55094">
        <ele>484.5</ele>
        <time>2023-04-10T12:13:10Z</time>
      </trkpt>
      <trkpt lat="47.80063" lon="6.55089">
        <ele>484.6</ele>
        <time>2023-04-10T12:13:16Z</time>
      </trkpt>
      <trkpt lat="47.80055" lon="6.55084">
        <ele>484.7</ele>
        <time>2023-04-10T12:13:24Z</time>
      </trkpt>
      <trkpt lat="47.80046" lon="6.55078">
        <ele>484.9</ele>
        <time>2023-04-10T12:13:31Z</time>
      </trkpt>
      <trkpt lat="47.80036" lon="6.55074">
        <ele>485.1</ele>
        <time>2023-04-10T12:13:39Z</time>
      </trkpt>
      <trkpt lat="47.80027" lon="6.55068">
        <ele>485.2</ele>
        <time>2023-04-10T12:13:47Z</time>
      </trkpt>
      <trkpt lat="47.80017" lon="6.55062">
        <ele>485.4</ele>
        <time>2023-04-10T12:13:54Z</time>
      </trkpt>
      <trkpt lat="47.80008" lon="6.55058">
        <ele>485.5</ele>
        <time>2023-04-10T12:14:01Z</time>
      </trkpt>
      <trkpt lat="47.79999" lon="6.55054">
        <ele>485.6</ele>
        <time>2023-04-10T12:14:08Z</time>
      </trkpt>
      <trkpt lat="47.7999" lon="6.5505">
        <ele>485.5</ele>
        <time>2023-04-10T12:14:13Z</time>
      </trkpt>
      <trkpt lat="47.7998" lon="6.55045">
        <ele>485.2</ele>
        <time>2023-04-10T12:14:23Z</time>
      </trkpt>
      <trkpt lat="47.7997" lon="6.55044">
        <ele>484.9</ele>
        <time>2023-04-10T12:14:32Z</time>
      </trkpt>
      <trkpt lat="47.79961" lon="6.55042">
        <ele>484.5</ele>
        <time>2023-04-10T12:14:37Z</time>
      </trkpt>
      <trkpt lat="47.7995" lon="6.5504">
        <ele>483.9</ele>
        <time>2023-04-10T12:14:45Z</time>
      </trkpt>
      <trkpt lat="47.79941" lon="6.55037">
        <ele>483.3</ele>
        <time>2023-04-10T12:14:53Z</time>
      </trkpt>
      <trkpt lat="47.79932" lon="6.55031">
        <ele>482.5</ele>
        <time>2023-04-10T12:15:01Z</time>
      </trkpt>
      <trkpt lat="47.79924" lon="6.55027">
        <ele>481.7</ele>
        <time>2023-04-10T12:15:07Z</time>
      </trkpt>
      <trkpt lat="47.79915" lon="6.55021">
        <ele>480.9</ele>
        <time>2023-04-10T12:15:14Z</time>
      </trkpt>
      <trkpt lat="47.79907" lon="6.55016">
        <ele>480.1</ele>
        <time>2023-04-10T12:15:20Z</time>
      </trkpt>
      <trkpt lat="47.799" lon="6.55005">
        <ele>479.3</ele>
        <time>2023-04-10T12:15:28Z</time>
      </trkpt>
      <trkpt lat="47.79892" lon="6.54997">
        <ele>478.5</ele>
        <time>2023-04-10T12:15:36Z</time>
      </trkpt>
      <trkpt lat="47.79884" lon="6.5499">
        <ele>477.7</ele>
        <time>2023-04-10T12:15:44Z</time>
      </trkpt>
      <trkpt lat="47.79875" lon="6.54984">
        <ele>476.8</ele>
        <time>2023-04-10T12:15:51Z</time>
      </trkpt>
      <trkpt lat="47.79865" lon="6.54979">
        <ele>475.8</ele>
        <time>2023-04-10T12:15:59Z</time>
      </trkpt>
      <trkpt lat="47.79857" lon="6.54974">
        <ele>474.7</ele>
        <time>2023-04-10T12:16:06Z</time>
      </trkpt>
      <trkpt lat="47.79847" lon="6.54978">
        <ele>473.6</ele>
        <time>2023-04-10T12:16:14Z</time>
      </trkpt>
      <trkpt lat="47.79839" lon="6.54983">
        <ele>472.5</ele>
        <time>2023-04-10T12:16:20Z</time>
      </trkpt>
      <trkpt lat="47.7983" lon="6.54988">
        <ele>470.1</ele>
        <time>2023-04-10T12:16:27Z</time>
      </trkpt>
      <trkpt lat="47.79827" lon="6.54993">
        <ele>470.1</ele>
        <time>2023-04-10T12:16:34Z</time>
      </trkpt>
      <trkpt lat="47.79827" lon="6.54992">
        <ele>470.1</ele>
        <time>2023-04-10T12:16:46Z</time>
      </trkpt>
      <trkpt lat="47.79827" lon="6.54993">
        <ele>470.1</ele>
        <time>2023-04-10T12:16:47Z</time>
      </trkpt>
      <trkpt lat="47.79827" lon="6.54993">
        <ele>470.1</ele>
        <time>2023-04-10T12:16:49Z</time>
      </trkpt>
      <trkpt lat="47.79834" lon="6.55001">
        <ele>470.1</ele>
        <time>2023-04-10T12:16:59Z</time>
      </trkpt>
      <trkpt lat="47.79843" lon="6.55002">
        <ele>471.4</ele>
        <time>2023-04-10T12:17:05Z</time>
      </trkpt>
      <trkpt lat="47.79852" lon="6.55009">
        <ele>471.9</ele>
        <time>2023-04-10T12:17:13Z</time>
      </trkpt>
      <trkpt lat="47.79862" lon="6.55014">
        <ele>472.5</ele>
        <time>2023-04-10T12:17:20Z</time>
      </trkpt>
      <trkpt lat="47.7987" lon="6.55022">
        <ele>472.9</ele>
        <time>2023-04-10T12:17:27Z</time>
      </trkpt>
      <trkpt lat="47.79877" lon="6.55033">
        <ele>473.4</ele>
        <time>2023-04-10T12:17:34Z</time>
      </trkpt>
      <trkpt lat="47.79883" lon="6.55043">
        <ele>473.9</ele>
        <time>2023-04-10T12:17:41Z</time>
      </trkpt>
      <trkpt lat="47.79891" lon="6.55053">
        <ele>474.4</ele>
        <time>2023-04-10T12:17:49Z</time>
      </trkpt>
      <trkpt lat="47.79897" lon="6.55064">
        <ele>474.9</ele>
        <time>2023-04-10T12:17:56Z</time>
      </trkpt>
      <trkpt lat="47.79903" lon="6.55076">
        <ele>475.5</ele>
        <time>2023-04-10T12:18:03Z</time>
      </trkpt>
      <trkpt lat="47.79911" lon="6.55086">
        <ele>476.1</ele>
        <time>2023-04-10T12:18:11Z</time>
      </trkpt>
      <trkpt lat="47.79917" lon="6.55095">
        <ele>476.5</ele>
        <time>2023-04-10T12:18:18Z</time>
      </trkpt>
      <trkpt lat="47.79925" lon="6.55105">
        <ele>477</ele>
        <time>2023-04-10T12:18:26Z</time>
      </trkpt>
      <trkpt lat="47.79933" lon="6.55112">
        <ele>477.5</ele>
        <time>2023-04-10T12:18:33Z</time>
      </trkpt>
      <trkpt lat="47.79941" lon="6.55121">
        <ele>477.9</ele>
        <time>2023-04-10T12:18:40Z</time>
      </trkpt>
      <trkpt lat="47.79949" lon="6.5513">
        <ele>478.3</ele>
        <time>2023-04-10T12:18:48Z</time>
      </trkpt>
      <trkpt lat="47.79956" lon="6.55138">
        <ele>478.7</ele>
        <time>2023-04-10T12:18:56Z</time>
      </trkpt>
      <trkpt lat="47.79962" lon="6.5515">
        <ele>479.1</ele>
        <time>2023-04-10T12:19:03Z</time>
      </trkpt>
      <trkpt lat="47.79967" lon="6.55162">
        <ele>479.6</ele>
        <time>2023-04-10T12:19:10Z</time>
      </trkpt>
      <trkpt lat="47.79974" lon="6.55172">
        <ele>480.1</ele>
        <time>2023-04-10T12:19:18Z</time>
      </trkpt>
      <trkpt lat="47.7998" lon="6.55183">
        <ele>480.6</ele>
        <time>2023-04-10T12:19:25Z</time>
      </trkpt>
      <trkpt lat="47.79986" lon="6.55193">
        <ele>481</ele>
        <time>2023-04-10T12:19:32Z</time>
      </trkpt>
      <trkpt lat="47.79991" lon="6.55206">
        <ele>481.5</ele>
        <time>2023-04-10T12:19:40Z</time>
      </trkpt>
      <trkpt lat="47.79996" lon="6.55219">
        <ele>482</ele>
        <time>2023-04-10T12:19:48Z</time>
      </trkpt>
      <trkpt lat="47.80003" lon="6.55229">
        <ele>482.5</ele>
        <time>2023-04-10T12:19:56Z</time>
      </trkpt>
      <trkpt lat="47.80011" lon="6.55237">
        <ele>483</ele>
        <time>2023-04-10T12:20:05Z</time>
      </trkpt>
      <trkpt lat="47.8002" lon="6.55244">
        <ele>483.4</ele>
        <time>2023-04-10T12:20:15Z</time>
      </trkpt>
      <trkpt lat="47.80028" lon="6.5525">
        <ele>483.7</ele>
        <time>2023-04-10T12:20:22Z</time>
      </trkpt>
      <trkpt lat="47.80037" lon="6.55255">
        <ele>484</ele>
        <time>2023-04-10T12:20:29Z</time>
      </trkpt>
      <trkpt lat="47.80046" lon="6.55261">
        <ele>484.1</ele>
        <time>2023-04-10T12:20:36Z</time>
      </trkpt>
      <trkpt lat="47.80055" lon="6.55265">
        <ele>484.2</ele>
        <time>2023-04-10T12:20:43Z</time>
      </trkpt>
      <trkpt lat="47.80064" lon="6.5527">
        <ele>484.3</ele>
        <time>2023-04-10T12:20:51Z</time>
      </trkpt>
      <trkpt lat="47.80074" lon="6.55275">
        <ele>484.3</ele>
        <time>2023-04-10T12:20:59Z</time>
      </trkpt>
      <trkpt lat="47.80083" lon="6.55278">
        <ele>484.3</ele>
        <time>2023-04-10T12:21:06Z</time>
      </trkpt>
      <trkpt lat="47.80093" lon="6.55283">
        <ele>484.3</ele>
        <time>2023-04-10T12:21:14Z</time>
      </trkpt>
      <trkpt lat="47.80102" lon="6.55288">
        <ele>484.1</ele>
        <time>2023-04-10T12:21:21Z</time>
      </trkpt>
      <trkpt lat="47.80111" lon="6.55293">
        <ele>484</ele>
        <time>2023-04-10T12:21:28Z</time>
      </trkpt>
      <trkpt lat="47.80119" lon="6.55298">
        <ele>483.8</ele>
        <time>2023-04-10T12:21:35Z</time>
      </trkpt>
      <trkpt lat="47.80128" lon="6.55303">
        <ele>483.7</ele>
        <time>2023-04-10T12:21:42Z</time>
      </trkpt>
      <trkpt lat="47.80137" lon="6.55308">
        <ele>483.5</ele>
        <time>2023-04-10T12:21:49Z</time>
      </trkpt>
      <trkpt lat="47.80146" lon="6.55312">
        <ele>483.2</ele>
        <time>2023-04-10T12:21:56Z</time>
      </trkpt>
      <trkpt lat="47.80156" lon="6.55317">
        <ele>483</ele>
        <time>2023-04-10T12:22:03Z</time>
      </trkpt>
      <trkpt lat="47.80166" lon="6.55315">
        <ele>482.7</ele>
        <time>2023-04-10T12:22:12Z</time>
      </trkpt>
      <trkpt lat="47.80175" lon="6.55322">
        <ele>482.4</ele>
        <time>2023-04-10T12:22:19Z</time>
      </trkpt>
      <trkpt lat="47.80185" lon="6.55326">
        <ele>482.2</ele>
        <time>2023-04-10T12:22:28Z</time>
      </trkpt>
      <trkpt lat="47.80194" lon="6.55329">
        <ele>482</ele>
        <time>2023-04-10T12:22:35Z</time>
      </trkpt>
      <trkpt lat="47.80204" lon="6.55332">
        <ele>481.9</ele>
        <time>2023-04-10T12:22:41Z</time>
      </trkpt>
      <trkpt lat="47.80213" lon="6.55333">
        <ele>481.8</ele>
        <time>2023-04-10T12:22:47Z</time>
      </trkpt>
      <trkpt lat="47.80222" lon="6.55332">
        <ele>481.7</ele>
        <time>2023-04-10T12:22:55Z</time>
      </trkpt>
      <trkpt lat="47.80214" lon="6.55324">
        <ele>481.8</ele>
        <time>2023-04-10T12:23:06Z</time>
      </trkpt>
      <trkpt lat="47.80205" lon="6.55319">
        <ele>481.9</ele>
        <time>2023-04-10T12:23:12Z</time>
      </trkpt>
      <trkpt lat="47.80196" lon="6.55312">
        <ele>482</ele>
        <time>2023-04-10T12:23:19Z</time>
      </trkpt>
      <trkpt lat="47.80188" lon="6.55304">
        <ele>482.2</ele>
        <time>2023-04-10T12:23:26Z</time>
      </trkpt>
      <trkpt lat="47.8018" lon="6.55295">
        <ele>482.4</ele>
        <time>2023-04-10T12:23:33Z</time>
      </trkpt>
      <trkpt lat="47.80174" lon="6.55286">
        <ele>482.7</ele>
        <time>2023-04-10T12:23:40Z</time>
      </trkpt>
      <trkpt lat="47.80166" lon="6.55278">
        <ele>482.9</ele>
        <time>2023-04-10T12:23:47Z</time>
      </trkpt>
      <trkpt lat="47.80158" lon="6.55269">
        <ele>483.2</ele>
        <time>2023-04-10T12:23:55Z</time>
      </trkpt>
      <trkpt lat="47.8015" lon="6.5526">
        <ele>483.4</ele>
        <time>2023-04-10T12:24:03Z</time>
      </trkpt>
      <trkpt lat="47.80142" lon="6.55251">
        <ele>483.6</ele>
        <time>2023-04-10T12:24:10Z</time>
      </trkpt>
      <trkpt lat="47.80135" lon="6.55241">
        <ele>484.8</ele>
        <time>2023-04-10T12:24:17Z</time>
      </trkpt>
      <trkpt lat="47.8013" lon="6.55229">
        <ele>484.2</ele>
        <time>2023-04-10T12:24:24Z</time>
      </trkpt>
      <trkpt lat="47.80128" lon="6.55214">
        <ele>483.8</ele>
        <time>2023-04-10T12:24:32Z</time>
      </trkpt>
      <trkpt lat="47.8013" lon="6.552">
        <ele>483.9</ele>
        <time>2023-04-10T12:24:39Z</time>
      </trkpt>
      <trkpt lat="47.8013" lon="6.55186">
        <ele>483.6</ele>
        <time>2023-04-10T12:24:45Z</time>
      </trkpt>
      <trkpt lat="47.80135" lon="6.55174">
        <ele>483.3</ele>
        <time>2023-04-10T12:24:52Z</time>
      </trkpt>
      <trkpt lat="47.80143" lon="6.55165">
        <ele>481.8</ele>
        <time>2023-04-10T12:24:59Z</time>
      </trkpt>
      <trkpt lat="47.80151" lon="6.55156">
        <ele>481.1</ele>
        <time>2023-04-10T12:25:07Z</time>
      </trkpt>
      <trkpt lat="47.80156" lon="6.55145">
        <ele>481.2</ele>
        <time>2023-04-10T12:25:13Z</time>
      </trkpt>
      <trkpt lat="47.80162" lon="6.55134">
        <ele>481.3</ele>
        <time>2023-04-10T12:25:19Z</time>
      </trkpt>
      <trkpt lat="47.80171" lon="6.55128">
        <ele>480.9</ele>
        <time>2023-04-10T12:25:27Z</time>
      </trkpt>
      <trkpt lat="47.80181" lon="6.55129">
        <ele>480.6</ele>
        <time>2023-04-10T12:25:33Z</time>
      </trkpt>
      <trkpt lat="47.80191" lon="6.55128">
        <ele>480.4</ele>
        <time>2023-04-10T12:25:40Z</time>
      </trkpt>
      <trkpt lat="47.802" lon="6.55126">
        <ele>480.2</ele>
        <time>2023-04-10T12:25:47Z</time>
      </trkpt>
      <trkpt lat="47.80209" lon="6.55122">
        <ele>480</ele>
        <time>2023-04-10T12:25:57Z</time>
      </trkpt>
      <trkpt lat="47.80219" lon="6.55118">
        <ele>479.7</ele>
        <time>2023-04-10T12:26:03Z</time>
      </trkpt>
      <trkpt lat="47.80227" lon="6.55111">
        <ele>479.6</ele>
        <time>2023-04-10T12:26:10Z</time>
      </trkpt>
      <trkpt lat="47.80234" lon="6.55102">
        <ele>479.4</ele>
        <time>2023-04-10T12:26:17Z</time>
      </trkpt>
      <trkpt lat="47.80242" lon="6.55094">
        <ele>479.3</ele>
        <time>2023-04-10T12:26:23Z</time>
      </trkpt>
      <trkpt lat="47.80249" lon="6.55083">
        <ele>479.3</ele>
        <time>2023-04-10T12:26:29Z</time>
      </trkpt>
      <trkpt lat="47.80256" lon="6.55073">
        <ele>479.2</ele>
        <time>2023-04-10T12:26:35Z</time>
      </trkpt>
      <trkpt lat="47.8026" lon="6.55059">
        <ele>479.2</ele>
        <time>2023-04-10T12:26:44Z</time>
      </trkpt>
      <trkpt lat="47.80267" lon="6.55047">
        <ele>479.2</ele>
        <time>2023-04-10T12:26:52Z</time>
      </trkpt>
      <trkpt lat="47.80273" lon="6.55035">
        <ele>479.2</ele>
        <time>2023-04-10T12:26:59Z</time>
      </trkpt>
      <trkpt lat="47.80274" lon="6.5502">
        <ele>479.5</ele>
        <time>2023-04-10T12:27:07Z</time>
      </trkpt>
      <trkpt lat="47.80272" lon="6.55006">
        <ele>479.9</ele>
        <time>2023-04-10T12:27:15Z</time>
      </trkpt>
      <trkpt lat="47.80269" lon="6.54992">
        <ele>480.5</ele>
        <time>2023-04-10T12:27:22Z</time>
      </trkpt>
      <trkpt lat="47.80265" lon="6.54979">
        <ele>478.7</ele>
        <time>2023-04-10T12:27:29Z</time>
      </trkpt>
      <trkpt lat="47.80262" lon="6.54966">
        <ele>479.3</ele>
        <time>2023-04-10T12:27:36Z</time>
      </trkpt>
      <trkpt lat="47.80257" lon="6.54953">
        <ele>480.2</ele>
        <time>2023-04-10T12:27:44Z</time>
      </trkpt>
      <trkpt lat="47.80252" lon="6.5494">
        <ele>477.6</ele>
        <time>2023-04-10T12:27:50Z</time>
      </trkpt>
      <trkpt lat="47.80246" lon="6.54928">
        <ele>480.7</ele>
        <time>2023-04-10T12:27:57Z</time>
      </trkpt>
      <trkpt lat="47.8024" lon="6.54915">
        <ele>480.2</ele>
        <time>2023-04-10T12:28:03Z</time>
      </trkpt>
      <trkpt lat="47.80234" lon="6.54904">
        <ele>479.5</ele>
        <time>2023-04-10T12:28:10Z</time>
      </trkpt>
      <trkpt lat="47.80224" lon="6.54906">
        <ele>479.4</ele>
        <time>2023-04-10T12:28:16Z</time>
      </trkpt>
      <trkpt lat="47.80215" lon="6.5491">
        <ele>477.8</ele>
        <time>2023-04-10T12:28:24Z</time>
      </trkpt>
      <trkpt lat="47.80211" lon="6.54911">
        <ele>477.7</ele>
        <time>2023-04-10T12:28:30Z</time>
      </trkpt>
      <trkpt lat="47.8021" lon="6.54911">
        <ele>477.7</ele>
        <time>2023-04-10T12:28:31Z</time>
      </trkpt>
      <trkpt lat="47.802" lon="6.54914">
        <ele>477.4</ele>
        <time>2023-04-10T12:28:39Z</time>
      </trkpt>
      <trkpt lat="47.80191" lon="6.54918">
        <ele>477.1</ele>
        <time>2023-04-10T12:28:45Z</time>
      </trkpt>
      <trkpt lat="47.80182" lon="6.54918">
        <ele>476.9</ele>
        <time>2023-04-10T12:28:53Z</time>
      </trkpt>
      <trkpt lat="47.80173" lon="6.54917">
        <ele>476.8</ele>
        <time>2023-04-10T12:28:59Z</time>
      </trkpt>
      <trkpt lat="47.80163" lon="6.54915">
        <ele>476.6</ele>
        <time>2023-04-10T12:29:09Z</time>
      </trkpt>
      <trkpt lat="47.80154" lon="6.54918">
        <ele>476.3</ele>
        <time>2023-04-10T12:29:19Z</time>
      </trkpt>
      <trkpt lat="47.80145" lon="6.54924">
        <ele>476.2</ele>
        <time>2023-04-10T12:29:29Z</time>
      </trkpt>
      <trkpt lat="47.80136" lon="6.54927">
        <ele>476.1</ele>
        <time>2023-04-10T12:29:37Z</time>
      </trkpt>
      <trkpt lat="47.80127" lon="6.5493">
        <ele>476</ele>
        <time>2023-04-10T12:29:43Z</time>
      </trkpt>
      <trkpt lat="47.80118" lon="6.54924">
        <ele>475.9</ele>
        <time>2023-04-10T12:29:51Z</time>
      </trkpt>
      <trkpt lat="47.8011" lon="6.54917">
        <ele>476.5</ele>
        <time>2023-04-10T12:29:56Z</time>
      </trkpt>
      <trkpt lat="47.80104" lon="6.54904">
        <ele>477.4</ele>
        <time>2023-04-10T12:30:04Z</time>
      </trkpt>
      <trkpt lat="47.80095" lon="6.54898">
        <ele>478.3</ele>
        <time>2023-04-10T12:30:11Z</time>
      </trkpt>
      <trkpt lat="47.80088" lon="6.54888">
        <ele>479.2</ele>
        <time>2023-04-10T12:30:18Z</time>
      </trkpt>
      <trkpt lat="47.80083" lon="6.54874">
        <ele>480.2</ele>
        <time>2023-04-10T12:30:28Z</time>
      </trkpt>
      <trkpt lat="47.80079" lon="6.5486">
        <ele>481.1</ele>
        <time>2023-04-10T12:30:34Z</time>
      </trkpt>
      <trkpt lat="47.80078" lon="6.54846">
        <ele>482.1</ele>
        <time>2023-04-10T12:30:40Z</time>
      </trkpt>
      <trkpt lat="47.80072" lon="6.54833">
        <ele>481.9</ele>
        <time>2023-04-10T12:30:47Z</time>
      </trkpt>
      <trkpt lat="47.80065" lon="6.54824">
        <ele>481.5</ele>
        <time>2023-04-10T12:30:55Z</time>
      </trkpt>
      <trkpt lat="47.80062" lon="6.54811">
        <ele>481.2</ele>
        <time>2023-04-10T12:31:02Z</time>
      </trkpt>
      <trkpt lat="47.80059" lon="6.54795">
        <ele>480.8</ele>
        <time>2023-04-10T12:31:10Z</time>
      </trkpt>
      <trkpt lat="47.80059" lon="6.5478">
        <ele>480.4</ele>
        <time>2023-04-10T12:31:15Z</time>
      </trkpt>
      <trkpt lat="47.80057" lon="6.54766">
        <ele>480</ele>
        <time>2023-04-10T12:31:21Z</time>
      </trkpt>
      <trkpt lat="47.80056" lon="6.54752">
        <ele>479.6</ele>
        <time>2023-04-10T12:31:28Z</time>
      </trkpt>
      <trkpt lat="47.8005" lon="6.5474">
        <ele>479.3</ele>
        <time>2023-04-10T12:31:34Z</time>
      </trkpt>
      <trkpt lat="47.80046" lon="6.54728">
        <ele>479</ele>
        <time>2023-04-10T12:31:40Z</time>
      </trkpt>
      <trkpt lat="47.80042" lon="6.54715">
        <ele>478.7</ele>
        <time>2023-04-10T12:31:47Z</time>
      </trkpt>
      <trkpt lat="47.80039" lon="6.54702">
        <ele>478.5</ele>
        <time>2023-04-10T12:31:54Z</time>
      </trkpt>
      <trkpt lat="47.80034" lon="6.5469">
        <ele>478.3</ele>
        <time>2023-04-10T12:32:00Z</time>
      </trkpt>
      <trkpt lat="47.80026" lon="6.54682">
        <ele>478.1</ele>
        <time>2023-04-10T12:32:06Z</time>
      </trkpt>
      <trkpt lat="47.80017" lon="6.54672">
        <ele>478</ele>
        <time>2023-04-10T12:32:13Z</time>
      </trkpt>
      <trkpt lat="47.80012" lon="6.54659">
        <ele>478</ele>
        <time>2023-04-10T12:32:18Z</time>
      </trkpt>
      <trkpt lat="47.80013" lon="6.54643">
        <ele>478</ele>
        <time>2023-04-10T12:32:23Z</time>
      </trkpt>
      <trkpt lat="47.80008" lon="6.54629">
        <ele>478</ele>
        <time>2023-04-10T12:32:31Z</time>
      </trkpt>
      <trkpt lat="47.80004" lon="6.54616">
        <ele>478.1</ele>
        <time>2023-04-10T12:32:37Z</time>
      </trkpt>
      <trkpt lat="47.80003" lon="6.54601">
        <ele>478</ele>
        <time>2023-04-10T12:32:43Z</time>
      </trkpt>
      <trkpt lat="47.80002" lon="6.54586">
        <ele>477.9</ele>
        <time>2023-04-10T12:32:49Z</time>
      </trkpt>
      <trkpt lat="47.79998" lon="6.54574">
        <ele>477.6</ele>
        <time>2023-04-10T12:32:56Z</time>
      </trkpt>
      <trkpt lat="47.79993" lon="6.54561">
        <ele>477.4</ele>
        <time>2023-04-10T12:33:03Z</time>
      </trkpt>
      <trkpt lat="47.79991" lon="6.54546">
        <ele>477</ele>
        <time>2023-04-10T12:33:09Z</time>
      </trkpt>
      <trkpt lat="47.79988" lon="6.5453">
        <ele>476.5</ele>
        <time>2023-04-10T12:33:16Z</time>
      </trkpt>
      <trkpt lat="47.79985" lon="6.54518">
        <ele>476</ele>
        <time>2023-04-10T12:33:22Z</time>
      </trkpt>
      <trkpt lat="47.79981" lon="6.54504">
        <ele>475.5</ele>
        <time>2023-04-10T12:33:29Z</time>
      </trkpt>
      <trkpt lat="47.7998" lon="6.54491">
        <ele>475.1</ele>
        <time>2023-04-10T12:33:35Z</time>
      </trkpt>
      <trkpt lat="47.79977" lon="6.54477">
        <ele>474.7</ele>
        <time>2023-04-10T12:33:42Z</time>
      </trkpt>
      <trkpt lat="47.79976" lon="6.54464">
        <ele>474.3</ele>
        <time>2023-04-10T12:33:48Z</time>
      </trkpt>
      <trkpt lat="47.79973" lon="6.5445">
        <ele>474</ele>
        <time>2023-04-10T12:33:55Z</time>
      </trkpt>
      <trkpt lat="47.79972" lon="6.54436">
        <ele>473.6</ele>
        <time>2023-04-10T12:34:02Z</time>
      </trkpt>
      <trkpt lat="47.79971" lon="6.54421">
        <ele>473.3</ele>
        <time>2023-04-10T12:34:08Z</time>
      </trkpt>
      <trkpt lat="47.79968" lon="6.54408">
        <ele>473.1</ele>
        <time>2023-04-10T12:34:14Z</time>
      </trkpt>
      <trkpt lat="47.79967" lon="6.54394">
        <ele>472.8</ele>
        <time>2023-04-10T12:34:21Z</time>
      </trkpt>
      <trkpt lat="47.79964" lon="6.5438">
        <ele>472.5</ele>
        <time>2023-04-10T12:34:28Z</time>
      </trkpt>
      <trkpt lat="47.7996" lon="6.54368">
        <ele>472.4</ele>
        <time>2023-04-10T12:34:35Z</time>
      </trkpt>
      <trkpt lat="47.79958" lon="6.54354">
        <ele>472.2</ele>
        <time>2023-04-10T12:34:42Z</time>
      </trkpt>
      <trkpt lat="47.79958" lon="6.54339">
        <ele>472.1</ele>
        <time>2023-04-10T12:34:48Z</time>
      </trkpt>
      <trkpt lat="47.79958" lon="6.54325">
        <ele>471.8</ele>
        <time>2023-04-10T12:34:54Z</time>
      </trkpt>
      <trkpt lat="47.79956" lon="6.5431">
        <ele>471.5</ele>
        <time>2023-04-10T12:35:03Z</time>
      </trkpt>
      <trkpt lat="47.79952" lon="6.54297">
        <ele>471.3</ele>
        <time>2023-04-10T12:35:11Z</time>
      </trkpt>
      <trkpt lat="47.79949" lon="6.54283">
        <ele>471.1</ele>
        <time>2023-04-10T12:35:18Z</time>
      </trkpt>
      <trkpt lat="47.79943" lon="6.54273">
        <ele>471</ele>
        <time>2023-04-10T12:35:25Z</time>
      </trkpt>
      <trkpt lat="47.79935" lon="6.54264">
        <ele>470.8</ele>
        <time>2023-04-10T12:35:33Z</time>
      </trkpt>
      <trkpt lat="47.79925" lon="6.54264">
        <ele>470.4</ele>
        <time>2023-04-10T12:35:44Z</time>
      </trkpt>
      <trkpt lat="47.79915" lon="6.54268">
        <ele>470.1</ele>
        <time>2023-04-10T12:35:50Z</time>
      </trkpt>
      <trkpt lat="47.79907" lon="6.54274">
        <ele>470.1</ele>
        <time>2023-04-10T12:35:57Z</time>
      </trkpt>
      <trkpt lat="47.79898" lon="6.54277">
        <ele>470.1</ele>
        <time>2023-04-10T12:36:06Z</time>
      </trkpt>
      <trkpt lat="47.79889" lon="6.5428">
        <ele>469.9</ele>
        <time>2023-04-10T12:36:14Z</time>
      </trkpt>
      <trkpt lat="47.7988" lon="6.54284">
        <ele>469.5</ele>
        <time>2023-04-10T12:36:21Z</time>
      </trkpt>
      <trkpt lat="47.7987" lon="6.54288">
        <ele>469</ele>
        <time>2023-04-10T12:36:27Z</time>
      </trkpt>
      <trkpt lat="47.79861" lon="6.54292">
        <ele>468.6</ele>
        <time>2023-04-10T12:36:34Z</time>
      </trkpt>
      <trkpt lat="47.79851" lon="6.54293">
        <ele>468.3</ele>
        <time>2023-04-10T12:36:40Z</time>
      </trkpt>
      <trkpt lat="47.79842" lon="6.5429">
        <ele>468</ele>
        <time>2023-04-10T12:36:49Z</time>
      </trkpt>
      <trkpt lat="47.79832" lon="6.54288">
        <ele>467.8</ele>
        <time>2023-04-10T12:36:55Z</time>
      </trkpt>
      <trkpt lat="47.79822" lon="6.54284">
        <ele>467.5</ele>
        <time>2023-04-10T12:37:00Z</time>
      </trkpt>
      <trkpt lat="47.79812" lon="6.54282">
        <ele>467.2</ele>
        <time>2023-04-10T12:37:07Z</time>
      </trkpt>
      <trkpt lat="47.79802" lon="6.54281">
        <ele>466.9</ele>
        <time>2023-04-10T12:37:15Z</time>
      </trkpt>
      <trkpt lat="47.79792" lon="6.54284">
        <ele>466.8</ele>
        <time>2023-04-10T12:37:21Z</time>
      </trkpt>
      <trkpt lat="47.79783" lon="6.54288">
        <ele>467.2</ele>
        <time>2023-04-10T12:37:26Z</time>
      </trkpt>
      <trkpt lat="47.79774" lon="6.54294">
        <ele>468.1</ele>
        <time>2023-04-10T12:37:31Z</time>
      </trkpt>
      <trkpt lat="47.79766" lon="6.54302">
        <ele>469.2</ele>
        <time>2023-04-10T12:37:37Z</time>
      </trkpt>
      <trkpt lat="47.79759" lon="6.54311">
        <ele>470.4</ele>
        <time>2023-04-10T12:37:45Z</time>
      </trkpt>
      <trkpt lat="47.79752" lon="6.5432">
        <ele>471.3</ele>
        <time>2023-04-10T12:37:53Z</time>
      </trkpt>
      <trkpt lat="47.79742" lon="6.54326">
        <ele>471.8</ele>
        <time>2023-04-10T12:37:58Z</time>
      </trkpt>
      <trkpt lat="47.79736" lon="6.54336">
        <ele>472.2</ele>
        <time>2023-04-10T12:38:05Z</time>
      </trkpt>
      <trkpt lat="47.79732" lon="6.54349">
        <ele>472.4</ele>
        <time>2023-04-10T12:38:13Z</time>
      </trkpt>
      <trkpt lat="47.79728" lon="6.54363">
        <ele>472.6</ele>
        <time>2023-04-10T12:38:22Z</time>
      </trkpt>
      <trkpt lat="47.79723" lon="6.54375">
        <ele>472.7</ele>
        <time>2023-04-10T12:38:30Z</time>
      </trkpt>
      <trkpt lat="47.79721" lon="6.54389">
        <ele>473</ele>
        <time>2023-04-10T12:38:35Z</time>
      </trkpt>
      <trkpt lat="47.7972" lon="6.54403">
        <ele>473.4</ele>
        <time>2023-04-10T12:38:41Z</time>
      </trkpt>
      <trkpt lat="47.79716" lon="6.54416">
        <ele>474</ele>
        <time>2023-04-10T12:38:50Z</time>
      </trkpt>
      <trkpt lat="47.79718" lon="6.54429">
        <ele>474.5</ele>
        <time>2023-04-10T12:38:58Z</time>
      </trkpt>
      <trkpt lat="47.79719" lon="6.54443">
        <ele>475</ele>
        <time>2023-04-10T12:39:04Z</time>
      </trkpt>
      <trkpt lat="47.79712" lon="6.54453">
        <ele>475.6</ele>
        <time>2023-04-10T12:39:21Z</time>
      </trkpt>
      <trkpt lat="47.79707" lon="6.54451">
        <ele>475.5</ele>
        <time>2023-04-10T12:39:29Z</time>
      </trkpt>
      <trkpt lat="47.79707" lon="6.54451">
        <ele>475.5</ele>
        <time>2023-04-10T12:39:30Z</time>
      </trkpt>
      <trkpt lat="47.79698" lon="6.5445">
        <ele>474.3</ele>
        <time>2023-04-10T12:39:37Z</time>
      </trkpt>
      <trkpt lat="47.79688" lon="6.54445">
        <ele>472.5</ele>
        <time>2023-04-10T12:39:42Z</time>
      </trkpt>
      <trkpt lat="47.79679" lon="6.54442">
        <ele>471.5</ele>
        <time>2023-04-10T12:39:48Z</time>
      </trkpt>
      <trkpt lat="47.7967" lon="6.54436">
        <ele>470.8</ele>
        <time>2023-04-10T12:39:54Z</time>
      </trkpt>
      <trkpt lat="47.7966" lon="6.5443">
        <ele>470.1</ele>
        <time>2023-04-10T12:40:00Z</time>
      </trkpt>
      <trkpt lat="47.79652" lon="6.54424">
        <ele>469.6</ele>
        <time>2023-04-10T12:40:07Z</time>
      </trkpt>
      <trkpt lat="47.79645" lon="6.54416">
        <ele>469.6</ele>
        <time>2023-04-10T12:40:14Z</time>
      </trkpt>
      <trkpt lat="47.79637" lon="6.54407">
        <ele>465.3</ele>
        <time>2023-04-10T12:40:21Z</time>
      </trkpt>
      <trkpt lat="47.79629" lon="6.54396">
        <ele>462.4</ele>
        <time>2023-04-10T12:40:28Z</time>
      </trkpt>
      <trkpt lat="47.79623" lon="6.54386">
        <ele>466.8</ele>
        <time>2023-04-10T12:40:34Z</time>
      </trkpt>
      <trkpt lat="47.79617" lon="6.54375">
        <ele>464.8</ele>
        <time>2023-04-10T12:40:40Z</time>
      </trkpt>
      <trkpt lat="47.79613" lon="6.54363">
        <ele>465.9</ele>
        <time>2023-04-10T12:40:46Z</time>
      </trkpt>
      <trkpt lat="47.79607" lon="6.54352">
        <ele>462.4</ele>
        <time>2023-04-10T12:40:53Z</time>
      </trkpt>
      <trkpt lat="47.796" lon="6.54343">
        <ele>462.3</ele>
        <time>2023-04-10T12:41:00Z</time>
      </trkpt>
      <trkpt lat="47.79593" lon="6.54331">
        <ele>464.2</ele>
        <time>2023-04-10T12:41:07Z</time>
      </trkpt>
      <trkpt lat="47.79587" lon="6.54321">
        <ele>466.8</ele>
        <time>2023-04-10T12:41:14Z</time>
      </trkpt>
      <trkpt lat="47.79582" lon="6.5431">
        <ele>464.5</ele>
        <time>2023-04-10T12:41:20Z</time>
      </trkpt>
      <trkpt lat="47.79575" lon="6.54299">
        <ele>466.9</ele>
        <time>2023-04-10T12:41:30Z</time>
      </trkpt>
      <trkpt lat="47.79566" lon="6.54293">
        <ele>465.8</ele>
        <time>2023-04-10T12:41:37Z</time>
      </trkpt>
      <trkpt lat="47.79557" lon="6.54288">
        <ele>463.3</ele>
        <time>2023-04-10T12:41:44Z</time>
      </trkpt>
      <trkpt lat="47.79549" lon="6.54283">
        <ele>463.4</ele>
        <time>2023-04-10T12:41:53Z</time>
      </trkpt>
      <trkpt lat="47.79539" lon="6.54281">
        <ele>463.4</ele>
        <time>2023-04-10T12:42:04Z</time>
      </trkpt>
      <trkpt lat="47.79529" lon="6.54285">
        <ele>463.4</ele>
        <time>2023-04-10T12:42:13Z</time>
      </trkpt>
      <trkpt lat="47.7952" lon="6.54285">
        <ele>464.8</ele>
        <time>2023-04-10T12:42:21Z</time>
      </trkpt>
      <trkpt lat="47.7951" lon="6.54285">
        <ele>465.8</ele>
        <time>2023-04-10T12:42:29Z</time>
      </trkpt>
      <trkpt lat="47.79499" lon="6.54287">
        <ele>465.5</ele>
        <time>2023-04-10T12:42:35Z</time>
      </trkpt>
      <trkpt lat="47.79489" lon="6.54289">
        <ele>465.7</ele>
        <time>2023-04-10T12:42:40Z</time>
      </trkpt>
      <trkpt lat="47.7948" lon="6.5429">
        <ele>465.7</ele>
        <time>2023-04-10T12:42:46Z</time>
      </trkpt>
      <trkpt lat="47.7947" lon="6.5429">
        <ele>466.1</ele>
        <time>2023-04-10T12:42:55Z</time>
      </trkpt>
      <trkpt lat="47.7946" lon="6.54289">
        <ele>466.1</ele>
        <time>2023-04-10T12:43:02Z</time>
      </trkpt>
      <trkpt lat="47.7945" lon="6.5429">
        <ele>466.4</ele>
        <time>2023-04-10T12:43:09Z</time>
      </trkpt>
      <trkpt lat="47.7944" lon="6.54292">
        <ele>466.9</ele>
        <time>2023-04-10T12:43:16Z</time>
      </trkpt>
      <trkpt lat="47.7943" lon="6.54295">
        <ele>467.3</ele>
        <time>2023-04-10T12:43:23Z</time>
      </trkpt>
      <trkpt lat="47.79421" lon="6.543">
        <ele>467.6</ele>
        <time>2023-04-10T12:43:30Z</time>
      </trkpt>
      <trkpt lat="47.79412" lon="6.54303">
        <ele>467.7</ele>
        <time>2023-04-10T12:43:35Z</time>
      </trkpt>
      <trkpt lat="47.794" lon="6.543">
        <ele>468</ele>
        <time>2023-04-10T12:43:42Z</time>
      </trkpt>
      <trkpt lat="47.79392" lon="6.54292">
        <ele>468</ele>
        <time>2023-04-10T12:43:48Z</time>
      </trkpt>
      <trkpt lat="47.79386" lon="6.54281">
        <ele>468</ele>
        <time>2023-04-10T12:43:54Z</time>
      </trkpt>
      <trkpt lat="47.79383" lon="6.54266">
        <ele>468</ele>
        <time>2023-04-10T12:44:01Z</time>
      </trkpt>
      <trkpt lat="47.79381" lon="6.54253">
        <ele>468</ele>
        <time>2023-04-10T12:44:07Z</time>
      </trkpt>
      <trkpt lat="47.7938" lon="6.54239">
        <ele>468</ele>
        <time>2023-04-10T12:44:13Z</time>
      </trkpt>
      <trkpt lat="47.79378" lon="6.54226">
        <ele>468</ele>
        <time>2023-04-10T12:44:20Z</time>
      </trkpt>
      <trkpt lat="47.79377" lon="6.54211">
        <ele>468</ele>
        <time>2023-04-10T12:44:26Z</time>
      </trkpt>
      <trkpt lat="47.79375" lon="6.54196">
        <ele>468</ele>
        <time>2023-04-10T12:44:33Z</time>
      </trkpt>
      <trkpt lat="47.79373" lon="6.54183">
        <ele>468</ele>
        <time>2023-04-10T12:44:38Z</time>
      </trkpt>
      <trkpt lat="47.7937" lon="6.54169">
        <ele>468</ele>
        <time>2023-04-10T12:44:44Z</time>
      </trkpt>
      <trkpt lat="47.79368" lon="6.54156">
        <ele>468</ele>
        <time>2023-04-10T12:44:52Z</time>
      </trkpt>
      <trkpt lat="47.79367" lon="6.54142">
        <ele>467.9</ele>
        <time>2023-04-10T12:45:00Z</time>
      </trkpt>
      <trkpt lat="47.79363" lon="6.54128">
        <ele>467.9</ele>
        <time>2023-04-10T12:45:09Z</time>
      </trkpt>
      <trkpt lat="47.7936" lon="6.54115">
        <ele>467.9</ele>
        <time>2023-04-10T12:45:16Z</time>
      </trkpt>
      <trkpt lat="47.79355" lon="6.54103">
        <ele>467.9</ele>
        <time>2023-04-10T12:45:24Z</time>
      </trkpt>
      <trkpt lat="47.79352" lon="6.54089">
        <ele>467.9</ele>
        <time>2023-04-10T12:45:32Z</time>
      </trkpt>
      <trkpt lat="47.79349" lon="6.54076">
        <ele>467.9</ele>
        <time>2023-04-10T12:45:38Z</time>
      </trkpt>
      <trkpt lat="47.7934" lon="6.54078">
        <ele>467.9</ele>
        <time>2023-04-10T12:45:56Z</time>
      </trkpt>
      <trkpt lat="47.79337" lon="6.54091">
        <ele>469.1</ele>
        <time>2023-04-10T12:46:04Z</time>
      </trkpt>
      <trkpt lat="47.79335" lon="6.54105">
        <ele>469.5</ele>
        <time>2023-04-10T12:46:11Z</time>
      </trkpt>
      <trkpt lat="47.79334" lon="6.5412">
        <ele>469.9</ele>
        <time>2023-04-10T12:46:17Z</time>
      </trkpt>
      <trkpt lat="47.79332" lon="6.54133">
        <ele>470</ele>
        <time>2023-04-10T12:46:26Z</time>
      </trkpt>
      <trkpt lat="47.79329" lon="6.54146">
        <ele>470</ele>
        <time>2023-04-10T12:46:33Z</time>
      </trkpt>
      <trkpt lat="47.79328" lon="6.54161">
        <ele>470</ele>
        <time>2023-04-10T12:46:39Z</time>
      </trkpt>
      <trkpt lat="47.79325" lon="6.54176">
        <ele>470</ele>
        <time>2023-04-10T12:46:45Z</time>
      </trkpt>
      <trkpt lat="47.79323" lon="6.54191">
        <ele>470</ele>
        <time>2023-04-10T12:46:51Z</time>
      </trkpt>
      <trkpt lat="47.7932" lon="6.54206">
        <ele>470.2</ele>
        <time>2023-04-10T12:46:58Z</time>
      </trkpt>
      <trkpt lat="47.79317" lon="6.54221">
        <ele>470.4</ele>
        <time>2023-04-10T12:47:05Z</time>
      </trkpt>
      <trkpt lat="47.79314" lon="6.54235">
        <ele>470.7</ele>
        <time>2023-04-10T12:47:12Z</time>
      </trkpt>
      <trkpt lat="47.79311" lon="6.54248">
        <ele>471</ele>
        <time>2023-04-10T12:47:19Z</time>
      </trkpt>
      <trkpt lat="47.79308" lon="6.54263">
        <ele>471.2</ele>
        <time>2023-04-10T12:47:27Z</time>
      </trkpt>
      <trkpt lat="47.79305" lon="6.54276">
        <ele>471.3</ele>
        <time>2023-04-10T12:47:35Z</time>
      </trkpt>
      <trkpt lat="47.79303" lon="6.5429">
        <ele>471.5</ele>
        <time>2023-04-10T12:47:43Z</time>
      </trkpt>
      <trkpt lat="47.793" lon="6.54303">
        <ele>471.6</ele>
        <time>2023-04-10T12:47:49Z</time>
      </trkpt>
      <trkpt lat="47.79298" lon="6.54318">
        <ele>471.9</ele>
        <time>2023-04-10T12:47:57Z</time>
      </trkpt>
      <trkpt lat="47.79295" lon="6.54331">
        <ele>472.2</ele>
        <time>2023-04-10T12:48:04Z</time>
      </trkpt>
      <trkpt lat="47.79292" lon="6.54345">
        <ele>472.6</ele>
        <time>2023-04-10T12:48:12Z</time>
      </trkpt>
      <trkpt lat="47.79288" lon="6.54358">
        <ele>472.9</ele>
        <time>2023-04-10T12:48:21Z</time>
      </trkpt>
      <trkpt lat="47.79285" lon="6.54371">
        <ele>473.3</ele>
        <time>2023-04-10T12:48:26Z</time>
      </trkpt>
      <trkpt lat="47.79282" lon="6.54385">
        <ele>473.7</ele>
        <time>2023-04-10T12:48:32Z</time>
      </trkpt>
      <trkpt lat="47.7928" lon="6.54399">
        <ele>474.1</ele>
        <time>2023-04-10T12:48:39Z</time>
      </trkpt>
      <trkpt lat="47.79276" lon="6.54413">
        <ele>474.5</ele>
        <time>2023-04-10T12:48:47Z</time>
      </trkpt>
      <trkpt lat="47.79274" lon="6.54427">
        <ele>474.9</ele>
        <time>2023-04-10T12:48:55Z</time>
      </trkpt>
      <trkpt lat="47.7927" lon="6.5444">
        <ele>475.2</ele>
        <time>2023-04-10T12:49:03Z</time>
      </trkpt>
      <trkpt lat="47.79268" lon="6.54453">
        <ele>475.5</ele>
        <time>2023-04-10T12:49:10Z</time>
      </trkpt>
      <trkpt lat="47.79265" lon="6.54467">
        <ele>475.9</ele>
        <time>2023-04-10T12:49:18Z</time>
      </trkpt>
      <trkpt lat="47.79264" lon="6.54481">
        <ele>476.1</ele>
        <time>2023-04-10T12:49:24Z</time>
      </trkpt>
      <trkpt lat="47.7926" lon="6.54495">
        <ele>476.3</ele>
        <time>2023-04-10T12:49:31Z</time>
      </trkpt>
      <trkpt lat="47.79256" lon="6.54508">
        <ele>476.4</ele>
        <time>2023-04-10T12:49:38Z</time>
      </trkpt>
      <trkpt lat="47.79252" lon="6.54521">
        <ele>476.4</ele>
        <time>2023-04-10T12:49:45Z</time>
      </trkpt>
      <trkpt lat="47.79249" lon="6.54534">
        <ele>476.4</ele>
        <time>2023-04-10T12:49:53Z</time>
      </trkpt>
      <trkpt lat="47.79246" lon="6.54548">
        <ele>476.3</ele>
        <time>2023-04-10T12:50:00Z</time>
      </trkpt>
      <trkpt lat="47.79243" lon="6.54562">
        <ele>476.2</ele>
        <time>2023-04-10T12:50:07Z</time>
      </trkpt>
      <trkpt lat="47.7924" lon="6.54576">
        <ele>476.2</ele>
        <time>2023-04-10T12:50:15Z</time>
      </trkpt>
      <trkpt lat="47.79236" lon="6.5459">
        <ele>476.1</ele>
        <time>2023-04-10T12:50:23Z</time>
      </trkpt>
      <trkpt lat="47.79233" lon="6.54603">
        <ele>476.1</ele>
        <time>2023-04-10T12:50:30Z</time>
      </trkpt>
      <trkpt lat="47.7923" lon="6.54617">
        <ele>476</ele>
        <time>2023-04-10T12:50:38Z</time>
      </trkpt>
      <trkpt lat="47.79227" lon="6.5463">
        <ele>476</ele>
        <time>2023-04-10T12:50:45Z</time>
      </trkpt>
      <trkpt lat="47.79224" lon="6.54644">
        <ele>475.9</ele>
        <time>2023-04-10T12:50:53Z</time>
      </trkpt>
      <trkpt lat="47.79221" lon="6.54657">
        <ele>476</ele>
        <time>2023-04-10T12:51:01Z</time>
      </trkpt>
      <trkpt lat="47.79218" lon="6.54672">
        <ele>476.1</ele>
        <time>2023-04-10T12:51:09Z</time>
      </trkpt>
      <trkpt lat="47.79215" lon="6.54685">
        <ele>476.2</ele>
        <time>2023-04-10T12:51:17Z</time>
      </trkpt>
      <trkpt lat="47.79212" lon="6.547">
        <ele>476.3</ele>
        <time>2023-04-10T12:51:25Z</time>
      </trkpt>
      <trkpt lat="47.7921" lon="6.54714">
        <ele>476.5</ele>
        <time>2023-04-10T12:51:33Z</time>
      </trkpt>
      <trkpt lat="47.79207" lon="6.54728">
        <ele>476.5</ele>
        <time>2023-04-10T12:51:40Z</time>
      </trkpt>
      <trkpt lat="47.79204" lon="6.54742">
        <ele>476.5</ele>
        <time>2023-04-10T12:51:47Z</time>
      </trkpt>
      <trkpt lat="47.792" lon="6.54756">
        <ele>476.6</ele>
        <time>2023-04-10T12:51:55Z</time>
      </trkpt>
      <trkpt lat="47.79197" lon="6.54768">
        <ele>476.7</ele>
        <time>2023-04-10T12:52:02Z</time>
      </trkpt>
      <trkpt lat="47.79194" lon="6.54782">
        <ele>476.9</ele>
        <time>2023-04-10T12:52:11Z</time>
      </trkpt>
      <trkpt lat="47.79192" lon="6.54796">
        <ele>477.3</ele>
        <time>2023-04-10T12:52:18Z</time>
      </trkpt>
      <trkpt lat="47.79188" lon="6.5481">
        <ele>477.7</ele>
        <time>2023-04-10T12:52:25Z</time>
      </trkpt>
      <trkpt lat="47.79185" lon="6.54824">
        <ele>478.1</ele>
        <time>2023-04-10T12:52:33Z</time>
      </trkpt>
      <trkpt lat="47.79183" lon="6.54838">
        <ele>478.5</ele>
        <time>2023-04-10T12:52:41Z</time>
      </trkpt>
      <trkpt lat="47.79181" lon="6.54852">
        <ele>478.7</ele>
        <time>2023-04-10T12:52:48Z</time>
      </trkpt>
      <trkpt lat="47.79177" lon="6.54865">
        <ele>478.6</ele>
        <time>2023-04-10T12:52:55Z</time>
      </trkpt>
      <trkpt lat="47.79175" lon="6.54878">
        <ele>478.4</ele>
        <time>2023-04-10T12:53:03Z</time>
      </trkpt>
      <trkpt lat="47.79171" lon="6.54892">
        <ele>478.2</ele>
        <time>2023-04-10T12:53:11Z</time>
      </trkpt>
      <trkpt lat="47.79168" lon="6.54906">
        <ele>477.9</ele>
        <time>2023-04-10T12:53:18Z</time>
      </trkpt>
      <trkpt lat="47.79166" lon="6.5492">
        <ele>477.7</ele>
        <time>2023-04-10T12:53:26Z</time>
      </trkpt>
      <trkpt lat="47.79163" lon="6.54933">
        <ele>477.4</ele>
        <time>2023-04-10T12:53:33Z</time>
      </trkpt>
      <trkpt lat="47.79161" lon="6.54947">
        <ele>477</ele>
        <time>2023-04-10T12:53:41Z</time>
      </trkpt>
      <trkpt lat="47.79157" lon="6.5496">
        <ele>476.7</ele>
        <time>2023-04-10T12:53:49Z</time>
      </trkpt>
      <trkpt lat="47.79153" lon="6.54972">
        <ele>476.3</ele>
        <time>2023-04-10T12:53:56Z</time>
      </trkpt>
      <trkpt lat="47.79151" lon="6.54986">
        <ele>476</ele>
        <time>2023-04-10T12:54:03Z</time>
      </trkpt>
      <trkpt lat="47.7915" lon="6.5499">
        <ele>475.8</ele>
        <time>2023-04-10T12:54:08Z</time>
      </trkpt>
      <trkpt lat="47.7915" lon="6.5499">
        <ele>475.8</ele>
        <time>2023-04-10T12:54:17Z</time>
      </trkpt>
      <trkpt lat="47.7915" lon="6.5499">
        <ele>475.8</ele>
        <time>2023-04-10T12:54:18Z</time>
      </trkpt>
      <trkpt lat="47.7915" lon="6.5499">
        <ele>475.8</ele>
        <time>2023-04-10T12:54:22Z</time>
      </trkpt>
      <trkpt lat="47.79149" lon="6.55004">
        <ele>475.5</ele>
        <time>2023-04-10T12:54:32Z</time>
      </trkpt>
      <trkpt lat="47.79146" lon="6.55018">
        <ele>475.2</ele>
        <time>2023-04-10T12:54:39Z</time>
      </trkpt>
      <trkpt lat="47.79143" lon="6.5503">
        <ele>475</ele>
        <time>2023-04-10T12:54:46Z</time>
      </trkpt>
      <trkpt lat="47.79139" lon="6.55044">
        <ele>474.7</ele>
        <time>2023-04-10T12:54:53Z</time>
      </trkpt>
      <trkpt lat="47.79136" lon="6.55057">
        <ele>474.6</ele>
        <time>2023-04-10T12:55:00Z</time>
      </trkpt>
      <trkpt lat="47.79134" lon="6.55071">
        <ele>474.4</ele>
        <time>2023-04-10T12:55:08Z</time>
      </trkpt>
      <trkpt lat="47.79131" lon="6.55084">
        <ele>474.1</ele>
        <time>2023-04-10T12:55:14Z</time>
      </trkpt>
      <trkpt lat="47.79128" lon="6.55098">
        <ele>473.9</ele>
        <time>2023-04-10T12:55:21Z</time>
      </trkpt>
      <trkpt lat="47.79124" lon="6.55112">
        <ele>473.6</ele>
        <time>2023-04-10T12:55:29Z</time>
      </trkpt>
      <trkpt lat="47.79121" lon="6.55126">
        <ele>473.4</ele>
        <time>2023-04-10T12:55:37Z</time>
      </trkpt>
      <trkpt lat="47.79119" lon="6.55141">
        <ele>473.1</ele>
        <time>2023-04-10T12:55:45Z</time>
      </trkpt>
      <trkpt lat="47.79117" lon="6.55154">
        <ele>472.8</ele>
        <time>2023-04-10T12:55:53Z</time>
      </trkpt>
      <trkpt lat="47.79112" lon="6.55166">
        <ele>472.6</ele>
        <time>2023-04-10T12:56:01Z</time>
      </trkpt>
      <trkpt lat="47.79108" lon="6.55179">
        <ele>472.3</ele>
        <time>2023-04-10T12:56:09Z</time>
      </trkpt>
      <trkpt lat="47.79105" lon="6.55193">
        <ele>472.2</ele>
        <time>2023-04-10T12:56:16Z</time>
      </trkpt>
      <trkpt lat="47.79102" lon="6.55206">
        <ele>472.2</ele>
        <time>2023-04-10T12:56:22Z</time>
      </trkpt>
      <trkpt lat="47.791" lon="6.55221">
        <ele>472.3</ele>
        <time>2023-04-10T12:56:29Z</time>
      </trkpt>
      <trkpt lat="47.79098" lon="6.55234">
        <ele>472.5</ele>
        <time>2023-04-10T12:56:35Z</time>
      </trkpt>
      <trkpt lat="47.79096" lon="6.55248">
        <ele>472.9</ele>
        <time>2023-04-10T12:56:42Z</time>
      </trkpt>
      <trkpt lat="47.79095" lon="6.55263">
        <ele>473.4</ele>
        <time>2023-04-10T12:56:50Z</time>
      </trkpt>
      <trkpt lat="47.79089" lon="6.55275">
        <ele>474</ele>
        <time>2023-04-10T12:57:00Z</time>
      </trkpt>
      <trkpt lat="47.79082" lon="6.55287">
        <ele>474.4</ele>
        <time>2023-04-10T12:57:08Z</time>
      </trkpt>
      <trkpt lat="47.79076" lon="6.55299">
        <ele>474.4</ele>
        <time>2023-04-10T12:57:15Z</time>
      </trkpt>
      <trkpt lat="47.79066" lon="6.55302">
        <ele>474.4</ele>
        <time>2023-04-10T12:57:23Z</time>
      </trkpt>
      <trkpt lat="47.79057" lon="6.55304">
        <ele>474.4</ele>
        <time>2023-04-10T12:57:32Z</time>
      </trkpt>
      <trkpt lat="47.79057" lon="6.55304">
        <ele>474.4</ele>
        <time>2023-04-10T12:57:34Z</time>
      </trkpt>
      <trkpt lat="47.79057" lon="6.55305">
        <ele>474.4</ele>
        <time>2023-04-10T12:57:37Z</time>
      </trkpt>
      <trkpt lat="47.79057" lon="6.55306">
        <ele>474.4</ele>
        <time>2023-04-10T12:57:39Z</time>
      </trkpt>
      <trkpt lat="47.79057" lon="6.55306">
        <ele>474.4</ele>
        <time>2023-04-10T12:57:41Z</time>
      </trkpt>
      <trkpt lat="47.79057" lon="6.55306">
        <ele>474.4</ele>
        <time>2023-04-10T12:57:42Z</time>
      </trkpt>
      <trkpt lat="47.79057" lon="6.55306">
        <ele>474.4</ele>
        <time>2023-04-10T12:57:49Z</time>
      </trkpt>
      <trkpt lat="47.79057" lon="6.55306">
        <ele>474.4</ele>
        <time>2023-04-10T12:57:52Z</time>
      </trkpt>
      <trkpt lat="47.79056" lon="6.55306">
        <ele>474.4</ele>
        <time>2023-04-10T12:59:00Z</time>
      </trkpt>
      <trkpt lat="47.79056" lon="6.55306">
        <ele>474.4</ele>
        <time>2023-04-10T12:59:01Z</time>
      </trkpt>
      <trkpt lat="47.79056" lon="6.55305">
        <ele>474.4</ele>
        <time>2023-04-10T12:59:11Z</time>
      </trkpt>
      <trkpt lat="47.79047" lon="6.55309">
        <ele>474.4</ele>
        <time>2023-04-10T12:59:18Z</time>
      </trkpt>
      <trkpt lat="47.79037" lon="6.55312">
        <ele>474.4</ele>
        <time>2023-04-10T12:59:25Z</time>
      </trkpt>
      <trkpt lat="47.79027" lon="6.55314">
        <ele>474.3</ele>
        <time>2023-04-10T12:59:33Z</time>
      </trkpt>
      <trkpt lat="47.79018" lon="6.55316">
        <ele>474.3</ele>
        <time>2023-04-10T12:59:40Z</time>
      </trkpt>
      <trkpt lat="47.79009" lon="6.55319">
        <ele>474.2</ele>
        <time>2023-04-10T12:59:48Z</time>
      </trkpt>
      <trkpt lat="47.78999" lon="6.55319">
        <ele>474.2</ele>
        <time>2023-04-10T12:59:56Z</time>
      </trkpt>
      <trkpt lat="47.7899" lon="6.55321">
        <ele>474.2</ele>
        <time>2023-04-10T13:00:03Z</time>
      </trkpt>
      <trkpt lat="47.78981" lon="6.55322">
        <ele>474.3</ele>
        <time>2023-04-10T13:00:11Z</time>
      </trkpt>
      <trkpt lat="47.78971" lon="6.55322">
        <ele>474.3</ele>
        <time>2023-04-10T13:00:19Z</time>
      </trkpt>
      <trkpt lat="47.78961" lon="6.55319">
        <ele>474.3</ele>
        <time>2023-04-10T13:00:27Z</time>
      </trkpt>
      <trkpt lat="47.78951" lon="6.55316">
        <ele>474.4</ele>
        <time>2023-04-10T13:00:35Z</time>
      </trkpt>
      <trkpt lat="47.78942" lon="6.55312">
        <ele>474.4</ele>
        <time>2023-04-10T13:00:43Z</time>
      </trkpt>
      <trkpt lat="47.78933" lon="6.55309">
        <ele>474.4</ele>
        <time>2023-04-10T13:00:50Z</time>
      </trkpt>
      <trkpt lat="47.78924" lon="6.55303">
        <ele>474.5</ele>
        <time>2023-04-10T13:00:57Z</time>
      </trkpt>
      <trkpt lat="47.78915" lon="6.55298">
        <ele>474.5</ele>
        <time>2023-04-10T13:01:04Z</time>
      </trkpt>
      <trkpt lat="47.78906" lon="6.55291">
        <ele>474.5</ele>
        <time>2023-04-10T13:01:12Z</time>
      </trkpt>
      <trkpt lat="47.78899" lon="6.55283">
        <ele>474.6</ele>
        <time>2023-04-10T13:01:20Z</time>
      </trkpt>
      <trkpt lat="47.78891" lon="6.55276">
        <ele>474.5</ele>
        <time>2023-04-10T13:01:28Z</time>
      </trkpt>
      <trkpt lat="47.78883" lon="6.55269">
        <ele>474.4</ele>
        <time>2023-04-10T13:01:35Z</time>
      </trkpt>
      <trkpt lat="47.78876" lon="6.55259">
        <ele>474.3</ele>
        <time>2023-04-10T13:01:42Z</time>
      </trkpt>
      <trkpt lat="47.78869" lon="6.55249">
        <ele>474</ele>
        <time>2023-04-10T13:01:49Z</time>
      </trkpt>
      <trkpt lat="47.78864" lon="6.55238">
        <ele>473.8</ele>
        <time>2023-04-10T13:01:56Z</time>
      </trkpt>
      <trkpt lat="47.78857" lon="6.55228">
        <ele>473.5</ele>
        <time>2023-04-10T13:02:04Z</time>
      </trkpt>
      <trkpt lat="47.7885" lon="6.55218">
        <ele>473.1</ele>
        <time>2023-04-10T13:02:12Z</time>
      </trkpt>
      <trkpt lat="47.78843" lon="6.55208">
        <ele>472.7</ele>
        <time>2023-04-10T13:02:20Z</time>
      </trkpt>
      <trkpt lat="47.78835" lon="6.55198">
        <ele>472.3</ele>
        <time>2023-04-10T13:02:28Z</time>
      </trkpt>
      <trkpt lat="47.78828" lon="6.55187">
        <ele>471.9</ele>
        <time>2023-04-10T13:02:36Z</time>
      </trkpt>
      <trkpt lat="47.78822" lon="6.55177">
        <ele>471.5</ele>
        <time>2023-04-10T13:02:44Z</time>
      </trkpt>
      <trkpt lat="47.78814" lon="6.55167">
        <ele>471.1</ele>
        <time>2023-04-10T13:02:52Z</time>
      </trkpt>
      <trkpt lat="47.78807" lon="6.55158">
        <ele>470.7</ele>
        <time>2023-04-10T13:03:00Z</time>
      </trkpt>
      <trkpt lat="47.788" lon="6.55148">
        <ele>470.3</ele>
        <time>2023-04-10T13:03:07Z</time>
      </trkpt>
      <trkpt lat="47.78793" lon="6.55138">
        <ele>469.9</ele>
        <time>2023-04-10T13:03:14Z</time>
      </trkpt>
      <trkpt lat="47.78785" lon="6.55128">
        <ele>469.4</ele>
        <time>2023-04-10T13:03:21Z</time>
      </trkpt>
      <trkpt lat="47.78777" lon="6.55121">
        <ele>469</ele>
        <time>2023-04-10T13:03:28Z</time>
      </trkpt>
      <trkpt lat="47.78767" lon="6.55116">
        <ele>468.9</ele>
        <time>2023-04-10T13:03:34Z</time>
      </trkpt>
      <trkpt lat="47.78759" lon="6.55109">
        <ele>469</ele>
        <time>2023-04-10T13:03:39Z</time>
      </trkpt>
      <trkpt lat="47.78751" lon="6.55102">
        <ele>469.1</ele>
        <time>2023-04-10T13:03:45Z</time>
      </trkpt>
      <trkpt lat="47.78742" lon="6.55097">
        <ele>469.2</ele>
        <time>2023-04-10T13:03:51Z</time>
      </trkpt>
      <trkpt lat="47.78733" lon="6.55094">
        <ele>469.2</ele>
        <time>2023-04-10T13:03:59Z</time>
      </trkpt>
      <trkpt lat="47.78723" lon="6.55096">
        <ele>469.3</ele>
        <time>2023-04-10T13:04:08Z</time>
      </trkpt>
      <trkpt lat="47.78714" lon="6.55097">
        <ele>469.5</ele>
        <time>2023-04-10T13:04:16Z</time>
      </trkpt>
      <trkpt lat="47.78704" lon="6.55099">
        <ele>469.5</ele>
        <time>2023-04-10T13:04:24Z</time>
      </trkpt>
      <trkpt lat="47.78695" lon="6.551">
        <ele>469.6</ele>
        <time>2023-04-10T13:04:31Z</time>
      </trkpt>
      <trkpt lat="47.78686" lon="6.55101">
        <ele>469.6</ele>
        <time>2023-04-10T13:04:38Z</time>
      </trkpt>
      <trkpt lat="47.78676" lon="6.55102">
        <ele>469.5</ele>
        <time>2023-04-10T13:04:45Z</time>
      </trkpt>
      <trkpt lat="47.78667" lon="6.55105">
        <ele>469.5</ele>
        <time>2023-04-10T13:04:52Z</time>
      </trkpt>
      <trkpt lat="47.78657" lon="6.55106">
        <ele>469.5</ele>
        <time>2023-04-10T13:05:00Z</time>
      </trkpt>
      <trkpt lat="47.78647" lon="6.55107">
        <ele>469.6</ele>
        <time>2023-04-10T13:05:08Z</time>
      </trkpt>
      <trkpt lat="47.78638" lon="6.55109">
        <ele>469.7</ele>
        <time>2023-04-10T13:05:16Z</time>
      </trkpt>
      <trkpt lat="47.78628" lon="6.55109">
        <ele>469.8</ele>
        <time>2023-04-10T13:05:24Z</time>
      </trkpt>
      <trkpt lat="47.78618" lon="6.5511">
        <ele>469.9</ele>
        <time>2023-04-10T13:05:32Z</time>
      </trkpt>
      <trkpt lat="47.78609" lon="6.55111">
        <ele>469.8</ele>
        <time>2023-04-10T13:05:39Z</time>
      </trkpt>
      <trkpt lat="47.78599" lon="6.55112">
        <ele>469.8</ele>
        <time>2023-04-10T13:05:46Z</time>
      </trkpt>
      <trkpt lat="47.7859" lon="6.55114">
        <ele>469.7</ele>
        <time>2023-04-10T13:05:53Z</time>
      </trkpt>
      <trkpt lat="47.7858" lon="6.55117">
        <ele>469.6</ele>
        <time>2023-04-10T13:06:00Z</time>
      </trkpt>
      <trkpt lat="47.78571" lon="6.55123">
        <ele>469.6</ele>
        <time>2023-04-10T13:06:07Z</time>
      </trkpt>
      <trkpt lat="47.78561" lon="6.55128">
        <ele>469.5</ele>
        <time>2023-04-10T13:06:14Z</time>
      </trkpt>
      <trkpt lat="47.78552" lon="6.55133">
        <ele>469.3</ele>
        <time>2023-04-10T13:06:21Z</time>
      </trkpt>
      <trkpt lat="47.78544" lon="6.55138">
        <ele>469</ele>
        <time>2023-04-10T13:06:28Z</time>
      </trkpt>
      <trkpt lat="47.78534" lon="6.55143">
        <ele>468.4</ele>
        <time>2023-04-10T13:06:36Z</time>
      </trkpt>
      <trkpt lat="47.78526" lon="6.55147">
        <ele>467.8</ele>
        <time>2023-04-10T13:06:43Z</time>
      </trkpt>
      <trkpt lat="47.78516" lon="6.55151">
        <ele>467.2</ele>
        <time>2023-04-10T13:06:51Z</time>
      </trkpt>
      <trkpt lat="47.78506" lon="6.55153">
        <ele>466.5</ele>
        <time>2023-04-10T13:06:59Z</time>
      </trkpt>
      <trkpt lat="47.78496" lon="6.55153">
        <ele>465.7</ele>
        <time>2023-04-10T13:07:07Z</time>
      </trkpt>
      <trkpt lat="47.78487" lon="6.55154">
        <ele>464.8</ele>
        <time>2023-04-10T13:07:15Z</time>
      </trkpt>
      <trkpt lat="47.78477" lon="6.55155">
        <ele>463.6</ele>
        <time>2023-04-10T13:07:24Z</time>
      </trkpt>
      <trkpt lat="47.78467" lon="6.55154">
        <ele>462.5</ele>
        <time>2023-04-10T13:07:32Z</time>
      </trkpt>
      <trkpt lat="47.78458" lon="6.55157">
        <ele>461.3</ele>
        <time>2023-04-10T13:07:41Z</time>
      </trkpt>
      <trkpt lat="47.78448" lon="6.55155">
        <ele>460.3</ele>
        <time>2023-04-10T13:07:48Z</time>
      </trkpt>
      <trkpt lat="47.78439" lon="6.55154">
        <ele>459.5</ele>
        <time>2023-04-10T13:07:55Z</time>
      </trkpt>
      <trkpt lat="47.78429" lon="6.55152">
        <ele>458.6</ele>
        <time>2023-04-10T13:08:02Z</time>
      </trkpt>
      <trkpt lat="47.78419" lon="6.55151">
        <ele>457.9</ele>
        <time>2023-04-10T13:08:09Z</time>
      </trkpt>
      <trkpt lat="47.7841" lon="6.55149">
        <ele>457.2</ele>
        <time>2023-04-10T13:08:15Z</time>
      </trkpt>
      <trkpt lat="47.784" lon="6.5515">
        <ele>456.5</ele>
        <time>2023-04-10T13:08:23Z</time>
      </trkpt>
      <trkpt lat="47.7839" lon="6.55149">
        <ele>455.7</ele>
        <time>2023-04-10T13:08:31Z</time>
      </trkpt>
      <trkpt lat="47.78381" lon="6.55149">
        <ele>455.1</ele>
        <time>2023-04-10T13:08:39Z</time>
      </trkpt>
      <trkpt lat="47.78371" lon="6.55151">
        <ele>454.5</ele>
        <time>2023-04-10T13:08:47Z</time>
      </trkpt>
      <trkpt lat="47.78362" lon="6.55149">
        <ele>454.1</ele>
        <time>2023-04-10T13:08:55Z</time>
      </trkpt>
      <trkpt lat="47.78353" lon="6.55148">
        <ele>453.9</ele>
        <time>2023-04-10T13:09:02Z</time>
      </trkpt>
      <trkpt lat="47.78343" lon="6.55147">
        <ele>453.8</ele>
        <time>2023-04-10T13:09:10Z</time>
      </trkpt>
      <trkpt lat="47.78333" lon="6.55146">
        <ele>453.8</ele>
        <time>2023-04-10T13:09:18Z</time>
      </trkpt>
      <trkpt lat="47.78324" lon="6.55145">
        <ele>453.9</ele>
        <time>2023-04-10T13:09:25Z</time>
      </trkpt>
      <trkpt lat="47.78315" lon="6.55144">
        <ele>454.1</ele>
        <time>2023-04-10T13:09:32Z</time>
      </trkpt>
      <trkpt lat="47.78306" lon="6.55144">
        <ele>454.5</ele>
        <time>2023-04-10T13:09:39Z</time>
      </trkpt>
      <trkpt lat="47.78296" lon="6.55144">
        <ele>454.8</ele>
        <time>2023-04-10T13:09:46Z</time>
      </trkpt>
      <trkpt lat="47.78286" lon="6.55147">
        <ele>455.1</ele>
        <time>2023-04-10T13:09:53Z</time>
      </trkpt>
      <trkpt lat="47.78278" lon="6.55151">
        <ele>455.3</ele>
        <time>2023-04-10T13:09:59Z</time>
      </trkpt>
      <trkpt lat="47.78269" lon="6.55158">
        <ele>455.3</ele>
        <time>2023-04-10T13:10:06Z</time>
      </trkpt>
      <trkpt lat="47.78261" lon="6.55167">
        <ele>455.2</ele>
        <time>2023-04-10T13:10:13Z</time>
      </trkpt>
      <trkpt lat="47.78254" lon="6.55176">
        <ele>455.1</ele>
        <time>2023-04-10T13:10:19Z</time>
      </trkpt>
      <trkpt lat="47.78245" lon="6.55184">
        <ele>455.1</ele>
        <time>2023-04-10T13:10:26Z</time>
      </trkpt>
      <trkpt lat="47.78237" lon="6.55191">
        <ele>455</ele>
        <time>2023-04-10T13:10:33Z</time>
      </trkpt>
      <trkpt lat="47.78228" lon="6.55197">
        <ele>454.9</ele>
        <time>2023-04-10T13:10:40Z</time>
      </trkpt>
      <trkpt lat="47.78218" lon="6.55199">
        <ele>454.9</ele>
        <time>2023-04-10T13:10:49Z</time>
      </trkpt>
      <trkpt lat="47.7821" lon="6.55207">
        <ele>455</ele>
        <time>2023-04-10T13:10:55Z</time>
      </trkpt>
      <trkpt lat="47.78201" lon="6.55214">
        <ele>455</ele>
        <time>2023-04-10T13:11:04Z</time>
      </trkpt>
      <trkpt lat="47.78194" lon="6.55222">
        <ele>455.1</ele>
        <time>2023-04-10T13:11:11Z</time>
      </trkpt>
      <trkpt lat="47.78186" lon="6.55231">
        <ele>455</ele>
        <time>2023-04-10T13:11:19Z</time>
      </trkpt>
      <trkpt lat="47.78178" lon="6.5524">
        <ele>454.8</ele>
        <time>2023-04-10T13:11:27Z</time>
      </trkpt>
      <trkpt lat="47.7817" lon="6.5525">
        <ele>454.6</ele>
        <time>2023-04-10T13:11:35Z</time>
      </trkpt>
      <trkpt lat="47.78162" lon="6.55259">
        <ele>454.4</ele>
        <time>2023-04-10T13:11:43Z</time>
      </trkpt>
      <trkpt lat="47.78155" lon="6.55268">
        <ele>454.3</ele>
        <time>2023-04-10T13:11:50Z</time>
      </trkpt>
      <trkpt lat="47.78147" lon="6.55277">
        <ele>454.3</ele>
        <time>2023-04-10T13:11:57Z</time>
      </trkpt>
      <trkpt lat="47.78141" lon="6.55287">
        <ele>454.3</ele>
        <time>2023-04-10T13:12:04Z</time>
      </trkpt>
      <trkpt lat="47.78133" lon="6.55296">
        <ele>454.3</ele>
        <time>2023-04-10T13:12:12Z</time>
      </trkpt>
      <trkpt lat="47.78124" lon="6.55304">
        <ele>454.2</ele>
        <time>2023-04-10T13:12:20Z</time>
      </trkpt>
      <trkpt lat="47.78115" lon="6.55305">
        <ele>454.1</ele>
        <time>2023-04-10T13:12:27Z</time>
      </trkpt>
      <trkpt lat="47.78106" lon="6.55307">
        <ele>453.9</ele>
        <time>2023-04-10T13:12:34Z</time>
      </trkpt>
      <trkpt lat="47.78095" lon="6.55307">
        <ele>453.8</ele>
        <time>2023-04-10T13:12:42Z</time>
      </trkpt>
      <trkpt lat="47.78086" lon="6.55309">
        <ele>453.7</ele>
        <time>2023-04-10T13:12:49Z</time>
      </trkpt>
      <trkpt lat="47.78077" lon="6.55313">
        <ele>453.7</ele>
        <time>2023-04-10T13:12:56Z</time>
      </trkpt>
      <trkpt lat="47.78069" lon="6.55321">
        <ele>453.6</ele>
        <time>2023-04-10T13:13:05Z</time>
      </trkpt>
      <trkpt lat="47.7806" lon="6.55324">
        <ele>453.6</ele>
        <time>2023-04-10T13:13:15Z</time>
      </trkpt>
      <trkpt lat="47.7805" lon="6.55328">
        <ele>453.5</ele>
        <time>2023-04-10T13:13:24Z</time>
      </trkpt>
      <trkpt lat="47.78041" lon="6.55331">
        <ele>453.3</ele>
        <time>2023-04-10T13:13:28Z</time>
      </trkpt>
      <trkpt lat="47.78032" lon="6.55335">
        <ele>453.2</ele>
        <time>2023-04-10T13:13:34Z</time>
      </trkpt>
      <trkpt lat="47.78023" lon="6.55339">
        <ele>453.1</ele>
        <time>2023-04-10T13:13:41Z</time>
      </trkpt>
      <trkpt lat="47.78015" lon="6.55346">
        <ele>453</ele>
        <time>2023-04-10T13:13:48Z</time>
      </trkpt>
      <trkpt lat="47.78006" lon="6.55353">
        <ele>453</ele>
        <time>2023-04-10T13:13:55Z</time>
      </trkpt>
      <trkpt lat="47.77998" lon="6.55361">
        <ele>453</ele>
        <time>2023-04-10T13:14:01Z</time>
      </trkpt>
      <trkpt lat="47.7799" lon="6.55368">
        <ele>453.1</ele>
        <time>2023-04-10T13:14:08Z</time>
      </trkpt>
      <trkpt lat="47.77982" lon="6.55377">
        <ele>453.2</ele>
        <time>2023-04-10T13:14:15Z</time>
      </trkpt>
      <trkpt lat="47.77974" lon="6.55386">
        <ele>453.3</ele>
        <time>2023-04-10T13:14:22Z</time>
      </trkpt>
      <trkpt lat="47.77967" lon="6.55395">
        <ele>453.5</ele>
        <time>2023-04-10T13:14:29Z</time>
      </trkpt>
      <trkpt lat="47.77959" lon="6.55404">
        <ele>453.6</ele>
        <time>2023-04-10T13:14:36Z</time>
      </trkpt>
      <trkpt lat="47.77951" lon="6.55413">
        <ele>453.7</ele>
        <time>2023-04-10T13:14:43Z</time>
      </trkpt>
      <trkpt lat="47.77943" lon="6.55421">
        <ele>453.9</ele>
        <time>2023-04-10T13:14:50Z</time>
      </trkpt>
      <trkpt lat="47.77935" lon="6.5543">
        <ele>454</ele>
        <time>2023-04-10T13:14:57Z</time>
      </trkpt>
      <trkpt lat="47.77931" lon="6.55442">
        <ele>453.2</ele>
        <time>2023-04-10T13:15:04Z</time>
      </trkpt>
      <trkpt lat="47.77927" lon="6.55454">
        <ele>452.3</ele>
        <time>2023-04-10T13:15:12Z</time>
      </trkpt>
      <trkpt lat="47.77928" lon="6.55469">
        <ele>451.5</ele>
        <time>2023-04-10T13:15:19Z</time>
      </trkpt>
      <trkpt lat="47.77929" lon="6.55484">
        <ele>450.7</ele>
        <time>2023-04-10T13:15:27Z</time>
      </trkpt>
      <trkpt lat="47.77934" lon="6.55496">
        <ele>450.1</ele>
        <time>2023-04-10T13:15:33Z</time>
      </trkpt>
      <trkpt lat="47.77941" lon="6.55505">
        <ele>449.6</ele>
        <time>2023-04-10T13:15:39Z</time>
      </trkpt>
      <trkpt lat="47.77949" lon="6.55513">
        <ele>449</ele>
        <time>2023-04-10T13:15:46Z</time>
      </trkpt>
      <trkpt lat="47.77958" lon="6.55522">
        <ele>448.5</ele>
        <time>2023-04-10T13:15:54Z</time>
      </trkpt>
      <trkpt lat="47.77966" lon="6.5553">
        <ele>448.1</ele>
        <time>2023-04-10T13:16:01Z</time>
      </trkpt>
      <trkpt lat="47.77973" lon="6.55538">
        <ele>447.7</ele>
        <time>2023-04-10T13:16:08Z</time>
      </trkpt>
      <trkpt lat="47.7798" lon="6.55549">
        <ele>447.3</ele>
        <time>2023-04-10T13:16:17Z</time>
      </trkpt>
      <trkpt lat="47.77988" lon="6.55559">
        <ele>447</ele>
        <time>2023-04-10T13:16:24Z</time>
      </trkpt>
      <trkpt lat="47.77994" lon="6.55571">
        <ele>446.6</ele>
        <time>2023-04-10T13:16:31Z</time>
      </trkpt>
      <trkpt lat="47.77999" lon="6.55583">
        <ele>446.1</ele>
        <time>2023-04-10T13:16:38Z</time>
      </trkpt>
      <trkpt lat="47.78003" lon="6.55597">
        <ele>445.6</ele>
        <time>2023-04-10T13:16:45Z</time>
      </trkpt>
      <trkpt lat="47.78008" lon="6.55611">
        <ele>445</ele>
        <time>2023-04-10T13:16:52Z</time>
      </trkpt>
      <trkpt lat="47.78014" lon="6.55621">
        <ele>444.4</ele>
        <time>2023-04-10T13:16:58Z</time>
      </trkpt>
      <trkpt lat="47.78022" lon="6.5563">
        <ele>443.7</ele>
        <time>2023-04-10T13:17:04Z</time>
      </trkpt>
      <trkpt lat="47.7803" lon="6.55637">
        <ele>443</ele>
        <time>2023-04-10T13:17:10Z</time>
      </trkpt>
      <trkpt lat="47.7804" lon="6.55642">
        <ele>442.3</ele>
        <time>2023-04-10T13:17:16Z</time>
      </trkpt>
      <trkpt lat="47.7805" lon="6.55641">
        <ele>441.7</ele>
        <time>2023-04-10T13:17:23Z</time>
      </trkpt>
      <trkpt lat="47.78059" lon="6.55637">
        <ele>441.3</ele>
        <time>2023-04-10T13:17:29Z</time>
      </trkpt>
      <trkpt lat="47.78069" lon="6.55633">
        <ele>441.2</ele>
        <time>2023-04-10T13:17:35Z</time>
      </trkpt>
      <trkpt lat="47.78077" lon="6.55628">
        <ele>441.1</ele>
        <time>2023-04-10T13:17:41Z</time>
      </trkpt>
      <trkpt lat="47.78086" lon="6.55622">
        <ele>441.2</ele>
        <time>2023-04-10T13:17:48Z</time>
      </trkpt>
      <trkpt lat="47.78096" lon="6.55624">
        <ele>441.4</ele>
        <time>2023-04-10T13:17:56Z</time>
      </trkpt>
      <trkpt lat="47.78102" lon="6.55634">
        <ele>441.4</ele>
        <time>2023-04-10T13:18:04Z</time>
      </trkpt>
      <trkpt lat="47.78107" lon="6.55648">
        <ele>441.4</ele>
        <time>2023-04-10T13:18:12Z</time>
      </trkpt>
      <trkpt lat="47.78109" lon="6.55661">
        <ele>441.3</ele>
        <time>2023-04-10T13:18:20Z</time>
      </trkpt>
      <trkpt lat="47.78113" lon="6.55673">
        <ele>441</ele>
        <time>2023-04-10T13:18:28Z</time>
      </trkpt>
      <trkpt lat="47.78116" lon="6.55688">
        <ele>440.6</ele>
        <time>2023-04-10T13:18:35Z</time>
      </trkpt>
      <trkpt lat="47.7812" lon="6.55701">
        <ele>440.2</ele>
        <time>2023-04-10T13:18:42Z</time>
      </trkpt>
      <trkpt lat="47.78123" lon="6.55715">
        <ele>439.9</ele>
        <time>2023-04-10T13:18:49Z</time>
      </trkpt>
      <trkpt lat="47.78122" lon="6.5573">
        <ele>439.6</ele>
        <time>2023-04-10T13:18:55Z</time>
      </trkpt>
      <trkpt lat="47.78121" lon="6.55745">
        <ele>439.4</ele>
        <time>2023-04-10T13:19:03Z</time>
      </trkpt>
      <trkpt lat="47.78118" lon="6.55759">
        <ele>439.2</ele>
        <time>2023-04-10T13:19:10Z</time>
      </trkpt>
      <trkpt lat="47.78117" lon="6.55774">
        <ele>439.1</ele>
        <time>2023-04-10T13:19:16Z</time>
      </trkpt>
      <trkpt lat="47.78119" lon="6.55787">
        <ele>439.1</ele>
        <time>2023-04-10T13:19:24Z</time>
      </trkpt>
      <trkpt lat="47.78126" lon="6.55799">
        <ele>439.3</ele>
        <time>2023-04-10T13:19:30Z</time>
      </trkpt>
      <trkpt lat="47.78133" lon="6.55809">
        <ele>439.6</ele>
        <time>2023-04-10T13:19:35Z</time>
      </trkpt>
      <trkpt lat="47.78136" lon="6.55824">
        <ele>440</ele>
        <time>2023-04-10T13:19:43Z</time>
      </trkpt>
      <trkpt lat="47.78142" lon="6.55835">
        <ele>440.5</ele>
        <time>2023-04-10T13:19:49Z</time>
      </trkpt>
      <trkpt lat="47.78145" lon="6.5585">
        <ele>441</ele>
        <time>2023-04-10T13:19:57Z</time>
      </trkpt>
      <trkpt lat="47.78148" lon="6.55865">
        <ele>441.2</ele>
        <time>2023-04-10T13:20:04Z</time>
      </trkpt>
      <trkpt lat="47.78152" lon="6.55878">
        <ele>441.3</ele>
        <time>2023-04-10T13:20:10Z</time>
      </trkpt>
      <trkpt lat="47.78153" lon="6.55894">
        <ele>441.3</ele>
        <time>2023-04-10T13:20:17Z</time>
      </trkpt>
      <trkpt lat="47.78151" lon="6.55908">
        <ele>441.4</ele>
        <time>2023-04-10T13:20:25Z</time>
      </trkpt>
      <trkpt lat="47.7815" lon="6.55924">
        <ele>441.5</ele>
        <time>2023-04-10T13:20:32Z</time>
      </trkpt>
      <trkpt lat="47.7815" lon="6.55938">
        <ele>441.5</ele>
        <time>2023-04-10T13:20:39Z</time>
      </trkpt>
      <trkpt lat="47.7815" lon="6.55952">
        <ele>441.5</ele>
        <time>2023-04-10T13:20:45Z</time>
      </trkpt>
      <trkpt lat="47.78151" lon="6.55967">
        <ele>441.5</ele>
        <time>2023-04-10T13:20:50Z</time>
      </trkpt>
      <trkpt lat="47.7815" lon="6.5598">
        <ele>441.6</ele>
        <time>2023-04-10T13:20:56Z</time>
      </trkpt>
      <trkpt lat="47.78158" lon="6.55991">
        <ele>441.7</ele>
        <time>2023-04-10T13:21:03Z</time>
      </trkpt>
      <trkpt lat="47.78165" lon="6.56">
        <ele>441.8</ele>
        <time>2023-04-10T13:21:12Z</time>
      </trkpt>
      <trkpt lat="47.78172" lon="6.5601">
        <ele>441.9</ele>
        <time>2023-04-10T13:21:20Z</time>
      </trkpt>
      <trkpt lat="47.7818" lon="6.56017">
        <ele>442</ele>
        <time>2023-04-10T13:21:25Z</time>
      </trkpt>
      <trkpt lat="47.78184" lon="6.5603">
        <ele>442.1</ele>
        <time>2023-04-10T13:21:35Z</time>
      </trkpt>
      <trkpt lat="47.78183" lon="6.56033">
        <ele>442.1</ele>
        <time>2023-04-10T13:21:39Z</time>
      </trkpt>
      <trkpt lat="47.78182" lon="6.56033">
        <ele>442.1</ele>
        <time>2023-04-10T13:21:40Z</time>
      </trkpt>
      <trkpt lat="47.78183" lon="6.56032">
        <ele>442.1</ele>
        <time>2023-04-10T13:21:43Z</time>
      </trkpt>
      <trkpt lat="47.78183" lon="6.56032">
        <ele>442.1</ele>
        <time>2023-04-10T13:21:44Z</time>
      </trkpt>
      <trkpt lat="47.78183" lon="6.56032">
        <ele>442.1</ele>
        <time>2023-04-10T13:21:45Z</time>
      </trkpt>
      <trkpt lat="47.78183" lon="6.56032">
        <ele>442.1</ele>
        <time>2023-04-10T13:21:51Z</time>
      </trkpt>
      <trkpt lat="47.78183" lon="6.56032">
        <ele>442.1</ele>
        <time>2023-04-10T13:21:54Z</time>
      </trkpt>
      <trkpt lat="47.78183" lon="6.56033">
        <ele>442.1</ele>
        <time>2023-04-10T13:21:59Z</time>
      </trkpt>
      <trkpt lat="47.78177" lon="6.56043">
        <ele>442.1</ele>
        <time>2023-04-10T13:22:06Z</time>
      </trkpt>
      <trkpt lat="47.78171" lon="6.56053">
        <ele>442</ele>
        <time>2023-04-10T13:22:18Z</time>
      </trkpt>
      <trkpt lat="47.78171" lon="6.56053">
        <ele>442</ele>
        <time>2023-04-10T13:22:19Z</time>
      </trkpt>
      <trkpt lat="47.78171" lon="6.56053">
        <ele>442</ele>
        <time>2023-04-10T13:22:24Z</time>
      </trkpt>
      <trkpt lat="47.78169" lon="6.56053">
        <ele>442</ele>
        <time>2023-04-10T13:22:28Z</time>
      </trkpt>
      <trkpt lat="47.78168" lon="6.56053">
        <ele>442</ele>
        <time>2023-04-10T13:22:29Z</time>
      </trkpt>
      <trkpt lat="47.78167" lon="6.56053">
        <ele>442</ele>
        <time>2023-04-10T13:22:31Z</time>
      </trkpt>
      <trkpt lat="47.78167" lon="6.56053">
        <ele>442</ele>
        <time>2023-04-10T13:22:44Z</time>
      </trkpt>
      <trkpt lat="47.78167" lon="6.56054">
        <ele>442</ele>
        <time>2023-04-10T13:22:45Z</time>
      </trkpt>
      <trkpt lat="47.78167" lon="6.56054">
        <ele>442</ele>
        <time>2023-04-10T13:22:53Z</time>
      </trkpt>
      <trkpt lat="47.78161" lon="6.56068">
        <ele>441.8</ele>
        <time>2023-04-10T13:23:05Z</time>
      </trkpt>
      <trkpt lat="47.78154" lon="6.56077">
        <ele>441.7</ele>
        <time>2023-04-10T13:23:21Z</time>
      </trkpt>
      <trkpt lat="47.78146" lon="6.56085">
        <ele>441.7</ele>
        <time>2023-04-10T13:23:27Z</time>
      </trkpt>
      <trkpt lat="47.78137" lon="6.56089">
        <ele>441.7</ele>
        <time>2023-04-10T13:23:35Z</time>
      </trkpt>
      <trkpt lat="47.78128" lon="6.56095">
        <ele>441.7</ele>
        <time>2023-04-10T13:23:42Z</time>
      </trkpt>
      <trkpt lat="47.7812" lon="6.56103">
        <ele>441.7</ele>
        <time>2023-04-10T13:23:50Z</time>
      </trkpt>
      <trkpt lat="47.78111" lon="6.56109">
        <ele>441.7</ele>
        <time>2023-04-10T13:23:58Z</time>
      </trkpt>
      <trkpt lat="47.78102" lon="6.56117">
        <ele>441.6</ele>
        <time>2023-04-10T13:24:03Z</time>
      </trkpt>
      <trkpt lat="47.78094" lon="6.56124">
        <ele>441.7</ele>
        <time>2023-04-10T13:24:07Z</time>
      </trkpt>
      <trkpt lat="47.78086" lon="6.56128">
        <ele>442</ele>
        <time>2023-04-10T13:24:12Z</time>
      </trkpt>
      <trkpt lat="47.78076" lon="6.56132">
        <ele>442.7</ele>
        <time>2023-04-10T13:24:18Z</time>
      </trkpt>
      <trkpt lat="47.78067" lon="6.56138">
        <ele>443.3</ele>
        <time>2023-04-10T13:24:24Z</time>
      </trkpt>
      <trkpt lat="47.78061" lon="6.5615">
        <ele>443.6</ele>
        <time>2023-04-10T13:24:33Z</time>
      </trkpt>
      <trkpt lat="47.78055" lon="6.56161">
        <ele>443.7</ele>
        <time>2023-04-10T13:24:40Z</time>
      </trkpt>
      <trkpt lat="47.78047" lon="6.56169">
        <ele>443.7</ele>
        <time>2023-04-10T13:24:49Z</time>
      </trkpt>
      <trkpt lat="47.78038" lon="6.56174">
        <ele>443.8</ele>
        <time>2023-04-10T13:25:00Z</time>
      </trkpt>
      <trkpt lat="47.78031" lon="6.56183">
        <ele>443.8</ele>
        <time>2023-04-10T13:25:10Z</time>
      </trkpt>
      <trkpt lat="47.78023" lon="6.5619">
        <ele>443.6</ele>
        <time>2023-04-10T13:25:14Z</time>
      </trkpt>
      <trkpt lat="47.78014" lon="6.56192">
        <ele>443.3</ele>
        <time>2023-04-10T13:25:18Z</time>
      </trkpt>
      <trkpt lat="47.78007" lon="6.56201">
        <ele>442.9</ele>
        <time>2023-04-10T13:25:23Z</time>
      </trkpt>
      <trkpt lat="47.77999" lon="6.56211">
        <ele>442.2</ele>
        <time>2023-04-10T13:25:28Z</time>
      </trkpt>
      <trkpt lat="47.77994" lon="6.56223">
        <ele>441.7</ele>
        <time>2023-04-10T13:25:36Z</time>
      </trkpt>
      <trkpt lat="47.77987" lon="6.56235">
        <ele>441.3</ele>
        <time>2023-04-10T13:25:45Z</time>
      </trkpt>
      <trkpt lat="47.7798" lon="6.56245">
        <ele>441.2</ele>
        <time>2023-04-10T13:25:53Z</time>
      </trkpt>
      <trkpt lat="47.77971" lon="6.56248">
        <ele>441</ele>
        <time>2023-04-10T13:25:58Z</time>
      </trkpt>
      <trkpt lat="47.77965" lon="6.5626">
        <ele>440.7</ele>
        <time>2023-04-10T13:26:06Z</time>
      </trkpt>
      <trkpt lat="47.77958" lon="6.56273">
        <ele>440.2</ele>
        <time>2023-04-10T13:26:12Z</time>
      </trkpt>
      <trkpt lat="47.77951" lon="6.56283">
        <ele>439.9</ele>
        <time>2023-04-10T13:26:18Z</time>
      </trkpt>
      <trkpt lat="47.77943" lon="6.56294">
        <ele>439.8</ele>
        <time>2023-04-10T13:26:25Z</time>
      </trkpt>
      <trkpt lat="47.77936" lon="6.56302">
        <ele>439.8</ele>
        <time>2023-04-10T13:26:30Z</time>
      </trkpt>
      <trkpt lat="47.77928" lon="6.56311">
        <ele>440</ele>
        <time>2023-04-10T13:26:36Z</time>
      </trkpt>
      <trkpt lat="47.77917" lon="6.56313">
        <ele>440.3</ele>
        <time>2023-04-10T13:26:43Z</time>
      </trkpt>
      <trkpt lat="47.77908" lon="6.56313">
        <ele>440.8</ele>
        <time>2023-04-10T13:26:47Z</time>
      </trkpt>
      <trkpt lat="47.77899" lon="6.56305">
        <ele>441.2</ele>
        <time>2023-04-10T13:26:51Z</time>
      </trkpt>
      <trkpt lat="47.77892" lon="6.56296">
        <ele>441.4</ele>
        <time>2023-04-10T13:26:57Z</time>
      </trkpt>
      <trkpt lat="47.77884" lon="6.56287">
        <ele>441.1</ele>
        <time>2023-04-10T13:27:06Z</time>
      </trkpt>
      <trkpt lat="47.77876" lon="6.56282">
        <ele>440.3</ele>
        <time>2023-04-10T13:27:14Z</time>
      </trkpt>
      <trkpt lat="47.77866" lon="6.56278">
        <ele>439</ele>
        <time>2023-04-10T13:27:23Z</time>
      </trkpt>
      <trkpt lat="47.77857" lon="6.56278">
        <ele>437.9</ele>
        <time>2023-04-10T13:27:28Z</time>
      </trkpt>
      <trkpt lat="47.77847" lon="6.56278">
        <ele>437</ele>
        <time>2023-04-10T13:27:33Z</time>
      </trkpt>
      <trkpt lat="47.77837" lon="6.56273">
        <ele>436.3</ele>
        <time>2023-04-10T13:27:39Z</time>
      </trkpt>
      <trkpt lat="47.77831" lon="6.56263">
        <ele>435.8</ele>
        <time>2023-04-10T13:27:50Z</time>
      </trkpt>
      <trkpt lat="47.77822" lon="6.56262">
        <ele>435.4</ele>
        <time>2023-04-10T13:27:57Z</time>
      </trkpt>
      <trkpt lat="47.77812" lon="6.56261">
        <ele>435.1</ele>
        <time>2023-04-10T13:28:02Z</time>
      </trkpt>
      <trkpt lat="47.77803" lon="6.56258">
        <ele>434.6</ele>
        <time>2023-04-10T13:28:06Z</time>
      </trkpt>
      <trkpt lat="47.77793" lon="6.56257">
        <ele>433.9</ele>
        <time>2023-04-10T13:28:14Z</time>
      </trkpt>
      <trkpt lat="47.77784" lon="6.56256">
        <ele>433.1</ele>
        <time>2023-04-10T13:28:20Z</time>
      </trkpt>
      <trkpt lat="47.77774" lon="6.56258">
        <ele>432.2</ele>
        <time>2023-04-10T13:28:31Z</time>
      </trkpt>
      <trkpt lat="47.77766" lon="6.56265">
        <ele>431.2</ele>
        <time>2023-04-10T13:28:40Z</time>
      </trkpt>
      <trkpt lat="47.77757" lon="6.56265">
        <ele>430.3</ele>
        <time>2023-04-10T13:28:46Z</time>
      </trkpt>
      <trkpt lat="47.77747" lon="6.56261">
        <ele>429.8</ele>
        <time>2023-04-10T13:28:54Z</time>
      </trkpt>
      <trkpt lat="47.7774" lon="6.56251">
        <ele>429.7</ele>
        <time>2023-04-10T13:29:03Z</time>
      </trkpt>
      <trkpt lat="47.77731" lon="6.56245">
        <ele>429.6</ele>
        <time>2023-04-10T13:29:11Z</time>
      </trkpt>
      <trkpt lat="47.77721" lon="6.56248">
        <ele>429.5</ele>
        <time>2023-04-10T13:29:18Z</time>
      </trkpt>
      <trkpt lat="47.77713" lon="6.56243">
        <ele>429.5</ele>
        <time>2023-04-10T13:29:25Z</time>
      </trkpt>
      <trkpt lat="47.77708" lon="6.56231">
        <ele>429.4</ele>
        <time>2023-04-10T13:29:35Z</time>
      </trkpt>
      <trkpt lat="47.77698" lon="6.5623">
        <ele>429.5</ele>
        <time>2023-04-10T13:29:40Z</time>
      </trkpt>
      <trkpt lat="47.7769" lon="6.56234">
        <ele>429.6</ele>
        <time>2023-04-10T13:29:49Z</time>
      </trkpt>
      <trkpt lat="47.7768" lon="6.56239">
        <ele>429.8</ele>
        <time>2023-04-10T13:29:56Z</time>
      </trkpt>
      <trkpt lat="47.77674" lon="6.56249">
        <ele>430</ele>
        <time>2023-04-10T13:30:01Z</time>
      </trkpt>
      <trkpt lat="47.77664" lon="6.56253">
        <ele>429.9</ele>
        <time>2023-04-10T13:30:12Z</time>
      </trkpt>
      <trkpt lat="47.77654" lon="6.56253">
        <ele>429.6</ele>
        <time>2023-04-10T13:30:19Z</time>
      </trkpt>
      <trkpt lat="47.77644" lon="6.56255">
        <ele>429.4</ele>
        <time>2023-04-10T13:30:25Z</time>
      </trkpt>
      <trkpt lat="47.77634" lon="6.56252">
        <ele>429.3</ele>
        <time>2023-04-10T13:30:34Z</time>
      </trkpt>
      <trkpt lat="47.77625" lon="6.56249">
        <ele>429.2</ele>
        <time>2023-04-10T13:30:44Z</time>
      </trkpt>
      <trkpt lat="47.77617" lon="6.56258">
        <ele>429</ele>
        <time>2023-04-10T13:30:54Z</time>
      </trkpt>
      <trkpt lat="47.77607" lon="6.56255">
        <ele>428.9</ele>
        <time>2023-04-10T13:31:04Z</time>
      </trkpt>
      <trkpt lat="47.77598" lon="6.56253">
        <ele>428.7</ele>
        <time>2023-04-10T13:31:09Z</time>
      </trkpt>
      <trkpt lat="47.77589" lon="6.56249">
        <ele>428.6</ele>
        <time>2023-04-10T13:31:13Z</time>
      </trkpt>
      <trkpt lat="47.77578" lon="6.56249">
        <ele>428.6</ele>
        <time>2023-04-10T13:31:18Z</time>
      </trkpt>
      <trkpt lat="47.7757" lon="6.56243">
        <ele>428.6</ele>
        <time>2023-04-10T13:31:27Z</time>
      </trkpt>
      <trkpt lat="47.77562" lon="6.56235">
        <ele>428.7</ele>
        <time>2023-04-10T13:31:33Z</time>
      </trkpt>
      <trkpt lat="47.77557" lon="6.56223">
        <ele>428.8</ele>
        <time>2023-04-10T13:31:40Z</time>
      </trkpt>
      <trkpt lat="47.77552" lon="6.5621">
        <ele>429</ele>
        <time>2023-04-10T13:31:46Z</time>
      </trkpt>
      <trkpt lat="47.77545" lon="6.56202">
        <ele>429.2</ele>
        <time>2023-04-10T13:31:55Z</time>
      </trkpt>
      <trkpt lat="47.77536" lon="6.56197">
        <ele>429.4</ele>
        <time>2023-04-10T13:32:00Z</time>
      </trkpt>
      <trkpt lat="47.77528" lon="6.56204">
        <ele>429.5</ele>
        <time>2023-04-10T13:32:08Z</time>
      </trkpt>
      <trkpt lat="47.77519" lon="6.56207">
        <ele>429.3</ele>
        <time>2023-04-10T13:32:14Z</time>
      </trkpt>
      <trkpt lat="47.77509" lon="6.56208">
        <ele>428.9</ele>
        <time>2023-04-10T13:32:23Z</time>
      </trkpt>
      <trkpt lat="47.775" lon="6.5621">
        <ele>428.3</ele>
        <time>2023-04-10T13:32:27Z</time>
      </trkpt>
      <trkpt lat="47.77491" lon="6.56216">
        <ele>427.6</ele>
        <time>2023-04-10T13:32:35Z</time>
      </trkpt>
      <trkpt lat="47.77483" lon="6.56225">
        <ele>426.9</ele>
        <time>2023-04-10T13:32:39Z</time>
      </trkpt>
      <trkpt lat="47.77474" lon="6.56233">
        <ele>426.2</ele>
        <time>2023-04-10T13:32:43Z</time>
      </trkpt>
      <trkpt lat="47.77466" lon="6.56239">
        <ele>425.5</ele>
        <time>2023-04-10T13:32:47Z</time>
      </trkpt>
      <trkpt lat="47.77458" lon="6.56247">
        <ele>424.8</ele>
        <time>2023-04-10T13:32:52Z</time>
      </trkpt>
      <trkpt lat="47.7745" lon="6.56256">
        <ele>424.2</ele>
        <time>2023-04-10T13:32:57Z</time>
      </trkpt>
      <trkpt lat="47.77441" lon="6.56262">
        <ele>423.6</ele>
        <time>2023-04-10T13:33:03Z</time>
      </trkpt>
      <trkpt lat="47.77433" lon="6.56267">
        <ele>423.1</ele>
        <time>2023-04-10T13:33:14Z</time>
      </trkpt>
      <trkpt lat="47.77432" lon="6.56268">
        <ele>423</ele>
        <time>2023-04-10T13:33:16Z</time>
      </trkpt>
      <trkpt lat="47.77432" lon="6.56268">
        <ele>423</ele>
        <time>2023-04-10T13:33:17Z</time>
      </trkpt>
      <trkpt lat="47.77421" lon="6.56277">
        <ele>422.5</ele>
        <time>2023-04-10T13:33:23Z</time>
      </trkpt>
      <trkpt lat="47.77413" lon="6.56283">
        <ele>422.2</ele>
        <time>2023-04-10T13:33:27Z</time>
      </trkpt>
      <trkpt lat="47.77406" lon="6.56291">
        <ele>421.9</ele>
        <time>2023-04-10T13:33:36Z</time>
      </trkpt>
      <trkpt lat="47.77397" lon="6.5629">
        <ele>421.8</ele>
        <time>2023-04-10T13:33:53Z</time>
      </trkpt>
      <trkpt lat="47.77388" lon="6.56289">
        <ele>421.6</ele>
        <time>2023-04-10T13:34:00Z</time>
      </trkpt>
      <trkpt lat="47.77378" lon="6.56288">
        <ele>421.6</ele>
        <time>2023-04-10T13:34:14Z</time>
      </trkpt>
      <trkpt lat="47.77368" lon="6.5629">
        <ele>421.5</ele>
        <time>2023-04-10T13:34:21Z</time>
      </trkpt>
      <trkpt lat="47.77359" lon="6.56293">
        <ele>421.4</ele>
        <time>2023-04-10T13:34:26Z</time>
      </trkpt>
      <trkpt lat="47.7735" lon="6.56292">
        <ele>421.1</ele>
        <time>2023-04-10T13:34:33Z</time>
      </trkpt>
      <trkpt lat="47.7734" lon="6.56292">
        <ele>420.6</ele>
        <time>2023-04-10T13:34:44Z</time>
      </trkpt>
      <trkpt lat="47.77331" lon="6.5629">
        <ele>420.2</ele>
        <time>2023-04-10T13:34:53Z</time>
      </trkpt>
      <trkpt lat="47.77321" lon="6.56288">
        <ele>419.9</ele>
        <time>2023-04-10T13:35:01Z</time>
      </trkpt>
      <trkpt lat="47.77314" lon="6.5628">
        <ele>419.9</ele>
        <time>2023-04-10T13:35:08Z</time>
      </trkpt>
      <trkpt lat="47.77305" lon="6.56276">
        <ele>419.8</ele>
        <time>2023-04-10T13:35:15Z</time>
      </trkpt>
      <trkpt lat="47.77297" lon="6.56269">
        <ele>419.7</ele>
        <time>2023-04-10T13:35:23Z</time>
      </trkpt>
      <trkpt lat="47.77286" lon="6.5627">
        <ele>420.3</ele>
        <time>2023-04-10T13:35:29Z</time>
      </trkpt>
      <trkpt lat="47.77276" lon="6.56269">
        <ele>420.9</ele>
        <time>2023-04-10T13:35:34Z</time>
      </trkpt>
      <trkpt lat="47.77267" lon="6.56266">
        <ele>421.8</ele>
        <time>2023-04-10T13:35:37Z</time>
      </trkpt>
      <trkpt lat="47.7726" lon="6.56259">
        <ele>422.7</ele>
        <time>2023-04-10T13:35:41Z</time>
      </trkpt>
      <trkpt lat="47.77254" lon="6.56247">
        <ele>423.8</ele>
        <time>2023-04-10T13:35:46Z</time>
      </trkpt>
      <trkpt lat="47.77248" lon="6.56236">
        <ele>424.3</ele>
        <time>2023-04-10T13:35:52Z</time>
      </trkpt>
      <trkpt lat="47.77243" lon="6.56224">
        <ele>424.6</ele>
        <time>2023-04-10T13:36:00Z</time>
      </trkpt>
      <trkpt lat="47.7724" lon="6.56209">
        <ele>424.7</ele>
        <time>2023-04-10T13:36:08Z</time>
      </trkpt>
      <trkpt lat="47.77238" lon="6.56194">
        <ele>424.9</ele>
        <time>2023-04-10T13:36:14Z</time>
      </trkpt>
      <trkpt lat="47.77234" lon="6.56181">
        <ele>425.2</ele>
        <time>2023-04-10T13:36:21Z</time>
      </trkpt>
      <trkpt lat="47.77229" lon="6.56168">
        <ele>425.6</ele>
        <time>2023-04-10T13:36:28Z</time>
      </trkpt>
      <trkpt lat="47.77221" lon="6.56161">
        <ele>426.2</ele>
        <time>2023-04-10T13:36:35Z</time>
      </trkpt>
      <trkpt lat="47.77215" lon="6.5615">
        <ele>426.9</ele>
        <time>2023-04-10T13:36:42Z</time>
      </trkpt>
      <trkpt lat="47.7721" lon="6.56137">
        <ele>427.7</ele>
        <time>2023-04-10T13:36:50Z</time>
      </trkpt>
      <trkpt lat="47.77206" lon="6.56125">
        <ele>428.7</ele>
        <time>2023-04-10T13:36:58Z</time>
      </trkpt>
      <trkpt lat="47.772" lon="6.56114">
        <ele>430</ele>
        <time>2023-04-10T13:37:06Z</time>
      </trkpt>
      <trkpt lat="47.77197" lon="6.56099">
        <ele>431.6</ele>
        <time>2023-04-10T13:37:13Z</time>
      </trkpt>
      <trkpt lat="47.77199" lon="6.56085">
        <ele>433.2</ele>
        <time>2023-04-10T13:37:20Z</time>
      </trkpt>
      <trkpt lat="47.77202" lon="6.5607">
        <ele>434.9</ele>
        <time>2023-04-10T13:37:26Z</time>
      </trkpt>
      <trkpt lat="47.77204" lon="6.56055">
        <ele>436.2</ele>
        <time>2023-04-10T13:37:34Z</time>
      </trkpt>
      <trkpt lat="47.77204" lon="6.56042">
        <ele>437.4</ele>
        <time>2023-04-10T13:37:41Z</time>
      </trkpt>
      <trkpt lat="47.77205" lon="6.56028">
        <ele>438.6</ele>
        <time>2023-04-10T13:37:50Z</time>
      </trkpt>
      <trkpt lat="47.77205" lon="6.56012">
        <ele>439.9</ele>
        <time>2023-04-10T13:37:57Z</time>
      </trkpt>
      <trkpt lat="47.77199" lon="6.56001">
        <ele>440.9</ele>
        <time>2023-04-10T13:38:04Z</time>
      </trkpt>
      <trkpt lat="47.77191" lon="6.55992">
        <ele>441.6</ele>
        <time>2023-04-10T13:38:12Z</time>
      </trkpt>
      <trkpt lat="47.77184" lon="6.55981">
        <ele>441.9</ele>
        <time>2023-04-10T13:38:20Z</time>
      </trkpt>
      <trkpt lat="47.77177" lon="6.55973">
        <ele>441.9</ele>
        <time>2023-04-10T13:38:29Z</time>
      </trkpt>
      <trkpt lat="47.77169" lon="6.55966">
        <ele>441.6</ele>
        <time>2023-04-10T13:38:39Z</time>
      </trkpt>
      <trkpt lat="47.77159" lon="6.5596">
        <ele>441</ele>
        <time>2023-04-10T13:38:46Z</time>
      </trkpt>
      <trkpt lat="47.77148" lon="6.55961">
        <ele>440.5</ele>
        <time>2023-04-10T13:38:50Z</time>
      </trkpt>
      <trkpt lat="47.77137" lon="6.55964">
        <ele>439.7</ele>
        <time>2023-04-10T13:38:55Z</time>
      </trkpt>
      <trkpt lat="47.77127" lon="6.55968">
        <ele>439.2</ele>
        <time>2023-04-10T13:39:01Z</time>
      </trkpt>
      <trkpt lat="47.77117" lon="6.55972">
        <ele>438.7</ele>
        <time>2023-04-10T13:39:08Z</time>
      </trkpt>
      <trkpt lat="47.77108" lon="6.55976">
        <ele>438.3</ele>
        <time>2023-04-10T13:39:15Z</time>
      </trkpt>
      <trkpt lat="47.771" lon="6.55981">
        <ele>437.9</ele>
        <time>2023-04-10T13:39:22Z</time>
      </trkpt>
      <trkpt lat="47.77091" lon="6.55987">
        <ele>437.3</ele>
        <time>2023-04-10T13:39:33Z</time>
      </trkpt>
      <trkpt lat="47.77084" lon="6.55997">
        <ele>436.7</ele>
        <time>2023-04-10T13:39:41Z</time>
      </trkpt>
      <trkpt lat="47.77077" lon="6.56005">
        <ele>436.2</ele>
        <time>2023-04-10T13:39:50Z</time>
      </trkpt>
      <trkpt lat="47.77068" lon="6.5601">
        <ele>435.6</ele>
        <time>2023-04-10T13:39:57Z</time>
      </trkpt>
      <trkpt lat="47.77059" lon="6.56015">
        <ele>435.1</ele>
        <time>2023-04-10T13:40:03Z</time>
      </trkpt>
      <trkpt lat="47.7705" lon="6.56021">
        <ele>434.6</ele>
        <time>2023-04-10T13:40:10Z</time>
      </trkpt>
      <trkpt lat="47.77041" lon="6.56028">
        <ele>434.1</ele>
        <time>2023-04-10T13:40:19Z</time>
      </trkpt>
      <trkpt lat="47.77032" lon="6.56033">
        <ele>433.5</ele>
        <time>2023-04-10T13:40:24Z</time>
      </trkpt>
      <trkpt lat="47.77023" lon="6.56037">
        <ele>432.8</ele>
        <time>2023-04-10T13:40:31Z</time>
      </trkpt>
      <trkpt lat="47.77014" lon="6.5604">
        <ele>432.1</ele>
        <time>2023-04-10T13:40:36Z</time>
      </trkpt>
      <trkpt lat="47.77003" lon="6.56046">
        <ele>431</ele>
        <time>2023-04-10T13:40:42Z</time>
      </trkpt>
      <trkpt lat="47.76994" lon="6.56047">
        <ele>429.8</ele>
        <time>2023-04-10T13:40:48Z</time>
      </trkpt>
      <trkpt lat="47.76985" lon="6.56051">
        <ele>428.5</ele>
        <time>2023-04-10T13:40:54Z</time>
      </trkpt>
      <trkpt lat="47.76978" lon="6.56062">
        <ele>427</ele>
        <time>2023-04-10T13:41:01Z</time>
      </trkpt>
      <trkpt lat="47.76971" lon="6.56071">
        <ele>425.5</ele>
        <time>2023-04-10T13:41:09Z</time>
      </trkpt>
      <trkpt lat="47.76964" lon="6.56081">
        <ele>424.1</ele>
        <time>2023-04-10T13:41:16Z</time>
      </trkpt>
      <trkpt lat="47.76959" lon="6.56093">
        <ele>423</ele>
        <time>2023-04-10T13:41:22Z</time>
      </trkpt>
      <trkpt lat="47.76953" lon="6.56103">
        <ele>422</ele>
        <time>2023-04-10T13:41:29Z</time>
      </trkpt>
      <trkpt lat="47.7695" lon="6.56117">
        <ele>421.2</ele>
        <time>2023-04-10T13:41:40Z</time>
      </trkpt>
      <trkpt lat="47.76944" lon="6.56127">
        <ele>420.6</ele>
        <time>2023-04-10T13:41:46Z</time>
      </trkpt>
      <trkpt lat="47.76935" lon="6.56138">
        <ele>420.1</ele>
        <time>2023-04-10T13:41:53Z</time>
      </trkpt>
      <trkpt lat="47.76927" lon="6.56148">
        <ele>419.8</ele>
        <time>2023-04-10T13:42:01Z</time>
      </trkpt>
      <trkpt lat="47.76922" lon="6.5616">
        <ele>419.6</ele>
        <time>2023-04-10T13:42:07Z</time>
      </trkpt>
      <trkpt lat="47.76916" lon="6.5617">
        <ele>419.3</ele>
        <time>2023-04-10T13:42:13Z</time>
      </trkpt>
      <trkpt lat="47.7691" lon="6.56181">
        <ele>419.1</ele>
        <time>2023-04-10T13:42:20Z</time>
      </trkpt>
      <trkpt lat="47.76904" lon="6.56192">
        <ele>418.8</ele>
        <time>2023-04-10T13:42:27Z</time>
      </trkpt>
      <trkpt lat="47.76899" lon="6.56203">
        <ele>418.6</ele>
        <time>2023-04-10T13:42:33Z</time>
      </trkpt>
      <trkpt lat="47.76892" lon="6.56213">
        <ele>418.4</ele>
        <time>2023-04-10T13:42:38Z</time>
      </trkpt>
      <trkpt lat="47.76883" lon="6.56219">
        <ele>418.1</ele>
        <time>2023-04-10T13:42:43Z</time>
      </trkpt>
      <trkpt lat="47.76874" lon="6.56223">
        <ele>417.7</ele>
        <time>2023-04-10T13:42:48Z</time>
      </trkpt>
      <trkpt lat="47.76865" lon="6.56226">
        <ele>417.3</ele>
        <time>2023-04-10T13:42:55Z</time>
      </trkpt>
      <trkpt lat="47.76856" lon="6.56225">
        <ele>416.9</ele>
        <time>2023-04-10T13:43:02Z</time>
      </trkpt>
      <trkpt lat="47.76847" lon="6.56225">
        <ele>416.8</ele>
        <time>2023-04-10T13:43:09Z</time>
      </trkpt>
      <trkpt lat="47.76837" lon="6.56224">
        <ele>417.5</ele>
        <time>2023-04-10T13:43:16Z</time>
      </trkpt>
      <trkpt lat="47.76827" lon="6.56225">
        <ele>418.7</ele>
        <time>2023-04-10T13:43:23Z</time>
      </trkpt>
      <trkpt lat="47.76818" lon="6.56227">
        <ele>419.9</ele>
        <time>2023-04-10T13:43:30Z</time>
      </trkpt>
      <trkpt lat="47.76808" lon="6.56229">
        <ele>421.1</ele>
        <time>2023-04-10T13:43:37Z</time>
      </trkpt>
      <trkpt lat="47.76799" lon="6.56232">
        <ele>421.8</ele>
        <time>2023-04-10T13:43:44Z</time>
      </trkpt>
      <trkpt lat="47.76789" lon="6.56235">
        <ele>422.3</ele>
        <time>2023-04-10T13:43:51Z</time>
      </trkpt>
      <trkpt lat="47.76779" lon="6.56233">
        <ele>422.5</ele>
        <time>2023-04-10T13:43:57Z</time>
      </trkpt>
      <trkpt lat="47.76771" lon="6.56228">
        <ele>422.6</ele>
        <time>2023-04-10T13:44:04Z</time>
      </trkpt>
      <trkpt lat="47.76761" lon="6.56224">
        <ele>422.8</ele>
        <time>2023-04-10T13:44:11Z</time>
      </trkpt>
      <trkpt lat="47.76753" lon="6.56218">
        <ele>423.2</ele>
        <time>2023-04-10T13:44:17Z</time>
      </trkpt>
      <trkpt lat="47.76746" lon="6.56209">
        <ele>423.8</ele>
        <time>2023-04-10T13:44:23Z</time>
      </trkpt>
      <trkpt lat="47.7674" lon="6.56198">
        <ele>424.6</ele>
        <time>2023-04-10T13:44:30Z</time>
      </trkpt>
      <trkpt lat="47.76734" lon="6.56186">
        <ele>425.8</ele>
        <time>2023-04-10T13:44:38Z</time>
      </trkpt>
      <trkpt lat="47.76728" lon="6.56175">
        <ele>427.1</ele>
        <time>2023-04-10T13:44:46Z</time>
      </trkpt>
      <trkpt lat="47.76722" lon="6.56163">
        <ele>428.5</ele>
        <time>2023-04-10T13:44:53Z</time>
      </trkpt>
      <trkpt lat="47.76718" lon="6.5615">
        <ele>429.8</ele>
        <time>2023-04-10T13:45:01Z</time>
      </trkpt>
      <trkpt lat="47.76716" lon="6.56136">
        <ele>431</ele>
        <time>2023-04-10T13:45:07Z</time>
      </trkpt>
      <trkpt lat="47.76712" lon="6.56124">
        <ele>431.7</ele>
        <time>2023-04-10T13:45:14Z</time>
      </trkpt>
      <trkpt lat="47.76709" lon="6.56111">
        <ele>432.1</ele>
        <time>2023-04-10T13:45:24Z</time>
      </trkpt>
      <trkpt lat="47.76707" lon="6.56097">
        <ele>432.2</ele>
        <time>2023-04-10T13:45:30Z</time>
      </trkpt>
      <trkpt lat="47.76705" lon="6.56082">
        <ele>432.1</ele>
        <time>2023-04-10T13:45:36Z</time>
      </trkpt>
      <trkpt lat="47.76702" lon="6.56067">
        <ele>431.9</ele>
        <time>2023-04-10T13:45:43Z</time>
      </trkpt>
      <trkpt lat="47.76696" lon="6.56057">
        <ele>431.7</ele>
        <time>2023-04-10T13:45:51Z</time>
      </trkpt>
      <trkpt lat="47.76688" lon="6.56049">
        <ele>431.5</ele>
        <time>2023-04-10T13:45:59Z</time>
      </trkpt>
      <trkpt lat="47.7668" lon="6.56041">
        <ele>431.3</ele>
        <time>2023-04-10T13:46:10Z</time>
      </trkpt>
      <trkpt lat="47.7667" lon="6.56039">
        <ele>431.1</ele>
        <time>2023-04-10T13:46:15Z</time>
      </trkpt>
      <trkpt lat="47.76661" lon="6.56035">
        <ele>431</ele>
        <time>2023-04-10T13:46:21Z</time>
      </trkpt>
      <trkpt lat="47.76652" lon="6.56033">
        <ele>431</ele>
        <time>2023-04-10T13:46:27Z</time>
      </trkpt>
      <trkpt lat="47.76642" lon="6.56029">
        <ele>431</ele>
        <time>2023-04-10T13:46:35Z</time>
      </trkpt>
      <trkpt lat="47.76632" lon="6.56026">
        <ele>431</ele>
        <time>2023-04-10T13:46:41Z</time>
      </trkpt>
      <trkpt lat="47.76623" lon="6.56021">
        <ele>430.9</ele>
        <time>2023-04-10T13:46:46Z</time>
      </trkpt>
      <trkpt lat="47.76614" lon="6.5602">
        <ele>430.7</ele>
        <time>2023-04-10T13:46:54Z</time>
      </trkpt>
      <trkpt lat="47.76603" lon="6.56019">
        <ele>430.2</ele>
        <time>2023-04-10T13:47:02Z</time>
      </trkpt>
      <trkpt lat="47.76594" lon="6.56017">
        <ele>429.7</ele>
        <time>2023-04-10T13:47:09Z</time>
      </trkpt>
      <trkpt lat="47.76587" lon="6.56017">
        <ele>429.3</ele>
        <time>2023-04-10T13:47:16Z</time>
      </trkpt>
      <trkpt lat="47.76585" lon="6.56017">
        <ele>429.2</ele>
        <time>2023-04-10T13:47:17Z</time>
      </trkpt>
      <trkpt lat="47.76575" lon="6.56019">
        <ele>428.5</ele>
        <time>2023-04-10T13:47:25Z</time>
      </trkpt>
      <trkpt lat="47.76566" lon="6.56021">
        <ele>427.7</ele>
        <time>2023-04-10T13:47:35Z</time>
      </trkpt>
      <trkpt lat="47.76556" lon="6.56017">
        <ele>427.1</ele>
        <time>2023-04-10T13:47:41Z</time>
      </trkpt>
      <trkpt lat="47.76547" lon="6.56016">
        <ele>426.7</ele>
        <time>2023-04-10T13:47:46Z</time>
      </trkpt>
      <trkpt lat="47.76537" lon="6.56014">
        <ele>426.3</ele>
        <time>2023-04-10T13:47:52Z</time>
      </trkpt>
      <trkpt lat="47.76528" lon="6.56009">
        <ele>426</ele>
        <time>2023-04-10T13:48:00Z</time>
      </trkpt>
      <trkpt lat="47.76518" lon="6.56009">
        <ele>425.8</ele>
        <time>2023-04-10T13:48:07Z</time>
      </trkpt>
      <trkpt lat="47.76509" lon="6.56008">
        <ele>425.6</ele>
        <time>2023-04-10T13:48:12Z</time>
      </trkpt>
      <trkpt lat="47.76499" lon="6.56005">
        <ele>425.1</ele>
        <time>2023-04-10T13:48:21Z</time>
      </trkpt>
      <trkpt lat="47.76489" lon="6.56006">
        <ele>424.5</ele>
        <time>2023-04-10T13:48:28Z</time>
      </trkpt>
      <trkpt lat="47.76481" lon="6.56011">
        <ele>423.8</ele>
        <time>2023-04-10T13:48:35Z</time>
      </trkpt>
      <trkpt lat="47.76471" lon="6.56015">
        <ele>422.9</ele>
        <time>2023-04-10T13:48:43Z</time>
      </trkpt>
      <trkpt lat="47.76462" lon="6.56018">
        <ele>422.1</ele>
        <time>2023-04-10T13:48:51Z</time>
      </trkpt>
      <trkpt lat="47.76452" lon="6.56018">
        <ele>421.2</ele>
        <time>2023-04-10T13:48:57Z</time>
      </trkpt>
      <trkpt lat="47.76443" lon="6.56014">
        <ele>420.4</ele>
        <time>2023-04-10T13:49:03Z</time>
      </trkpt>
      <trkpt lat="47.76435" lon="6.56004">
        <ele>419.5</ele>
        <time>2023-04-10T13:49:10Z</time>
      </trkpt>
      <trkpt lat="47.7643" lon="6.55992">
        <ele>418.8</ele>
        <time>2023-04-10T13:49:17Z</time>
      </trkpt>
      <trkpt lat="47.76427" lon="6.55984">
        <ele>418.3</ele>
        <time>2023-04-10T13:49:26Z</time>
      </trkpt>
      <trkpt lat="47.76427" lon="6.55984">
        <ele>418.3</ele>
        <time>2023-04-10T13:49:27Z</time>
      </trkpt>
      <trkpt lat="47.76427" lon="6.55984">
        <ele>418.3</ele>
        <time>2023-04-10T13:49:28Z</time>
      </trkpt>
      <trkpt lat="47.76427" lon="6.55983">
        <ele>418.3</ele>
        <time>2023-04-10T13:49:35Z</time>
      </trkpt>
      <trkpt lat="47.76422" lon="6.55977">
        <ele>417.9</ele>
        <time>2023-04-10T13:49:42Z</time>
      </trkpt>
      <trkpt lat="47.76421" lon="6.55976">
        <ele>417.8</ele>
        <time>2023-04-10T13:49:44Z</time>
      </trkpt>
      <trkpt lat="47.76421" lon="6.55976">
        <ele>417.8</ele>
        <time>2023-04-10T13:49:46Z</time>
      </trkpt>
      <trkpt lat="47.76421" lon="6.55976">
        <ele>417.8</ele>
        <time>2023-04-10T13:50:16Z</time>
      </trkpt>
      <trkpt lat="47.76426" lon="6.55965">
        <ele>418</ele>
        <time>2023-04-10T13:50:26Z</time>
      </trkpt>
      <trkpt lat="47.76433" lon="6.55956">
        <ele>418.2</ele>
        <time>2023-04-10T13:50:34Z</time>
      </trkpt>
      <trkpt lat="47.76437" lon="6.55942">
        <ele>418.5</ele>
        <time>2023-04-10T13:50:43Z</time>
      </trkpt>
      <trkpt lat="47.76442" lon="6.55929">
        <ele>418.8</ele>
        <time>2023-04-10T13:50:51Z</time>
      </trkpt>
      <trkpt lat="47.76446" lon="6.55915">
        <ele>419.3</ele>
        <time>2023-04-10T13:50:58Z</time>
      </trkpt>
      <trkpt lat="47.76449" lon="6.55902">
        <ele>419.9</ele>
        <time>2023-04-10T13:51:05Z</time>
      </trkpt>
      <trkpt lat="47.76454" lon="6.55889">
        <ele>420.5</ele>
        <time>2023-04-10T13:51:12Z</time>
      </trkpt>
      <trkpt lat="47.76457" lon="6.55876">
        <ele>421.1</ele>
        <time>2023-04-10T13:51:19Z</time>
      </trkpt>
      <trkpt lat="47.7646" lon="6.55861">
        <ele>421.6</ele>
        <time>2023-04-10T13:51:26Z</time>
      </trkpt>
      <trkpt lat="47.76464" lon="6.55848">
        <ele>421.8</ele>
        <time>2023-04-10T13:51:33Z</time>
      </trkpt>
      <trkpt lat="47.76468" lon="6.55835">
        <ele>421.9</ele>
        <time>2023-04-10T13:51:40Z</time>
      </trkpt>
      <trkpt lat="47.76471" lon="6.55822">
        <ele>422</ele>
        <time>2023-04-10T13:51:47Z</time>
      </trkpt>
      <trkpt lat="47.76477" lon="6.5581">
        <ele>422.1</ele>
        <time>2023-04-10T13:51:54Z</time>
      </trkpt>
      <trkpt lat="47.76482" lon="6.55797">
        <ele>422.4</ele>
        <time>2023-04-10T13:52:01Z</time>
      </trkpt>
      <trkpt lat="47.76487" lon="6.55785">
        <ele>422.9</ele>
        <time>2023-04-10T13:52:08Z</time>
      </trkpt>
      <trkpt lat="47.76491" lon="6.55773">
        <ele>423.6</ele>
        <time>2023-04-10T13:52:15Z</time>
      </trkpt>
      <trkpt lat="47.76497" lon="6.55762">
        <ele>424.5</ele>
        <time>2023-04-10T13:52:22Z</time>
      </trkpt>
      <trkpt lat="47.76504" lon="6.55753">
        <ele>425.4</ele>
        <time>2023-04-10T13:52:29Z</time>
      </trkpt>
      <trkpt lat="47.76511" lon="6.55743">
        <ele>426.4</ele>
        <time>2023-04-10T13:52:35Z</time>
      </trkpt>
      <trkpt lat="47.76518" lon="6.55734">
        <ele>427.4</ele>
        <time>2023-04-10T13:52:42Z</time>
      </trkpt>
      <trkpt lat="47.76525" lon="6.55725">
        <ele>428.3</ele>
        <time>2023-04-10T13:52:49Z</time>
      </trkpt>
      <trkpt lat="47.76531" lon="6.55714">
        <ele>429.1</ele>
        <time>2023-04-10T13:52:56Z</time>
      </trkpt>
      <trkpt lat="47.76536" lon="6.55702">
        <ele>429.8</ele>
        <time>2023-04-10T13:53:03Z</time>
      </trkpt>
      <trkpt lat="47.76541" lon="6.5569">
        <ele>430.4</ele>
        <time>2023-04-10T13:53:10Z</time>
      </trkpt>
      <trkpt lat="47.76545" lon="6.55678">
        <ele>430.9</ele>
        <time>2023-04-10T13:53:17Z</time>
      </trkpt>
      <trkpt lat="47.76549" lon="6.55665">
        <ele>431.4</ele>
        <time>2023-04-10T13:53:24Z</time>
      </trkpt>
      <trkpt lat="47.76553" lon="6.55652">
        <ele>431.9</ele>
        <time>2023-04-10T13:53:31Z</time>
      </trkpt>
      <trkpt lat="47.76558" lon="6.5564">
        <ele>432.4</ele>
        <time>2023-04-10T13:53:38Z</time>
      </trkpt>
      <trkpt lat="47.76562" lon="6.55627">
        <ele>432.9</ele>
        <time>2023-04-10T13:53:45Z</time>
      </trkpt>
      <trkpt lat="47.76565" lon="6.55614">
        <ele>433.3</ele>
        <time>2023-04-10T13:53:52Z</time>
      </trkpt>
      <trkpt lat="47.76569" lon="6.55601">
        <ele>433.7</ele>
        <time>2023-04-10T13:53:59Z</time>
      </trkpt>
      <trkpt lat="47.76573" lon="6.55588">
        <ele>434.2</ele>
        <time>2023-04-10T13:54:06Z</time>
      </trkpt>
      <trkpt lat="47.76576" lon="6.55574">
        <ele>434.6</ele>
        <time>2023-04-10T13:54:13Z</time>
      </trkpt>
      <trkpt lat="47.7658" lon="6.5556">
        <ele>435</ele>
        <time>2023-04-10T13:54:20Z</time>
      </trkpt>
      <trkpt lat="47.76584" lon="6.55548">
        <ele>435.4</ele>
        <time>2023-04-10T13:54:27Z</time>
      </trkpt>
      <trkpt lat="47.76592" lon="6.55541">
        <ele>435.8</ele>
        <time>2023-04-10T13:54:34Z</time>
      </trkpt>
      <trkpt lat="47.76601" lon="6.55538">
        <ele>436.2</ele>
        <time>2023-04-10T13:54:41Z</time>
      </trkpt>
      <trkpt lat="47.76611" lon="6.55536">
        <ele>436.7</ele>
        <time>2023-04-10T13:54:48Z</time>
      </trkpt>
      <trkpt lat="47.76621" lon="6.55537">
        <ele>437.4</ele>
        <time>2023-04-10T13:54:55Z</time>
      </trkpt>
      <trkpt lat="47.7663" lon="6.55539">
        <ele>438.2</ele>
        <time>2023-04-10T13:55:02Z</time>
      </trkpt>
      <trkpt lat="47.7664" lon="6.55541">
        <ele>439.2</ele>
        <time>2023-04-10T13:55:09Z</time>
      </trkpt>
      <trkpt lat="47.7665" lon="6.55542">
        <ele>440.2</ele>
        <time>2023-04-10T13:55:16Z</time>
      </trkpt>
      <trkpt lat="47.7666" lon="6.55542">
        <ele>441.1</ele>
        <time>2023-04-10T13:55:23Z</time>
      </trkpt>
      <trkpt lat="47.7667" lon="6.5554">
        <ele>442.2</ele>
        <time>2023-04-10T13:55:30Z</time>
      </trkpt>
      <trkpt lat="47.76679" lon="6.55539">
        <ele>443.2</ele>
        <time>2023-04-10T13:55:37Z</time>
      </trkpt>
      <trkpt lat="47.76688" lon="6.55534">
        <ele>444.3</ele>
        <time>2023-04-10T13:55:45Z</time>
      </trkpt>
      <trkpt lat="47.76697" lon="6.55528">
        <ele>445.4</ele>
        <time>2023-04-10T13:55:52Z</time>
      </trkpt>
      <trkpt lat="47.76705" lon="6.55521">
        <ele>446.5</ele>
        <time>2023-04-10T13:56:00Z</time>
      </trkpt>
      <trkpt lat="47.76712" lon="6.55511">
        <ele>447.5</ele>
        <time>2023-04-10T13:56:08Z</time>
      </trkpt>
      <trkpt lat="47.76722" lon="6.55506">
        <ele>448.2</ele>
        <time>2023-04-10T13:56:16Z</time>
      </trkpt>
      <trkpt lat="47.7673" lon="6.55497">
        <ele>448.9</ele>
        <time>2023-04-10T13:56:23Z</time>
      </trkpt>
      <trkpt lat="47.76737" lon="6.55488">
        <ele>449.7</ele>
        <time>2023-04-10T13:56:29Z</time>
      </trkpt>
      <trkpt lat="47.76742" lon="6.55475">
        <ele>450.5</ele>
        <time>2023-04-10T13:56:38Z</time>
      </trkpt>
      <trkpt lat="47.76746" lon="6.55463">
        <ele>451.3</ele>
        <time>2023-04-10T13:56:44Z</time>
      </trkpt>
      <trkpt lat="47.76751" lon="6.55452">
        <ele>452</ele>
        <time>2023-04-10T13:56:50Z</time>
      </trkpt>
      <trkpt lat="47.76757" lon="6.55439">
        <ele>452.6</ele>
        <time>2023-04-10T13:56:57Z</time>
      </trkpt>
      <trkpt lat="47.76763" lon="6.55429">
        <ele>453</ele>
        <time>2023-04-10T13:57:04Z</time>
      </trkpt>
      <trkpt lat="47.76771" lon="6.55418">
        <ele>453.3</ele>
        <time>2023-04-10T13:57:12Z</time>
      </trkpt>
      <trkpt lat="47.76778" lon="6.5541">
        <ele>453.4</ele>
        <time>2023-04-10T13:57:19Z</time>
      </trkpt>
      <trkpt lat="47.76786" lon="6.55402">
        <ele>453.5</ele>
        <time>2023-04-10T13:57:26Z</time>
      </trkpt>
      <trkpt lat="47.76794" lon="6.55395">
        <ele>453.7</ele>
        <time>2023-04-10T13:57:33Z</time>
      </trkpt>
      <trkpt lat="47.76804" lon="6.55388">
        <ele>453.9</ele>
        <time>2023-04-10T13:57:41Z</time>
      </trkpt>
      <trkpt lat="47.76811" lon="6.5538">
        <ele>454</ele>
        <time>2023-04-10T13:57:47Z</time>
      </trkpt>
      <trkpt lat="47.7682" lon="6.55374">
        <ele>454.1</ele>
        <time>2023-04-10T13:57:53Z</time>
      </trkpt>
      <trkpt lat="47.76827" lon="6.55366">
        <ele>454.2</ele>
        <time>2023-04-10T13:58:00Z</time>
      </trkpt>
      <trkpt lat="47.76835" lon="6.55358">
        <ele>454.3</ele>
        <time>2023-04-10T13:58:07Z</time>
      </trkpt>
      <trkpt lat="47.76843" lon="6.55352">
        <ele>454.4</ele>
        <time>2023-04-10T13:58:13Z</time>
      </trkpt>
      <trkpt lat="47.76852" lon="6.55345">
        <ele>454.5</ele>
        <time>2023-04-10T13:58:20Z</time>
      </trkpt>
      <trkpt lat="47.76858" lon="6.55334">
        <ele>454.2</ele>
        <time>2023-04-10T13:58:28Z</time>
      </trkpt>
      <trkpt lat="47.76865" lon="6.55322">
        <ele>453.8</ele>
        <time>2023-04-10T13:58:36Z</time>
      </trkpt>
      <trkpt lat="47.76865" lon="6.55322">
        <ele>453.8</ele>
        <time>2023-04-10T13:58:37Z</time>
      </trkpt>
      <trkpt lat="47.76865" lon="6.55322">
        <ele>453.7</ele>
        <time>2023-04-10T13:58:44Z</time>
      </trkpt>
      <trkpt lat="47.76874" lon="6.55314">
        <ele>453.2</ele>
        <time>2023-04-10T13:58:57Z</time>
      </trkpt>
      <trkpt lat="47.76881" lon="6.55306">
        <ele>452.6</ele>
        <time>2023-04-10T13:59:04Z</time>
      </trkpt>
      <trkpt lat="47.76889" lon="6.55299">
        <ele>452.1</ele>
        <time>2023-04-10T13:59:10Z</time>
      </trkpt>
      <trkpt lat="47.76896" lon="6.55291">
        <ele>451.5</ele>
        <time>2023-04-10T13:59:17Z</time>
      </trkpt>
      <trkpt lat="47.76904" lon="6.55284">
        <ele>451</ele>
        <time>2023-04-10T13:59:23Z</time>
      </trkpt>
      <trkpt lat="47.76912" lon="6.55275">
        <ele>450.4</ele>
        <time>2023-04-10T13:59:30Z</time>
      </trkpt>
      <trkpt lat="47.7692" lon="6.55265">
        <ele>449.7</ele>
        <time>2023-04-10T13:59:38Z</time>
      </trkpt>
      <trkpt lat="47.76926" lon="6.55254">
        <ele>449.2</ele>
        <time>2023-04-10T13:59:46Z</time>
      </trkpt>
      <trkpt lat="47.7693" lon="6.5524">
        <ele>448.4</ele>
        <time>2023-04-10T13:59:55Z</time>
      </trkpt>
      <trkpt lat="47.76934" lon="6.55226">
        <ele>447.5</ele>
        <time>2023-04-10T14:00:03Z</time>
      </trkpt>
      <trkpt lat="47.76936" lon="6.55212">
        <ele>446.8</ele>
        <time>2023-04-10T14:00:10Z</time>
      </trkpt>
      <trkpt lat="47.76935" lon="6.55197">
        <ele>446.3</ele>
        <time>2023-04-10T14:00:18Z</time>
      </trkpt>
      <trkpt lat="47.76935" lon="6.55183">
        <ele>445.8</ele>
        <time>2023-04-10T14:00:27Z</time>
      </trkpt>
      <trkpt lat="47.76933" lon="6.55169">
        <ele>445.4</ele>
        <time>2023-04-10T14:00:35Z</time>
      </trkpt>
      <trkpt lat="47.76932" lon="6.55156">
        <ele>445.2</ele>
        <time>2023-04-10T14:00:42Z</time>
      </trkpt>
      <trkpt lat="47.76932" lon="6.5514">
        <ele>444.9</ele>
        <time>2023-04-10T14:00:49Z</time>
      </trkpt>
      <trkpt lat="47.76933" lon="6.55126">
        <ele>444.7</ele>
        <time>2023-04-10T14:00:55Z</time>
      </trkpt>
      <trkpt lat="47.76935" lon="6.55112">
        <ele>444.4</ele>
        <time>2023-04-10T14:01:02Z</time>
      </trkpt>
      <trkpt lat="47.76938" lon="6.55099">
        <ele>444.2</ele>
        <time>2023-04-10T14:01:08Z</time>
      </trkpt>
      <trkpt lat="47.76941" lon="6.55086">
        <ele>444.1</ele>
        <time>2023-04-10T14:01:16Z</time>
      </trkpt>
      <trkpt lat="47.76945" lon="6.55072">
        <ele>444.1</ele>
        <time>2023-04-10T14:01:23Z</time>
      </trkpt>
      <trkpt lat="47.76949" lon="6.55058">
        <ele>444.3</ele>
        <time>2023-04-10T14:01:30Z</time>
      </trkpt>
      <trkpt lat="47.76953" lon="6.55045">
        <ele>444.5</ele>
        <time>2023-04-10T14:01:36Z</time>
      </trkpt>
      <trkpt lat="47.76959" lon="6.55033">
        <ele>444.8</ele>
        <time>2023-04-10T14:01:42Z</time>
      </trkpt>
      <trkpt lat="47.76966" lon="6.55022">
        <ele>444.9</ele>
        <time>2023-04-10T14:01:49Z</time>
      </trkpt>
      <trkpt lat="47.76973" lon="6.55011">
        <ele>445</ele>
        <time>2023-04-10T14:01:55Z</time>
      </trkpt>
      <trkpt lat="47.76982" lon="6.55003">
        <ele>445</ele>
        <time>2023-04-10T14:02:02Z</time>
      </trkpt>
      <trkpt lat="47.76989" lon="6.54994">
        <ele>445.3</ele>
        <time>2023-04-10T14:02:09Z</time>
      </trkpt>
      <trkpt lat="47.76994" lon="6.54982">
        <ele>445.7</ele>
        <time>2023-04-10T14:02:17Z</time>
      </trkpt>
      <trkpt lat="47.77" lon="6.5497">
        <ele>446.4</ele>
        <time>2023-04-10T14:02:24Z</time>
      </trkpt>
      <trkpt lat="47.77004" lon="6.54958">
        <ele>447.2</ele>
        <time>2023-04-10T14:02:31Z</time>
      </trkpt>
      <trkpt lat="47.77009" lon="6.54946">
        <ele>448.1</ele>
        <time>2023-04-10T14:02:38Z</time>
      </trkpt>
      <trkpt lat="47.77014" lon="6.54933">
        <ele>449.1</ele>
        <time>2023-04-10T14:02:45Z</time>
      </trkpt>
      <trkpt lat="47.7702" lon="6.54921">
        <ele>450.1</ele>
        <time>2023-04-10T14:02:53Z</time>
      </trkpt>
      <trkpt lat="47.77024" lon="6.54909">
        <ele>451</ele>
        <time>2023-04-10T14:03:00Z</time>
      </trkpt>
      <trkpt lat="47.77028" lon="6.54897">
        <ele>451.7</ele>
        <time>2023-04-10T14:03:08Z</time>
      </trkpt>
      <trkpt lat="47.7703" lon="6.54882">
        <ele>452.2</ele>
        <time>2023-04-10T14:03:17Z</time>
      </trkpt>
      <trkpt lat="47.77034" lon="6.54868">
        <ele>452.6</ele>
        <time>2023-04-10T14:03:24Z</time>
      </trkpt>
      <trkpt lat="47.77039" lon="6.54857">
        <ele>453</ele>
        <time>2023-04-10T14:03:31Z</time>
      </trkpt>
      <trkpt lat="47.77046" lon="6.54847">
        <ele>453.5</ele>
        <time>2023-04-10T14:03:38Z</time>
      </trkpt>
      <trkpt lat="47.77055" lon="6.54838">
        <ele>454</ele>
        <time>2023-04-10T14:03:45Z</time>
      </trkpt>
      <trkpt lat="47.77063" lon="6.54829">
        <ele>454.6</ele>
        <time>2023-04-10T14:03:52Z</time>
      </trkpt>
      <trkpt lat="47.7707" lon="6.54819">
        <ele>455</ele>
        <time>2023-04-10T14:03:59Z</time>
      </trkpt>
      <trkpt lat="47.77076" lon="6.5481">
        <ele>455.2</ele>
        <time>2023-04-10T14:04:05Z</time>
      </trkpt>
      <trkpt lat="47.77082" lon="6.54797">
        <ele>455.3</ele>
        <time>2023-04-10T14:04:12Z</time>
      </trkpt>
      <trkpt lat="47.77087" lon="6.54785">
        <ele>455.5</ele>
        <time>2023-04-10T14:04:19Z</time>
      </trkpt>
      <trkpt lat="47.77092" lon="6.54773">
        <ele>455.7</ele>
        <time>2023-04-10T14:04:26Z</time>
      </trkpt>
      <trkpt lat="47.77095" lon="6.54759">
        <ele>455.8</ele>
        <time>2023-04-10T14:04:34Z</time>
      </trkpt>
      <trkpt lat="47.77098" lon="6.54745">
        <ele>455.9</ele>
        <time>2023-04-10T14:04:42Z</time>
      </trkpt>
      <trkpt lat="47.77098" lon="6.54736">
        <ele>455.8</ele>
        <time>2023-04-10T14:04:50Z</time>
      </trkpt>
      <trkpt lat="47.77098" lon="6.54736">
        <ele>455.8</ele>
        <time>2023-04-10T14:04:53Z</time>
      </trkpt>
      <trkpt lat="47.77102" lon="6.54734">
        <ele>455.8</ele>
        <time>2023-04-10T14:05:00Z</time>
      </trkpt>
      <trkpt lat="47.77102" lon="6.54734">
        <ele>455.8</ele>
        <time>2023-04-10T14:05:03Z</time>
      </trkpt>
      <trkpt lat="47.77105" lon="6.54734">
        <ele>455.9</ele>
        <time>2023-04-10T14:05:08Z</time>
      </trkpt>
      <trkpt lat="47.77105" lon="6.54734">
        <ele>455.9</ele>
        <time>2023-04-10T14:05:12Z</time>
      </trkpt>
      <trkpt lat="47.77105" lon="6.54734">
        <ele>455.9</ele>
        <time>2023-04-10T14:05:16Z</time>
      </trkpt>
      <trkpt lat="47.77105" lon="6.54734">
        <ele>455.9</ele>
        <time>2023-04-10T14:05:23Z</time>
      </trkpt>
      <trkpt lat="47.77106" lon="6.54735">
        <ele>455.9</ele>
        <time>2023-04-10T14:05:29Z</time>
      </trkpt>
      <trkpt lat="47.77106" lon="6.54735">
        <ele>455.9</ele>
        <time>2023-04-10T14:05:58Z</time>
      </trkpt>
      <trkpt lat="47.771" lon="6.54748">
        <ele>455.8</ele>
        <time>2023-04-10T14:06:07Z</time>
      </trkpt>
      <trkpt lat="47.77098" lon="6.54761">
        <ele>455.7</ele>
        <time>2023-04-10T14:06:14Z</time>
      </trkpt>
      <trkpt lat="47.77094" lon="6.54773">
        <ele>455.5</ele>
        <time>2023-04-10T14:06:20Z</time>
      </trkpt>
      <trkpt lat="47.7709" lon="6.54785">
        <ele>455.4</ele>
        <time>2023-04-10T14:06:26Z</time>
      </trkpt>
      <trkpt lat="47.77085" lon="6.54797">
        <ele>455.3</ele>
        <time>2023-04-10T14:06:33Z</time>
      </trkpt>
      <trkpt lat="47.7708" lon="6.54809">
        <ele>455.1</ele>
        <time>2023-04-10T14:06:40Z</time>
      </trkpt>
      <trkpt lat="47.77073" lon="6.54819">
        <ele>454.8</ele>
        <time>2023-04-10T14:06:47Z</time>
      </trkpt>
      <trkpt lat="47.77065" lon="6.54828">
        <ele>454.4</ele>
        <time>2023-04-10T14:06:54Z</time>
      </trkpt>
      <trkpt lat="47.77058" lon="6.54837">
        <ele>453.9</ele>
        <time>2023-04-10T14:07:01Z</time>
      </trkpt>
      <trkpt lat="47.7705" lon="6.54845">
        <ele>453.5</ele>
        <time>2023-04-10T14:07:09Z</time>
      </trkpt>
      <trkpt lat="47.77043" lon="6.54855">
        <ele>453.1</ele>
        <time>2023-04-10T14:07:17Z</time>
      </trkpt>
      <trkpt lat="47.77037" lon="6.54866">
        <ele>452.7</ele>
        <time>2023-04-10T14:07:23Z</time>
      </trkpt>
      <trkpt lat="47.77032" lon="6.54878">
        <ele>452.4</ele>
        <time>2023-04-10T14:07:31Z</time>
      </trkpt>
      <trkpt lat="47.77029" lon="6.54893">
        <ele>451.9</ele>
        <time>2023-04-10T14:07:39Z</time>
      </trkpt>
      <trkpt lat="47.77026" lon="6.54906">
        <ele>451.2</ele>
        <time>2023-04-10T14:07:47Z</time>
      </trkpt>
      <trkpt lat="47.77022" lon="6.54918">
        <ele>450.3</ele>
        <time>2023-04-10T14:07:54Z</time>
      </trkpt>
      <trkpt lat="47.77017" lon="6.5493">
        <ele>449.4</ele>
        <time>2023-04-10T14:08:02Z</time>
      </trkpt>
      <trkpt lat="47.77012" lon="6.54943">
        <ele>448.4</ele>
        <time>2023-04-10T14:08:11Z</time>
      </trkpt>
      <trkpt lat="47.77007" lon="6.54955">
        <ele>447.5</ele>
        <time>2023-04-10T14:08:20Z</time>
      </trkpt>
      <trkpt lat="47.77002" lon="6.54968">
        <ele>446.6</ele>
        <time>2023-04-10T14:08:28Z</time>
      </trkpt>
      <trkpt lat="47.76998" lon="6.54981">
        <ele>445.9</ele>
        <time>2023-04-10T14:08:36Z</time>
      </trkpt>
      <trkpt lat="47.76993" lon="6.54993">
        <ele>445.3</ele>
        <time>2023-04-10T14:08:44Z</time>
      </trkpt>
      <trkpt lat="47.76987" lon="6.55004">
        <ele>445</ele>
        <time>2023-04-10T14:08:51Z</time>
      </trkpt>
      <trkpt lat="47.76986" lon="6.55005">
        <ele>445</ele>
        <time>2023-04-10T14:08:56Z</time>
      </trkpt>
      <trkpt lat="47.76986" lon="6.55005">
        <ele>445</ele>
        <time>2023-04-10T14:09:00Z</time>
      </trkpt>
      <trkpt lat="47.7698" lon="6.55009">
        <ele>445</ele>
        <time>2023-04-10T14:09:08Z</time>
      </trkpt>
      <trkpt lat="47.7698" lon="6.55009">
        <ele>445</ele>
        <time>2023-04-10T14:09:19Z</time>
      </trkpt>
      <trkpt lat="47.7698" lon="6.55009">
        <ele>445</ele>
        <time>2023-04-10T14:09:20Z</time>
      </trkpt>
      <trkpt lat="47.7698" lon="6.5501">
        <ele>445</ele>
        <time>2023-04-10T14:11:03Z</time>
      </trkpt>
      <trkpt lat="47.76972" lon="6.55017">
        <ele>445</ele>
        <time>2023-04-10T14:11:11Z</time>
      </trkpt>
      <trkpt lat="47.76971" lon="6.55018">
        <ele>445</ele>
        <time>2023-04-10T14:11:13Z</time>
      </trkpt>
      <trkpt lat="47.76971" lon="6.55018">
        <ele>445</ele>
        <time>2023-04-10T14:11:15Z</time>
      </trkpt>
      <trkpt lat="47.76963" lon="6.55028">
        <ele>444.9</ele>
        <time>2023-04-10T14:11:23Z</time>
      </trkpt>
      <trkpt lat="47.76957" lon="6.55038">
        <ele>444.7</ele>
        <time>2023-04-10T14:11:30Z</time>
      </trkpt>
      <trkpt lat="47.76952" lon="6.5505">
        <ele>444.4</ele>
        <time>2023-04-10T14:11:38Z</time>
      </trkpt>
      <trkpt lat="47.76948" lon="6.55064">
        <ele>444.2</ele>
        <time>2023-04-10T14:11:46Z</time>
      </trkpt>
      <trkpt lat="47.76945" lon="6.55078">
        <ele>444.1</ele>
        <time>2023-04-10T14:11:54Z</time>
      </trkpt>
      <trkpt lat="47.76941" lon="6.55091">
        <ele>444.1</ele>
        <time>2023-04-10T14:12:02Z</time>
      </trkpt>
      <trkpt lat="47.76938" lon="6.55105">
        <ele>444.3</ele>
        <time>2023-04-10T14:12:10Z</time>
      </trkpt>
      <trkpt lat="47.76935" lon="6.55118">
        <ele>444.5</ele>
        <time>2023-04-10T14:12:17Z</time>
      </trkpt>
      <trkpt lat="47.76934" lon="6.55131">
        <ele>444.7</ele>
        <time>2023-04-10T14:12:24Z</time>
      </trkpt>
      <trkpt lat="47.76934" lon="6.55145">
        <ele>445</ele>
        <time>2023-04-10T14:12:32Z</time>
      </trkpt>
      <trkpt lat="47.76935" lon="6.55159">
        <ele>445.2</ele>
        <time>2023-04-10T14:12:39Z</time>
      </trkpt>
      <trkpt lat="47.76937" lon="6.55173">
        <ele>445.5</ele>
        <time>2023-04-10T14:12:47Z</time>
      </trkpt>
      <trkpt lat="47.76936" lon="6.55187">
        <ele>446</ele>
        <time>2023-04-10T14:12:54Z</time>
      </trkpt>
      <trkpt lat="47.76937" lon="6.55201">
        <ele>446.5</ele>
        <time>2023-04-10T14:13:01Z</time>
      </trkpt>
      <trkpt lat="47.76936" lon="6.55216">
        <ele>447</ele>
        <time>2023-04-10T14:13:09Z</time>
      </trkpt>
      <trkpt lat="47.76934" lon="6.5523">
        <ele>447.8</ele>
        <time>2023-04-10T14:13:17Z</time>
      </trkpt>
      <trkpt lat="47.76931" lon="6.55244">
        <ele>448.6</ele>
        <time>2023-04-10T14:13:25Z</time>
      </trkpt>
      <trkpt lat="47.76928" lon="6.55257">
        <ele>449.2</ele>
        <time>2023-04-10T14:13:33Z</time>
      </trkpt>
      <trkpt lat="47.7692" lon="6.55266">
        <ele>449.7</ele>
        <time>2023-04-10T14:13:42Z</time>
      </trkpt>
      <trkpt lat="47.76913" lon="6.55274">
        <ele>450.2</ele>
        <time>2023-04-10T14:13:49Z</time>
      </trkpt>
      <trkpt lat="47.76905" lon="6.55282">
        <ele>450.8</ele>
        <time>2023-04-10T14:13:56Z</time>
      </trkpt>
      <trkpt lat="47.76898" lon="6.55289">
        <ele>451.3</ele>
        <time>2023-04-10T14:14:03Z</time>
      </trkpt>
      <trkpt lat="47.7689" lon="6.55297">
        <ele>451.8</ele>
        <time>2023-04-10T14:14:10Z</time>
      </trkpt>
      <trkpt lat="47.76883" lon="6.55305">
        <ele>452.3</ele>
        <time>2023-04-10T14:14:17Z</time>
      </trkpt>
      <trkpt lat="47.76876" lon="6.55315">
        <ele>452.9</ele>
        <time>2023-04-10T14:14:23Z</time>
      </trkpt>
      <trkpt lat="47.7687" lon="6.55325">
        <ele>453.4</ele>
        <time>2023-04-10T14:14:31Z</time>
      </trkpt>
      <trkpt lat="47.76863" lon="6.55335">
        <ele>453.9</ele>
        <time>2023-04-10T14:14:40Z</time>
      </trkpt>
      <trkpt lat="47.76855" lon="6.55346">
        <ele>454.3</ele>
        <time>2023-04-10T14:14:46Z</time>
      </trkpt>
      <trkpt lat="47.76847" lon="6.55353">
        <ele>454.5</ele>
        <time>2023-04-10T14:14:54Z</time>
      </trkpt>
      <trkpt lat="47.76847" lon="6.55354">
        <ele>454.5</ele>
        <time>2023-04-10T14:14:58Z</time>
      </trkpt>
      <trkpt lat="47.7684" lon="6.55362">
        <ele>454.4</ele>
        <time>2023-04-10T14:15:10Z</time>
      </trkpt>
      <trkpt lat="47.76839" lon="6.55364">
        <ele>454.4</ele>
        <time>2023-04-10T14:15:14Z</time>
      </trkpt>
      <trkpt lat="47.76839" lon="6.55363">
        <ele>454.4</ele>
        <time>2023-04-10T14:15:15Z</time>
      </trkpt>
      <trkpt lat="47.76846" lon="6.55355">
        <ele>454.4</ele>
        <time>2023-04-10T14:15:23Z</time>
      </trkpt>
      <trkpt lat="47.76841" lon="6.55344">
        <ele>454.4</ele>
        <time>2023-04-10T14:15:30Z</time>
      </trkpt>
      <trkpt lat="47.76833" lon="6.55334">
        <ele>454.5</ele>
        <time>2023-04-10T14:15:37Z</time>
      </trkpt>
      <trkpt lat="47.76826" lon="6.55325">
        <ele>454.8</ele>
        <time>2023-04-10T14:15:43Z</time>
      </trkpt>
      <trkpt lat="47.7682" lon="6.55314">
        <ele>455.1</ele>
        <time>2023-04-10T14:15:50Z</time>
      </trkpt>
      <trkpt lat="47.76814" lon="6.55303">
        <ele>455.4</ele>
        <time>2023-04-10T14:15:58Z</time>
      </trkpt>
      <trkpt lat="47.76806" lon="6.55292">
        <ele>455.7</ele>
        <time>2023-04-10T14:16:05Z</time>
      </trkpt>
      <trkpt lat="47.768" lon="6.55282">
        <ele>456</ele>
        <time>2023-04-10T14:16:12Z</time>
      </trkpt>
      <trkpt lat="47.76796" lon="6.5527">
        <ele>456.2</ele>
        <time>2023-04-10T14:16:21Z</time>
      </trkpt>
      <trkpt lat="47.76791" lon="6.55257">
        <ele>456.6</ele>
        <time>2023-04-10T14:16:29Z</time>
      </trkpt>
      <trkpt lat="47.76787" lon="6.55244">
        <ele>457.2</ele>
        <time>2023-04-10T14:16:38Z</time>
      </trkpt>
      <trkpt lat="47.76783" lon="6.55231">
        <ele>458</ele>
        <time>2023-04-10T14:16:46Z</time>
      </trkpt>
      <trkpt lat="47.76777" lon="6.5522">
        <ele>459.1</ele>
        <time>2023-04-10T14:16:55Z</time>
      </trkpt>
      <trkpt lat="47.76774" lon="6.55206">
        <ele>460.3</ele>
        <time>2023-04-10T14:17:04Z</time>
      </trkpt>
      <trkpt lat="47.76769" lon="6.55194">
        <ele>461.4</ele>
        <time>2023-04-10T14:17:10Z</time>
      </trkpt>
      <trkpt lat="47.76763" lon="6.55182">
        <ele>462.2</ele>
        <time>2023-04-10T14:17:20Z</time>
      </trkpt>
      <trkpt lat="47.76758" lon="6.55175">
        <ele>462.5</ele>
        <time>2023-04-10T14:17:26Z</time>
      </trkpt>
      <trkpt lat="47.76758" lon="6.55174">
        <ele>462.5</ele>
        <time>2023-04-10T14:17:29Z</time>
      </trkpt>
      <trkpt lat="47.76757" lon="6.55173">
        <ele>462.6</ele>
        <time>2023-04-10T14:17:31Z</time>
      </trkpt>
      <trkpt lat="47.76757" lon="6.55173">
        <ele>462.6</ele>
        <time>2023-04-10T14:17:39Z</time>
      </trkpt>
      <trkpt lat="47.76751" lon="6.5516">
        <ele>462.2</ele>
        <time>2023-04-10T14:17:51Z</time>
      </trkpt>
      <trkpt lat="47.76742" lon="6.55156">
        <ele>461.3</ele>
        <time>2023-04-10T14:17:58Z</time>
      </trkpt>
      <trkpt lat="47.76734" lon="6.55164">
        <ele>460.3</ele>
        <time>2023-04-10T14:18:06Z</time>
      </trkpt>
      <trkpt lat="47.76726" lon="6.55173">
        <ele>459.5</ele>
        <time>2023-04-10T14:18:13Z</time>
      </trkpt>
      <trkpt lat="47.76724" lon="6.55176">
        <ele>459.3</ele>
        <time>2023-04-10T14:18:17Z</time>
      </trkpt>
      <trkpt lat="47.76724" lon="6.55176">
        <ele>459.3</ele>
        <time>2023-04-10T14:18:18Z</time>
      </trkpt>
      <trkpt lat="47.76723" lon="6.55177">
        <ele>459.2</ele>
        <time>2023-04-10T14:18:23Z</time>
      </trkpt>
      <trkpt lat="47.76723" lon="6.55177">
        <ele>459.1</ele>
        <time>2023-04-10T14:18:38Z</time>
      </trkpt>
      <trkpt lat="47.76714" lon="6.55184">
        <ele>458.4</ele>
        <time>2023-04-10T14:18:49Z</time>
      </trkpt>
      <trkpt lat="47.76705" lon="6.55191">
        <ele>457.6</ele>
        <time>2023-04-10T14:18:58Z</time>
      </trkpt>
      <trkpt lat="47.76697" lon="6.55198">
        <ele>456.7</ele>
        <time>2023-04-10T14:19:06Z</time>
      </trkpt>
      <trkpt lat="47.76688" lon="6.55203">
        <ele>455.7</ele>
        <time>2023-04-10T14:19:13Z</time>
      </trkpt>
      <trkpt lat="47.76678" lon="6.55199">
        <ele>454.6</ele>
        <time>2023-04-10T14:19:19Z</time>
      </trkpt>
      <trkpt lat="47.76669" lon="6.55206">
        <ele>453.6</ele>
        <time>2023-04-10T14:19:25Z</time>
      </trkpt>
      <trkpt lat="47.76661" lon="6.55213">
        <ele>452.6</ele>
        <time>2023-04-10T14:19:32Z</time>
      </trkpt>
      <trkpt lat="47.76652" lon="6.55216">
        <ele>451.6</ele>
        <time>2023-04-10T14:19:39Z</time>
      </trkpt>
      <trkpt lat="47.76643" lon="6.55218">
        <ele>450.5</ele>
        <time>2023-04-10T14:19:49Z</time>
      </trkpt>
      <trkpt lat="47.76636" lon="6.55229">
        <ele>449.2</ele>
        <time>2023-04-10T14:19:56Z</time>
      </trkpt>
      <trkpt lat="47.76629" lon="6.55237">
        <ele>447.9</ele>
        <time>2023-04-10T14:20:00Z</time>
      </trkpt>
      <trkpt lat="47.7662" lon="6.55239">
        <ele>446.6</ele>
        <time>2023-04-10T14:20:07Z</time>
      </trkpt>
      <trkpt lat="47.7661" lon="6.55238">
        <ele>445.6</ele>
        <time>2023-04-10T14:20:14Z</time>
      </trkpt>
      <trkpt lat="47.766" lon="6.55241">
        <ele>444.1</ele>
        <time>2023-04-10T14:20:20Z</time>
      </trkpt>
      <trkpt lat="47.76595" lon="6.55253">
        <ele>444.1</ele>
        <time>2023-04-10T14:20:25Z</time>
      </trkpt>
      <trkpt lat="47.7659" lon="6.55265">
        <ele>444</ele>
        <time>2023-04-10T14:20:31Z</time>
      </trkpt>
      <trkpt lat="47.76584" lon="6.55275">
        <ele>444</ele>
        <time>2023-04-10T14:20:38Z</time>
      </trkpt>
      <trkpt lat="47.76578" lon="6.55286">
        <ele>443.8</ele>
        <time>2023-04-10T14:20:44Z</time>
      </trkpt>
      <trkpt lat="47.76571" lon="6.55296">
        <ele>443.6</ele>
        <time>2023-04-10T14:20:51Z</time>
      </trkpt>
      <trkpt lat="47.76569" lon="6.5531">
        <ele>443.2</ele>
        <time>2023-04-10T14:20:56Z</time>
      </trkpt>
      <trkpt lat="47.76569" lon="6.55319">
        <ele>442.9</ele>
        <time>2023-04-10T14:21:09Z</time>
      </trkpt>
      <trkpt lat="47.76569" lon="6.55318">
        <ele>442.9</ele>
        <time>2023-04-10T14:21:13Z</time>
      </trkpt>
      <trkpt lat="47.76569" lon="6.55318">
        <ele>442.9</ele>
        <time>2023-04-10T14:21:14Z</time>
      </trkpt>
      <trkpt lat="47.76569" lon="6.55318">
        <ele>442.8</ele>
        <time>2023-04-10T14:21:36Z</time>
      </trkpt>
      <trkpt lat="47.76571" lon="6.55332">
        <ele>442.1</ele>
        <time>2023-04-10T14:21:45Z</time>
      </trkpt>
      <trkpt lat="47.76574" lon="6.55345">
        <ele>441.4</ele>
        <time>2023-04-10T14:21:52Z</time>
      </trkpt>
      <trkpt lat="47.76578" lon="6.55358">
        <ele>440.8</ele>
        <time>2023-04-10T14:22:00Z</time>
      </trkpt>
      <trkpt lat="47.76582" lon="6.55371">
        <ele>440.2</ele>
        <time>2023-04-10T14:22:08Z</time>
      </trkpt>
      <trkpt lat="47.76586" lon="6.55384">
        <ele>439.7</ele>
        <time>2023-04-10T14:22:16Z</time>
      </trkpt>
      <trkpt lat="47.76588" lon="6.55398">
        <ele>439.2</ele>
        <time>2023-04-10T14:22:24Z</time>
      </trkpt>
      <trkpt lat="47.76588" lon="6.55406">
        <ele>439</ele>
        <time>2023-04-10T14:22:31Z</time>
      </trkpt>
      <trkpt lat="47.76588" lon="6.55407">
        <ele>439</ele>
        <time>2023-04-10T14:22:34Z</time>
      </trkpt>
      <trkpt lat="47.76589" lon="6.55421">
        <ele>438.6</ele>
        <time>2023-04-10T14:22:42Z</time>
      </trkpt>
      <trkpt lat="47.76589" lon="6.55436">
        <ele>438.2</ele>
        <time>2023-04-10T14:22:50Z</time>
      </trkpt>
      <trkpt lat="47.76588" lon="6.5545">
        <ele>437.7</ele>
        <time>2023-04-10T14:22:57Z</time>
      </trkpt>
      <trkpt lat="47.76588" lon="6.55463">
        <ele>437.2</ele>
        <time>2023-04-10T14:23:04Z</time>
      </trkpt>
      <trkpt lat="47.76587" lon="6.55477">
        <ele>436.8</ele>
        <time>2023-04-10T14:23:11Z</time>
      </trkpt>
      <trkpt lat="47.76586" lon="6.55491">
        <ele>436.5</ele>
        <time>2023-04-10T14:23:18Z</time>
      </trkpt>
      <trkpt lat="47.76586" lon="6.55505">
        <ele>436.1</ele>
        <time>2023-04-10T14:23:26Z</time>
      </trkpt>
      <trkpt lat="47.76585" lon="6.55519">
        <ele>435.9</ele>
        <time>2023-04-10T14:23:34Z</time>
      </trkpt>
      <trkpt lat="47.76584" lon="6.55532">
        <ele>435.6</ele>
        <time>2023-04-10T14:23:41Z</time>
      </trkpt>
      <trkpt lat="47.76582" lon="6.55545">
        <ele>435.4</ele>
        <time>2023-04-10T14:23:48Z</time>
      </trkpt>
      <trkpt lat="47.76579" lon="6.5556">
        <ele>435</ele>
        <time>2023-04-10T14:23:56Z</time>
      </trkpt>
      <trkpt lat="47.76575" lon="6.55573">
        <ele>434.6</ele>
        <time>2023-04-10T14:24:04Z</time>
      </trkpt>
      <trkpt lat="47.76571" lon="6.55586">
        <ele>434.2</ele>
        <time>2023-04-10T14:24:12Z</time>
      </trkpt>
      <trkpt lat="47.76566" lon="6.55599">
        <ele>433.8</ele>
        <time>2023-04-10T14:24:21Z</time>
      </trkpt>
      <trkpt lat="47.76563" lon="6.55613">
        <ele>433.3</ele>
        <time>2023-04-10T14:24:29Z</time>
      </trkpt>
      <trkpt lat="47.76561" lon="6.55626">
        <ele>432.9</ele>
        <time>2023-04-10T14:24:37Z</time>
      </trkpt>
      <trkpt lat="47.76557" lon="6.5564">
        <ele>432.4</ele>
        <time>2023-04-10T14:24:46Z</time>
      </trkpt>
      <trkpt lat="47.76553" lon="6.55653">
        <ele>431.9</ele>
        <time>2023-04-10T14:24:54Z</time>
      </trkpt>
      <trkpt lat="47.76548" lon="6.55665">
        <ele>431.4</ele>
        <time>2023-04-10T14:25:02Z</time>
      </trkpt>
      <trkpt lat="47.76544" lon="6.55678">
        <ele>430.8</ele>
        <time>2023-04-10T14:25:10Z</time>
      </trkpt>
      <trkpt lat="47.7654" lon="6.55691">
        <ele>430.3</ele>
        <time>2023-04-10T14:25:18Z</time>
      </trkpt>
      <trkpt lat="47.76536" lon="6.55705">
        <ele>429.7</ele>
        <time>2023-04-10T14:25:26Z</time>
      </trkpt>
      <trkpt lat="47.76531" lon="6.55717">
        <ele>429</ele>
        <time>2023-04-10T14:25:34Z</time>
      </trkpt>
      <trkpt lat="47.76524" lon="6.55725">
        <ele>428.2</ele>
        <time>2023-04-10T14:25:41Z</time>
      </trkpt>
      <trkpt lat="47.76515" lon="6.55732">
        <ele>427.1</ele>
        <time>2023-04-10T14:25:48Z</time>
      </trkpt>
      <trkpt lat="47.76507" lon="6.55741">
        <ele>426.2</ele>
        <time>2023-04-10T14:25:58Z</time>
      </trkpt>
      <trkpt lat="47.765" lon="6.5575">
        <ele>425.2</ele>
        <time>2023-04-10T14:26:05Z</time>
      </trkpt>
      <trkpt lat="47.76494" lon="6.55762">
        <ele>424.2</ele>
        <time>2023-04-10T14:26:13Z</time>
      </trkpt>
      <trkpt lat="47.76488" lon="6.55775">
        <ele>423.3</ele>
        <time>2023-04-10T14:26:20Z</time>
      </trkpt>
      <trkpt lat="47.76484" lon="6.55789">
        <ele>422.7</ele>
        <time>2023-04-10T14:26:27Z</time>
      </trkpt>
      <trkpt lat="47.7648" lon="6.55803">
        <ele>422.2</ele>
        <time>2023-04-10T14:26:34Z</time>
      </trkpt>
      <trkpt lat="47.76477" lon="6.55817">
        <ele>422</ele>
        <time>2023-04-10T14:26:42Z</time>
      </trkpt>
      <trkpt lat="47.76474" lon="6.5582">
        <ele>422</ele>
        <time>2023-04-10T14:26:47Z</time>
      </trkpt>
      <trkpt lat="47.76474" lon="6.55821">
        <ele>422</ele>
        <time>2023-04-10T14:26:48Z</time>
      </trkpt>
      <trkpt lat="47.76474" lon="6.55821">
        <ele>422</ele>
        <time>2023-04-10T14:26:49Z</time>
      </trkpt>
      <trkpt lat="47.76474" lon="6.55821">
        <ele>422</ele>
        <time>2023-04-10T14:26:52Z</time>
      </trkpt>
      <trkpt lat="47.76472" lon="6.55829">
        <ele>421.9</ele>
        <time>2023-04-10T14:27:03Z</time>
      </trkpt>
      <trkpt lat="47.76472" lon="6.55829">
        <ele>421.9</ele>
        <time>2023-04-10T14:27:08Z</time>
      </trkpt>
      <trkpt lat="47.76468" lon="6.55844">
        <ele>421.9</ele>
        <time>2023-04-10T14:27:15Z</time>
      </trkpt>
      <trkpt lat="47.76464" lon="6.55857">
        <ele>421.7</ele>
        <time>2023-04-10T14:27:22Z</time>
      </trkpt>
      <trkpt lat="47.7646" lon="6.5587">
        <ele>421.3</ele>
        <time>2023-04-10T14:27:29Z</time>
      </trkpt>
      <trkpt lat="47.76455" lon="6.55883">
        <ele>420.8</ele>
        <time>2023-04-10T14:27:35Z</time>
      </trkpt>
      <trkpt lat="47.76452" lon="6.55896">
        <ele>420.2</ele>
        <time>2023-04-10T14:27:42Z</time>
      </trkpt>
      <trkpt lat="47.76445" lon="6.55908">
        <ele>419.5</ele>
        <time>2023-04-10T14:27:49Z</time>
      </trkpt>
      <trkpt lat="47.76441" lon="6.55922">
        <ele>419</ele>
        <time>2023-04-10T14:27:56Z</time>
      </trkpt>
      <trkpt lat="47.76437" lon="6.55934">
        <ele>418.6</ele>
        <time>2023-04-10T14:28:03Z</time>
      </trkpt>
      <trkpt lat="47.76432" lon="6.55946">
        <ele>418.3</ele>
        <time>2023-04-10T14:28:09Z</time>
      </trkpt>
      <trkpt lat="47.76427" lon="6.55959">
        <ele>418</ele>
        <time>2023-04-10T14:28:16Z</time>
      </trkpt>
      <trkpt lat="47.76423" lon="6.55972">
        <ele>417.8</ele>
        <time>2023-04-10T14:28:25Z</time>
      </trkpt>
      <trkpt lat="47.76416" lon="6.55981">
        <ele>417.7</ele>
        <time>2023-04-10T14:28:31Z</time>
      </trkpt>
      <trkpt lat="47.76408" lon="6.55989">
        <ele>417.5</ele>
        <time>2023-04-10T14:28:37Z</time>
      </trkpt>
      <trkpt lat="47.764" lon="6.55998">
        <ele>417</ele>
        <time>2023-04-10T14:28:44Z</time>
      </trkpt>
      <trkpt lat="47.76393" lon="6.56007">
        <ele>416.6</ele>
        <time>2023-04-10T14:28:50Z</time>
      </trkpt>
      <trkpt lat="47.76385" lon="6.56014">
        <ele>416.1</ele>
        <time>2023-04-10T14:28:56Z</time>
      </trkpt>
      <trkpt lat="47.76376" lon="6.56021">
        <ele>415.6</ele>
        <time>2023-04-10T14:29:03Z</time>
      </trkpt>
      <trkpt lat="47.76367" lon="6.56027">
        <ele>415</ele>
        <time>2023-04-10T14:29:09Z</time>
      </trkpt>
      <trkpt lat="47.76358" lon="6.56032">
        <ele>414.5</ele>
        <time>2023-04-10T14:29:16Z</time>
      </trkpt>
      <trkpt lat="47.76349" lon="6.56038">
        <ele>413.9</ele>
        <time>2023-04-10T14:29:22Z</time>
      </trkpt>
      <trkpt lat="47.7634" lon="6.56044">
        <ele>413.2</ele>
        <time>2023-04-10T14:29:29Z</time>
      </trkpt>
      <trkpt lat="47.76331" lon="6.56048">
        <ele>412.6</ele>
        <time>2023-04-10T14:29:36Z</time>
      </trkpt>
      <trkpt lat="47.76321" lon="6.56052">
        <ele>411.9</ele>
        <time>2023-04-10T14:29:44Z</time>
      </trkpt>
      <trkpt lat="47.76312" lon="6.56056">
        <ele>411.2</ele>
        <time>2023-04-10T14:29:51Z</time>
      </trkpt>
      <trkpt lat="47.76303" lon="6.5606">
        <ele>410.5</ele>
        <time>2023-04-10T14:29:58Z</time>
      </trkpt>
      <trkpt lat="47.76297" lon="6.56072">
        <ele>409.7</ele>
        <time>2023-04-10T14:30:07Z</time>
      </trkpt>
      <trkpt lat="47.76293" lon="6.56084">
        <ele>408.9</ele>
        <time>2023-04-10T14:30:14Z</time>
      </trkpt>
      <trkpt lat="47.76288" lon="6.56096">
        <ele>408.1</ele>
        <time>2023-04-10T14:30:20Z</time>
      </trkpt>
      <trkpt lat="47.76283" lon="6.56107">
        <ele>407.2</ele>
        <time>2023-04-10T14:30:26Z</time>
      </trkpt>
      <trkpt lat="47.76277" lon="6.56118">
        <ele>406.3</ele>
        <time>2023-04-10T14:30:32Z</time>
      </trkpt>
      <trkpt lat="47.7627" lon="6.56126">
        <ele>405.4</ele>
        <time>2023-04-10T14:30:38Z</time>
      </trkpt>
      <trkpt lat="47.76263" lon="6.56135">
        <ele>404.4</ele>
        <time>2023-04-10T14:30:45Z</time>
      </trkpt>
      <trkpt lat="47.76258" lon="6.56148">
        <ele>403.4</ele>
        <time>2023-04-10T14:30:52Z</time>
      </trkpt>
      <trkpt lat="47.76255" lon="6.56161">
        <ele>402.4</ele>
        <time>2023-04-10T14:30:58Z</time>
      </trkpt>
      <trkpt lat="47.76256" lon="6.56174">
        <ele>401.5</ele>
        <time>2023-04-10T14:31:04Z</time>
      </trkpt>
      <trkpt lat="47.76255" lon="6.5619">
        <ele>400.4</ele>
        <time>2023-04-10T14:31:12Z</time>
      </trkpt>
      <trkpt lat="47.76253" lon="6.56204">
        <ele>399.3</ele>
        <time>2023-04-10T14:31:18Z</time>
      </trkpt>
      <trkpt lat="47.76247" lon="6.56216">
        <ele>398.2</ele>
        <time>2023-04-10T14:31:25Z</time>
      </trkpt>
      <trkpt lat="47.7624" lon="6.56225">
        <ele>397.2</ele>
        <time>2023-04-10T14:31:32Z</time>
      </trkpt>
      <trkpt lat="47.76232" lon="6.56231">
        <ele>396.2</ele>
        <time>2023-04-10T14:31:39Z</time>
      </trkpt>
      <trkpt lat="47.76224" lon="6.56237">
        <ele>395.2</ele>
        <time>2023-04-10T14:31:46Z</time>
      </trkpt>
      <trkpt lat="47.76215" lon="6.56244">
        <ele>394.2</ele>
        <time>2023-04-10T14:31:54Z</time>
      </trkpt>
      <trkpt lat="47.76206" lon="6.56249">
        <ele>393.4</ele>
        <time>2023-04-10T14:32:01Z</time>
      </trkpt>
      <trkpt lat="47.76199" lon="6.56258">
        <ele>392.5</ele>
        <time>2023-04-10T14:32:08Z</time>
      </trkpt>
      <trkpt lat="47.76191" lon="6.56264">
        <ele>391.7</ele>
        <time>2023-04-10T14:32:15Z</time>
      </trkpt>
      <trkpt lat="47.76183" lon="6.56272">
        <ele>390.7</ele>
        <time>2023-04-10T14:32:22Z</time>
      </trkpt>
      <trkpt lat="47.76175" lon="6.56281">
        <ele>389.6</ele>
        <time>2023-04-10T14:32:29Z</time>
      </trkpt>
      <trkpt lat="47.76167" lon="6.56289">
        <ele>388.7</ele>
        <time>2023-04-10T14:32:36Z</time>
      </trkpt>
      <trkpt lat="47.76159" lon="6.56296">
        <ele>387.7</ele>
        <time>2023-04-10T14:32:43Z</time>
      </trkpt>
      <trkpt lat="47.76153" lon="6.56307">
        <ele>386.7</ele>
        <time>2023-04-10T14:32:51Z</time>
      </trkpt>
      <trkpt lat="47.76147" lon="6.56318">
        <ele>385.7</ele>
        <time>2023-04-10T14:32:58Z</time>
      </trkpt>
      <trkpt lat="47.76142" lon="6.5633">
        <ele>384.8</ele>
        <time>2023-04-10T14:33:05Z</time>
      </trkpt>
      <trkpt lat="47.76136" lon="6.56342">
        <ele>383.8</ele>
        <time>2023-04-10T14:33:13Z</time>
      </trkpt>
      <trkpt lat="47.7613" lon="6.56355">
        <ele>382.7</ele>
        <time>2023-04-10T14:33:19Z</time>
      </trkpt>
      <trkpt lat="47.76123" lon="6.56364">
        <ele>381.9</ele>
        <time>2023-04-10T14:33:27Z</time>
      </trkpt>
      <trkpt lat="47.76115" lon="6.56373">
        <ele>381</ele>
        <time>2023-04-10T14:33:34Z</time>
      </trkpt>
      <trkpt lat="47.76106" lon="6.56379">
        <ele>380.3</ele>
        <time>2023-04-10T14:33:41Z</time>
      </trkpt>
      <trkpt lat="47.76098" lon="6.56388">
        <ele>379.6</ele>
        <time>2023-04-10T14:33:47Z</time>
      </trkpt>
      <trkpt lat="47.76091" lon="6.56397">
        <ele>378.9</ele>
        <time>2023-04-10T14:33:54Z</time>
      </trkpt>
      <trkpt lat="47.76085" lon="6.56408">
        <ele>378.1</ele>
        <time>2023-04-10T14:34:02Z</time>
      </trkpt>
      <trkpt lat="47.76086" lon="6.56423">
        <ele>376.8</ele>
        <time>2023-04-10T14:34:10Z</time>
      </trkpt>
      <trkpt lat="47.76093" lon="6.56433">
        <ele>375.6</ele>
        <time>2023-04-10T14:34:17Z</time>
      </trkpt>
      <trkpt lat="47.76099" lon="6.56442">
        <ele>374.3</ele>
        <time>2023-04-10T14:34:25Z</time>
      </trkpt>
      <trkpt lat="47.76105" lon="6.56453">
        <ele>373.1</ele>
        <time>2023-04-10T14:34:33Z</time>
      </trkpt>
      <trkpt lat="47.76111" lon="6.56464">
        <ele>372</ele>
        <time>2023-04-10T14:34:41Z</time>
      </trkpt>
      <trkpt lat="47.76116" lon="6.56477">
        <ele>371</ele>
        <time>2023-04-10T14:34:49Z</time>
      </trkpt>
      <trkpt lat="47.76121" lon="6.56489">
        <ele>370.2</ele>
        <time>2023-04-10T14:34:57Z</time>
      </trkpt>
      <trkpt lat="47.76127" lon="6.56501">
        <ele>369.4</ele>
        <time>2023-04-10T14:35:05Z</time>
      </trkpt>
      <trkpt lat="47.76134" lon="6.56509">
        <ele>368.6</ele>
        <time>2023-04-10T14:35:13Z</time>
      </trkpt>
      <trkpt lat="47.76142" lon="6.56516">
        <ele>367.7</ele>
        <time>2023-04-10T14:35:20Z</time>
      </trkpt>
      <trkpt lat="47.76148" lon="6.56526">
        <ele>366.5</ele>
        <time>2023-04-10T14:35:27Z</time>
      </trkpt>
      <trkpt lat="47.76149" lon="6.5654">
        <ele>365</ele>
        <time>2023-04-10T14:35:34Z</time>
      </trkpt>
      <trkpt lat="47.76144" lon="6.56551">
        <ele>363.2</ele>
        <time>2023-04-10T14:35:41Z</time>
      </trkpt>
      <trkpt lat="47.76137" lon="6.5656">
        <ele>361.3</ele>
        <time>2023-04-10T14:35:48Z</time>
      </trkpt>
      <trkpt lat="47.76131" lon="6.56571">
        <ele>359.7</ele>
        <time>2023-04-10T14:35:55Z</time>
      </trkpt>
      <trkpt lat="47.76126" lon="6.56584">
        <ele>358.1</ele>
        <time>2023-04-10T14:36:03Z</time>
      </trkpt>
      <trkpt lat="47.76121" lon="6.56597">
        <ele>356.6</ele>
        <time>2023-04-10T14:36:11Z</time>
      </trkpt>
      <trkpt lat="47.76117" lon="6.56609">
        <ele>355.3</ele>
        <time>2023-04-10T14:36:18Z</time>
      </trkpt>
      <trkpt lat="47.76113" lon="6.56623">
        <ele>353.9</ele>
        <time>2023-04-10T14:36:26Z</time>
      </trkpt>
      <trkpt lat="47.76111" lon="6.56638">
        <ele>352.6</ele>
        <time>2023-04-10T14:36:33Z</time>
      </trkpt>
      <trkpt lat="47.76108" lon="6.56652">
        <ele>351.2</ele>
        <time>2023-04-10T14:36:40Z</time>
      </trkpt>
      <trkpt lat="47.76107" lon="6.56665">
        <ele>349.9</ele>
        <time>2023-04-10T14:36:47Z</time>
      </trkpt>
      <trkpt lat="47.76105" lon="6.56679">
        <ele>348.8</ele>
        <time>2023-04-10T14:36:54Z</time>
      </trkpt>
      <trkpt lat="47.76105" lon="6.56694">
        <ele>347.5</ele>
        <time>2023-04-10T14:37:03Z</time>
      </trkpt>
      <trkpt lat="47.76105" lon="6.56708">
        <ele>346.3</ele>
        <time>2023-04-10T14:37:11Z</time>
      </trkpt>
      <trkpt lat="47.76105" lon="6.56722">
        <ele>345.2</ele>
        <time>2023-04-10T14:37:19Z</time>
      </trkpt>
      <trkpt lat="47.76104" lon="6.56736">
        <ele>344.2</ele>
        <time>2023-04-10T14:37:28Z</time>
      </trkpt>
      <trkpt lat="47.76104" lon="6.56751">
        <ele>343.2</ele>
        <time>2023-04-10T14:37:37Z</time>
      </trkpt>
      <trkpt lat="47.76106" lon="6.56765">
        <ele>342.2</ele>
        <time>2023-04-10T14:37:45Z</time>
      </trkpt>
      <trkpt lat="47.76108" lon="6.56778">
        <ele>341.4</ele>
        <time>2023-04-10T14:37:53Z</time>
      </trkpt>
      <trkpt lat="47.7611" lon="6.56792">
        <ele>340.6</ele>
        <time>2023-04-10T14:38:01Z</time>
      </trkpt>
      <trkpt lat="47.76112" lon="6.56805">
        <ele>340</ele>
        <time>2023-04-10T14:38:08Z</time>
      </trkpt>
      <trkpt lat="47.76114" lon="6.56819">
        <ele>339.6</ele>
        <time>2023-04-10T14:38:15Z</time>
      </trkpt>
      <trkpt lat="47.76115" lon="6.56833">
        <ele>339.3</ele>
        <time>2023-04-10T14:38:22Z</time>
      </trkpt>
      <trkpt lat="47.76114" lon="6.56846">
        <ele>339.2</ele>
        <time>2023-04-10T14:38:29Z</time>
      </trkpt>
      <trkpt lat="47.76113" lon="6.5686">
        <ele>339.2</ele>
        <time>2023-04-10T14:38:36Z</time>
      </trkpt>
      <trkpt lat="47.76112" lon="6.56874">
        <ele>339.2</ele>
        <time>2023-04-10T14:38:44Z</time>
      </trkpt>
      <trkpt lat="47.76112" lon="6.56874">
        <ele>339.2</ele>
        <time>2023-04-10T14:38:46Z</time>
      </trkpt>
      <trkpt lat="47.76112" lon="6.56874">
        <ele>339.2</ele>
        <time>2023-04-10T14:38:51Z</time>
      </trkpt>
      <trkpt lat="47.76103" lon="6.56876">
        <ele>339.1</ele>
        <time>2023-04-10T14:39:01Z</time>
      </trkpt>
      <trkpt lat="47.76094" lon="6.5688">
        <ele>338.8</ele>
        <time>2023-04-10T14:39:07Z</time>
      </trkpt>
      <trkpt lat="47.76084" lon="6.56884">
        <ele>338.5</ele>
        <time>2023-04-10T14:39:14Z</time>
      </trkpt>
      <trkpt lat="47.76077" lon="6.56892">
        <ele>338.2</ele>
        <time>2023-04-10T14:39:21Z</time>
      </trkpt>
      <trkpt lat="47.76073" lon="6.56904">
        <ele>337.8</ele>
        <time>2023-04-10T14:39:28Z</time>
      </trkpt>
      <trkpt lat="47.76073" lon="6.56919">
        <ele>337.6</ele>
        <time>2023-04-10T14:39:36Z</time>
      </trkpt>
      <trkpt lat="47.76074" lon="6.56934">
        <ele>337.5</ele>
        <time>2023-04-10T14:39:44Z</time>
      </trkpt>
      <trkpt lat="47.76075" lon="6.56949">
        <ele>337.4</ele>
        <time>2023-04-10T14:39:52Z</time>
      </trkpt>
      <trkpt lat="47.76076" lon="6.56962">
        <ele>337.4</ele>
        <time>2023-04-10T14:39:59Z</time>
      </trkpt>
      <trkpt lat="47.76077" lon="6.56977">
        <ele>337.4</ele>
        <time>2023-04-10T14:40:07Z</time>
      </trkpt>
      <trkpt lat="47.76079" lon="6.56992">
        <ele>337.4</ele>
        <time>2023-04-10T14:40:14Z</time>
      </trkpt>
      <trkpt lat="47.7608" lon="6.57006">
        <ele>337.4</ele>
        <time>2023-04-10T14:40:21Z</time>
      </trkpt>
      <trkpt lat="47.76081" lon="6.57019">
        <ele>337.5</ele>
        <time>2023-04-10T14:40:28Z</time>
      </trkpt>
      <trkpt lat="47.76082" lon="6.57033">
        <ele>337.6</ele>
        <time>2023-04-10T14:40:35Z</time>
      </trkpt>
      <trkpt lat="47.76083" lon="6.57047">
        <ele>337.7</ele>
        <time>2023-04-10T14:40:42Z</time>
      </trkpt>
      <trkpt lat="47.76077" lon="6.57059">
        <ele>337.7</ele>
        <time>2023-04-10T14:40:49Z</time>
      </trkpt>
      <trkpt lat="47.76071" lon="6.57068">
        <ele>337.7</ele>
        <time>2023-04-10T14:41:03Z</time>
      </trkpt>
      <trkpt lat="47.76063" lon="6.57077">
        <ele>337.6</ele>
        <time>2023-04-10T14:41:10Z</time>
      </trkpt>
      <trkpt lat="47.76056" lon="6.57087">
        <ele>337.5</ele>
        <time>2023-04-10T14:41:17Z</time>
      </trkpt>
      <trkpt lat="47.76049" lon="6.57097">
        <ele>337.3</ele>
        <time>2023-04-10T14:41:23Z</time>
      </trkpt>
      <trkpt lat="47.76042" lon="6.57108">
        <ele>337.2</ele>
        <time>2023-04-10T14:41:30Z</time>
      </trkpt>
      <trkpt lat="47.76035" lon="6.57117">
        <ele>337</ele>
        <time>2023-04-10T14:41:37Z</time>
      </trkpt>
      <trkpt lat="47.76027" lon="6.57126">
        <ele>336.8</ele>
        <time>2023-04-10T14:41:44Z</time>
      </trkpt>
      <trkpt lat="47.7602" lon="6.57136">
        <ele>336.7</ele>
        <time>2023-04-10T14:41:51Z</time>
      </trkpt>
      <trkpt lat="47.76013" lon="6.57148">
        <ele>336.5</ele>
        <time>2023-04-10T14:41:58Z</time>
      </trkpt>
      <trkpt lat="47.76006" lon="6.57158">
        <ele>336.4</ele>
        <time>2023-04-10T14:42:05Z</time>
      </trkpt>
      <trkpt lat="47.75999" lon="6.57168">
        <ele>336.2</ele>
        <time>2023-04-10T14:42:13Z</time>
      </trkpt>
      <trkpt lat="47.75992" lon="6.57179">
        <ele>336.1</ele>
        <time>2023-04-10T14:42:20Z</time>
      </trkpt>
      <trkpt lat="47.75986" lon="6.57188">
        <ele>335.9</ele>
        <time>2023-04-10T14:42:27Z</time>
      </trkpt>
      <trkpt lat="47.7598" lon="6.57199">
        <ele>335.8</ele>
        <time>2023-04-10T14:42:34Z</time>
      </trkpt>
      <trkpt lat="47.75974" lon="6.57211">
        <ele>335.7</ele>
        <time>2023-04-10T14:42:41Z</time>
      </trkpt>
      <trkpt lat="47.75966" lon="6.57218">
        <ele>335.6</ele>
        <time>2023-04-10T14:42:48Z</time>
      </trkpt>
      <trkpt lat="47.75958" lon="6.57226">
        <ele>335.5</ele>
        <time>2023-04-10T14:42:55Z</time>
      </trkpt>
      <trkpt lat="47.75956" lon="6.5724">
        <ele>335</ele>
        <time>2023-04-10T14:43:02Z</time>
      </trkpt>
      <trkpt lat="47.75959" lon="6.57253">
        <ele>334.8</ele>
        <time>2023-04-10T14:43:08Z</time>
      </trkpt>
      <trkpt lat="47.75963" lon="6.57267">
        <ele>334.5</ele>
        <time>2023-04-10T14:43:15Z</time>
      </trkpt>
      <trkpt lat="47.75968" lon="6.5728">
        <ele>334.4</ele>
        <time>2023-04-10T14:43:22Z</time>
      </trkpt>
      <trkpt lat="47.75971" lon="6.57292">
        <ele>334.3</ele>
        <time>2023-04-10T14:43:28Z</time>
      </trkpt>
      <trkpt lat="47.75974" lon="6.57306">
        <ele>334.2</ele>
        <time>2023-04-10T14:43:35Z</time>
      </trkpt>
      <trkpt lat="47.75977" lon="6.5732">
        <ele>334.2</ele>
        <time>2023-04-10T14:43:42Z</time>
      </trkpt>
      <trkpt lat="47.75978" lon="6.57335">
        <ele>334.2</ele>
        <time>2023-04-10T14:43:49Z</time>
      </trkpt>
      <trkpt lat="47.75978" lon="6.57349">
        <ele>334.2</ele>
        <time>2023-04-10T14:43:56Z</time>
      </trkpt>
      <trkpt lat="47.75977" lon="6.57363">
        <ele>334.2</ele>
        <time>2023-04-10T14:44:03Z</time>
      </trkpt>
      <trkpt lat="47.75977" lon="6.57379">
        <ele>334.2</ele>
        <time>2023-04-10T14:44:11Z</time>
      </trkpt>
      <trkpt lat="47.75979" lon="6.57388">
        <ele>334.2</ele>
        <time>2023-04-10T14:44:17Z</time>
      </trkpt>
      <trkpt lat="47.75978" lon="6.57387">
        <ele>334.2</ele>
        <time>2023-04-10T14:44:20Z</time>
      </trkpt>
      <trkpt lat="47.75972" lon="6.57399">
        <ele>334.2</ele>
        <time>2023-04-10T14:44:28Z</time>
      </trkpt>
      <trkpt lat="47.75965" lon="6.5741">
        <ele>334.1</ele>
        <time>2023-04-10T14:44:35Z</time>
      </trkpt>
      <trkpt lat="47.75958" lon="6.57419">
        <ele>334.1</ele>
        <time>2023-04-10T14:44:42Z</time>
      </trkpt>
      <trkpt lat="47.7595" lon="6.57428">
        <ele>334</ele>
        <time>2023-04-10T14:44:49Z</time>
      </trkpt>
      <trkpt lat="47.75942" lon="6.57438">
        <ele>334</ele>
        <time>2023-04-10T14:44:56Z</time>
      </trkpt>
      <trkpt lat="47.75933" lon="6.57445">
        <ele>333.9</ele>
        <time>2023-04-10T14:45:04Z</time>
      </trkpt>
      <trkpt lat="47.75929" lon="6.57457">
        <ele>333.7</ele>
        <time>2023-04-10T14:45:11Z</time>
      </trkpt>
      <trkpt lat="47.75931" lon="6.57471">
        <ele>333.6</ele>
        <time>2023-04-10T14:45:17Z</time>
      </trkpt>
      <trkpt lat="47.75936" lon="6.57483">
        <ele>333.5</ele>
        <time>2023-04-10T14:45:24Z</time>
      </trkpt>
      <trkpt lat="47.7594" lon="6.57495">
        <ele>333.5</ele>
        <time>2023-04-10T14:45:30Z</time>
      </trkpt>
      <trkpt lat="47.75944" lon="6.57509">
        <ele>333.4</ele>
        <time>2023-04-10T14:45:37Z</time>
      </trkpt>
      <trkpt lat="47.7595" lon="6.57521">
        <ele>333.3</ele>
        <time>2023-04-10T14:45:44Z</time>
      </trkpt>
      <trkpt lat="47.75952" lon="6.57534">
        <ele>333.2</ele>
        <time>2023-04-10T14:45:50Z</time>
      </trkpt>
      <trkpt lat="47.75956" lon="6.57548">
        <ele>333.2</ele>
        <time>2023-04-10T14:45:57Z</time>
      </trkpt>
      <trkpt lat="47.75959" lon="6.57562">
        <ele>333.1</ele>
        <time>2023-04-10T14:46:04Z</time>
      </trkpt>
      <trkpt lat="47.75964" lon="6.57576">
        <ele>333.1</ele>
        <time>2023-04-10T14:46:11Z</time>
      </trkpt>
      <trkpt lat="47.75966" lon="6.57591">
        <ele>333.1</ele>
        <time>2023-04-10T14:46:19Z</time>
      </trkpt>
      <trkpt lat="47.75969" lon="6.57605">
        <ele>333.1</ele>
        <time>2023-04-10T14:46:26Z</time>
      </trkpt>
      <trkpt lat="47.75972" lon="6.57619">
        <ele>333.1</ele>
        <time>2023-04-10T14:46:32Z</time>
      </trkpt>
      <trkpt lat="47.75975" lon="6.57632">
        <ele>333.1</ele>
        <time>2023-04-10T14:46:38Z</time>
      </trkpt>
      <trkpt lat="47.75979" lon="6.57646">
        <ele>333.2</ele>
        <time>2023-04-10T14:46:45Z</time>
      </trkpt>
      <trkpt lat="47.75982" lon="6.57659">
        <ele>333.2</ele>
        <time>2023-04-10T14:46:52Z</time>
      </trkpt>
      <trkpt lat="47.75983" lon="6.57674">
        <ele>333.2</ele>
        <time>2023-04-10T14:46:59Z</time>
      </trkpt>
      <trkpt lat="47.75983" lon="6.57687">
        <ele>333.2</ele>
        <time>2023-04-10T14:47:05Z</time>
      </trkpt>
      <trkpt lat="47.75983" lon="6.57703">
        <ele>333.2</ele>
        <time>2023-04-10T14:47:12Z</time>
      </trkpt>
      <trkpt lat="47.75983" lon="6.57717">
        <ele>333.3</ele>
        <time>2023-04-10T14:47:20Z</time>
      </trkpt>
      <trkpt lat="47.75983" lon="6.57731">
        <ele>333.3</ele>
        <time>2023-04-10T14:47:26Z</time>
      </trkpt>
      <trkpt lat="47.75993" lon="6.57734">
        <ele>333.3</ele>
        <time>2023-04-10T14:47:33Z</time>
      </trkpt>
      <trkpt lat="47.76003" lon="6.57731">
        <ele>333.3</ele>
        <time>2023-04-10T14:47:38Z</time>
      </trkpt>
      <trkpt lat="47.76013" lon="6.57728">
        <ele>333.3</ele>
        <time>2023-04-10T14:47:45Z</time>
      </trkpt>
      <trkpt lat="47.76022" lon="6.5773">
        <ele>333.2</ele>
        <time>2023-04-10T14:47:52Z</time>
      </trkpt>
      <trkpt lat="47.7603" lon="6.57736">
        <ele>333.1</ele>
        <time>2023-04-10T14:47:59Z</time>
      </trkpt>
      <trkpt lat="47.76038" lon="6.57746">
        <ele>333</ele>
        <time>2023-04-10T14:48:06Z</time>
      </trkpt>
      <trkpt lat="47.76045" lon="6.57756">
        <ele>333</ele>
        <time>2023-04-10T14:48:13Z</time>
      </trkpt>
      <trkpt lat="47.76052" lon="6.57765">
        <ele>333</ele>
        <time>2023-04-10T14:48:19Z</time>
      </trkpt>
      <trkpt lat="47.7606" lon="6.57772">
        <ele>333</ele>
        <time>2023-04-10T14:48:26Z</time>
      </trkpt>
      <trkpt lat="47.76069" lon="6.57773">
        <ele>333</ele>
        <time>2023-04-10T14:48:32Z</time>
      </trkpt>
      <trkpt lat="47.76079" lon="6.57772">
        <ele>333</ele>
        <time>2023-04-10T14:48:39Z</time>
      </trkpt>
      <trkpt lat="47.76088" lon="6.5777">
        <ele>333</ele>
        <time>2023-04-10T14:48:46Z</time>
      </trkpt>
      <trkpt lat="47.76097" lon="6.57767">
        <ele>333</ele>
        <time>2023-04-10T14:48:53Z</time>
      </trkpt>
      <trkpt lat="47.76106" lon="6.57764">
        <ele>333.1</ele>
        <time>2023-04-10T14:49:00Z</time>
      </trkpt>
      <trkpt lat="47.76116" lon="6.5776">
        <ele>333.1</ele>
        <time>2023-04-10T14:49:08Z</time>
      </trkpt>
      <trkpt lat="47.76125" lon="6.57756">
        <ele>333.1</ele>
        <time>2023-04-10T14:49:15Z</time>
      </trkpt>
      <trkpt lat="47.76135" lon="6.57752">
        <ele>333.1</ele>
        <time>2023-04-10T14:49:23Z</time>
      </trkpt>
      <trkpt lat="47.76144" lon="6.57746">
        <ele>333.2</ele>
        <time>2023-04-10T14:49:31Z</time>
      </trkpt>
      <trkpt lat="47.76153" lon="6.5774">
        <ele>333.2</ele>
        <time>2023-04-10T14:49:39Z</time>
      </trkpt>
      <trkpt lat="47.76162" lon="6.57733">
        <ele>333.3</ele>
        <time>2023-04-10T14:49:47Z</time>
      </trkpt>
      <trkpt lat="47.7617" lon="6.57727">
        <ele>333.4</ele>
        <time>2023-04-10T14:49:54Z</time>
      </trkpt>
      <trkpt lat="47.76179" lon="6.57721">
        <ele>333.5</ele>
        <time>2023-04-10T14:50:02Z</time>
      </trkpt>
      <trkpt lat="47.76189" lon="6.57716">
        <ele>333.6</ele>
        <time>2023-04-10T14:50:10Z</time>
      </trkpt>
      <trkpt lat="47.76198" lon="6.57712">
        <ele>333.7</ele>
        <time>2023-04-10T14:50:18Z</time>
      </trkpt>
      <trkpt lat="47.76207" lon="6.5771">
        <ele>333.8</ele>
        <time>2023-04-10T14:50:25Z</time>
      </trkpt>
      <trkpt lat="47.76217" lon="6.57708">
        <ele>333.9</ele>
        <time>2023-04-10T14:50:33Z</time>
      </trkpt>
      <trkpt lat="47.76227" lon="6.57706">
        <ele>334</ele>
        <time>2023-04-10T14:50:40Z</time>
      </trkpt>
      <trkpt lat="47.76237" lon="6.57706">
        <ele>334</ele>
        <time>2023-04-10T14:50:48Z</time>
      </trkpt>
      <trkpt lat="47.76246" lon="6.57705">
        <ele>334.1</ele>
        <time>2023-04-10T14:50:55Z</time>
      </trkpt>
      <trkpt lat="47.76255" lon="6.57705">
        <ele>334.2</ele>
        <time>2023-04-10T14:51:02Z</time>
      </trkpt>
      <trkpt lat="47.76265" lon="6.57704">
        <ele>334.3</ele>
        <time>2023-04-10T14:51:09Z</time>
      </trkpt>
      <trkpt lat="47.76275" lon="6.57703">
        <ele>334.4</ele>
        <time>2023-04-10T14:51:17Z</time>
      </trkpt>
      <trkpt lat="47.76285" lon="6.57705">
        <ele>334.6</ele>
        <time>2023-04-10T14:51:25Z</time>
      </trkpt>
      <trkpt lat="47.76295" lon="6.57707">
        <ele>334.9</ele>
        <time>2023-04-10T14:51:35Z</time>
      </trkpt>
      <trkpt lat="47.76305" lon="6.57711">
        <ele>335.1</ele>
        <time>2023-04-10T14:51:42Z</time>
      </trkpt>
      <trkpt lat="47.76314" lon="6.57715">
        <ele>335.4</ele>
        <time>2023-04-10T14:51:48Z</time>
      </trkpt>
      <trkpt lat="47.76323" lon="6.5772">
        <ele>335.7</ele>
        <time>2023-04-10T14:51:54Z</time>
      </trkpt>
      <trkpt lat="47.76331" lon="6.57727">
        <ele>336.1</ele>
        <time>2023-04-10T14:52:01Z</time>
      </trkpt>
      <trkpt lat="47.76338" lon="6.57737">
        <ele>336.5</ele>
        <time>2023-04-10T14:52:08Z</time>
      </trkpt>
      <trkpt lat="47.76347" lon="6.57739">
        <ele>336.8</ele>
        <time>2023-04-10T14:52:15Z</time>
      </trkpt>
      <trkpt lat="47.76356" lon="6.57735">
        <ele>337.2</ele>
        <time>2023-04-10T14:52:20Z</time>
      </trkpt>
      <trkpt lat="47.76366" lon="6.57737">
        <ele>337.7</ele>
        <time>2023-04-10T14:52:27Z</time>
      </trkpt>
      <trkpt lat="47.76375" lon="6.5773">
        <ele>338.2</ele>
        <time>2023-04-10T14:52:32Z</time>
      </trkpt>
      <trkpt lat="47.76385" lon="6.57732">
        <ele>338.8</ele>
        <time>2023-04-10T14:52:40Z</time>
      </trkpt>
      <trkpt lat="47.76395" lon="6.57734">
        <ele>339.4</ele>
        <time>2023-04-10T14:52:48Z</time>
      </trkpt>
      <trkpt lat="47.76405" lon="6.57732">
        <ele>339.9</ele>
        <time>2023-04-10T14:52:55Z</time>
      </trkpt>
      <trkpt lat="47.76415" lon="6.57735">
        <ele>340.5</ele>
        <time>2023-04-10T14:53:02Z</time>
      </trkpt>
      <trkpt lat="47.76424" lon="6.57735">
        <ele>340.9</ele>
        <time>2023-04-10T14:53:09Z</time>
      </trkpt>
      <trkpt lat="47.76433" lon="6.57736">
        <ele>341.4</ele>
        <time>2023-04-10T14:53:16Z</time>
      </trkpt>
      <trkpt lat="47.76442" lon="6.57738">
        <ele>341.9</ele>
        <time>2023-04-10T14:53:22Z</time>
      </trkpt>
      <trkpt lat="47.76452" lon="6.57736">
        <ele>342.4</ele>
        <time>2023-04-10T14:53:29Z</time>
      </trkpt>
      <trkpt lat="47.76461" lon="6.57738">
        <ele>343</ele>
        <time>2023-04-10T14:53:35Z</time>
      </trkpt>
      <trkpt lat="47.7647" lon="6.57739">
        <ele>343.7</ele>
        <time>2023-04-10T14:53:41Z</time>
      </trkpt>
      <trkpt lat="47.7648" lon="6.57741">
        <ele>344.4</ele>
        <time>2023-04-10T14:53:48Z</time>
      </trkpt>
      <trkpt lat="47.76489" lon="6.57741">
        <ele>345</ele>
        <time>2023-04-10T14:53:54Z</time>
      </trkpt>
      <trkpt lat="47.76499" lon="6.57742">
        <ele>345.6</ele>
        <time>2023-04-10T14:54:01Z</time>
      </trkpt>
      <trkpt lat="47.76508" lon="6.57747">
        <ele>346.3</ele>
        <time>2023-04-10T14:54:07Z</time>
      </trkpt>
      <trkpt lat="47.76517" lon="6.57751">
        <ele>346.9</ele>
        <time>2023-04-10T14:54:15Z</time>
      </trkpt>
      <trkpt lat="47.76527" lon="6.57748">
        <ele>347.5</ele>
        <time>2023-04-10T14:54:22Z</time>
      </trkpt>
      <trkpt lat="47.76537" lon="6.57745">
        <ele>348</ele>
        <time>2023-04-10T14:54:28Z</time>
      </trkpt>
      <trkpt lat="47.76546" lon="6.57738">
        <ele>348.5</ele>
        <time>2023-04-10T14:54:35Z</time>
      </trkpt>
      <trkpt lat="47.76555" lon="6.57733">
        <ele>348.9</ele>
        <time>2023-04-10T14:54:40Z</time>
      </trkpt>
      <trkpt lat="47.76564" lon="6.57733">
        <ele>349.3</ele>
        <time>2023-04-10T14:54:52Z</time>
      </trkpt>
      <trkpt lat="47.76573" lon="6.57729">
        <ele>349.6</ele>
        <time>2023-04-10T14:55:02Z</time>
      </trkpt>
      <trkpt lat="47.7658" lon="6.57719">
        <ele>349.9</ele>
        <time>2023-04-10T14:55:08Z</time>
      </trkpt>
      <trkpt lat="47.76589" lon="6.57717">
        <ele>350.1</ele>
        <time>2023-04-10T14:55:14Z</time>
      </trkpt>
      <trkpt lat="47.76599" lon="6.57715">
        <ele>350.2</ele>
        <time>2023-04-10T14:55:21Z</time>
      </trkpt>
      <trkpt lat="47.76609" lon="6.57717">
        <ele>350.2</ele>
        <time>2023-04-10T14:55:28Z</time>
      </trkpt>
      <trkpt lat="47.76618" lon="6.57721">
        <ele>350.2</ele>
        <time>2023-04-10T14:55:37Z</time>
      </trkpt>
      <trkpt lat="47.76627" lon="6.57726">
        <ele>350.2</ele>
        <time>2023-04-10T14:55:44Z</time>
      </trkpt>
      <trkpt lat="47.76637" lon="6.57729">
        <ele>350.3</ele>
        <time>2023-04-10T14:55:51Z</time>
      </trkpt>
      <trkpt lat="47.76646" lon="6.57733">
        <ele>350.4</ele>
        <time>2023-04-10T14:55:57Z</time>
      </trkpt>
      <trkpt lat="47.76656" lon="6.57732">
        <ele>350.5</ele>
        <time>2023-04-10T14:56:04Z</time>
      </trkpt>
      <trkpt lat="47.76666" lon="6.57731">
        <ele>350.6</ele>
        <time>2023-04-10T14:56:10Z</time>
      </trkpt>
      <trkpt lat="47.76675" lon="6.5773">
        <ele>350.7</ele>
        <time>2023-04-10T14:56:17Z</time>
      </trkpt>
      <trkpt lat="47.76685" lon="6.57731">
        <ele>350.8</ele>
        <time>2023-04-10T14:56:24Z</time>
      </trkpt>
      <trkpt lat="47.76693" lon="6.57736">
        <ele>350.9</ele>
        <time>2023-04-10T14:56:31Z</time>
      </trkpt>
      <trkpt lat="47.76703" lon="6.57736">
        <ele>351.1</ele>
        <time>2023-04-10T14:56:36Z</time>
      </trkpt>
      <trkpt lat="47.76712" lon="6.57736">
        <ele>351.4</ele>
        <time>2023-04-10T14:56:41Z</time>
      </trkpt>
      <trkpt lat="47.76721" lon="6.57739">
        <ele>351.7</ele>
        <time>2023-04-10T14:56:47Z</time>
      </trkpt>
      <trkpt lat="47.7673" lon="6.57744">
        <ele>352.1</ele>
        <time>2023-04-10T14:56:53Z</time>
      </trkpt>
      <trkpt lat="47.76741" lon="6.57747">
        <ele>352.6</ele>
        <time>2023-04-10T14:57:01Z</time>
      </trkpt>
      <trkpt lat="47.76751" lon="6.57749">
        <ele>353.1</ele>
        <time>2023-04-10T14:57:07Z</time>
      </trkpt>
      <trkpt lat="47.7676" lon="6.57755">
        <ele>353.6</ele>
        <time>2023-04-10T14:57:14Z</time>
      </trkpt>
      <trkpt lat="47.76769" lon="6.57757">
        <ele>354</ele>
        <time>2023-04-10T14:57:21Z</time>
      </trkpt>
      <trkpt lat="47.76778" lon="6.57761">
        <ele>354.3</ele>
        <time>2023-04-10T14:57:28Z</time>
      </trkpt>
      <trkpt lat="47.76789" lon="6.57764">
        <ele>354.7</ele>
        <time>2023-04-10T14:57:35Z</time>
      </trkpt>
      <trkpt lat="47.76794" lon="6.57765">
        <ele>354.8</ele>
        <time>2023-04-10T14:57:40Z</time>
      </trkpt>
      <trkpt lat="47.76794" lon="6.57764">
        <ele>354.9</ele>
        <time>2023-04-10T14:57:43Z</time>
      </trkpt>
      <trkpt lat="47.76794" lon="6.57764">
        <ele>354.9</ele>
        <time>2023-04-10T14:57:45Z</time>
      </trkpt>
      <trkpt lat="47.76795" lon="6.57763">
        <ele>354.9</ele>
        <time>2023-04-10T14:57:59Z</time>
      </trkpt>
      <trkpt lat="47.76795" lon="6.57763">
        <ele>354.9</ele>
        <time>2023-04-10T14:58:00Z</time>
      </trkpt>
      <trkpt lat="47.76795" lon="6.57764">
        <ele>354.9</ele>
        <time>2023-04-10T14:58:14Z</time>
      </trkpt>
      <trkpt lat="47.76804" lon="6.57765">
        <ele>355.2</ele>
        <time>2023-04-10T14:58:22Z</time>
      </trkpt>
      <trkpt lat="47.76813" lon="6.5777">
        <ele>355.5</ele>
        <time>2023-04-10T14:58:30Z</time>
      </trkpt>
      <trkpt lat="47.76822" lon="6.57771">
        <ele>355.7</ele>
        <time>2023-04-10T14:58:37Z</time>
      </trkpt>
      <trkpt lat="47.76832" lon="6.57773">
        <ele>355.9</ele>
        <time>2023-04-10T14:58:43Z</time>
      </trkpt>
      <trkpt lat="47.76841" lon="6.57775">
        <ele>356.1</ele>
        <time>2023-04-10T14:58:50Z</time>
      </trkpt>
      <trkpt lat="47.76851" lon="6.57774">
        <ele>356.3</ele>
        <time>2023-04-10T14:58:56Z</time>
      </trkpt>
      <trkpt lat="47.76859" lon="6.57781">
        <ele>356.5</ele>
        <time>2023-04-10T14:59:03Z</time>
      </trkpt>
      <trkpt lat="47.76869" lon="6.5778">
        <ele>356.7</ele>
        <time>2023-04-10T14:59:10Z</time>
      </trkpt>
      <trkpt lat="47.76879" lon="6.57779">
        <ele>357</ele>
        <time>2023-04-10T14:59:18Z</time>
      </trkpt>
      <trkpt lat="47.76888" lon="6.57778">
        <ele>357.3</ele>
        <time>2023-04-10T14:59:24Z</time>
      </trkpt>
      <trkpt lat="47.76897" lon="6.57774">
        <ele>357.7</ele>
        <time>2023-04-10T14:59:30Z</time>
      </trkpt>
      <trkpt lat="47.76907" lon="6.57768">
        <ele>358.2</ele>
        <time>2023-04-10T14:59:37Z</time>
      </trkpt>
      <trkpt lat="47.76917" lon="6.57765">
        <ele>358.7</ele>
        <time>2023-04-10T14:59:45Z</time>
      </trkpt>
      <trkpt lat="47.76927" lon="6.57763">
        <ele>359.2</ele>
        <time>2023-04-10T14:59:53Z</time>
      </trkpt>
      <trkpt lat="47.76937" lon="6.57762">
        <ele>359.6</ele>
        <time>2023-04-10T14:59:59Z</time>
      </trkpt>
      <trkpt lat="47.76947" lon="6.57757">
        <ele>360.1</ele>
        <time>2023-04-10T15:00:07Z</time>
      </trkpt>
      <trkpt lat="47.76956" lon="6.57756">
        <ele>360.5</ele>
        <time>2023-04-10T15:00:13Z</time>
      </trkpt>
      <trkpt lat="47.76966" lon="6.5776">
        <ele>360.9</ele>
        <time>2023-04-10T15:00:21Z</time>
      </trkpt>
      <trkpt lat="47.76975" lon="6.57763">
        <ele>361.4</ele>
        <time>2023-04-10T15:00:27Z</time>
      </trkpt>
      <trkpt lat="47.76984" lon="6.57765">
        <ele>361.8</ele>
        <time>2023-04-10T15:00:34Z</time>
      </trkpt>
      <trkpt lat="47.76992" lon="6.57773">
        <ele>362.3</ele>
        <time>2023-04-10T15:00:41Z</time>
      </trkpt>
      <trkpt lat="47.77" lon="6.57782">
        <ele>362.9</ele>
        <time>2023-04-10T15:00:48Z</time>
      </trkpt>
      <trkpt lat="47.77008" lon="6.57789">
        <ele>363.3</ele>
        <time>2023-04-10T15:00:54Z</time>
      </trkpt>
      <trkpt lat="47.77018" lon="6.57794">
        <ele>363.7</ele>
        <time>2023-04-10T15:01:00Z</time>
      </trkpt>
      <trkpt lat="47.77026" lon="6.57798">
        <ele>364</ele>
        <time>2023-04-10T15:01:07Z</time>
      </trkpt>
      <trkpt lat="47.77034" lon="6.57806">
        <ele>364.3</ele>
        <time>2023-04-10T15:01:14Z</time>
      </trkpt>
      <trkpt lat="47.77042" lon="6.57814">
        <ele>364.4</ele>
        <time>2023-04-10T15:01:21Z</time>
      </trkpt>
      <trkpt lat="47.7705" lon="6.5782">
        <ele>364.5</ele>
        <time>2023-04-10T15:01:27Z</time>
      </trkpt>
      <trkpt lat="47.77059" lon="6.57825">
        <ele>364.6</ele>
        <time>2023-04-10T15:01:33Z</time>
      </trkpt>
      <trkpt lat="47.77068" lon="6.57831">
        <ele>364.6</ele>
        <time>2023-04-10T15:01:39Z</time>
      </trkpt>
      <trkpt lat="47.77077" lon="6.5783">
        <ele>364.6</ele>
        <time>2023-04-10T15:01:45Z</time>
      </trkpt>
      <trkpt lat="47.77087" lon="6.57831">
        <ele>364.6</ele>
        <time>2023-04-10T15:01:53Z</time>
      </trkpt>
      <trkpt lat="47.77097" lon="6.57833">
        <ele>364.6</ele>
        <time>2023-04-10T15:02:00Z</time>
      </trkpt>
      <trkpt lat="47.77103" lon="6.57843">
        <ele>364.6</ele>
        <time>2023-04-10T15:02:07Z</time>
      </trkpt>
      <trkpt lat="47.77105" lon="6.57856">
        <ele>364.5</ele>
        <time>2023-04-10T15:02:14Z</time>
      </trkpt>
      <trkpt lat="47.77105" lon="6.5787">
        <ele>364.5</ele>
        <time>2023-04-10T15:02:21Z</time>
      </trkpt>
      <trkpt lat="47.77106" lon="6.57885">
        <ele>364.5</ele>
        <time>2023-04-10T15:02:29Z</time>
      </trkpt>
      <trkpt lat="47.77106" lon="6.579">
        <ele>364.5</ele>
        <time>2023-04-10T15:02:36Z</time>
      </trkpt>
      <trkpt lat="47.77106" lon="6.57914">
        <ele>364.5</ele>
        <time>2023-04-10T15:02:43Z</time>
      </trkpt>
      <trkpt lat="47.77107" lon="6.57927">
        <ele>364.6</ele>
        <time>2023-04-10T15:02:50Z</time>
      </trkpt>
      <trkpt lat="47.77108" lon="6.57941">
        <ele>364.6</ele>
        <time>2023-04-10T15:02:57Z</time>
      </trkpt>
      <trkpt lat="47.77109" lon="6.57956">
        <ele>364.7</ele>
        <time>2023-04-10T15:03:04Z</time>
      </trkpt>
      <trkpt lat="47.77109" lon="6.5797">
        <ele>364.7</ele>
        <time>2023-04-10T15:03:10Z</time>
      </trkpt>
      <trkpt lat="47.77111" lon="6.57984">
        <ele>364.8</ele>
        <time>2023-04-10T15:03:17Z</time>
      </trkpt>
      <trkpt lat="47.77114" lon="6.57998">
        <ele>364.8</ele>
        <time>2023-04-10T15:03:24Z</time>
      </trkpt>
      <trkpt lat="47.77117" lon="6.58011">
        <ele>364.9</ele>
        <time>2023-04-10T15:03:31Z</time>
      </trkpt>
      <trkpt lat="47.77122" lon="6.58024">
        <ele>364.9</ele>
        <time>2023-04-10T15:03:38Z</time>
      </trkpt>
      <trkpt lat="47.77128" lon="6.58034">
        <ele>364.9</ele>
        <time>2023-04-10T15:03:45Z</time>
      </trkpt>
      <trkpt lat="47.77134" lon="6.58045">
        <ele>365</ele>
        <time>2023-04-10T15:03:52Z</time>
      </trkpt>
      <trkpt lat="47.77141" lon="6.58054">
        <ele>365</ele>
        <time>2023-04-10T15:03:59Z</time>
      </trkpt>
      <trkpt lat="47.77149" lon="6.58064">
        <ele>365.1</ele>
        <time>2023-04-10T15:04:06Z</time>
      </trkpt>
      <trkpt lat="47.77158" lon="6.5807">
        <ele>365.2</ele>
        <time>2023-04-10T15:04:16Z</time>
      </trkpt>
      <trkpt lat="47.77167" lon="6.58071">
        <ele>365.3</ele>
        <time>2023-04-10T15:04:23Z</time>
      </trkpt>
      <trkpt lat="47.77176" lon="6.58071">
        <ele>365.4</ele>
        <time>2023-04-10T15:04:31Z</time>
      </trkpt>
      <trkpt lat="47.77186" lon="6.58071">
        <ele>365.5</ele>
        <time>2023-04-10T15:04:39Z</time>
      </trkpt>
      <trkpt lat="47.77195" lon="6.58071">
        <ele>365.6</ele>
        <time>2023-04-10T15:04:46Z</time>
      </trkpt>
      <trkpt lat="47.77205" lon="6.5807">
        <ele>365.6</ele>
        <time>2023-04-10T15:04:53Z</time>
      </trkpt>
      <trkpt lat="47.77215" lon="6.58068">
        <ele>365.7</ele>
        <time>2023-04-10T15:05:00Z</time>
      </trkpt>
      <trkpt lat="47.77225" lon="6.58066">
        <ele>365.8</ele>
        <time>2023-04-10T15:05:07Z</time>
      </trkpt>
      <trkpt lat="47.77234" lon="6.58063">
        <ele>365.8</ele>
        <time>2023-04-10T15:05:14Z</time>
      </trkpt>
      <trkpt lat="47.77244" lon="6.58062">
        <ele>365.9</ele>
        <time>2023-04-10T15:05:21Z</time>
      </trkpt>
      <trkpt lat="47.77253" lon="6.58059">
        <ele>366.1</ele>
        <time>2023-04-10T15:05:28Z</time>
      </trkpt>
      <trkpt lat="47.77263" lon="6.58056">
        <ele>366.3</ele>
        <time>2023-04-10T15:05:35Z</time>
      </trkpt>
      <trkpt lat="47.77273" lon="6.58053">
        <ele>366.5</ele>
        <time>2023-04-10T15:05:43Z</time>
      </trkpt>
      <trkpt lat="47.77283" lon="6.58049">
        <ele>366.7</ele>
        <time>2023-04-10T15:05:50Z</time>
      </trkpt>
      <trkpt lat="47.77292" lon="6.58047">
        <ele>366.8</ele>
        <time>2023-04-10T15:05:57Z</time>
      </trkpt>
      <trkpt lat="47.77303" lon="6.58046">
        <ele>367</ele>
        <time>2023-04-10T15:06:04Z</time>
      </trkpt>
      <trkpt lat="47.77313" lon="6.58045">
        <ele>367.1</ele>
        <time>2023-04-10T15:06:11Z</time>
      </trkpt>
      <trkpt lat="47.77322" lon="6.58047">
        <ele>367.2</ele>
        <time>2023-04-10T15:06:17Z</time>
      </trkpt>
      <trkpt lat="47.77331" lon="6.58049">
        <ele>367.5</ele>
        <time>2023-04-10T15:06:23Z</time>
      </trkpt>
      <trkpt lat="47.7734" lon="6.5805">
        <ele>367.8</ele>
        <time>2023-04-10T15:06:29Z</time>
      </trkpt>
      <trkpt lat="47.7735" lon="6.58053">
        <ele>368.2</ele>
        <time>2023-04-10T15:06:36Z</time>
      </trkpt>
      <trkpt lat="47.7736" lon="6.58055">
        <ele>368.6</ele>
        <time>2023-04-10T15:06:43Z</time>
      </trkpt>
      <trkpt lat="47.77362" lon="6.58057">
        <ele>368.7</ele>
        <time>2023-04-10T15:06:47Z</time>
      </trkpt>
      <trkpt lat="47.77362" lon="6.58057">
        <ele>368.8</ele>
        <time>2023-04-10T15:06:51Z</time>
      </trkpt>
      <trkpt lat="47.77362" lon="6.58057">
        <ele>368.8</ele>
        <time>2023-04-10T15:06:52Z</time>
      </trkpt>
      <trkpt lat="47.77362" lon="6.58058">
        <ele>368.8</ele>
        <time>2023-04-10T15:06:59Z</time>
      </trkpt>
      <trkpt lat="47.77373" lon="6.58061">
        <ele>369.3</ele>
        <time>2023-04-10T15:07:07Z</time>
      </trkpt>
      <trkpt lat="47.77382" lon="6.5806">
        <ele>369.7</ele>
        <time>2023-04-10T15:07:14Z</time>
      </trkpt>
      <trkpt lat="47.77392" lon="6.58062">
        <ele>370.2</ele>
        <time>2023-04-10T15:07:21Z</time>
      </trkpt>
      <trkpt lat="47.77402" lon="6.58064">
        <ele>370.8</ele>
        <time>2023-04-10T15:07:28Z</time>
      </trkpt>
      <trkpt lat="47.77411" lon="6.58066">
        <ele>371.3</ele>
        <time>2023-04-10T15:07:34Z</time>
      </trkpt>
      <trkpt lat="47.7742" lon="6.58067">
        <ele>371.8</ele>
        <time>2023-04-10T15:07:40Z</time>
      </trkpt>
      <trkpt lat="47.7743" lon="6.58069">
        <ele>372.3</ele>
        <time>2023-04-10T15:07:47Z</time>
      </trkpt>
      <trkpt lat="47.77441" lon="6.58069">
        <ele>372.7</ele>
        <time>2023-04-10T15:07:54Z</time>
      </trkpt>
      <trkpt lat="47.77451" lon="6.58068">
        <ele>373.2</ele>
        <time>2023-04-10T15:08:01Z</time>
      </trkpt>
      <trkpt lat="47.7746" lon="6.58068">
        <ele>373.6</ele>
        <time>2023-04-10T15:08:08Z</time>
      </trkpt>
      <trkpt lat="47.7747" lon="6.58069">
        <ele>374</ele>
        <time>2023-04-10T15:08:15Z</time>
      </trkpt>
      <trkpt lat="47.7748" lon="6.58071">
        <ele>374.4</ele>
        <time>2023-04-10T15:08:22Z</time>
      </trkpt>
      <trkpt lat="47.77489" lon="6.58073">
        <ele>374.8</ele>
        <time>2023-04-10T15:08:29Z</time>
      </trkpt>
      <trkpt lat="47.77499" lon="6.58077">
        <ele>375.1</ele>
        <time>2023-04-10T15:08:37Z</time>
      </trkpt>
      <trkpt lat="47.77508" lon="6.58077">
        <ele>375.4</ele>
        <time>2023-04-10T15:08:43Z</time>
      </trkpt>
      <trkpt lat="47.77517" lon="6.5808">
        <ele>375.7</ele>
        <time>2023-04-10T15:08:49Z</time>
      </trkpt>
      <trkpt lat="47.77527" lon="6.58085">
        <ele>376</ele>
        <time>2023-04-10T15:08:56Z</time>
      </trkpt>
      <trkpt lat="47.77536" lon="6.58091">
        <ele>376.2</ele>
        <time>2023-04-10T15:09:04Z</time>
      </trkpt>
      <trkpt lat="47.77544" lon="6.58096">
        <ele>376.4</ele>
        <time>2023-04-10T15:09:11Z</time>
      </trkpt>
      <trkpt lat="47.77552" lon="6.58103">
        <ele>376.7</ele>
        <time>2023-04-10T15:09:16Z</time>
      </trkpt>
      <trkpt lat="47.77561" lon="6.58108">
        <ele>376.9</ele>
        <time>2023-04-10T15:09:22Z</time>
      </trkpt>
      <trkpt lat="47.7757" lon="6.58113">
        <ele>377.1</ele>
        <time>2023-04-10T15:09:30Z</time>
      </trkpt>
      <trkpt lat="47.77579" lon="6.58117">
        <ele>377.4</ele>
        <time>2023-04-10T15:09:37Z</time>
      </trkpt>
      <trkpt lat="47.77587" lon="6.58124">
        <ele>377.6</ele>
        <time>2023-04-10T15:09:43Z</time>
      </trkpt>
      <trkpt lat="47.77597" lon="6.58131">
        <ele>377.9</ele>
        <time>2023-04-10T15:09:50Z</time>
      </trkpt>
      <trkpt lat="47.77605" lon="6.58137">
        <ele>378.2</ele>
        <time>2023-04-10T15:09:56Z</time>
      </trkpt>
      <trkpt lat="47.77615" lon="6.58141">
        <ele>378.4</ele>
        <time>2023-04-10T15:10:03Z</time>
      </trkpt>
      <trkpt lat="47.77625" lon="6.58147">
        <ele>378.7</ele>
        <time>2023-04-10T15:10:10Z</time>
      </trkpt>
      <trkpt lat="47.77634" lon="6.58152">
        <ele>379</ele>
        <time>2023-04-10T15:10:17Z</time>
      </trkpt>
      <trkpt lat="47.77643" lon="6.58156">
        <ele>379.2</ele>
        <time>2023-04-10T15:10:24Z</time>
      </trkpt>
      <trkpt lat="47.77652" lon="6.58162">
        <ele>379.2</ele>
        <time>2023-04-10T15:10:31Z</time>
      </trkpt>
      <trkpt lat="47.77661" lon="6.58166">
        <ele>379.3</ele>
        <time>2023-04-10T15:10:39Z</time>
      </trkpt>
      <trkpt lat="47.7767" lon="6.58172">
        <ele>379.4</ele>
        <time>2023-04-10T15:10:46Z</time>
      </trkpt>
      <trkpt lat="47.7768" lon="6.58175">
        <ele>379.4</ele>
        <time>2023-04-10T15:10:53Z</time>
      </trkpt>
      <trkpt lat="47.77688" lon="6.58182">
        <ele>379.5</ele>
        <time>2023-04-10T15:11:01Z</time>
      </trkpt>
      <trkpt lat="47.77687" lon="6.58195">
        <ele>378.7</ele>
        <time>2023-04-10T15:11:09Z</time>
      </trkpt>
      <trkpt lat="47.77682" lon="6.58207">
        <ele>377.9</ele>
        <time>2023-04-10T15:11:17Z</time>
      </trkpt>
      <trkpt lat="47.77676" lon="6.58218">
        <ele>377.2</ele>
        <time>2023-04-10T15:11:23Z</time>
      </trkpt>
      <trkpt lat="47.7767" lon="6.58229">
        <ele>376.7</ele>
        <time>2023-04-10T15:11:31Z</time>
      </trkpt>
      <trkpt lat="47.77665" lon="6.58242">
        <ele>376.3</ele>
        <time>2023-04-10T15:11:38Z</time>
      </trkpt>
      <trkpt lat="47.77663" lon="6.58258">
        <ele>376</ele>
        <time>2023-04-10T15:11:45Z</time>
      </trkpt>
      <trkpt lat="47.7766" lon="6.58271">
        <ele>375.9</ele>
        <time>2023-04-10T15:11:52Z</time>
      </trkpt>
      <trkpt lat="47.77655" lon="6.58284">
        <ele>375.7</ele>
        <time>2023-04-10T15:12:01Z</time>
      </trkpt>
      <trkpt lat="47.77653" lon="6.58299">
        <ele>375.6</ele>
        <time>2023-04-10T15:12:09Z</time>
      </trkpt>
      <trkpt lat="47.77649" lon="6.58313">
        <ele>375.5</ele>
        <time>2023-04-10T15:12:14Z</time>
      </trkpt>
      <trkpt lat="47.77644" lon="6.58324">
        <ele>375.5</ele>
        <time>2023-04-10T15:12:19Z</time>
      </trkpt>
      <trkpt lat="47.7764" lon="6.58337">
        <ele>375.4</ele>
        <time>2023-04-10T15:12:26Z</time>
      </trkpt>
      <trkpt lat="47.77638" lon="6.58351">
        <ele>375.4</ele>
        <time>2023-04-10T15:12:32Z</time>
      </trkpt>
      <trkpt lat="47.77636" lon="6.58364">
        <ele>375.4</ele>
        <time>2023-04-10T15:12:41Z</time>
      </trkpt>
      <trkpt lat="47.77636" lon="6.58378">
        <ele>375.3</ele>
        <time>2023-04-10T15:12:50Z</time>
      </trkpt>
      <trkpt lat="47.77644" lon="6.58378">
        <ele>375.1</ele>
        <time>2023-04-10T15:13:13Z</time>
      </trkpt>
      <trkpt lat="47.77643" lon="6.58378">
        <ele>375.1</ele>
        <time>2023-04-10T15:13:15Z</time>
      </trkpt>
      <trkpt lat="47.77644" lon="6.58378">
        <ele>375.1</ele>
        <time>2023-04-10T15:13:17Z</time>
      </trkpt>
      <trkpt lat="47.77645" lon="6.58379">
        <ele>375.1</ele>
        <time>2023-04-10T15:13:20Z</time>
      </trkpt>
      <trkpt lat="47.77643" lon="6.58378">
        <ele>375</ele>
        <time>2023-04-10T15:13:22Z</time>
      </trkpt>
      <trkpt lat="47.77643" lon="6.58378">
        <ele>375</ele>
        <time>2023-04-10T15:13:26Z</time>
      </trkpt>
      <trkpt lat="47.77643" lon="6.58378">
        <ele>375</ele>
        <time>2023-04-10T15:13:27Z</time>
      </trkpt>
      <trkpt lat="47.77643" lon="6.58379">
        <ele>375</ele>
        <time>2023-04-10T15:13:33Z</time>
      </trkpt>
      <trkpt lat="47.77643" lon="6.58378">
        <ele>375</ele>
        <time>2023-04-10T15:13:34Z</time>
      </trkpt>
      <trkpt lat="47.77643" lon="6.58379">
        <ele>375</ele>
        <time>2023-04-10T15:13:38Z</time>
      </trkpt>
      <trkpt lat="47.77642" lon="6.5838">
        <ele>374.9</ele>
        <time>2023-04-10T15:13:41Z</time>
      </trkpt>
      <trkpt lat="47.77642" lon="6.5838">
        <ele>374.9</ele>
        <time>2023-04-10T15:13:44Z</time>
      </trkpt>
      <trkpt lat="47.77642" lon="6.5838">
        <ele>374.9</ele>
        <time>2023-04-10T15:13:45Z</time>
      </trkpt>
      <trkpt lat="47.77642" lon="6.5838">
        <ele>374.9</ele>
        <time>2023-04-10T15:13:56Z</time>
      </trkpt>
      <trkpt lat="47.77643" lon="6.5838">
        <ele>374.9</ele>
        <time>2023-04-10T15:13:59Z</time>
      </trkpt>
      <trkpt lat="47.77642" lon="6.5838">
        <ele>374.9</ele>
        <time>2023-04-10T15:14:00Z</time>
      </trkpt>
      <trkpt lat="47.77641" lon="6.58365">
        <ele>375.2</ele>
        <time>2023-04-10T15:14:11Z</time>
      </trkpt>
      <trkpt lat="47.77641" lon="6.58351">
        <ele>375.4</ele>
        <time>2023-04-10T15:14:18Z</time>
      </trkpt>
      <trkpt lat="47.77641" lon="6.58337">
        <ele>375.4</ele>
        <time>2023-04-10T15:14:25Z</time>
      </trkpt>
      <trkpt lat="47.77646" lon="6.58325">
        <ele>375.4</ele>
        <time>2023-04-10T15:14:33Z</time>
      </trkpt>
      <trkpt lat="47.77647" lon="6.58323">
        <ele>375.4</ele>
        <time>2023-04-10T15:14:38Z</time>
      </trkpt>
      <trkpt lat="47.77647" lon="6.58322">
        <ele>375.4</ele>
        <time>2023-04-10T15:14:49Z</time>
      </trkpt>
      <trkpt lat="47.77652" lon="6.5831">
        <ele>375.5</ele>
        <time>2023-04-10T15:15:00Z</time>
      </trkpt>
      <trkpt lat="47.77656" lon="6.58299">
        <ele>375.5</ele>
        <time>2023-04-10T15:15:09Z</time>
      </trkpt>
      <trkpt lat="47.77659" lon="6.58285">
        <ele>375.6</ele>
        <time>2023-04-10T15:15:20Z</time>
      </trkpt>
      <trkpt lat="47.77661" lon="6.58271">
        <ele>375.8</ele>
        <time>2023-04-10T15:15:30Z</time>
      </trkpt>
      <trkpt lat="47.77666" lon="6.58258">
        <ele>376</ele>
        <time>2023-04-10T15:15:40Z</time>
      </trkpt>
      <trkpt lat="47.77668" lon="6.58244">
        <ele>376.2</ele>
        <time>2023-04-10T15:15:49Z</time>
      </trkpt>
      <trkpt lat="47.77671" lon="6.5823">
        <ele>376.6</ele>
        <time>2023-04-10T15:15:58Z</time>
      </trkpt>
      <trkpt lat="47.77676" lon="6.58217">
        <ele>377.3</ele>
        <time>2023-04-10T15:16:07Z</time>
      </trkpt>
      <trkpt lat="47.7768" lon="6.58204">
        <ele>378.1</ele>
        <time>2023-04-10T15:16:17Z</time>
      </trkpt>
      <trkpt lat="47.77687" lon="6.58195">
        <ele>379.5</ele>
        <time>2023-04-10T15:16:27Z</time>
      </trkpt>
      <trkpt lat="47.77693" lon="6.58189">
        <ele>379.4</ele>
        <time>2023-04-10T15:16:37Z</time>
      </trkpt>
      <trkpt lat="47.77693" lon="6.58189">
        <ele>379.4</ele>
        <time>2023-04-10T15:16:38Z</time>
      </trkpt>
      <trkpt lat="47.77703" lon="6.58187">
        <ele>379.2</ele>
        <time>2023-04-10T15:16:47Z</time>
      </trkpt>
      <trkpt lat="47.77713" lon="6.58187">
        <ele>379.1</ele>
        <time>2023-04-10T15:16:54Z</time>
      </trkpt>
      <trkpt lat="47.77723" lon="6.58189">
        <ele>379</ele>
        <time>2023-04-10T15:17:02Z</time>
      </trkpt>
      <trkpt lat="47.77733" lon="6.5819">
        <ele>379</ele>
        <time>2023-04-10T15:17:10Z</time>
      </trkpt>
      <trkpt lat="47.77742" lon="6.58191">
        <ele>379</ele>
        <time>2023-04-10T15:17:17Z</time>
      </trkpt>
      <trkpt lat="47.77751" lon="6.58193">
        <ele>379</ele>
        <time>2023-04-10T15:17:24Z</time>
      </trkpt>
      <trkpt lat="47.77762" lon="6.58194">
        <ele>379.1</ele>
        <time>2023-04-10T15:17:31Z</time>
      </trkpt>
      <trkpt lat="47.77771" lon="6.58196">
        <ele>379.1</ele>
        <time>2023-04-10T15:17:38Z</time>
      </trkpt>
      <trkpt lat="47.7778" lon="6.58198">
        <ele>379.2</ele>
        <time>2023-04-10T15:17:45Z</time>
      </trkpt>
      <trkpt lat="47.7779" lon="6.58201">
        <ele>379.3</ele>
        <time>2023-04-10T15:17:53Z</time>
      </trkpt>
      <trkpt lat="47.778" lon="6.58202">
        <ele>379.6</ele>
        <time>2023-04-10T15:18:00Z</time>
      </trkpt>
      <trkpt lat="47.77809" lon="6.58205">
        <ele>379.9</ele>
        <time>2023-04-10T15:18:07Z</time>
      </trkpt>
      <trkpt lat="47.77819" lon="6.58209">
        <ele>380.3</ele>
        <time>2023-04-10T15:18:14Z</time>
      </trkpt>
      <trkpt lat="47.77828" lon="6.58212">
        <ele>380.8</ele>
        <time>2023-04-10T15:18:21Z</time>
      </trkpt>
      <trkpt lat="47.77836" lon="6.58218">
        <ele>381.4</ele>
        <time>2023-04-10T15:18:25Z</time>
      </trkpt>
      <trkpt lat="47.77844" lon="6.58224">
        <ele>382.1</ele>
        <time>2023-04-10T15:18:33Z</time>
      </trkpt>
      <trkpt lat="47.77854" lon="6.5823">
        <ele>382.9</ele>
        <time>2023-04-10T15:18:41Z</time>
      </trkpt>
      <trkpt lat="47.77861" lon="6.58239">
        <ele>383.8</ele>
        <time>2023-04-10T15:18:49Z</time>
      </trkpt>
      <trkpt lat="47.77864" lon="6.58252">
        <ele>384.5</ele>
        <time>2023-04-10T15:18:57Z</time>
      </trkpt>
      <trkpt lat="47.77857" lon="6.5826">
        <ele>383.4</ele>
        <time>2023-04-10T15:19:05Z</time>
      </trkpt>
      <trkpt lat="47.77848" lon="6.58266">
        <ele>382.3</ele>
        <time>2023-04-10T15:19:13Z</time>
      </trkpt>
      <trkpt lat="47.77841" lon="6.58276">
        <ele>381.4</ele>
        <time>2023-04-10T15:19:21Z</time>
      </trkpt>
      <trkpt lat="47.77834" lon="6.58284">
        <ele>380.9</ele>
        <time>2023-04-10T15:19:29Z</time>
      </trkpt>
      <trkpt lat="47.77831" lon="6.58287">
        <ele>380.8</ele>
        <time>2023-04-10T15:19:34Z</time>
      </trkpt>
      <trkpt lat="47.77831" lon="6.58287">
        <ele>380.8</ele>
        <time>2023-04-10T15:19:37Z</time>
      </trkpt>
      <trkpt lat="47.77828" lon="6.58301">
        <ele>380.7</ele>
        <time>2023-04-10T15:19:45Z</time>
      </trkpt>
      <trkpt lat="47.77832" lon="6.58314">
        <ele>380.6</ele>
        <time>2023-04-10T15:19:52Z</time>
      </trkpt>
      <trkpt lat="47.77837" lon="6.58327">
        <ele>380.4</ele>
        <time>2023-04-10T15:20:00Z</time>
      </trkpt>
      <trkpt lat="47.77836" lon="6.58341">
        <ele>380.1</ele>
        <time>2023-04-10T15:20:08Z</time>
      </trkpt>
      <trkpt lat="47.77828" lon="6.5835">
        <ele>379.8</ele>
        <time>2023-04-10T15:20:16Z</time>
      </trkpt>
      <trkpt lat="47.77821" lon="6.58357">
        <ele>379.6</ele>
        <time>2023-04-10T15:20:23Z</time>
      </trkpt>
      <trkpt lat="47.77813" lon="6.58366">
        <ele>379.6</ele>
        <time>2023-04-10T15:20:31Z</time>
      </trkpt>
      <trkpt lat="47.77811" lon="6.5838">
        <ele>379.8</ele>
        <time>2023-04-10T15:20:39Z</time>
      </trkpt>
      <trkpt lat="47.77815" lon="6.58393">
        <ele>380</ele>
        <time>2023-04-10T15:20:46Z</time>
      </trkpt>
      <trkpt lat="47.77819" lon="6.58406">
        <ele>380.3</ele>
        <time>2023-04-10T15:20:53Z</time>
      </trkpt>
      <trkpt lat="47.77824" lon="6.58419">
        <ele>380.7</ele>
        <time>2023-04-10T15:21:01Z</time>
      </trkpt>
      <trkpt lat="47.77827" lon="6.58431">
        <ele>381.3</ele>
        <time>2023-04-10T15:21:10Z</time>
      </trkpt>
      <trkpt lat="47.7783" lon="6.58445">
        <ele>382.3</ele>
        <time>2023-04-10T15:21:18Z</time>
      </trkpt>
      <trkpt lat="47.77832" lon="6.58459">
        <ele>383.6</ele>
        <time>2023-04-10T15:21:25Z</time>
      </trkpt>
      <trkpt lat="47.77833" lon="6.58473">
        <ele>384.8</ele>
        <time>2023-04-10T15:21:35Z</time>
      </trkpt>
      <trkpt lat="47.77828" lon="6.58486">
        <ele>385.8</ele>
        <time>2023-04-10T15:21:45Z</time>
      </trkpt>
      <trkpt lat="47.77827" lon="6.585">
        <ele>386.5</ele>
        <time>2023-04-10T15:21:56Z</time>
      </trkpt>
      <trkpt lat="47.77826" lon="6.58514">
        <ele>386.9</ele>
        <time>2023-04-10T15:22:04Z</time>
      </trkpt>
      <trkpt lat="47.7783" lon="6.58527">
        <ele>387</ele>
        <time>2023-04-10T15:22:11Z</time>
      </trkpt>
      <trkpt lat="47.7783" lon="6.58541">
        <ele>386.8</ele>
        <time>2023-04-10T15:22:24Z</time>
      </trkpt>
      <trkpt lat="47.77829" lon="6.58555">
        <ele>386.1</ele>
        <time>2023-04-10T15:22:34Z</time>
      </trkpt>
      <trkpt lat="47.77831" lon="6.58569">
        <ele>385</ele>
        <time>2023-04-10T15:22:43Z</time>
      </trkpt>
      <trkpt lat="47.77832" lon="6.58583">
        <ele>383.2</ele>
        <time>2023-04-10T15:22:50Z</time>
      </trkpt>
      <trkpt lat="47.77831" lon="6.58589">
        <ele>382.4</ele>
        <time>2023-04-10T15:22:56Z</time>
      </trkpt>
      <trkpt lat="47.7783" lon="6.58589">
        <ele>382.2</ele>
        <time>2023-04-10T15:22:57Z</time>
      </trkpt>
      <trkpt lat="47.77822" lon="6.58595">
        <ele>380.1</ele>
        <time>2023-04-10T15:23:05Z</time>
      </trkpt>
      <trkpt lat="47.77814" lon="6.58605">
        <ele>378.3</ele>
        <time>2023-04-10T15:23:12Z</time>
      </trkpt>
      <trkpt lat="47.77813" lon="6.58619">
        <ele>377.2</ele>
        <time>2023-04-10T15:23:24Z</time>
      </trkpt>
      <trkpt lat="47.77808" lon="6.58631">
        <ele>376.6</ele>
        <time>2023-04-10T15:23:39Z</time>
      </trkpt>
      <trkpt lat="47.77809" lon="6.58647">
        <ele>376.4</ele>
        <time>2023-04-10T15:23:47Z</time>
      </trkpt>
      <trkpt lat="47.77809" lon="6.58661">
        <ele>376.4</ele>
        <time>2023-04-10T15:23:54Z</time>
      </trkpt>
      <trkpt lat="47.77812" lon="6.58675">
        <ele>376.3</ele>
        <time>2023-04-10T15:24:02Z</time>
      </trkpt>
      <trkpt lat="47.77816" lon="6.58681">
        <ele>376.2</ele>
        <time>2023-04-10T15:24:12Z</time>
      </trkpt>
      <trkpt lat="47.77816" lon="6.58682">
        <ele>376.2</ele>
        <time>2023-04-10T15:24:14Z</time>
      </trkpt>
      <trkpt lat="47.77818" lon="6.58688">
        <ele>376.2</ele>
        <time>2023-04-10T15:24:20Z</time>
      </trkpt>
      <trkpt lat="47.77818" lon="6.58688">
        <ele>376.2</ele>
        <time>2023-04-10T15:24:23Z</time>
      </trkpt>
      <trkpt lat="47.77824" lon="6.58699">
        <ele>376</ele>
        <time>2023-04-10T15:24:33Z</time>
      </trkpt>
      <trkpt lat="47.77826" lon="6.58712">
        <ele>375.8</ele>
        <time>2023-04-10T15:24:40Z</time>
      </trkpt>
      <trkpt lat="47.77829" lon="6.58725">
        <ele>375.4</ele>
        <time>2023-04-10T15:24:51Z</time>
      </trkpt>
      <trkpt lat="47.77822" lon="6.58735">
        <ele>375.1</ele>
        <time>2023-04-10T15:25:06Z</time>
      </trkpt>
      <trkpt lat="47.77814" lon="6.58743">
        <ele>374.7</ele>
        <time>2023-04-10T15:25:13Z</time>
      </trkpt>
      <trkpt lat="47.77808" lon="6.58754">
        <ele>374.2</ele>
        <time>2023-04-10T15:25:21Z</time>
      </trkpt>
      <trkpt lat="47.77806" lon="6.58767">
        <ele>373.7</ele>
        <time>2023-04-10T15:25:27Z</time>
      </trkpt>
      <trkpt lat="47.77805" lon="6.58782">
        <ele>373.2</ele>
        <time>2023-04-10T15:25:34Z</time>
      </trkpt>
      <trkpt lat="47.77803" lon="6.58796">
        <ele>372.6</ele>
        <time>2023-04-10T15:25:41Z</time>
      </trkpt>
      <trkpt lat="47.77803" lon="6.58812">
        <ele>371.8</ele>
        <time>2023-04-10T15:25:47Z</time>
      </trkpt>
      <trkpt lat="47.77804" lon="6.58827">
        <ele>370.8</ele>
        <time>2023-04-10T15:25:52Z</time>
      </trkpt>
      <trkpt lat="47.77803" lon="6.58841">
        <ele>369.7</ele>
        <time>2023-04-10T15:25:58Z</time>
      </trkpt>
      <trkpt lat="47.77802" lon="6.58855">
        <ele>368.5</ele>
        <time>2023-04-10T15:26:07Z</time>
      </trkpt>
      <trkpt lat="47.77799" lon="6.58869">
        <ele>367.7</ele>
        <time>2023-04-10T15:26:11Z</time>
      </trkpt>
      <trkpt lat="47.77801" lon="6.58883">
        <ele>366.6</ele>
        <time>2023-04-10T15:26:18Z</time>
      </trkpt>
      <trkpt lat="47.77806" lon="6.58895">
        <ele>365.6</ele>
        <time>2023-04-10T15:26:26Z</time>
      </trkpt>
      <trkpt lat="47.77806" lon="6.58909">
        <ele>364.5</ele>
        <time>2023-04-10T15:26:31Z</time>
      </trkpt>
      <trkpt lat="47.77806" lon="6.58923">
        <ele>363.4</ele>
        <time>2023-04-10T15:26:36Z</time>
      </trkpt>
      <trkpt lat="47.77805" lon="6.58937">
        <ele>362.5</ele>
        <time>2023-04-10T15:26:41Z</time>
      </trkpt>
      <trkpt lat="47.77804" lon="6.58951">
        <ele>362</ele>
        <time>2023-04-10T15:26:47Z</time>
      </trkpt>
      <trkpt lat="47.77799" lon="6.58962">
        <ele>361.8</ele>
        <time>2023-04-10T15:26:57Z</time>
      </trkpt>
      <trkpt lat="47.77794" lon="6.58976">
        <ele>361.8</ele>
        <time>2023-04-10T15:27:06Z</time>
      </trkpt>
      <trkpt lat="47.77792" lon="6.5899">
        <ele>361.9</ele>
        <time>2023-04-10T15:27:12Z</time>
      </trkpt>
      <trkpt lat="47.77791" lon="6.59005">
        <ele>362.2</ele>
        <time>2023-04-10T15:27:17Z</time>
      </trkpt>
      <trkpt lat="47.77794" lon="6.59019">
        <ele>362.7</ele>
        <time>2023-04-10T15:27:23Z</time>
      </trkpt>
      <trkpt lat="47.77797" lon="6.59032">
        <ele>363.3</ele>
        <time>2023-04-10T15:27:28Z</time>
      </trkpt>
      <trkpt lat="47.77805" lon="6.5904">
        <ele>364.1</ele>
        <time>2023-04-10T15:27:34Z</time>
      </trkpt>
      <trkpt lat="47.77813" lon="6.59049">
        <ele>365</ele>
        <time>2023-04-10T15:27:43Z</time>
      </trkpt>
      <trkpt lat="47.7782" lon="6.59057">
        <ele>365.9</ele>
        <time>2023-04-10T15:27:53Z</time>
      </trkpt>
      <trkpt lat="47.77825" lon="6.59069">
        <ele>367.3</ele>
        <time>2023-04-10T15:28:01Z</time>
      </trkpt>
      <trkpt lat="47.77823" lon="6.59083">
        <ele>367.3</ele>
        <time>2023-04-10T15:28:10Z</time>
      </trkpt>
      <trkpt lat="47.7782" lon="6.59096">
        <ele>367.4</ele>
        <time>2023-04-10T15:28:16Z</time>
      </trkpt>
      <trkpt lat="47.77821" lon="6.5911">
        <ele>367.6</ele>
        <time>2023-04-10T15:28:22Z</time>
      </trkpt>
      <trkpt lat="47.77821" lon="6.59124">
        <ele>367.8</ele>
        <time>2023-04-10T15:28:29Z</time>
      </trkpt>
      <trkpt lat="47.77822" lon="6.59138">
        <ele>368.1</ele>
        <time>2023-04-10T15:28:38Z</time>
      </trkpt>
      <trkpt lat="47.77816" lon="6.59148">
        <ele>368.5</ele>
        <time>2023-04-10T15:28:43Z</time>
      </trkpt>
      <trkpt lat="47.77808" lon="6.59154">
        <ele>368.9</ele>
        <time>2023-04-10T15:28:48Z</time>
      </trkpt>
      <trkpt lat="47.77801" lon="6.59165">
        <ele>369.3</ele>
        <time>2023-04-10T15:28:54Z</time>
      </trkpt>
      <trkpt lat="47.77796" lon="6.59177">
        <ele>369.8</ele>
        <time>2023-04-10T15:29:01Z</time>
      </trkpt>
      <trkpt lat="47.77792" lon="6.59191">
        <ele>370.4</ele>
        <time>2023-04-10T15:29:07Z</time>
      </trkpt>
      <trkpt lat="47.77788" lon="6.59205">
        <ele>371.2</ele>
        <time>2023-04-10T15:29:13Z</time>
      </trkpt>
      <trkpt lat="47.77785" lon="6.59217">
        <ele>372.5</ele>
        <time>2023-04-10T15:29:21Z</time>
      </trkpt>
      <trkpt lat="47.77779" lon="6.59228">
        <ele>374.3</ele>
        <time>2023-04-10T15:29:30Z</time>
      </trkpt>
      <trkpt lat="47.77771" lon="6.59236">
        <ele>376.3</ele>
        <time>2023-04-10T15:29:38Z</time>
      </trkpt>
      <trkpt lat="47.77763" lon="6.59243">
        <ele>378.1</ele>
        <time>2023-04-10T15:29:45Z</time>
      </trkpt>
      <trkpt lat="47.77754" lon="6.59247">
        <ele>379.8</ele>
        <time>2023-04-10T15:29:51Z</time>
      </trkpt>
      <trkpt lat="47.77745" lon="6.59253">
        <ele>381.1</ele>
        <time>2023-04-10T15:30:00Z</time>
      </trkpt>
      <trkpt lat="47.77737" lon="6.59261">
        <ele>382</ele>
        <time>2023-04-10T15:30:08Z</time>
      </trkpt>
      <trkpt lat="47.77727" lon="6.59266">
        <ele>382.8</ele>
        <time>2023-04-10T15:30:16Z</time>
      </trkpt>
      <trkpt lat="47.77718" lon="6.59271">
        <ele>383.4</ele>
        <time>2023-04-10T15:30:24Z</time>
      </trkpt>
      <trkpt lat="47.77711" lon="6.5928">
        <ele>384.2</ele>
        <time>2023-04-10T15:30:31Z</time>
      </trkpt>
      <trkpt lat="47.77704" lon="6.59289">
        <ele>384.8</ele>
        <time>2023-04-10T15:30:37Z</time>
      </trkpt>
      <trkpt lat="47.77698" lon="6.593">
        <ele>385.1</ele>
        <time>2023-04-10T15:30:43Z</time>
      </trkpt>
      <trkpt lat="47.77691" lon="6.59311">
        <ele>384.9</ele>
        <time>2023-04-10T15:30:50Z</time>
      </trkpt>
      <trkpt lat="47.77689" lon="6.59327">
        <ele>384.7</ele>
        <time>2023-04-10T15:30:57Z</time>
      </trkpt>
      <trkpt lat="47.77689" lon="6.59341">
        <ele>384.6</ele>
        <time>2023-04-10T15:31:03Z</time>
      </trkpt>
      <trkpt lat="47.77689" lon="6.59355">
        <ele>384.6</ele>
        <time>2023-04-10T15:31:12Z</time>
      </trkpt>
      <trkpt lat="47.77692" lon="6.59369">
        <ele>384.8</ele>
        <time>2023-04-10T15:31:22Z</time>
      </trkpt>
      <trkpt lat="47.77692" lon="6.59383">
        <ele>385.2</ele>
        <time>2023-04-10T15:31:27Z</time>
      </trkpt>
      <trkpt lat="47.77696" lon="6.59396">
        <ele>385.8</ele>
        <time>2023-04-10T15:31:32Z</time>
      </trkpt>
      <trkpt lat="47.77697" lon="6.5941">
        <ele>386.6</ele>
        <time>2023-04-10T15:31:37Z</time>
      </trkpt>
      <trkpt lat="47.77697" lon="6.59424">
        <ele>387.1</ele>
        <time>2023-04-10T15:31:43Z</time>
      </trkpt>
      <trkpt lat="47.77699" lon="6.59438">
        <ele>387.4</ele>
        <time>2023-04-10T15:31:51Z</time>
      </trkpt>
      <trkpt lat="47.77699" lon="6.59452">
        <ele>387.5</ele>
        <time>2023-04-10T15:31:59Z</time>
      </trkpt>
      <trkpt lat="47.77696" lon="6.59466">
        <ele>387.6</ele>
        <time>2023-04-10T15:32:06Z</time>
      </trkpt>
      <trkpt lat="47.77695" lon="6.59479">
        <ele>387.5</ele>
        <time>2023-04-10T15:32:15Z</time>
      </trkpt>
      <trkpt lat="47.77687" lon="6.5949">
        <ele>387.6</ele>
        <time>2023-04-10T15:32:25Z</time>
      </trkpt>
      <trkpt lat="47.77677" lon="6.59495">
        <ele>388</ele>
        <time>2023-04-10T15:32:29Z</time>
      </trkpt>
      <trkpt lat="47.77668" lon="6.59501">
        <ele>388.6</ele>
        <time>2023-04-10T15:32:35Z</time>
      </trkpt>
      <trkpt lat="47.77658" lon="6.59504">
        <ele>389.5</ele>
        <time>2023-04-10T15:32:47Z</time>
      </trkpt>
      <trkpt lat="47.77648" lon="6.59514">
        <ele>390.7</ele>
        <time>2023-04-10T15:32:52Z</time>
      </trkpt>
      <trkpt lat="47.77639" lon="6.59519">
        <ele>391.5</ele>
        <time>2023-04-10T15:32:56Z</time>
      </trkpt>
      <trkpt lat="47.77631" lon="6.59527">
        <ele>392.2</ele>
        <time>2023-04-10T15:33:03Z</time>
      </trkpt>
      <trkpt lat="47.77626" lon="6.59538">
        <ele>393</ele>
        <time>2023-04-10T15:33:10Z</time>
      </trkpt>
      <trkpt lat="47.7762" lon="6.5955">
        <ele>394</ele>
        <time>2023-04-10T15:33:19Z</time>
      </trkpt>
      <trkpt lat="47.77612" lon="6.59558">
        <ele>394.9</ele>
        <time>2023-04-10T15:33:25Z</time>
      </trkpt>
      <trkpt lat="47.77603" lon="6.59565">
        <ele>395.6</ele>
        <time>2023-04-10T15:33:34Z</time>
      </trkpt>
      <trkpt lat="47.77595" lon="6.59571">
        <ele>396.1</ele>
        <time>2023-04-10T15:33:40Z</time>
      </trkpt>
      <trkpt lat="47.77587" lon="6.5958">
        <ele>396.6</ele>
        <time>2023-04-10T15:33:48Z</time>
      </trkpt>
      <trkpt lat="47.7758" lon="6.59588">
        <ele>396.7</ele>
        <time>2023-04-10T15:33:57Z</time>
      </trkpt>
      <trkpt lat="47.7758" lon="6.59588">
        <ele>396.7</ele>
        <time>2023-04-10T15:33:58Z</time>
      </trkpt>
      <trkpt lat="47.7758" lon="6.59589">
        <ele>396.7</ele>
        <time>2023-04-10T15:33:59Z</time>
      </trkpt>
      <trkpt lat="47.77575" lon="6.59601">
        <ele>396.6</ele>
        <time>2023-04-10T15:34:18Z</time>
      </trkpt>
      <trkpt lat="47.77573" lon="6.59615">
        <ele>396.2</ele>
        <time>2023-04-10T15:34:26Z</time>
      </trkpt>
      <trkpt lat="47.77576" lon="6.5963">
        <ele>395.9</ele>
        <time>2023-04-10T15:34:35Z</time>
      </trkpt>
      <trkpt lat="47.77583" lon="6.59638">
        <ele>395.7</ele>
        <time>2023-04-10T15:34:43Z</time>
      </trkpt>
      <trkpt lat="47.77587" lon="6.59651">
        <ele>395.6</ele>
        <time>2023-04-10T15:34:51Z</time>
      </trkpt>
      <trkpt lat="47.77593" lon="6.59661">
        <ele>395.7</ele>
        <time>2023-04-10T15:35:00Z</time>
      </trkpt>
      <trkpt lat="47.77601" lon="6.59671">
        <ele>396</ele>
        <time>2023-04-10T15:35:10Z</time>
      </trkpt>
      <trkpt lat="47.77604" lon="6.59685">
        <ele>396.4</ele>
        <time>2023-04-10T15:35:17Z</time>
      </trkpt>
      <trkpt lat="47.77609" lon="6.59698">
        <ele>397</ele>
        <time>2023-04-10T15:35:25Z</time>
      </trkpt>
      <trkpt lat="47.77611" lon="6.59712">
        <ele>397.5</ele>
        <time>2023-04-10T15:35:32Z</time>
      </trkpt>
      <trkpt lat="47.77611" lon="6.59726">
        <ele>398</ele>
        <time>2023-04-10T15:35:40Z</time>
      </trkpt>
      <trkpt lat="47.77614" lon="6.59739">
        <ele>398.3</ele>
        <time>2023-04-10T15:35:47Z</time>
      </trkpt>
      <trkpt lat="47.77621" lon="6.59751">
        <ele>398.5</ele>
        <time>2023-04-10T15:35:54Z</time>
      </trkpt>
      <trkpt lat="47.77621" lon="6.59754">
        <ele>398.5</ele>
        <time>2023-04-10T15:36:02Z</time>
      </trkpt>
      <trkpt lat="47.77621" lon="6.59754">
        <ele>398.5</ele>
        <time>2023-04-10T15:36:13Z</time>
      </trkpt>
      <trkpt lat="47.77621" lon="6.59754">
        <ele>398.5</ele>
        <time>2023-04-10T15:36:14Z</time>
      </trkpt>
      <trkpt lat="47.77621" lon="6.59754">
        <ele>398.5</ele>
        <time>2023-04-10T15:36:53Z</time>
      </trkpt>
      <trkpt lat="47.77621" lon="6.59754">
        <ele>398.5</ele>
        <time>2023-04-10T15:36:54Z</time>
      </trkpt>
      <trkpt lat="47.77621" lon="6.59755">
        <ele>398.5</ele>
        <time>2023-04-10T15:37:03Z</time>
      </trkpt>
      <trkpt lat="47.77622" lon="6.59755">
        <ele>398.5</ele>
        <time>2023-04-10T15:37:08Z</time>
      </trkpt>
      <trkpt lat="47.77623" lon="6.59756">
        <ele>398.5</ele>
        <time>2023-04-10T15:37:09Z</time>
      </trkpt>
      <trkpt lat="47.77632" lon="6.5976">
        <ele>398.7</ele>
        <time>2023-04-10T15:37:18Z</time>
      </trkpt>
      <trkpt lat="47.7764" lon="6.59767">
        <ele>399</ele>
        <time>2023-04-10T15:37:27Z</time>
      </trkpt>
      <trkpt lat="47.77647" lon="6.59776">
        <ele>399.2</ele>
        <time>2023-04-10T15:37:36Z</time>
      </trkpt>
      <trkpt lat="47.77655" lon="6.59784">
        <ele>399.5</ele>
        <time>2023-04-10T15:37:45Z</time>
      </trkpt>
      <trkpt lat="47.77665" lon="6.5979">
        <ele>399.8</ele>
        <time>2023-04-10T15:37:52Z</time>
      </trkpt>
      <trkpt lat="47.77673" lon="6.59797">
        <ele>400.1</ele>
        <time>2023-04-10T15:38:00Z</time>
      </trkpt>
      <trkpt lat="47.77682" lon="6.598">
        <ele>400.6</ele>
        <time>2023-04-10T15:38:09Z</time>
      </trkpt>
      <trkpt lat="47.77691" lon="6.59804">
        <ele>401.2</ele>
        <time>2023-04-10T15:38:15Z</time>
      </trkpt>
      <trkpt lat="47.77701" lon="6.59807">
        <ele>402</ele>
        <time>2023-04-10T15:38:23Z</time>
      </trkpt>
      <trkpt lat="47.77711" lon="6.59808">
        <ele>402.8</ele>
        <time>2023-04-10T15:38:29Z</time>
      </trkpt>
      <trkpt lat="47.77721" lon="6.5981">
        <ele>403.7</ele>
        <time>2023-04-10T15:38:35Z</time>
      </trkpt>
      <trkpt lat="47.77731" lon="6.5981">
        <ele>404.3</ele>
        <time>2023-04-10T15:38:42Z</time>
      </trkpt>
      <trkpt lat="47.7774" lon="6.59807">
        <ele>404.6</ele>
        <time>2023-04-10T15:38:51Z</time>
      </trkpt>
      <trkpt lat="47.77749" lon="6.59804">
        <ele>404.6</ele>
        <time>2023-04-10T15:38:56Z</time>
      </trkpt>
      <trkpt lat="47.77758" lon="6.59802">
        <ele>404.5</ele>
        <time>2023-04-10T15:39:04Z</time>
      </trkpt>
      <trkpt lat="47.77767" lon="6.59805">
        <ele>404.3</ele>
        <time>2023-04-10T15:39:10Z</time>
      </trkpt>
      <trkpt lat="47.77776" lon="6.59808">
        <ele>404.1</ele>
        <time>2023-04-10T15:39:18Z</time>
      </trkpt>
      <trkpt lat="47.77785" lon="6.59808">
        <ele>403.7</ele>
        <time>2023-04-10T15:39:24Z</time>
      </trkpt>
      <trkpt lat="47.77795" lon="6.59806">
        <ele>403.2</ele>
        <time>2023-04-10T15:39:30Z</time>
      </trkpt>
      <trkpt lat="47.77804" lon="6.59809">
        <ele>402.7</ele>
        <time>2023-04-10T15:39:36Z</time>
      </trkpt>
      <trkpt lat="47.77814" lon="6.59812">
        <ele>402.2</ele>
        <time>2023-04-10T15:39:44Z</time>
      </trkpt>
      <trkpt lat="47.77823" lon="6.59811">
        <ele>402</ele>
        <time>2023-04-10T15:39:54Z</time>
      </trkpt>
      <trkpt lat="47.7783" lon="6.59819">
        <ele>401.8</ele>
        <time>2023-04-10T15:40:02Z</time>
      </trkpt>
      <trkpt lat="47.77839" lon="6.59826">
        <ele>401.7</ele>
        <time>2023-04-10T15:40:10Z</time>
      </trkpt>
      <trkpt lat="47.77849" lon="6.59827">
        <ele>401.5</ele>
        <time>2023-04-10T15:40:20Z</time>
      </trkpt>
      <trkpt lat="47.77858" lon="6.59821">
        <ele>401.2</ele>
        <time>2023-04-10T15:40:29Z</time>
      </trkpt>
      <trkpt lat="47.77868" lon="6.59815">
        <ele>400.8</ele>
        <time>2023-04-10T15:40:34Z</time>
      </trkpt>
      <trkpt lat="47.77877" lon="6.59811">
        <ele>400.2</ele>
        <time>2023-04-10T15:40:40Z</time>
      </trkpt>
      <trkpt lat="47.77886" lon="6.59811">
        <ele>399.4</ele>
        <time>2023-04-10T15:40:44Z</time>
      </trkpt>
      <trkpt lat="47.77896" lon="6.59814">
        <ele>398.6</ele>
        <time>2023-04-10T15:40:50Z</time>
      </trkpt>
      <trkpt lat="47.77904" lon="6.59821">
        <ele>397.9</ele>
        <time>2023-04-10T15:40:56Z</time>
      </trkpt>
      <trkpt lat="47.7791" lon="6.59832">
        <ele>397.2</ele>
        <time>2023-04-10T15:41:05Z</time>
      </trkpt>
      <trkpt lat="47.77916" lon="6.59844">
        <ele>396.6</ele>
        <time>2023-04-10T15:41:13Z</time>
      </trkpt>
      <trkpt lat="47.77923" lon="6.59854">
        <ele>396.1</ele>
        <time>2023-04-10T15:41:24Z</time>
      </trkpt>
      <trkpt lat="47.77932" lon="6.59861">
        <ele>395.8</ele>
        <time>2023-04-10T15:41:31Z</time>
      </trkpt>
      <trkpt lat="47.77935" lon="6.59876">
        <ele>395.7</ele>
        <time>2023-04-10T15:41:39Z</time>
      </trkpt>
      <trkpt lat="47.77939" lon="6.59888">
        <ele>395.8</ele>
        <time>2023-04-10T15:41:45Z</time>
      </trkpt>
      <trkpt lat="47.77945" lon="6.59899">
        <ele>395.9</ele>
        <time>2023-04-10T15:41:52Z</time>
      </trkpt>
      <trkpt lat="47.7795" lon="6.59912">
        <ele>396.1</ele>
        <time>2023-04-10T15:42:03Z</time>
      </trkpt>
      <trkpt lat="47.77956" lon="6.59925">
        <ele>396.3</ele>
        <time>2023-04-10T15:42:09Z</time>
      </trkpt>
      <trkpt lat="47.7796" lon="6.59938">
        <ele>396.5</ele>
        <time>2023-04-10T15:42:17Z</time>
      </trkpt>
      <trkpt lat="47.77965" lon="6.59951">
        <ele>396.7</ele>
        <time>2023-04-10T15:42:25Z</time>
      </trkpt>
      <trkpt lat="47.77972" lon="6.59962">
        <ele>396.9</ele>
        <time>2023-04-10T15:42:32Z</time>
      </trkpt>
      <trkpt lat="47.77972" lon="6.59975">
        <ele>397</ele>
        <time>2023-04-10T15:42:42Z</time>
      </trkpt>
      <trkpt lat="47.77982" lon="6.59982">
        <ele>397</ele>
        <time>2023-04-10T15:42:50Z</time>
      </trkpt>
      <trkpt lat="47.77991" lon="6.59989">
        <ele>396.9</ele>
        <time>2023-04-10T15:42:55Z</time>
      </trkpt>
      <trkpt lat="47.77998" lon="6.59999">
        <ele>396.9</ele>
        <time>2023-04-10T15:43:01Z</time>
      </trkpt>
      <trkpt lat="47.78004" lon="6.60012">
        <ele>396.9</ele>
        <time>2023-04-10T15:43:07Z</time>
      </trkpt>
      <trkpt lat="47.78008" lon="6.60026">
        <ele>397.2</ele>
        <time>2023-04-10T15:43:13Z</time>
      </trkpt>
      <trkpt lat="47.78012" lon="6.60038">
        <ele>397.9</ele>
        <time>2023-04-10T15:43:19Z</time>
      </trkpt>
      <trkpt lat="47.78014" lon="6.60052">
        <ele>398.9</ele>
        <time>2023-04-10T15:43:26Z</time>
      </trkpt>
      <trkpt lat="47.78022" lon="6.60062">
        <ele>400.1</ele>
        <time>2023-04-10T15:43:37Z</time>
      </trkpt>
      <trkpt lat="47.78031" lon="6.60069">
        <ele>401.4</ele>
        <time>2023-04-10T15:43:47Z</time>
      </trkpt>
      <trkpt lat="47.78037" lon="6.60081">
        <ele>402.8</ele>
        <time>2023-04-10T15:43:57Z</time>
      </trkpt>
      <trkpt lat="47.78043" lon="6.60092">
        <ele>404.1</ele>
        <time>2023-04-10T15:44:05Z</time>
      </trkpt>
      <trkpt lat="47.78051" lon="6.60101">
        <ele>405.4</ele>
        <time>2023-04-10T15:44:12Z</time>
      </trkpt>
      <trkpt lat="47.78058" lon="6.60109">
        <ele>406.7</ele>
        <time>2023-04-10T15:44:21Z</time>
      </trkpt>
      <trkpt lat="47.78066" lon="6.60116">
        <ele>407.8</ele>
        <time>2023-04-10T15:44:28Z</time>
      </trkpt>
      <trkpt lat="47.78072" lon="6.60127">
        <ele>408.7</ele>
        <time>2023-04-10T15:44:35Z</time>
      </trkpt>
      <trkpt lat="47.78078" lon="6.60137">
        <ele>409.3</ele>
        <time>2023-04-10T15:44:42Z</time>
      </trkpt>
      <trkpt lat="47.78083" lon="6.60151">
        <ele>409.8</ele>
        <time>2023-04-10T15:44:50Z</time>
      </trkpt>
      <trkpt lat="47.78086" lon="6.60166">
        <ele>410.2</ele>
        <time>2023-04-10T15:44:56Z</time>
      </trkpt>
      <trkpt lat="47.7809" lon="6.60179">
        <ele>410.5</ele>
        <time>2023-04-10T15:45:05Z</time>
      </trkpt>
      <trkpt lat="47.78095" lon="6.60191">
        <ele>410.7</ele>
        <time>2023-04-10T15:45:13Z</time>
      </trkpt>
      <trkpt lat="47.78103" lon="6.60199">
        <ele>410.9</ele>
        <time>2023-04-10T15:45:22Z</time>
      </trkpt>
      <trkpt lat="47.78108" lon="6.6021">
        <ele>411</ele>
        <time>2023-04-10T15:45:29Z</time>
      </trkpt>
      <trkpt lat="47.78114" lon="6.60225">
        <ele>411</ele>
        <time>2023-04-10T15:45:36Z</time>
      </trkpt>
      <trkpt lat="47.78118" lon="6.60238">
        <ele>411.1</ele>
        <time>2023-04-10T15:45:41Z</time>
      </trkpt>
      <trkpt lat="47.78117" lon="6.60253">
        <ele>411.2</ele>
        <time>2023-04-10T15:45:48Z</time>
      </trkpt>
      <trkpt lat="47.78119" lon="6.60269">
        <ele>411.5</ele>
        <time>2023-04-10T15:45:55Z</time>
      </trkpt>
      <trkpt lat="47.78123" lon="6.60281">
        <ele>411.8</ele>
        <time>2023-04-10T15:46:07Z</time>
      </trkpt>
      <trkpt lat="47.78129" lon="6.60293">
        <ele>412.1</ele>
        <time>2023-04-10T15:46:17Z</time>
      </trkpt>
      <trkpt lat="47.78136" lon="6.60303">
        <ele>412.4</ele>
        <time>2023-04-10T15:46:24Z</time>
      </trkpt>
      <trkpt lat="47.78144" lon="6.60311">
        <ele>412.8</ele>
        <time>2023-04-10T15:46:31Z</time>
      </trkpt>
      <trkpt lat="47.78151" lon="6.60319">
        <ele>413.3</ele>
        <time>2023-04-10T15:46:38Z</time>
      </trkpt>
      <trkpt lat="47.7816" lon="6.60327">
        <ele>414.2</ele>
        <time>2023-04-10T15:46:46Z</time>
      </trkpt>
      <trkpt lat="47.78166" lon="6.60339">
        <ele>415.3</ele>
        <time>2023-04-10T15:46:51Z</time>
      </trkpt>
      <trkpt lat="47.78175" lon="6.60347">
        <ele>416.5</ele>
        <time>2023-04-10T15:46:56Z</time>
      </trkpt>
      <trkpt lat="47.78183" lon="6.60356">
        <ele>417.6</ele>
        <time>2023-04-10T15:47:01Z</time>
      </trkpt>
      <trkpt lat="47.78191" lon="6.60363">
        <ele>418.7</ele>
        <time>2023-04-10T15:47:08Z</time>
      </trkpt>
      <trkpt lat="47.78201" lon="6.60364">
        <ele>419.9</ele>
        <time>2023-04-10T15:47:14Z</time>
      </trkpt>
      <trkpt lat="47.78211" lon="6.60363">
        <ele>421.1</ele>
        <time>2023-04-10T15:47:20Z</time>
      </trkpt>
      <trkpt lat="47.7822" lon="6.60366">
        <ele>422.1</ele>
        <time>2023-04-10T15:47:28Z</time>
      </trkpt>
      <trkpt lat="47.78229" lon="6.60364">
        <ele>422.9</ele>
        <time>2023-04-10T15:47:36Z</time>
      </trkpt>
      <trkpt lat="47.78239" lon="6.6036">
        <ele>423.4</ele>
        <time>2023-04-10T15:47:44Z</time>
      </trkpt>
      <trkpt lat="47.78249" lon="6.60371">
        <ele>423.8</ele>
        <time>2023-04-10T15:47:50Z</time>
      </trkpt>
      <trkpt lat="47.78258" lon="6.60376">
        <ele>424.1</ele>
        <time>2023-04-10T15:47:58Z</time>
      </trkpt>
      <trkpt lat="47.78267" lon="6.60383">
        <ele>424.4</ele>
        <time>2023-04-10T15:48:04Z</time>
      </trkpt>
      <trkpt lat="47.78277" lon="6.60386">
        <ele>424.9</ele>
        <time>2023-04-10T15:48:09Z</time>
      </trkpt>
      <trkpt lat="47.78286" lon="6.60386">
        <ele>425.5</ele>
        <time>2023-04-10T15:48:14Z</time>
      </trkpt>
      <trkpt lat="47.78296" lon="6.60386">
        <ele>426</ele>
        <time>2023-04-10T15:48:21Z</time>
      </trkpt>
      <trkpt lat="47.78306" lon="6.60388">
        <ele>426.3</ele>
        <time>2023-04-10T15:48:31Z</time>
      </trkpt>
      <trkpt lat="47.78316" lon="6.6039">
        <ele>426.2</ele>
        <time>2023-04-10T15:48:36Z</time>
      </trkpt>
      <trkpt lat="47.78325" lon="6.60388">
        <ele>426</ele>
        <time>2023-04-10T15:48:44Z</time>
      </trkpt>
      <trkpt lat="47.78335" lon="6.60389">
        <ele>425.9</ele>
        <time>2023-04-10T15:48:53Z</time>
      </trkpt>
      <trkpt lat="47.78342" lon="6.60399">
        <ele>425.9</ele>
        <time>2023-04-10T15:49:04Z</time>
      </trkpt>
      <trkpt lat="47.7835" lon="6.60406">
        <ele>425.9</ele>
        <time>2023-04-10T15:49:15Z</time>
      </trkpt>
      <trkpt lat="47.78359" lon="6.6041">
        <ele>425.8</ele>
        <time>2023-04-10T15:49:22Z</time>
      </trkpt>
      <trkpt lat="47.7837" lon="6.60408">
        <ele>425.5</ele>
        <time>2023-04-10T15:49:28Z</time>
      </trkpt>
      <trkpt lat="47.78379" lon="6.60405">
        <ele>425.3</ele>
        <time>2023-04-10T15:49:32Z</time>
      </trkpt>
      <trkpt lat="47.78389" lon="6.60403">
        <ele>425.1</ele>
        <time>2023-04-10T15:49:38Z</time>
      </trkpt>
      <trkpt lat="47.78399" lon="6.60402">
        <ele>425.1</ele>
        <time>2023-04-10T15:49:45Z</time>
      </trkpt>
      <trkpt lat="47.78409" lon="6.60404">
        <ele>425.1</ele>
        <time>2023-04-10T15:49:55Z</time>
      </trkpt>
      <trkpt lat="47.78419" lon="6.6041">
        <ele>425.1</ele>
        <time>2023-04-10T15:50:03Z</time>
      </trkpt>
      <trkpt lat="47.78427" lon="6.60416">
        <ele>425.2</ele>
        <time>2023-04-10T15:50:10Z</time>
      </trkpt>
      <trkpt lat="47.78434" lon="6.60425">
        <ele>425.3</ele>
        <time>2023-04-10T15:50:24Z</time>
      </trkpt>
      <trkpt lat="47.78437" lon="6.60439">
        <ele>425.5</ele>
        <time>2023-04-10T15:50:31Z</time>
      </trkpt>
      <trkpt lat="47.78442" lon="6.60452">
        <ele>425.6</ele>
        <time>2023-04-10T15:50:38Z</time>
      </trkpt>
      <trkpt lat="47.78442" lon="6.60466">
        <ele>425.7</ele>
        <time>2023-04-10T15:50:45Z</time>
      </trkpt>
      <trkpt lat="47.78441" lon="6.60479">
        <ele>425.9</ele>
        <time>2023-04-10T15:50:52Z</time>
      </trkpt>
      <trkpt lat="47.78439" lon="6.60493">
        <ele>426.2</ele>
        <time>2023-04-10T15:50:59Z</time>
      </trkpt>
      <trkpt lat="47.78436" lon="6.60507">
        <ele>426.5</ele>
        <time>2023-04-10T15:51:06Z</time>
      </trkpt>
      <trkpt lat="47.78433" lon="6.60521">
        <ele>426.9</ele>
        <time>2023-04-10T15:51:12Z</time>
      </trkpt>
      <trkpt lat="47.78429" lon="6.60535">
        <ele>427.4</ele>
        <time>2023-04-10T15:51:19Z</time>
      </trkpt>
      <trkpt lat="47.78432" lon="6.60548">
        <ele>428</ele>
        <time>2023-04-10T15:51:26Z</time>
      </trkpt>
      <trkpt lat="47.78426" lon="6.6056">
        <ele>428.6</ele>
        <time>2023-04-10T15:51:37Z</time>
      </trkpt>
      <trkpt lat="47.7843" lon="6.60574">
        <ele>429.2</ele>
        <time>2023-04-10T15:51:46Z</time>
      </trkpt>
      <trkpt lat="47.78433" lon="6.60587">
        <ele>430</ele>
        <time>2023-04-10T15:51:54Z</time>
      </trkpt>
      <trkpt lat="47.78434" lon="6.60601">
        <ele>430.7</ele>
        <time>2023-04-10T15:52:00Z</time>
      </trkpt>
      <trkpt lat="47.78438" lon="6.60614">
        <ele>432.4</ele>
        <time>2023-04-10T15:52:07Z</time>
      </trkpt>
      <trkpt lat="47.78446" lon="6.60621">
        <ele>432.8</ele>
        <time>2023-04-10T15:52:15Z</time>
      </trkpt>
      <trkpt lat="47.78454" lon="6.60629">
        <ele>433.3</ele>
        <time>2023-04-10T15:52:22Z</time>
      </trkpt>
      <trkpt lat="47.78464" lon="6.60634">
        <ele>433.6</ele>
        <time>2023-04-10T15:52:29Z</time>
      </trkpt>
      <trkpt lat="47.78472" lon="6.6064">
        <ele>434</ele>
        <time>2023-04-10T15:52:36Z</time>
      </trkpt>
      <trkpt lat="47.78481" lon="6.60643">
        <ele>434.2</ele>
        <time>2023-04-10T15:52:43Z</time>
      </trkpt>
      <trkpt lat="47.78491" lon="6.60643">
        <ele>434.4</ele>
        <time>2023-04-10T15:52:50Z</time>
      </trkpt>
      <trkpt lat="47.785" lon="6.6064">
        <ele>434.6</ele>
        <time>2023-04-10T15:52:58Z</time>
      </trkpt>
      <trkpt lat="47.78509" lon="6.60635">
        <ele>434.7</ele>
        <time>2023-04-10T15:53:09Z</time>
      </trkpt>
      <trkpt lat="47.78518" lon="6.60629">
        <ele>434.7</ele>
        <time>2023-04-10T15:53:17Z</time>
      </trkpt>
      <trkpt lat="47.78527" lon="6.60629">
        <ele>434.6</ele>
        <time>2023-04-10T15:53:24Z</time>
      </trkpt>
      <trkpt lat="47.78536" lon="6.6063">
        <ele>434.6</ele>
        <time>2023-04-10T15:53:30Z</time>
      </trkpt>
      <trkpt lat="47.78546" lon="6.60629">
        <ele>434.6</ele>
        <time>2023-04-10T15:53:37Z</time>
      </trkpt>
      <trkpt lat="47.78556" lon="6.60626">
        <ele>434.7</ele>
        <time>2023-04-10T15:53:44Z</time>
      </trkpt>
      <trkpt lat="47.78565" lon="6.60624">
        <ele>435</ele>
        <time>2023-04-10T15:53:51Z</time>
      </trkpt>
      <trkpt lat="47.78574" lon="6.60628">
        <ele>435.5</ele>
        <time>2023-04-10T15:53:59Z</time>
      </trkpt>
      <trkpt lat="47.78582" lon="6.60637">
        <ele>436.3</ele>
        <time>2023-04-10T15:54:07Z</time>
      </trkpt>
      <trkpt lat="47.7859" lon="6.60646">
        <ele>436.9</ele>
        <time>2023-04-10T15:54:15Z</time>
      </trkpt>
      <trkpt lat="47.78598" lon="6.60655">
        <ele>437.3</ele>
        <time>2023-04-10T15:54:23Z</time>
      </trkpt>
      <trkpt lat="47.78601" lon="6.60669">
        <ele>437.1</ele>
        <time>2023-04-10T15:54:29Z</time>
      </trkpt>
      <trkpt lat="47.78603" lon="6.60683">
        <ele>436.7</ele>
        <time>2023-04-10T15:54:35Z</time>
      </trkpt>
      <trkpt lat="47.78603" lon="6.60697">
        <ele>436.3</ele>
        <time>2023-04-10T15:54:42Z</time>
      </trkpt>
      <trkpt lat="47.78601" lon="6.60711">
        <ele>436</ele>
        <time>2023-04-10T15:54:50Z</time>
      </trkpt>
      <trkpt lat="47.78603" lon="6.60724">
        <ele>435.9</ele>
        <time>2023-04-10T15:54:57Z</time>
      </trkpt>
      <trkpt lat="47.78613" lon="6.60729">
        <ele>435.7</ele>
        <time>2023-04-10T15:55:06Z</time>
      </trkpt>
      <trkpt lat="47.78621" lon="6.60735">
        <ele>435.4</ele>
        <time>2023-04-10T15:55:12Z</time>
      </trkpt>
      <trkpt lat="47.78628" lon="6.60746">
        <ele>434.9</ele>
        <time>2023-04-10T15:55:19Z</time>
      </trkpt>
      <trkpt lat="47.78635" lon="6.60755">
        <ele>434.2</ele>
        <time>2023-04-10T15:55:26Z</time>
      </trkpt>
      <trkpt lat="47.78644" lon="6.60761">
        <ele>433.1</ele>
        <time>2023-04-10T15:55:33Z</time>
      </trkpt>
      <trkpt lat="47.78652" lon="6.60768">
        <ele>432.1</ele>
        <time>2023-04-10T15:55:40Z</time>
      </trkpt>
      <trkpt lat="47.78661" lon="6.60773">
        <ele>431.1</ele>
        <time>2023-04-10T15:55:47Z</time>
      </trkpt>
      <trkpt lat="47.78668" lon="6.60781">
        <ele>430.5</ele>
        <time>2023-04-10T15:55:53Z</time>
      </trkpt>
      <trkpt lat="47.78675" lon="6.6079">
        <ele>430.3</ele>
        <time>2023-04-10T15:56:00Z</time>
      </trkpt>
      <trkpt lat="47.78682" lon="6.608">
        <ele>430.8</ele>
        <time>2023-04-10T15:56:07Z</time>
      </trkpt>
      <trkpt lat="47.78691" lon="6.6081">
        <ele>431.7</ele>
        <time>2023-04-10T15:56:14Z</time>
      </trkpt>
      <trkpt lat="47.787" lon="6.60813">
        <ele>432.9</ele>
        <time>2023-04-10T15:56:21Z</time>
      </trkpt>
      <trkpt lat="47.78709" lon="6.60816">
        <ele>434.1</ele>
        <time>2023-04-10T15:56:29Z</time>
      </trkpt>
      <trkpt lat="47.7872" lon="6.60817">
        <ele>435.5</ele>
        <time>2023-04-10T15:56:37Z</time>
      </trkpt>
      <trkpt lat="47.78729" lon="6.60818">
        <ele>436.5</ele>
        <time>2023-04-10T15:56:43Z</time>
      </trkpt>
      <trkpt lat="47.78739" lon="6.60817">
        <ele>437.2</ele>
        <time>2023-04-10T15:56:51Z</time>
      </trkpt>
      <trkpt lat="47.78748" lon="6.60816">
        <ele>437.5</ele>
        <time>2023-04-10T15:56:59Z</time>
      </trkpt>
      <trkpt lat="47.78757" lon="6.60816">
        <ele>437.5</ele>
        <time>2023-04-10T15:57:07Z</time>
      </trkpt>
      <trkpt lat="47.78766" lon="6.60809">
        <ele>437.5</ele>
        <time>2023-04-10T15:57:14Z</time>
      </trkpt>
      <trkpt lat="47.78774" lon="6.60804">
        <ele>437.7</ele>
        <time>2023-04-10T15:57:21Z</time>
      </trkpt>
      <trkpt lat="47.78783" lon="6.608">
        <ele>438.1</ele>
        <time>2023-04-10T15:57:26Z</time>
      </trkpt>
      <trkpt lat="47.78792" lon="6.60802">
        <ele>438.7</ele>
        <time>2023-04-10T15:57:32Z</time>
      </trkpt>
      <trkpt lat="47.78799" lon="6.60814">
        <ele>439.2</ele>
        <time>2023-04-10T15:57:39Z</time>
      </trkpt>
      <trkpt lat="47.78803" lon="6.60826">
        <ele>439.6</ele>
        <time>2023-04-10T15:57:47Z</time>
      </trkpt>
      <trkpt lat="47.78805" lon="6.60841">
        <ele>439.8</ele>
        <time>2023-04-10T15:57:57Z</time>
      </trkpt>
      <trkpt lat="47.78809" lon="6.60853">
        <ele>440</ele>
        <time>2023-04-10T15:58:05Z</time>
      </trkpt>
      <trkpt lat="47.78815" lon="6.60864">
        <ele>440</ele>
        <time>2023-04-10T15:58:11Z</time>
      </trkpt>
      <trkpt lat="47.7882" lon="6.60875">
        <ele>439.9</ele>
        <time>2023-04-10T15:58:18Z</time>
      </trkpt>
      <trkpt lat="47.78829" lon="6.60881">
        <ele>439.6</ele>
        <time>2023-04-10T15:58:27Z</time>
      </trkpt>
      <trkpt lat="47.78837" lon="6.60888">
        <ele>439.1</ele>
        <time>2023-04-10T15:58:35Z</time>
      </trkpt>
      <trkpt lat="47.78846" lon="6.60895">
        <ele>438.5</ele>
        <time>2023-04-10T15:58:43Z</time>
      </trkpt>
      <trkpt lat="47.78853" lon="6.60902">
        <ele>438.2</ele>
        <time>2023-04-10T15:58:48Z</time>
      </trkpt>
      <trkpt lat="47.78862" lon="6.60908">
        <ele>438.1</ele>
        <time>2023-04-10T15:58:54Z</time>
      </trkpt>
      <trkpt lat="47.78871" lon="6.60913">
        <ele>438.2</ele>
        <time>2023-04-10T15:59:01Z</time>
      </trkpt>
      <trkpt lat="47.78879" lon="6.60922">
        <ele>438.5</ele>
        <time>2023-04-10T15:59:08Z</time>
      </trkpt>
      <trkpt lat="47.78888" lon="6.60928">
        <ele>438.8</ele>
        <time>2023-04-10T15:59:16Z</time>
      </trkpt>
      <trkpt lat="47.78897" lon="6.60934">
        <ele>439.3</ele>
        <time>2023-04-10T15:59:24Z</time>
      </trkpt>
      <trkpt lat="47.78906" lon="6.6094">
        <ele>439.7</ele>
        <time>2023-04-10T15:59:30Z</time>
      </trkpt>
      <trkpt lat="47.78915" lon="6.60946">
        <ele>440.3</ele>
        <time>2023-04-10T15:59:37Z</time>
      </trkpt>
      <trkpt lat="47.78924" lon="6.6095">
        <ele>440.7</ele>
        <time>2023-04-10T15:59:44Z</time>
      </trkpt>
      <trkpt lat="47.78933" lon="6.60955">
        <ele>441.1</ele>
        <time>2023-04-10T15:59:52Z</time>
      </trkpt>
      <trkpt lat="47.78943" lon="6.60959">
        <ele>441.6</ele>
        <time>2023-04-10T16:00:00Z</time>
      </trkpt>
      <trkpt lat="47.78952" lon="6.60966">
        <ele>442</ele>
        <time>2023-04-10T16:00:07Z</time>
      </trkpt>
      <trkpt lat="47.78961" lon="6.60971">
        <ele>442.4</ele>
        <time>2023-04-10T16:00:14Z</time>
      </trkpt>
      <trkpt lat="47.7897" lon="6.60976">
        <ele>442.8</ele>
        <time>2023-04-10T16:00:22Z</time>
      </trkpt>
      <trkpt lat="47.78978" lon="6.60984">
        <ele>443.2</ele>
        <time>2023-04-10T16:00:29Z</time>
      </trkpt>
      <trkpt lat="47.78986" lon="6.60993">
        <ele>443.7</ele>
        <time>2023-04-10T16:00:37Z</time>
      </trkpt>
      <trkpt lat="47.78993" lon="6.61003">
        <ele>444.4</ele>
        <time>2023-04-10T16:00:47Z</time>
      </trkpt>
      <trkpt lat="47.78996" lon="6.61016">
        <ele>445.1</ele>
        <time>2023-04-10T16:00:54Z</time>
      </trkpt>
      <trkpt lat="47.79002" lon="6.61028">
        <ele>445.7</ele>
        <time>2023-04-10T16:01:01Z</time>
      </trkpt>
      <trkpt lat="47.79007" lon="6.6104">
        <ele>446</ele>
        <time>2023-04-10T16:01:09Z</time>
      </trkpt>
      <trkpt lat="47.79012" lon="6.61053">
        <ele>446.2</ele>
        <time>2023-04-10T16:01:16Z</time>
      </trkpt>
      <trkpt lat="47.79017" lon="6.61065">
        <ele>446.5</ele>
        <time>2023-04-10T16:01:24Z</time>
      </trkpt>
      <trkpt lat="47.7902" lon="6.6108">
        <ele>447.1</ele>
        <time>2023-04-10T16:01:31Z</time>
      </trkpt>
      <trkpt lat="47.79019" lon="6.61094">
        <ele>447.7</ele>
        <time>2023-04-10T16:01:38Z</time>
      </trkpt>
      <trkpt lat="47.79015" lon="6.61107">
        <ele>448.2</ele>
        <time>2023-04-10T16:01:45Z</time>
      </trkpt>
      <trkpt lat="47.79012" lon="6.61122">
        <ele>448.6</ele>
        <time>2023-04-10T16:01:53Z</time>
      </trkpt>
      <trkpt lat="47.79009" lon="6.61136">
        <ele>448.9</ele>
        <time>2023-04-10T16:02:01Z</time>
      </trkpt>
      <trkpt lat="47.79009" lon="6.6115">
        <ele>449.2</ele>
        <time>2023-04-10T16:02:09Z</time>
      </trkpt>
      <trkpt lat="47.79011" lon="6.61163">
        <ele>449.3</ele>
        <time>2023-04-10T16:02:16Z</time>
      </trkpt>
      <trkpt lat="47.79012" lon="6.61178">
        <ele>449.4</ele>
        <time>2023-04-10T16:02:23Z</time>
      </trkpt>
      <trkpt lat="47.79015" lon="6.6119">
        <ele>449.4</ele>
        <time>2023-04-10T16:02:29Z</time>
      </trkpt>
      <trkpt lat="47.79018" lon="6.61204">
        <ele>449.5</ele>
        <time>2023-04-10T16:02:37Z</time>
      </trkpt>
      <trkpt lat="47.79023" lon="6.61216">
        <ele>449.6</ele>
        <time>2023-04-10T16:02:44Z</time>
      </trkpt>
      <trkpt lat="47.79024" lon="6.6123">
        <ele>449.9</ele>
        <time>2023-04-10T16:02:52Z</time>
      </trkpt>
      <trkpt lat="47.79026" lon="6.61244">
        <ele>450.4</ele>
        <time>2023-04-10T16:03:00Z</time>
      </trkpt>
      <trkpt lat="47.79025" lon="6.61259">
        <ele>451</ele>
        <time>2023-04-10T16:03:08Z</time>
      </trkpt>
      <trkpt lat="47.7902" lon="6.61271">
        <ele>451.4</ele>
        <time>2023-04-10T16:03:16Z</time>
      </trkpt>
      <trkpt lat="47.7902" lon="6.61286">
        <ele>451.7</ele>
        <time>2023-04-10T16:03:24Z</time>
      </trkpt>
      <trkpt lat="47.79019" lon="6.61299">
        <ele>451.8</ele>
        <time>2023-04-10T16:03:31Z</time>
      </trkpt>
      <trkpt lat="47.79014" lon="6.61313">
        <ele>452</ele>
        <time>2023-04-10T16:03:38Z</time>
      </trkpt>
      <trkpt lat="47.79009" lon="6.61326">
        <ele>452.3</ele>
        <time>2023-04-10T16:03:45Z</time>
      </trkpt>
      <trkpt lat="47.79004" lon="6.61337">
        <ele>452.7</ele>
        <time>2023-04-10T16:03:53Z</time>
      </trkpt>
      <trkpt lat="47.78998" lon="6.6135">
        <ele>452.8</ele>
        <time>2023-04-10T16:04:03Z</time>
      </trkpt>
      <trkpt lat="47.78991" lon="6.6136">
        <ele>452.8</ele>
        <time>2023-04-10T16:04:09Z</time>
      </trkpt>
      <trkpt lat="47.78984" lon="6.61371">
        <ele>452.5</ele>
        <time>2023-04-10T16:04:15Z</time>
      </trkpt>
      <trkpt lat="47.78979" lon="6.61382">
        <ele>452.2</ele>
        <time>2023-04-10T16:04:21Z</time>
      </trkpt>
      <trkpt lat="47.78979" lon="6.61396">
        <ele>451.8</ele>
        <time>2023-04-10T16:04:29Z</time>
      </trkpt>
      <trkpt lat="47.78977" lon="6.6141">
        <ele>451.3</ele>
        <time>2023-04-10T16:04:36Z</time>
      </trkpt>
      <trkpt lat="47.78978" lon="6.61423">
        <ele>450.8</ele>
        <time>2023-04-10T16:04:43Z</time>
      </trkpt>
      <trkpt lat="47.78978" lon="6.61438">
        <ele>450.2</ele>
        <time>2023-04-10T16:04:51Z</time>
      </trkpt>
      <trkpt lat="47.78979" lon="6.61453">
        <ele>449.5</ele>
        <time>2023-04-10T16:04:59Z</time>
      </trkpt>
      <trkpt lat="47.78979" lon="6.61468">
        <ele>448.9</ele>
        <time>2023-04-10T16:05:06Z</time>
      </trkpt>
      <trkpt lat="47.7898" lon="6.61483">
        <ele>448.5</ele>
        <time>2023-04-10T16:05:12Z</time>
      </trkpt>
      <trkpt lat="47.7898" lon="6.61498">
        <ele>448.4</ele>
        <time>2023-04-10T16:05:19Z</time>
      </trkpt>
      <trkpt lat="47.78979" lon="6.61512">
        <ele>448.4</ele>
        <time>2023-04-10T16:05:26Z</time>
      </trkpt>
      <trkpt lat="47.78982" lon="6.61525">
        <ele>448.4</ele>
        <time>2023-04-10T16:05:35Z</time>
      </trkpt>
      <trkpt lat="47.78986" lon="6.61538">
        <ele>448.4</ele>
        <time>2023-04-10T16:05:42Z</time>
      </trkpt>
      <trkpt lat="47.78992" lon="6.61549">
        <ele>448.2</ele>
        <time>2023-04-10T16:05:49Z</time>
      </trkpt>
      <trkpt lat="47.78999" lon="6.61561">
        <ele>447.8</ele>
        <time>2023-04-10T16:05:56Z</time>
      </trkpt>
      <trkpt lat="47.79002" lon="6.61575">
        <ele>447.4</ele>
        <time>2023-04-10T16:06:05Z</time>
      </trkpt>
      <trkpt lat="47.79008" lon="6.61585">
        <ele>446.6</ele>
        <time>2023-04-10T16:06:12Z</time>
      </trkpt>
      <trkpt lat="47.79009" lon="6.61599">
        <ele>445.7</ele>
        <time>2023-04-10T16:06:21Z</time>
      </trkpt>
      <trkpt lat="47.79012" lon="6.61613">
        <ele>444.8</ele>
        <time>2023-04-10T16:06:29Z</time>
      </trkpt>
      <trkpt lat="47.79015" lon="6.61626">
        <ele>443.7</ele>
        <time>2023-04-10T16:06:38Z</time>
      </trkpt>
      <trkpt lat="47.79022" lon="6.61638">
        <ele>442.4</ele>
        <time>2023-04-10T16:06:46Z</time>
      </trkpt>
      <trkpt lat="47.79025" lon="6.61652">
        <ele>441.2</ele>
        <time>2023-04-10T16:06:52Z</time>
      </trkpt>
      <trkpt lat="47.79027" lon="6.61666">
        <ele>440</ele>
        <time>2023-04-10T16:06:59Z</time>
      </trkpt>
      <trkpt lat="47.79029" lon="6.6168">
        <ele>439</ele>
        <time>2023-04-10T16:07:07Z</time>
      </trkpt>
      <trkpt lat="47.7903" lon="6.61695">
        <ele>438</ele>
        <time>2023-04-10T16:07:16Z</time>
      </trkpt>
      <trkpt lat="47.7903" lon="6.61709">
        <ele>437.1</ele>
        <time>2023-04-10T16:07:25Z</time>
      </trkpt>
      <trkpt lat="47.79028" lon="6.61723">
        <ele>436.3</ele>
        <time>2023-04-10T16:07:32Z</time>
      </trkpt>
      <trkpt lat="47.79028" lon="6.61738">
        <ele>435.6</ele>
        <time>2023-04-10T16:07:39Z</time>
      </trkpt>
      <trkpt lat="47.79029" lon="6.61752">
        <ele>435</ele>
        <time>2023-04-10T16:07:46Z</time>
      </trkpt>
      <trkpt lat="47.79029" lon="6.61767">
        <ele>434.5</ele>
        <time>2023-04-10T16:07:55Z</time>
      </trkpt>
      <trkpt lat="47.79031" lon="6.61782">
        <ele>434.2</ele>
        <time>2023-04-10T16:08:03Z</time>
      </trkpt>
      <trkpt lat="47.79031" lon="6.61797">
        <ele>433.9</ele>
        <time>2023-04-10T16:08:11Z</time>
      </trkpt>
      <trkpt lat="47.79031" lon="6.61811">
        <ele>433.8</ele>
        <time>2023-04-10T16:08:18Z</time>
      </trkpt>
      <trkpt lat="47.79035" lon="6.61824">
        <ele>433.8</ele>
        <time>2023-04-10T16:08:24Z</time>
      </trkpt>
      <trkpt lat="47.7904" lon="6.61838">
        <ele>433.9</ele>
        <time>2023-04-10T16:08:30Z</time>
      </trkpt>
      <trkpt lat="47.79047" lon="6.61848">
        <ele>434.1</ele>
        <time>2023-04-10T16:08:39Z</time>
      </trkpt>
      <trkpt lat="47.79054" lon="6.61857">
        <ele>434.3</ele>
        <time>2023-04-10T16:08:46Z</time>
      </trkpt>
      <trkpt lat="47.7906" lon="6.61867">
        <ele>434.4</ele>
        <time>2023-04-10T16:08:54Z</time>
      </trkpt>
      <trkpt lat="47.79065" lon="6.6188">
        <ele>434.1</ele>
        <time>2023-04-10T16:09:03Z</time>
      </trkpt>
      <trkpt lat="47.79069" lon="6.61892">
        <ele>433.4</ele>
        <time>2023-04-10T16:09:11Z</time>
      </trkpt>
      <trkpt lat="47.79074" lon="6.61905">
        <ele>432.5</ele>
        <time>2023-04-10T16:09:19Z</time>
      </trkpt>
      <trkpt lat="47.79075" lon="6.6192">
        <ele>431.5</ele>
        <time>2023-04-10T16:09:24Z</time>
      </trkpt>
      <trkpt lat="47.79076" lon="6.61934">
        <ele>430.9</ele>
        <time>2023-04-10T16:09:31Z</time>
      </trkpt>
      <trkpt lat="47.79077" lon="6.61948">
        <ele>430.3</ele>
        <time>2023-04-10T16:09:37Z</time>
      </trkpt>
      <trkpt lat="47.79075" lon="6.61962">
        <ele>429.9</ele>
        <time>2023-04-10T16:09:44Z</time>
      </trkpt>
      <trkpt lat="47.7907" lon="6.61976">
        <ele>429.4</ele>
        <time>2023-04-10T16:09:50Z</time>
      </trkpt>
      <trkpt lat="47.79065" lon="6.61988">
        <ele>429.1</ele>
        <time>2023-04-10T16:09:56Z</time>
      </trkpt>
      <trkpt lat="47.79063" lon="6.62002">
        <ele>428.9</ele>
        <time>2023-04-10T16:10:02Z</time>
      </trkpt>
      <trkpt lat="47.79061" lon="6.62016">
        <ele>428.7</ele>
        <time>2023-04-10T16:10:09Z</time>
      </trkpt>
      <trkpt lat="47.7906" lon="6.62029">
        <ele>428.5</ele>
        <time>2023-04-10T16:10:16Z</time>
      </trkpt>
      <trkpt lat="47.79058" lon="6.62044">
        <ele>428.1</ele>
        <time>2023-04-10T16:10:23Z</time>
      </trkpt>
      <trkpt lat="47.79055" lon="6.62057">
        <ele>427.7</ele>
        <time>2023-04-10T16:10:31Z</time>
      </trkpt>
      <trkpt lat="47.7905" lon="6.62069">
        <ele>427.2</ele>
        <time>2023-04-10T16:10:40Z</time>
      </trkpt>
      <trkpt lat="47.79042" lon="6.62076">
        <ele>426.7</ele>
        <time>2023-04-10T16:10:47Z</time>
      </trkpt>
      <trkpt lat="47.79037" lon="6.62087">
        <ele>426.2</ele>
        <time>2023-04-10T16:10:54Z</time>
      </trkpt>
      <trkpt lat="47.79032" lon="6.62099">
        <ele>425.7</ele>
        <time>2023-04-10T16:11:03Z</time>
      </trkpt>
      <trkpt lat="47.79028" lon="6.62111">
        <ele>425.1</ele>
        <time>2023-04-10T16:11:13Z</time>
      </trkpt>
      <trkpt lat="47.79024" lon="6.62124">
        <ele>424.5</ele>
        <time>2023-04-10T16:11:20Z</time>
      </trkpt>
      <trkpt lat="47.79021" lon="6.62137">
        <ele>423.6</ele>
        <time>2023-04-10T16:11:28Z</time>
      </trkpt>
      <trkpt lat="47.79017" lon="6.62151">
        <ele>422.4</ele>
        <time>2023-04-10T16:11:37Z</time>
      </trkpt>
      <trkpt lat="47.79016" lon="6.62164">
        <ele>421.2</ele>
        <time>2023-04-10T16:11:48Z</time>
      </trkpt>
      <trkpt lat="47.79018" lon="6.62179">
        <ele>419.8</ele>
        <time>2023-04-10T16:11:58Z</time>
      </trkpt>
      <trkpt lat="47.79017" lon="6.62193">
        <ele>418.4</ele>
        <time>2023-04-10T16:12:04Z</time>
      </trkpt>
      <trkpt lat="47.79014" lon="6.62206">
        <ele>416.9</ele>
        <time>2023-04-10T16:12:17Z</time>
      </trkpt>
      <trkpt lat="47.79019" lon="6.62218">
        <ele>415.4</ele>
        <time>2023-04-10T16:12:24Z</time>
      </trkpt>
      <trkpt lat="47.79024" lon="6.6223">
        <ele>413.9</ele>
        <time>2023-04-10T16:12:31Z</time>
      </trkpt>
      <trkpt lat="47.79027" lon="6.62243">
        <ele>412.5</ele>
        <time>2023-04-10T16:12:38Z</time>
      </trkpt>
      <trkpt lat="47.79025" lon="6.62258">
        <ele>411.2</ele>
        <time>2023-04-10T16:12:44Z</time>
      </trkpt>
      <trkpt lat="47.79021" lon="6.62272">
        <ele>410</ele>
        <time>2023-04-10T16:12:51Z</time>
      </trkpt>
      <trkpt lat="47.79023" lon="6.62286">
        <ele>409.1</ele>
        <time>2023-04-10T16:12:58Z</time>
      </trkpt>
      <trkpt lat="47.7903" lon="6.62295">
        <ele>408.2</ele>
        <time>2023-04-10T16:13:05Z</time>
      </trkpt>
      <trkpt lat="47.79038" lon="6.62303">
        <ele>407.3</ele>
        <time>2023-04-10T16:13:12Z</time>
      </trkpt>
      <trkpt lat="47.79045" lon="6.62314">
        <ele>407.5</ele>
        <time>2023-04-10T16:13:19Z</time>
      </trkpt>
      <trkpt lat="47.79052" lon="6.62325">
        <ele>408.9</ele>
        <time>2023-04-10T16:13:26Z</time>
      </trkpt>
      <trkpt lat="47.79059" lon="6.62335">
        <ele>410.3</ele>
        <time>2023-04-10T16:13:34Z</time>
      </trkpt>
      <trkpt lat="47.79067" lon="6.62345">
        <ele>411.9</ele>
        <time>2023-04-10T16:13:43Z</time>
      </trkpt>
      <trkpt lat="47.79075" lon="6.62353">
        <ele>413.4</ele>
        <time>2023-04-10T16:13:50Z</time>
      </trkpt>
      <trkpt lat="47.79084" lon="6.62359">
        <ele>415</ele>
        <time>2023-04-10T16:13:58Z</time>
      </trkpt>
      <trkpt lat="47.79094" lon="6.62359">
        <ele>416.5</ele>
        <time>2023-04-10T16:14:06Z</time>
      </trkpt>
      <trkpt lat="47.79103" lon="6.62356">
        <ele>418.1</ele>
        <time>2023-04-10T16:14:15Z</time>
      </trkpt>
      <trkpt lat="47.79112" lon="6.62351">
        <ele>419.5</ele>
        <time>2023-04-10T16:14:23Z</time>
      </trkpt>
      <trkpt lat="47.79122" lon="6.6235">
        <ele>420.9</ele>
        <time>2023-04-10T16:14:31Z</time>
      </trkpt>
      <trkpt lat="47.79121" lon="6.62351">
        <ele>421</ele>
        <time>2023-04-10T16:14:33Z</time>
      </trkpt>
      <trkpt lat="47.79122" lon="6.62351">
        <ele>421</ele>
        <time>2023-04-10T16:14:34Z</time>
      </trkpt>
      <trkpt lat="47.79132" lon="6.62354">
        <ele>422.6</ele>
        <time>2023-04-10T16:14:45Z</time>
      </trkpt>
      <trkpt lat="47.79139" lon="6.62362">
        <ele>424</ele>
        <time>2023-04-10T16:14:54Z</time>
      </trkpt>
      <trkpt lat="47.79147" lon="6.62369">
        <ele>425.1</ele>
        <time>2023-04-10T16:15:01Z</time>
      </trkpt>
      <trkpt lat="47.79156" lon="6.62374">
        <ele>426.1</ele>
        <time>2023-04-10T16:15:08Z</time>
      </trkpt>
      <trkpt lat="47.79165" lon="6.62375">
        <ele>426.7</ele>
        <time>2023-04-10T16:15:15Z</time>
      </trkpt>
      <trkpt lat="47.79174" lon="6.62373">
        <ele>427.2</ele>
        <time>2023-04-10T16:15:23Z</time>
      </trkpt>
      <trkpt lat="47.79182" lon="6.62368">
        <ele>427.6</ele>
        <time>2023-04-10T16:15:31Z</time>
      </trkpt>
      <trkpt lat="47.7919" lon="6.62361">
        <ele>428.1</ele>
        <time>2023-04-10T16:15:39Z</time>
      </trkpt>
      <trkpt lat="47.79199" lon="6.62353">
        <ele>429.6</ele>
        <time>2023-04-10T16:15:48Z</time>
      </trkpt>
      <trkpt lat="47.79208" lon="6.62352">
        <ele>430.7</ele>
        <time>2023-04-10T16:15:56Z</time>
      </trkpt>
      <trkpt lat="47.79216" lon="6.6236">
        <ele>431.7</ele>
        <time>2023-04-10T16:16:06Z</time>
      </trkpt>
      <trkpt lat="47.79221" lon="6.62372">
        <ele>432.5</ele>
        <time>2023-04-10T16:16:14Z</time>
      </trkpt>
      <trkpt lat="47.79225" lon="6.62384">
        <ele>433.1</ele>
        <time>2023-04-10T16:16:21Z</time>
      </trkpt>
      <trkpt lat="47.79229" lon="6.62398">
        <ele>433.6</ele>
        <time>2023-04-10T16:16:30Z</time>
      </trkpt>
      <trkpt lat="47.79234" lon="6.6241">
        <ele>433.9</ele>
        <time>2023-04-10T16:16:38Z</time>
      </trkpt>
      <trkpt lat="47.7924" lon="6.62422">
        <ele>434.1</ele>
        <time>2023-04-10T16:16:46Z</time>
      </trkpt>
      <trkpt lat="47.79245" lon="6.62433">
        <ele>434.3</ele>
        <time>2023-04-10T16:16:53Z</time>
      </trkpt>
      <trkpt lat="47.79251" lon="6.62444">
        <ele>434.4</ele>
        <time>2023-04-10T16:17:01Z</time>
      </trkpt>
      <trkpt lat="47.79257" lon="6.62455">
        <ele>434.5</ele>
        <time>2023-04-10T16:17:10Z</time>
      </trkpt>
      <trkpt lat="47.79265" lon="6.62464">
        <ele>434.6</ele>
        <time>2023-04-10T16:17:19Z</time>
      </trkpt>
      <trkpt lat="47.79273" lon="6.62471">
        <ele>434.8</ele>
        <time>2023-04-10T16:17:27Z</time>
      </trkpt>
      <trkpt lat="47.79283" lon="6.62473">
        <ele>435.2</ele>
        <time>2023-04-10T16:17:34Z</time>
      </trkpt>
      <trkpt lat="47.79292" lon="6.62473">
        <ele>435.8</ele>
        <time>2023-04-10T16:17:41Z</time>
      </trkpt>
      <trkpt lat="47.79301" lon="6.6247">
        <ele>436.6</ele>
        <time>2023-04-10T16:17:49Z</time>
      </trkpt>
      <trkpt lat="47.79311" lon="6.62465">
        <ele>437.6</ele>
        <time>2023-04-10T16:17:57Z</time>
      </trkpt>
      <trkpt lat="47.7932" lon="6.6246">
        <ele>438.5</ele>
        <time>2023-04-10T16:18:05Z</time>
      </trkpt>
      <trkpt lat="47.79329" lon="6.62454">
        <ele>439.2</ele>
        <time>2023-04-10T16:18:12Z</time>
      </trkpt>
      <trkpt lat="47.79338" lon="6.6245">
        <ele>439.9</ele>
        <time>2023-04-10T16:18:19Z</time>
      </trkpt>
      <trkpt lat="47.79347" lon="6.62448">
        <ele>440.6</ele>
        <time>2023-04-10T16:18:26Z</time>
      </trkpt>
      <trkpt lat="47.79356" lon="6.62447">
        <ele>441.6</ele>
        <time>2023-04-10T16:18:34Z</time>
      </trkpt>
      <trkpt lat="47.79365" lon="6.62445">
        <ele>442.9</ele>
        <time>2023-04-10T16:18:43Z</time>
      </trkpt>
      <trkpt lat="47.79375" lon="6.62444">
        <ele>445</ele>
        <time>2023-04-10T16:18:55Z</time>
      </trkpt>
      <trkpt lat="47.79384" lon="6.62444">
        <ele>447.5</ele>
        <time>2023-04-10T16:19:04Z</time>
      </trkpt>
      <trkpt lat="47.79394" lon="6.62444">
        <ele>450.4</ele>
        <time>2023-04-10T16:19:14Z</time>
      </trkpt>
      <trkpt lat="47.79403" lon="6.62447">
        <ele>453.3</ele>
        <time>2023-04-10T16:19:26Z</time>
      </trkpt>
      <trkpt lat="47.79412" lon="6.62451">
        <ele>455.8</ele>
        <time>2023-04-10T16:19:36Z</time>
      </trkpt>
      <trkpt lat="47.7942" lon="6.62455">
        <ele>457.8</ele>
        <time>2023-04-10T16:19:45Z</time>
      </trkpt>
      <trkpt lat="47.79429" lon="6.62458">
        <ele>459.1</ele>
        <time>2023-04-10T16:19:53Z</time>
      </trkpt>
      <trkpt lat="47.79439" lon="6.62461">
        <ele>459.9</ele>
        <time>2023-04-10T16:20:01Z</time>
      </trkpt>
      <trkpt lat="47.79449" lon="6.62467">
        <ele>460.3</ele>
        <time>2023-04-10T16:20:08Z</time>
      </trkpt>
      <trkpt lat="47.79459" lon="6.62471">
        <ele>460.7</ele>
        <time>2023-04-10T16:20:14Z</time>
      </trkpt>
      <trkpt lat="47.79467" lon="6.62474">
        <ele>460.9</ele>
        <time>2023-04-10T16:20:20Z</time>
      </trkpt>
      <trkpt lat="47.79477" lon="6.62474">
        <ele>461.1</ele>
        <time>2023-04-10T16:20:29Z</time>
      </trkpt>
      <trkpt lat="47.79486" lon="6.62468">
        <ele>461.1</ele>
        <time>2023-04-10T16:20:37Z</time>
      </trkpt>
      <trkpt lat="47.79496" lon="6.62468">
        <ele>461.2</ele>
        <time>2023-04-10T16:20:47Z</time>
      </trkpt>
      <trkpt lat="47.79506" lon="6.62466">
        <ele>461.2</ele>
        <time>2023-04-10T16:20:56Z</time>
      </trkpt>
      <trkpt lat="47.79515" lon="6.62463">
        <ele>461.1</ele>
        <time>2023-04-10T16:21:05Z</time>
      </trkpt>
      <trkpt lat="47.79524" lon="6.62463">
        <ele>461.2</ele>
        <time>2023-04-10T16:21:12Z</time>
      </trkpt>
      <trkpt lat="47.79534" lon="6.62462">
        <ele>461.5</ele>
        <time>2023-04-10T16:21:19Z</time>
      </trkpt>
      <trkpt lat="47.79543" lon="6.62467">
        <ele>462.2</ele>
        <time>2023-04-10T16:21:26Z</time>
      </trkpt>
      <trkpt lat="47.7955" lon="6.62471">
        <ele>463</ele>
        <time>2023-04-10T16:21:33Z</time>
      </trkpt>
      <trkpt lat="47.7955" lon="6.62471">
        <ele>463.1</ele>
        <time>2023-04-10T16:21:34Z</time>
      </trkpt>
      <trkpt lat="47.79559" lon="6.62475">
        <ele>464.5</ele>
        <time>2023-04-10T16:21:39Z</time>
      </trkpt>
      <trkpt lat="47.79568" lon="6.6248">
        <ele>466.2</ele>
        <time>2023-04-10T16:21:45Z</time>
      </trkpt>
      <trkpt lat="47.79577" lon="6.62486">
        <ele>467.6</ele>
        <time>2023-04-10T16:21:52Z</time>
      </trkpt>
      <trkpt lat="47.79587" lon="6.62491">
        <ele>468.4</ele>
        <time>2023-04-10T16:22:00Z</time>
      </trkpt>
      <trkpt lat="47.79597" lon="6.62495">
        <ele>468.7</ele>
        <time>2023-04-10T16:22:06Z</time>
      </trkpt>
      <trkpt lat="47.79606" lon="6.62494">
        <ele>468.9</ele>
        <time>2023-04-10T16:22:13Z</time>
      </trkpt>
      <trkpt lat="47.79615" lon="6.62495">
        <ele>468.9</ele>
        <time>2023-04-10T16:22:19Z</time>
      </trkpt>
      <trkpt lat="47.79625" lon="6.62495">
        <ele>469</ele>
        <time>2023-04-10T16:22:27Z</time>
      </trkpt>
      <trkpt lat="47.79634" lon="6.6249">
        <ele>469</ele>
        <time>2023-04-10T16:22:35Z</time>
      </trkpt>
      <trkpt lat="47.79644" lon="6.62493">
        <ele>468.7</ele>
        <time>2023-04-10T16:22:43Z</time>
      </trkpt>
      <trkpt lat="47.79653" lon="6.62493">
        <ele>468.3</ele>
        <time>2023-04-10T16:22:47Z</time>
      </trkpt>
      <trkpt lat="47.79662" lon="6.62494">
        <ele>468.1</ele>
        <time>2023-04-10T16:22:52Z</time>
      </trkpt>
      <trkpt lat="47.79672" lon="6.62493">
        <ele>468</ele>
        <time>2023-04-10T16:22:59Z</time>
      </trkpt>
      <trkpt lat="47.79682" lon="6.62492">
        <ele>468.3</ele>
        <time>2023-04-10T16:23:06Z</time>
      </trkpt>
      <trkpt lat="47.79691" lon="6.6249">
        <ele>468.7</ele>
        <time>2023-04-10T16:23:12Z</time>
      </trkpt>
      <trkpt lat="47.797" lon="6.62487">
        <ele>469.3</ele>
        <time>2023-04-10T16:23:18Z</time>
      </trkpt>
      <trkpt lat="47.79708" lon="6.62485">
        <ele>470</ele>
        <time>2023-04-10T16:23:24Z</time>
      </trkpt>
      <trkpt lat="47.79718" lon="6.62482">
        <ele>470.9</ele>
        <time>2023-04-10T16:23:30Z</time>
      </trkpt>
      <trkpt lat="47.79728" lon="6.6248">
        <ele>471.9</ele>
        <time>2023-04-10T16:23:37Z</time>
      </trkpt>
      <trkpt lat="47.79737" lon="6.62485">
        <ele>472.6</ele>
        <time>2023-04-10T16:23:44Z</time>
      </trkpt>
      <trkpt lat="47.79746" lon="6.62494">
        <ele>473</ele>
        <time>2023-04-10T16:23:51Z</time>
      </trkpt>
      <trkpt lat="47.79755" lon="6.62503">
        <ele>473.2</ele>
        <time>2023-04-10T16:23:57Z</time>
      </trkpt>
      <trkpt lat="47.79763" lon="6.62511">
        <ele>473.4</ele>
        <time>2023-04-10T16:24:02Z</time>
      </trkpt>
      <trkpt lat="47.79771" lon="6.62515">
        <ele>473.8</ele>
        <time>2023-04-10T16:24:11Z</time>
      </trkpt>
      <trkpt lat="47.79777" lon="6.62526">
        <ele>474.3</ele>
        <time>2023-04-10T16:24:21Z</time>
      </trkpt>
      <trkpt lat="47.79782" lon="6.62539">
        <ele>474.6</ele>
        <time>2023-04-10T16:24:28Z</time>
      </trkpt>
      <trkpt lat="47.79786" lon="6.62552">
        <ele>474.7</ele>
        <time>2023-04-10T16:24:35Z</time>
      </trkpt>
      <trkpt lat="47.79792" lon="6.62564">
        <ele>474.6</ele>
        <time>2023-04-10T16:24:41Z</time>
      </trkpt>
      <trkpt lat="47.79799" lon="6.62573">
        <ele>474.6</ele>
        <time>2023-04-10T16:24:46Z</time>
      </trkpt>
      <trkpt lat="47.79807" lon="6.62581">
        <ele>474.6</ele>
        <time>2023-04-10T16:24:51Z</time>
      </trkpt>
      <trkpt lat="47.79815" lon="6.6259">
        <ele>474.5</ele>
        <time>2023-04-10T16:24:56Z</time>
      </trkpt>
      <trkpt lat="47.79823" lon="6.62598">
        <ele>474.4</ele>
        <time>2023-04-10T16:25:03Z</time>
      </trkpt>
      <trkpt lat="47.79832" lon="6.62605">
        <ele>474.3</ele>
        <time>2023-04-10T16:25:11Z</time>
      </trkpt>
      <trkpt lat="47.7984" lon="6.62612">
        <ele>474.2</ele>
        <time>2023-04-10T16:25:16Z</time>
      </trkpt>
      <trkpt lat="47.79849" lon="6.62619">
        <ele>474.1</ele>
        <time>2023-04-10T16:25:22Z</time>
      </trkpt>
      <trkpt lat="47.79858" lon="6.62626">
        <ele>473.9</ele>
        <time>2023-04-10T16:25:29Z</time>
      </trkpt>
      <trkpt lat="47.79866" lon="6.62631">
        <ele>473.8</ele>
        <time>2023-04-10T16:25:35Z</time>
      </trkpt>
      <trkpt lat="47.79875" lon="6.62636">
        <ele>473.7</ele>
        <time>2023-04-10T16:25:41Z</time>
      </trkpt>
      <trkpt lat="47.79885" lon="6.6264">
        <ele>473.6</ele>
        <time>2023-04-10T16:25:50Z</time>
      </trkpt>
      <trkpt lat="47.79895" lon="6.62645">
        <ele>473.6</ele>
        <time>2023-04-10T16:25:56Z</time>
      </trkpt>
      <trkpt lat="47.79904" lon="6.62648">
        <ele>473.8</ele>
        <time>2023-04-10T16:26:02Z</time>
      </trkpt>
      <trkpt lat="47.79914" lon="6.6265">
        <ele>474.2</ele>
        <time>2023-04-10T16:26:09Z</time>
      </trkpt>
      <trkpt lat="47.79924" lon="6.6265">
        <ele>474.8</ele>
        <time>2023-04-10T16:26:16Z</time>
      </trkpt>
      <trkpt lat="47.79934" lon="6.6265">
        <ele>475.3</ele>
        <time>2023-04-10T16:26:23Z</time>
      </trkpt>
      <trkpt lat="47.79943" lon="6.62649">
        <ele>475.5</ele>
        <time>2023-04-10T16:26:30Z</time>
      </trkpt>
      <trkpt lat="47.79953" lon="6.62649">
        <ele>475.5</ele>
        <time>2023-04-10T16:26:37Z</time>
      </trkpt>
      <trkpt lat="47.79963" lon="6.6265">
        <ele>475.3</ele>
        <time>2023-04-10T16:26:44Z</time>
      </trkpt>
      <trkpt lat="47.79973" lon="6.62653">
        <ele>475</ele>
        <time>2023-04-10T16:26:51Z</time>
      </trkpt>
      <trkpt lat="47.79983" lon="6.62653">
        <ele>474.5</ele>
        <time>2023-04-10T16:26:59Z</time>
      </trkpt>
      <trkpt lat="47.79993" lon="6.62655">
        <ele>473.8</ele>
        <time>2023-04-10T16:27:06Z</time>
      </trkpt>
      <trkpt lat="47.80003" lon="6.62658">
        <ele>473</ele>
        <time>2023-04-10T16:27:13Z</time>
      </trkpt>
      <trkpt lat="47.80013" lon="6.62664">
        <ele>472.1</ele>
        <time>2023-04-10T16:27:18Z</time>
      </trkpt>
      <trkpt lat="47.80022" lon="6.62667">
        <ele>471.4</ele>
        <time>2023-04-10T16:27:23Z</time>
      </trkpt>
      <trkpt lat="47.80031" lon="6.6267">
        <ele>470.8</ele>
        <time>2023-04-10T16:27:28Z</time>
      </trkpt>
      <trkpt lat="47.80038" lon="6.62671">
        <ele>470.4</ele>
        <time>2023-04-10T16:27:35Z</time>
      </trkpt>
      <trkpt lat="47.80039" lon="6.62671">
        <ele>470.4</ele>
        <time>2023-04-10T16:27:36Z</time>
      </trkpt>
      <trkpt lat="47.80048" lon="6.62668">
        <ele>470.2</ele>
        <time>2023-04-10T16:27:43Z</time>
      </trkpt>
      <trkpt lat="47.80058" lon="6.6267">
        <ele>470.1</ele>
        <time>2023-04-10T16:27:52Z</time>
      </trkpt>
      <trkpt lat="47.80065" lon="6.62678">
        <ele>470.2</ele>
        <time>2023-04-10T16:27:57Z</time>
      </trkpt>
      <trkpt lat="47.80071" lon="6.6269">
        <ele>470.5</ele>
        <time>2023-04-10T16:28:04Z</time>
      </trkpt>
      <trkpt lat="47.80075" lon="6.62704">
        <ele>470.7</ele>
        <time>2023-04-10T16:28:11Z</time>
      </trkpt>
      <trkpt lat="47.80077" lon="6.62719">
        <ele>471</ele>
        <time>2023-04-10T16:28:19Z</time>
      </trkpt>
      <trkpt lat="47.80081" lon="6.62732">
        <ele>471.2</ele>
        <time>2023-04-10T16:28:27Z</time>
      </trkpt>
      <trkpt lat="47.80085" lon="6.62745">
        <ele>471.4</ele>
        <time>2023-04-10T16:28:35Z</time>
      </trkpt>
      <trkpt lat="47.8009" lon="6.62757">
        <ele>471.6</ele>
        <time>2023-04-10T16:28:43Z</time>
      </trkpt>
      <trkpt lat="47.80093" lon="6.6277">
        <ele>471.7</ele>
        <time>2023-04-10T16:28:55Z</time>
      </trkpt>
      <trkpt lat="47.80097" lon="6.62784">
        <ele>471.9</ele>
        <time>2023-04-10T16:29:04Z</time>
      </trkpt>
      <trkpt lat="47.80102" lon="6.62795">
        <ele>472.2</ele>
        <time>2023-04-10T16:29:11Z</time>
      </trkpt>
      <trkpt lat="47.80108" lon="6.62807">
        <ele>472.7</ele>
        <time>2023-04-10T16:29:17Z</time>
      </trkpt>
      <trkpt lat="47.80113" lon="6.62819">
        <ele>473.5</ele>
        <time>2023-04-10T16:29:25Z</time>
      </trkpt>
      <trkpt lat="47.80121" lon="6.62826">
        <ele>474.2</ele>
        <time>2023-04-10T16:29:34Z</time>
      </trkpt>
      <trkpt lat="47.80127" lon="6.62837">
        <ele>474.8</ele>
        <time>2023-04-10T16:29:45Z</time>
      </trkpt>
      <trkpt lat="47.80131" lon="6.6285">
        <ele>475.1</ele>
        <time>2023-04-10T16:29:57Z</time>
      </trkpt>
      <trkpt lat="47.80135" lon="6.62863">
        <ele>475.2</ele>
        <time>2023-04-10T16:30:04Z</time>
      </trkpt>
      <trkpt lat="47.80141" lon="6.62874">
        <ele>475.3</ele>
        <time>2023-04-10T16:30:11Z</time>
      </trkpt>
      <trkpt lat="47.80147" lon="6.62885">
        <ele>475.3</ele>
        <time>2023-04-10T16:30:18Z</time>
      </trkpt>
      <trkpt lat="47.80152" lon="6.62896">
        <ele>475.3</ele>
        <time>2023-04-10T16:30:24Z</time>
      </trkpt>
      <trkpt lat="47.80157" lon="6.62908">
        <ele>475.1</ele>
        <time>2023-04-10T16:30:30Z</time>
      </trkpt>
      <trkpt lat="47.80162" lon="6.6292">
        <ele>474.7</ele>
        <time>2023-04-10T16:30:38Z</time>
      </trkpt>
      <trkpt lat="47.80166" lon="6.62933">
        <ele>474.4</ele>
        <time>2023-04-10T16:30:46Z</time>
      </trkpt>
      <trkpt lat="47.80171" lon="6.62945">
        <ele>474.1</ele>
        <time>2023-04-10T16:30:53Z</time>
      </trkpt>
      <trkpt lat="47.80175" lon="6.62959">
        <ele>473.9</ele>
        <time>2023-04-10T16:31:00Z</time>
      </trkpt>
      <trkpt lat="47.8018" lon="6.62972">
        <ele>473.9</ele>
        <time>2023-04-10T16:31:07Z</time>
      </trkpt>
      <trkpt lat="47.80187" lon="6.62982">
        <ele>473.9</ele>
        <time>2023-04-10T16:31:14Z</time>
      </trkpt>
      <trkpt lat="47.80195" lon="6.62992">
        <ele>474.1</ele>
        <time>2023-04-10T16:31:20Z</time>
      </trkpt>
      <trkpt lat="47.80203" lon="6.62999">
        <ele>474.4</ele>
        <time>2023-04-10T16:31:25Z</time>
      </trkpt>
      <trkpt lat="47.80212" lon="6.63005">
        <ele>474.7</ele>
        <time>2023-04-10T16:31:31Z</time>
      </trkpt>
      <trkpt lat="47.80221" lon="6.63008">
        <ele>475</ele>
        <time>2023-04-10T16:31:37Z</time>
      </trkpt>
      <trkpt lat="47.80231" lon="6.63011">
        <ele>475.2</ele>
        <time>2023-04-10T16:31:43Z</time>
      </trkpt>
      <trkpt lat="47.8024" lon="6.63012">
        <ele>475.4</ele>
        <time>2023-04-10T16:31:49Z</time>
      </trkpt>
      <trkpt lat="47.80251" lon="6.63011">
        <ele>475.7</ele>
        <time>2023-04-10T16:31:56Z</time>
      </trkpt>
      <trkpt lat="47.80261" lon="6.63008">
        <ele>476.2</ele>
        <time>2023-04-10T16:32:03Z</time>
      </trkpt>
      <trkpt lat="47.80271" lon="6.63006">
        <ele>476.8</ele>
        <time>2023-04-10T16:32:10Z</time>
      </trkpt>
      <trkpt lat="47.8028" lon="6.63003">
        <ele>477.6</ele>
        <time>2023-04-10T16:32:16Z</time>
      </trkpt>
      <trkpt lat="47.80289" lon="6.63">
        <ele>478.3</ele>
        <time>2023-04-10T16:32:22Z</time>
      </trkpt>
      <trkpt lat="47.80299" lon="6.62997">
        <ele>478.7</ele>
        <time>2023-04-10T16:32:29Z</time>
      </trkpt>
      <trkpt lat="47.80309" lon="6.62992">
        <ele>478.5</ele>
        <time>2023-04-10T16:32:37Z</time>
      </trkpt>
      <trkpt lat="47.80318" lon="6.62987">
        <ele>478</ele>
        <time>2023-04-10T16:32:45Z</time>
      </trkpt>
      <trkpt lat="47.80326" lon="6.62979">
        <ele>477.4</ele>
        <time>2023-04-10T16:32:52Z</time>
      </trkpt>
      <trkpt lat="47.80335" lon="6.6297">
        <ele>476.9</ele>
        <time>2023-04-10T16:32:58Z</time>
      </trkpt>
      <trkpt lat="47.80344" lon="6.62967">
        <ele>476.4</ele>
        <time>2023-04-10T16:33:03Z</time>
      </trkpt>
      <trkpt lat="47.80353" lon="6.6297">
        <ele>475.7</ele>
        <time>2023-04-10T16:33:10Z</time>
      </trkpt>
      <trkpt lat="47.80362" lon="6.62975">
        <ele>475.3</ele>
        <time>2023-04-10T16:33:17Z</time>
      </trkpt>
      <trkpt lat="47.80373" lon="6.62975">
        <ele>474.4</ele>
        <time>2023-04-10T16:33:24Z</time>
      </trkpt>
      <trkpt lat="47.80383" lon="6.62974">
        <ele>473.6</ele>
        <time>2023-04-10T16:33:31Z</time>
      </trkpt>
      <trkpt lat="47.80393" lon="6.62973">
        <ele>472.9</ele>
        <time>2023-04-10T16:33:38Z</time>
      </trkpt>
      <trkpt lat="47.80403" lon="6.6297">
        <ele>472.5</ele>
        <time>2023-04-10T16:33:45Z</time>
      </trkpt>
      <trkpt lat="47.80412" lon="6.62962">
        <ele>472.3</ele>
        <time>2023-04-10T16:33:52Z</time>
      </trkpt>
      <trkpt lat="47.80419" lon="6.62952">
        <ele>472.2</ele>
        <time>2023-04-10T16:33:59Z</time>
      </trkpt>
      <trkpt lat="47.80425" lon="6.62941">
        <ele>472.2</ele>
        <time>2023-04-10T16:34:06Z</time>
      </trkpt>
      <trkpt lat="47.80432" lon="6.6293">
        <ele>472.3</ele>
        <time>2023-04-10T16:34:13Z</time>
      </trkpt>
      <trkpt lat="47.80438" lon="6.62919">
        <ele>472.4</ele>
        <time>2023-04-10T16:34:20Z</time>
      </trkpt>
      <trkpt lat="47.80447" lon="6.6291">
        <ele>472.7</ele>
        <time>2023-04-10T16:34:27Z</time>
      </trkpt>
      <trkpt lat="47.80455" lon="6.62905">
        <ele>473</ele>
        <time>2023-04-10T16:34:36Z</time>
      </trkpt>
      <trkpt lat="47.80465" lon="6.62907">
        <ele>473.6</ele>
        <time>2023-04-10T16:34:42Z</time>
      </trkpt>
      <trkpt lat="47.80473" lon="6.62918">
        <ele>474</ele>
        <time>2023-04-10T16:34:49Z</time>
      </trkpt>
      <trkpt lat="47.80479" lon="6.62929">
        <ele>474.3</ele>
        <time>2023-04-10T16:34:56Z</time>
      </trkpt>
      <trkpt lat="47.80485" lon="6.6294">
        <ele>474.6</ele>
        <time>2023-04-10T16:35:03Z</time>
      </trkpt>
      <trkpt lat="47.80491" lon="6.62952">
        <ele>475</ele>
        <time>2023-04-10T16:35:11Z</time>
      </trkpt>
      <trkpt lat="47.80498" lon="6.62961">
        <ele>475.3</ele>
        <time>2023-04-10T16:35:18Z</time>
      </trkpt>
      <trkpt lat="47.80504" lon="6.62973">
        <ele>475.7</ele>
        <time>2023-04-10T16:35:25Z</time>
      </trkpt>
      <trkpt lat="47.80511" lon="6.62983">
        <ele>476</ele>
        <time>2023-04-10T16:35:31Z</time>
      </trkpt>
      <trkpt lat="47.80517" lon="6.62994">
        <ele>476.2</ele>
        <time>2023-04-10T16:35:37Z</time>
      </trkpt>
      <trkpt lat="47.80523" lon="6.63006">
        <ele>476.3</ele>
        <time>2023-04-10T16:35:45Z</time>
      </trkpt>
      <trkpt lat="47.80527" lon="6.63018">
        <ele>476.3</ele>
        <time>2023-04-10T16:35:51Z</time>
      </trkpt>
      <trkpt lat="47.80532" lon="6.63029">
        <ele>476.4</ele>
        <time>2023-04-10T16:35:58Z</time>
      </trkpt>
      <trkpt lat="47.80537" lon="6.63041">
        <ele>476.5</ele>
        <time>2023-04-10T16:36:04Z</time>
      </trkpt>
      <trkpt lat="47.80542" lon="6.63054">
        <ele>476.5</ele>
        <time>2023-04-10T16:36:11Z</time>
      </trkpt>
      <trkpt lat="47.80547" lon="6.63066">
        <ele>476.6</ele>
        <time>2023-04-10T16:36:18Z</time>
      </trkpt>
      <trkpt lat="47.80552" lon="6.63078">
        <ele>476.8</ele>
        <time>2023-04-10T16:36:25Z</time>
      </trkpt>
      <trkpt lat="47.80557" lon="6.6309">
        <ele>477</ele>
        <time>2023-04-10T16:36:32Z</time>
      </trkpt>
      <trkpt lat="47.80563" lon="6.63101">
        <ele>477.2</ele>
        <time>2023-04-10T16:36:39Z</time>
      </trkpt>
      <trkpt lat="47.80568" lon="6.63113">
        <ele>477.5</ele>
        <time>2023-04-10T16:36:46Z</time>
      </trkpt>
      <trkpt lat="47.80572" lon="6.63126">
        <ele>477.9</ele>
        <time>2023-04-10T16:36:54Z</time>
      </trkpt>
      <trkpt lat="47.80577" lon="6.63139">
        <ele>478.3</ele>
        <time>2023-04-10T16:37:02Z</time>
      </trkpt>
      <trkpt lat="47.80578" lon="6.63153">
        <ele>478.6</ele>
        <time>2023-04-10T16:37:10Z</time>
      </trkpt>
      <trkpt lat="47.80575" lon="6.63162">
        <ele>478.9</ele>
        <time>2023-04-10T16:37:17Z</time>
      </trkpt>
      <trkpt lat="47.80575" lon="6.63161">
        <ele>478.9</ele>
        <time>2023-04-10T16:37:18Z</time>
      </trkpt>
      <trkpt lat="47.80574" lon="6.63161">
        <ele>478.9</ele>
        <time>2023-04-10T16:37:23Z</time>
      </trkpt>
      <trkpt lat="47.80574" lon="6.63161">
        <ele>478.9</ele>
        <time>2023-04-10T16:37:33Z</time>
      </trkpt>
      <trkpt lat="47.80575" lon="6.63163">
        <ele>479</ele>
        <time>2023-04-10T16:37:38Z</time>
      </trkpt>
      <trkpt lat="47.80576" lon="6.63162">
        <ele>479</ele>
        <time>2023-04-10T16:37:42Z</time>
      </trkpt>
      <trkpt lat="47.80576" lon="6.63162">
        <ele>479</ele>
        <time>2023-04-10T16:37:45Z</time>
      </trkpt>
      <trkpt lat="47.80576" lon="6.63162">
        <ele>479</ele>
        <time>2023-04-10T16:37:57Z</time>
      </trkpt>
      <trkpt lat="47.80576" lon="6.63164">
        <ele>479.1</ele>
        <time>2023-04-10T16:38:01Z</time>
      </trkpt>
      <trkpt lat="47.80576" lon="6.63163">
        <ele>479.1</ele>
        <time>2023-04-10T16:38:06Z</time>
      </trkpt>
      <trkpt lat="47.80579" lon="6.6315">
        <ele>479.4</ele>
        <time>2023-04-10T16:38:16Z</time>
      </trkpt>
      <trkpt lat="47.80581" lon="6.63148">
        <ele>479.5</ele>
        <time>2023-04-10T16:38:20Z</time>
      </trkpt>
      <trkpt lat="47.80581" lon="6.63147">
        <ele>479.5</ele>
        <time>2023-04-10T16:38:23Z</time>
      </trkpt>
      <trkpt lat="47.80579" lon="6.63142">
        <ele>479.6</ele>
        <time>2023-04-10T16:38:28Z</time>
      </trkpt>
      <trkpt lat="47.80579" lon="6.63142">
        <ele>479.6</ele>
        <time>2023-04-10T16:38:42Z</time>
      </trkpt>
      <trkpt lat="47.80579" lon="6.63142">
        <ele>479.6</ele>
        <time>2023-04-10T16:38:43Z</time>
      </trkpt>
      <trkpt lat="47.8058" lon="6.63143">
        <ele>479.6</ele>
        <time>2023-04-10T16:38:48Z</time>
      </trkpt>
      <trkpt lat="47.8058" lon="6.63143">
        <ele>479.6</ele>
        <time>2023-04-10T16:38:50Z</time>
      </trkpt>
      <trkpt lat="47.8058" lon="6.63143">
        <ele>479.6</ele>
        <time>2023-04-10T16:39:53Z</time>
      </trkpt>
      <trkpt lat="47.8058" lon="6.63143">
        <ele>479.6</ele>
        <time>2023-04-10T16:39:54Z</time>
      </trkpt>
      <trkpt lat="47.8058" lon="6.63143">
        <ele>479.6</ele>
        <time>2023-04-10T16:39:57Z</time>
      </trkpt>
      <trkpt lat="47.80578" lon="6.63153">
        <ele>479.8</ele>
        <time>2023-04-10T16:40:09Z</time>
      </trkpt>
      <trkpt lat="47.80578" lon="6.63154">
        <ele>479.8</ele>
        <time>2023-04-10T16:41:07Z</time>
      </trkpt>
      <trkpt lat="47.80588" lon="6.63154">
        <ele>480.1</ele>
        <time>2023-04-10T16:41:17Z</time>
      </trkpt>
      <trkpt lat="47.80593" lon="6.63155">
        <ele>480.2</ele>
        <time>2023-04-10T16:41:24Z</time>
      </trkpt>
      <trkpt lat="47.80593" lon="6.63155">
        <ele>480.2</ele>
        <time>2023-04-10T16:41:29Z</time>
      </trkpt>
      <trkpt lat="47.80593" lon="6.63156">
        <ele>480.2</ele>
        <time>2023-04-10T16:41:32Z</time>
      </trkpt>
      <trkpt lat="47.80593" lon="6.63156">
        <ele>480.2</ele>
        <time>2023-04-10T16:42:04Z</time>
      </trkpt>
      <trkpt lat="47.80602" lon="6.6315">
        <ele>480.4</ele>
        <time>2023-04-10T16:42:13Z</time>
      </trkpt>
      <trkpt lat="47.8061" lon="6.63142">
        <ele>480.6</ele>
        <time>2023-04-10T16:42:20Z</time>
      </trkpt>
      <trkpt lat="47.80617" lon="6.63132">
        <ele>480.8</ele>
        <time>2023-04-10T16:42:28Z</time>
      </trkpt>
      <trkpt lat="47.80623" lon="6.63121">
        <ele>481</ele>
        <time>2023-04-10T16:42:36Z</time>
      </trkpt>
      <trkpt lat="47.80628" lon="6.6311">
        <ele>481.2</ele>
        <time>2023-04-10T16:42:43Z</time>
      </trkpt>
      <trkpt lat="47.80633" lon="6.63099">
        <ele>481.5</ele>
        <time>2023-04-10T16:42:50Z</time>
      </trkpt>
      <trkpt lat="47.80638" lon="6.63087">
        <ele>481.8</ele>
        <time>2023-04-10T16:42:57Z</time>
      </trkpt>
      <trkpt lat="47.80645" lon="6.63076">
        <ele>482.3</ele>
        <time>2023-04-10T16:43:05Z</time>
      </trkpt>
      <trkpt lat="47.80652" lon="6.63064">
        <ele>482.8</ele>
        <time>2023-04-10T16:43:13Z</time>
      </trkpt>
      <trkpt lat="47.80657" lon="6.63052">
        <ele>483.2</ele>
        <time>2023-04-10T16:43:20Z</time>
      </trkpt>
      <trkpt lat="47.80662" lon="6.63039">
        <ele>483.7</ele>
        <time>2023-04-10T16:43:28Z</time>
      </trkpt>
      <trkpt lat="47.80667" lon="6.63027">
        <ele>484.1</ele>
        <time>2023-04-10T16:43:35Z</time>
      </trkpt>
      <trkpt lat="47.80672" lon="6.63016">
        <ele>484.4</ele>
        <time>2023-04-10T16:43:42Z</time>
      </trkpt>
      <trkpt lat="47.80677" lon="6.63004">
        <ele>484.8</ele>
        <time>2023-04-10T16:43:49Z</time>
      </trkpt>
      <trkpt lat="47.80683" lon="6.62993">
        <ele>485.1</ele>
        <time>2023-04-10T16:43:56Z</time>
      </trkpt>
      <trkpt lat="47.80688" lon="6.6298">
        <ele>485.4</ele>
        <time>2023-04-10T16:44:03Z</time>
      </trkpt>
      <trkpt lat="47.80692" lon="6.62968">
        <ele>485.7</ele>
        <time>2023-04-10T16:44:10Z</time>
      </trkpt>
      <trkpt lat="47.80697" lon="6.62956">
        <ele>486</ele>
        <time>2023-04-10T16:44:17Z</time>
      </trkpt>
      <trkpt lat="47.80703" lon="6.62945">
        <ele>486.2</ele>
        <time>2023-04-10T16:44:23Z</time>
      </trkpt>
      <trkpt lat="47.80709" lon="6.62935">
        <ele>486.2</ele>
        <time>2023-04-10T16:44:31Z</time>
      </trkpt>
      <trkpt lat="47.80716" lon="6.62924">
        <ele>486.1</ele>
        <time>2023-04-10T16:44:38Z</time>
      </trkpt>
      <trkpt lat="47.80722" lon="6.62913">
        <ele>485.9</ele>
        <time>2023-04-10T16:44:45Z</time>
      </trkpt>
      <trkpt lat="47.80728" lon="6.62902">
        <ele>485.7</ele>
        <time>2023-04-10T16:44:52Z</time>
      </trkpt>
      <trkpt lat="47.80734" lon="6.62891">
        <ele>485.6</ele>
        <time>2023-04-10T16:45:01Z</time>
      </trkpt>
      <trkpt lat="47.80741" lon="6.6288">
        <ele>485.5</ele>
        <time>2023-04-10T16:45:09Z</time>
      </trkpt>
      <trkpt lat="47.80748" lon="6.62869">
        <ele>485.4</ele>
        <time>2023-04-10T16:45:16Z</time>
      </trkpt>
      <trkpt lat="47.80755" lon="6.62861">
        <ele>485.3</ele>
        <time>2023-04-10T16:45:22Z</time>
      </trkpt>
      <trkpt lat="47.80762" lon="6.62851">
        <ele>485.2</ele>
        <time>2023-04-10T16:45:29Z</time>
      </trkpt>
      <trkpt lat="47.80771" lon="6.62846">
        <ele>485.2</ele>
        <time>2023-04-10T16:45:36Z</time>
      </trkpt>
      <trkpt lat="47.8078" lon="6.62842">
        <ele>485.1</ele>
        <time>2023-04-10T16:45:43Z</time>
      </trkpt>
      <trkpt lat="47.8079" lon="6.62841">
        <ele>485.1</ele>
        <time>2023-04-10T16:45:50Z</time>
      </trkpt>
      <trkpt lat="47.80799" lon="6.62837">
        <ele>485</ele>
        <time>2023-04-10T16:45:58Z</time>
      </trkpt>
      <trkpt lat="47.80808" lon="6.62831">
        <ele>484.9</ele>
        <time>2023-04-10T16:46:06Z</time>
      </trkpt>
      <trkpt lat="47.80816" lon="6.62824">
        <ele>484.7</ele>
        <time>2023-04-10T16:46:14Z</time>
      </trkpt>
      <trkpt lat="47.80824" lon="6.62816">
        <ele>484.5</ele>
        <time>2023-04-10T16:46:22Z</time>
      </trkpt>
      <trkpt lat="47.80832" lon="6.62806">
        <ele>484.3</ele>
        <time>2023-04-10T16:46:30Z</time>
      </trkpt>
      <trkpt lat="47.80839" lon="6.62796">
        <ele>484.2</ele>
        <time>2023-04-10T16:46:37Z</time>
      </trkpt>
      <trkpt lat="47.80846" lon="6.62787">
        <ele>484</ele>
        <time>2023-04-10T16:46:44Z</time>
      </trkpt>
      <trkpt lat="47.80854" lon="6.6278">
        <ele>483.9</ele>
        <time>2023-04-10T16:46:51Z</time>
      </trkpt>
      <trkpt lat="47.80863" lon="6.62774">
        <ele>483.8</ele>
        <time>2023-04-10T16:46:59Z</time>
      </trkpt>
      <trkpt lat="47.80872" lon="6.6277">
        <ele>483.7</ele>
        <time>2023-04-10T16:47:06Z</time>
      </trkpt>
      <trkpt lat="47.80883" lon="6.62773">
        <ele>483.6</ele>
        <time>2023-04-10T16:47:13Z</time>
      </trkpt>
      <trkpt lat="47.80891" lon="6.62777">
        <ele>483.7</ele>
        <time>2023-04-10T16:47:19Z</time>
      </trkpt>
      <trkpt lat="47.809" lon="6.62781">
        <ele>483.8</ele>
        <time>2023-04-10T16:47:26Z</time>
      </trkpt>
      <trkpt lat="47.8091" lon="6.62783">
        <ele>483.9</ele>
        <time>2023-04-10T16:47:33Z</time>
      </trkpt>
      <trkpt lat="47.8092" lon="6.62782">
        <ele>484.1</ele>
        <time>2023-04-10T16:47:41Z</time>
      </trkpt>
      <trkpt lat="47.80929" lon="6.62778">
        <ele>484.2</ele>
        <time>2023-04-10T16:47:48Z</time>
      </trkpt>
      <trkpt lat="47.80938" lon="6.62772">
        <ele>484.3</ele>
        <time>2023-04-10T16:47:56Z</time>
      </trkpt>
      <trkpt lat="47.80947" lon="6.62766">
        <ele>484.3</ele>
        <time>2023-04-10T16:48:04Z</time>
      </trkpt>
      <trkpt lat="47.80956" lon="6.62762">
        <ele>484.4</ele>
        <time>2023-04-10T16:48:11Z</time>
      </trkpt>
      <trkpt lat="47.80963" lon="6.62753">
        <ele>484.4</ele>
        <time>2023-04-10T16:48:19Z</time>
      </trkpt>
      <trkpt lat="47.80966" lon="6.62739">
        <ele>484.5</ele>
        <time>2023-04-10T16:48:28Z</time>
      </trkpt>
      <trkpt lat="47.80966" lon="6.62724">
        <ele>484.5</ele>
        <time>2023-04-10T16:48:36Z</time>
      </trkpt>
      <trkpt lat="47.80966" lon="6.6271">
        <ele>484.6</ele>
        <time>2023-04-10T16:48:43Z</time>
      </trkpt>
      <trkpt lat="47.80966" lon="6.62696">
        <ele>484.8</ele>
        <time>2023-04-10T16:48:50Z</time>
      </trkpt>
      <trkpt lat="47.80968" lon="6.62681">
        <ele>485</ele>
        <time>2023-04-10T16:48:57Z</time>
      </trkpt>
      <trkpt lat="47.80972" lon="6.6267">
        <ele>485.1</ele>
        <time>2023-04-10T16:49:03Z</time>
      </trkpt>
      <trkpt lat="47.80979" lon="6.62658">
        <ele>485.3</ele>
        <time>2023-04-10T16:49:10Z</time>
      </trkpt>
      <trkpt lat="47.80987" lon="6.62649">
        <ele>485.4</ele>
        <time>2023-04-10T16:49:17Z</time>
      </trkpt>
      <trkpt lat="47.80997" lon="6.62643">
        <ele>485.6</ele>
        <time>2023-04-10T16:49:24Z</time>
      </trkpt>
      <trkpt lat="47.81006" lon="6.62638">
        <ele>485.7</ele>
        <time>2023-04-10T16:49:31Z</time>
      </trkpt>
      <trkpt lat="47.81015" lon="6.62637">
        <ele>485.8</ele>
        <time>2023-04-10T16:49:38Z</time>
      </trkpt>
      <trkpt lat="47.81025" lon="6.62642">
        <ele>486</ele>
        <time>2023-04-10T16:49:46Z</time>
      </trkpt>
      <trkpt lat="47.81034" lon="6.62649">
        <ele>486.7</ele>
        <time>2023-04-10T16:49:54Z</time>
      </trkpt>
      <trkpt lat="47.81041" lon="6.62658">
        <ele>487.5</ele>
        <time>2023-04-10T16:50:02Z</time>
      </trkpt>
      <trkpt lat="47.81049" lon="6.62666">
        <ele>488.2</ele>
        <time>2023-04-10T16:50:09Z</time>
      </trkpt>
      <trkpt lat="47.81059" lon="6.62666">
        <ele>488.9</ele>
        <time>2023-04-10T16:50:17Z</time>
      </trkpt>
      <trkpt lat="47.81069" lon="6.62664">
        <ele>489.7</ele>
        <time>2023-04-10T16:50:25Z</time>
      </trkpt>
      <trkpt lat="47.81078" lon="6.6266">
        <ele>490.5</ele>
        <time>2023-04-10T16:50:33Z</time>
      </trkpt>
      <trkpt lat="47.81086" lon="6.62652">
        <ele>491.3</ele>
        <time>2023-04-10T16:50:41Z</time>
      </trkpt>
      <trkpt lat="47.81095" lon="6.62646">
        <ele>492.1</ele>
        <time>2023-04-10T16:50:48Z</time>
      </trkpt>
      <trkpt lat="47.81104" lon="6.62643">
        <ele>492.9</ele>
        <time>2023-04-10T16:50:56Z</time>
      </trkpt>
      <trkpt lat="47.81114" lon="6.6264">
        <ele>493.6</ele>
        <time>2023-04-10T16:51:02Z</time>
      </trkpt>
      <trkpt lat="47.81124" lon="6.62641">
        <ele>494.2</ele>
        <time>2023-04-10T16:51:09Z</time>
      </trkpt>
      <trkpt lat="47.81134" lon="6.62641">
        <ele>494.7</ele>
        <time>2023-04-10T16:51:16Z</time>
      </trkpt>
      <trkpt lat="47.81143" lon="6.62643">
        <ele>495.1</ele>
        <time>2023-04-10T16:51:23Z</time>
      </trkpt>
      <trkpt lat="47.81153" lon="6.62646">
        <ele>495.3</ele>
        <time>2023-04-10T16:51:31Z</time>
      </trkpt>
      <trkpt lat="47.81162" lon="6.62652">
        <ele>495.3</ele>
        <time>2023-04-10T16:51:38Z</time>
      </trkpt>
      <trkpt lat="47.81171" lon="6.62659">
        <ele>495.1</ele>
        <time>2023-04-10T16:51:45Z</time>
      </trkpt>
      <trkpt lat="47.8118" lon="6.62665">
        <ele>494.8</ele>
        <time>2023-04-10T16:51:52Z</time>
      </trkpt>
      <trkpt lat="47.8119" lon="6.62669">
        <ele>494.6</ele>
        <time>2023-04-10T16:51:58Z</time>
      </trkpt>
      <trkpt lat="47.81199" lon="6.62673">
        <ele>494.3</ele>
        <time>2023-04-10T16:52:05Z</time>
      </trkpt>
      <trkpt lat="47.81208" lon="6.62676">
        <ele>494.2</ele>
        <time>2023-04-10T16:52:12Z</time>
      </trkpt>
      <trkpt lat="47.81218" lon="6.6268">
        <ele>494.2</ele>
        <time>2023-04-10T16:52:23Z</time>
      </trkpt>
      <trkpt lat="47.81225" lon="6.62684">
        <ele>494.2</ele>
        <time>2023-04-10T16:52:31Z</time>
      </trkpt>
      <trkpt lat="47.81225" lon="6.62683">
        <ele>494.2</ele>
        <time>2023-04-10T16:52:33Z</time>
      </trkpt>
      <trkpt lat="47.81234" lon="6.6269">
        <ele>494.4</ele>
        <time>2023-04-10T16:52:40Z</time>
      </trkpt>
      <trkpt lat="47.81242" lon="6.62696">
        <ele>494.6</ele>
        <time>2023-04-10T16:52:46Z</time>
      </trkpt>
      <trkpt lat="47.81252" lon="6.62694">
        <ele>494.8</ele>
        <time>2023-04-10T16:52:53Z</time>
      </trkpt>
      <trkpt lat="47.8126" lon="6.62685">
        <ele>494.5</ele>
        <time>2023-04-10T16:53:01Z</time>
      </trkpt>
      <trkpt lat="47.81264" lon="6.62673">
        <ele>494.1</ele>
        <time>2023-04-10T16:53:09Z</time>
      </trkpt>
      <trkpt lat="47.81266" lon="6.62658">
        <ele>493.7</ele>
        <time>2023-04-10T16:53:18Z</time>
      </trkpt>
      <trkpt lat="47.8127" lon="6.62645">
        <ele>493.3</ele>
        <time>2023-04-10T16:53:24Z</time>
      </trkpt>
      <trkpt lat="47.81272" lon="6.6263">
        <ele>492.9</ele>
        <time>2023-04-10T16:53:31Z</time>
      </trkpt>
      <trkpt lat="47.81273" lon="6.62616">
        <ele>492.7</ele>
        <time>2023-04-10T16:53:38Z</time>
      </trkpt>
      <trkpt lat="47.81273" lon="6.62601">
        <ele>492.5</ele>
        <time>2023-04-10T16:53:46Z</time>
      </trkpt>
      <trkpt lat="47.81273" lon="6.62586">
        <ele>492.4</ele>
        <time>2023-04-10T16:53:53Z</time>
      </trkpt>
      <trkpt lat="47.81271" lon="6.62572">
        <ele>492.5</ele>
        <time>2023-04-10T16:54:00Z</time>
      </trkpt>
      <trkpt lat="47.8127" lon="6.62556">
        <ele>492.6</ele>
        <time>2023-04-10T16:54:07Z</time>
      </trkpt>
      <trkpt lat="47.81269" lon="6.62541">
        <ele>492.9</ele>
        <time>2023-04-10T16:54:14Z</time>
      </trkpt>
      <trkpt lat="47.81268" lon="6.62527">
        <ele>493.2</ele>
        <time>2023-04-10T16:54:21Z</time>
      </trkpt>
      <trkpt lat="47.8127" lon="6.62511">
        <ele>493.6</ele>
        <time>2023-04-10T16:54:28Z</time>
      </trkpt>
      <trkpt lat="47.81273" lon="6.62498">
        <ele>493.9</ele>
        <time>2023-04-10T16:54:34Z</time>
      </trkpt>
      <trkpt lat="47.81276" lon="6.62484">
        <ele>494</ele>
        <time>2023-04-10T16:54:41Z</time>
      </trkpt>
      <trkpt lat="47.81281" lon="6.62472">
        <ele>494.1</ele>
        <time>2023-04-10T16:54:48Z</time>
      </trkpt>
      <trkpt lat="47.81287" lon="6.6246">
        <ele>494.2</ele>
        <time>2023-04-10T16:54:55Z</time>
      </trkpt>
      <trkpt lat="47.81294" lon="6.62449">
        <ele>494.3</ele>
        <time>2023-04-10T16:55:02Z</time>
      </trkpt>
      <trkpt lat="47.813" lon="6.6244">
        <ele>494.5</ele>
        <time>2023-04-10T16:55:08Z</time>
      </trkpt>
      <trkpt lat="47.81308" lon="6.62429">
        <ele>494.8</ele>
        <time>2023-04-10T16:55:15Z</time>
      </trkpt>
      <trkpt lat="47.81315" lon="6.62419">
        <ele>495.3</ele>
        <time>2023-04-10T16:55:22Z</time>
      </trkpt>
      <trkpt lat="47.81321" lon="6.62409">
        <ele>495.8</ele>
        <time>2023-04-10T16:55:29Z</time>
      </trkpt>
      <trkpt lat="47.81327" lon="6.62397">
        <ele>496.5</ele>
        <time>2023-04-10T16:55:36Z</time>
      </trkpt>
      <trkpt lat="47.81332" lon="6.62385">
        <ele>497.3</ele>
        <time>2023-04-10T16:55:44Z</time>
      </trkpt>
      <trkpt lat="47.81336" lon="6.62372">
        <ele>498.1</ele>
        <time>2023-04-10T16:55:51Z</time>
      </trkpt>
      <trkpt lat="47.81339" lon="6.62358">
        <ele>498.9</ele>
        <time>2023-04-10T16:55:58Z</time>
      </trkpt>
      <trkpt lat="47.81343" lon="6.62345">
        <ele>499.5</ele>
        <time>2023-04-10T16:56:06Z</time>
      </trkpt>
      <trkpt lat="47.81346" lon="6.62332">
        <ele>499.9</ele>
        <time>2023-04-10T16:56:14Z</time>
      </trkpt>
      <trkpt lat="47.81352" lon="6.6232">
        <ele>500.2</ele>
        <time>2023-04-10T16:56:22Z</time>
      </trkpt>
      <trkpt lat="47.81358" lon="6.62308">
        <ele>500.4</ele>
        <time>2023-04-10T16:56:30Z</time>
      </trkpt>
      <trkpt lat="47.81364" lon="6.62298">
        <ele>500.6</ele>
        <time>2023-04-10T16:56:37Z</time>
      </trkpt>
      <trkpt lat="47.81372" lon="6.62289">
        <ele>500.7</ele>
        <time>2023-04-10T16:56:44Z</time>
      </trkpt>
      <trkpt lat="47.81381" lon="6.62283">
        <ele>500.8</ele>
        <time>2023-04-10T16:56:51Z</time>
      </trkpt>
      <trkpt lat="47.81389" lon="6.62275">
        <ele>501</ele>
        <time>2023-04-10T16:56:57Z</time>
      </trkpt>
      <trkpt lat="47.81397" lon="6.62266">
        <ele>501.1</ele>
        <time>2023-04-10T16:57:04Z</time>
      </trkpt>
      <trkpt lat="47.81405" lon="6.62258">
        <ele>501.2</ele>
        <time>2023-04-10T16:57:11Z</time>
      </trkpt>
      <trkpt lat="47.81413" lon="6.62249">
        <ele>501.4</ele>
        <time>2023-04-10T16:57:18Z</time>
      </trkpt>
      <trkpt lat="47.81421" lon="6.62241">
        <ele>501.7</ele>
        <time>2023-04-10T16:57:26Z</time>
      </trkpt>
      <trkpt lat="47.8143" lon="6.62235">
        <ele>502</ele>
        <time>2023-04-10T16:57:35Z</time>
      </trkpt>
      <trkpt lat="47.81438" lon="6.62227">
        <ele>502.3</ele>
        <time>2023-04-10T16:57:44Z</time>
      </trkpt>
      <trkpt lat="47.81446" lon="6.62218">
        <ele>502.8</ele>
        <time>2023-04-10T16:57:52Z</time>
      </trkpt>
      <trkpt lat="47.81453" lon="6.62208">
        <ele>503.4</ele>
        <time>2023-04-10T16:58:00Z</time>
      </trkpt>
      <trkpt lat="47.8146" lon="6.62199">
        <ele>504.1</ele>
        <time>2023-04-10T16:58:08Z</time>
      </trkpt>
      <trkpt lat="47.81466" lon="6.62188">
        <ele>504.7</ele>
        <time>2023-04-10T16:58:16Z</time>
      </trkpt>
      <trkpt lat="47.81473" lon="6.62178">
        <ele>505.2</ele>
        <time>2023-04-10T16:58:23Z</time>
      </trkpt>
      <trkpt lat="47.81479" lon="6.62168">
        <ele>505.6</ele>
        <time>2023-04-10T16:58:31Z</time>
      </trkpt>
      <trkpt lat="47.81484" lon="6.62157">
        <ele>506</ele>
        <time>2023-04-10T16:58:39Z</time>
      </trkpt>
      <trkpt lat="47.81489" lon="6.62145">
        <ele>506.3</ele>
        <time>2023-04-10T16:58:46Z</time>
      </trkpt>
      <trkpt lat="47.81493" lon="6.62133">
        <ele>506.7</ele>
        <time>2023-04-10T16:58:54Z</time>
      </trkpt>
      <trkpt lat="47.81497" lon="6.6212">
        <ele>506.9</ele>
        <time>2023-04-10T16:59:00Z</time>
      </trkpt>
      <trkpt lat="47.81501" lon="6.62108">
        <ele>507</ele>
        <time>2023-04-10T16:59:07Z</time>
      </trkpt>
      <trkpt lat="47.81505" lon="6.62094">
        <ele>507.2</ele>
        <time>2023-04-10T16:59:15Z</time>
      </trkpt>
      <trkpt lat="47.81509" lon="6.62081">
        <ele>507.3</ele>
        <time>2023-04-10T16:59:23Z</time>
      </trkpt>
      <trkpt lat="47.81514" lon="6.62068">
        <ele>507.5</ele>
        <time>2023-04-10T16:59:32Z</time>
      </trkpt>
      <trkpt lat="47.81519" lon="6.62055">
        <ele>507.7</ele>
        <time>2023-04-10T16:59:43Z</time>
      </trkpt>
      <trkpt lat="47.81525" lon="6.62043">
        <ele>507.9</ele>
        <time>2023-04-10T16:59:53Z</time>
      </trkpt>
      <trkpt lat="47.81531" lon="6.62031">
        <ele>508.1</ele>
        <time>2023-04-10T17:00:01Z</time>
      </trkpt>
      <trkpt lat="47.81537" lon="6.62021">
        <ele>508.4</ele>
        <time>2023-04-10T17:00:10Z</time>
      </trkpt>
      <trkpt lat="47.81545" lon="6.62012">
        <ele>508.8</ele>
        <time>2023-04-10T17:00:20Z</time>
      </trkpt>
      <trkpt lat="47.81552" lon="6.62004">
        <ele>509.2</ele>
        <time>2023-04-10T17:00:29Z</time>
      </trkpt>
      <trkpt lat="47.81561" lon="6.61995">
        <ele>509.7</ele>
        <time>2023-04-10T17:00:37Z</time>
      </trkpt>
      <trkpt lat="47.81567" lon="6.61985">
        <ele>510.2</ele>
        <time>2023-04-10T17:00:44Z</time>
      </trkpt>
      <trkpt lat="47.81574" lon="6.61976">
        <ele>510.7</ele>
        <time>2023-04-10T17:00:52Z</time>
      </trkpt>
      <trkpt lat="47.81581" lon="6.61967">
        <ele>511.2</ele>
        <time>2023-04-10T17:01:01Z</time>
      </trkpt>
      <trkpt lat="47.81589" lon="6.61957">
        <ele>511.8</ele>
        <time>2023-04-10T17:01:09Z</time>
      </trkpt>
      <trkpt lat="47.81596" lon="6.61946">
        <ele>512.4</ele>
        <time>2023-04-10T17:01:19Z</time>
      </trkpt>
      <trkpt lat="47.81602" lon="6.61937">
        <ele>512.7</ele>
        <time>2023-04-10T17:01:26Z</time>
      </trkpt>
      <trkpt lat="47.81608" lon="6.61926">
        <ele>513</ele>
        <time>2023-04-10T17:01:33Z</time>
      </trkpt>
      <trkpt lat="47.81615" lon="6.61915">
        <ele>513.1</ele>
        <time>2023-04-10T17:01:40Z</time>
      </trkpt>
      <trkpt lat="47.81622" lon="6.61903">
        <ele>513.3</ele>
        <time>2023-04-10T17:01:50Z</time>
      </trkpt>
      <trkpt lat="47.81627" lon="6.6189">
        <ele>513.4</ele>
        <time>2023-04-10T17:01:57Z</time>
      </trkpt>
      <trkpt lat="47.81632" lon="6.61877">
        <ele>513.5</ele>
        <time>2023-04-10T17:02:04Z</time>
      </trkpt>
      <trkpt lat="47.81638" lon="6.61866">
        <ele>513.5</ele>
        <time>2023-04-10T17:02:12Z</time>
      </trkpt>
      <trkpt lat="47.81644" lon="6.61856">
        <ele>513.5</ele>
        <time>2023-04-10T17:02:20Z</time>
      </trkpt>
      <trkpt lat="47.81649" lon="6.61843">
        <ele>513.5</ele>
        <time>2023-04-10T17:02:29Z</time>
      </trkpt>
      <trkpt lat="47.81654" lon="6.61832">
        <ele>513.5</ele>
        <time>2023-04-10T17:02:37Z</time>
      </trkpt>
      <trkpt lat="47.81657" lon="6.61819">
        <ele>513.6</ele>
        <time>2023-04-10T17:02:44Z</time>
      </trkpt>
      <trkpt lat="47.81658" lon="6.61805">
        <ele>513.7</ele>
        <time>2023-04-10T17:02:49Z</time>
      </trkpt>
      <trkpt lat="47.81655" lon="6.61791">
        <ele>513.8</ele>
        <time>2023-04-10T17:02:57Z</time>
      </trkpt>
      <trkpt lat="47.81651" lon="6.61777">
        <ele>513.9</ele>
        <time>2023-04-10T17:03:05Z</time>
      </trkpt>
      <trkpt lat="47.81647" lon="6.61764">
        <ele>514</ele>
        <time>2023-04-10T17:03:12Z</time>
      </trkpt>
      <trkpt lat="47.81641" lon="6.61752">
        <ele>514.1</ele>
        <time>2023-04-10T17:03:20Z</time>
      </trkpt>
      <trkpt lat="47.81637" lon="6.6174">
        <ele>514.1</ele>
        <time>2023-04-10T17:03:26Z</time>
      </trkpt>
      <trkpt lat="47.81632" lon="6.61728">
        <ele>514.1</ele>
        <time>2023-04-10T17:03:33Z</time>
      </trkpt>
      <trkpt lat="47.81625" lon="6.61719">
        <ele>514.1</ele>
        <time>2023-04-10T17:03:43Z</time>
      </trkpt>
      <trkpt lat="47.8162" lon="6.61707">
        <ele>514</ele>
        <time>2023-04-10T17:03:50Z</time>
      </trkpt>
      <trkpt lat="47.81615" lon="6.61695">
        <ele>513.9</ele>
        <time>2023-04-10T17:03:57Z</time>
      </trkpt>
      <trkpt lat="47.8161" lon="6.61684">
        <ele>513.9</ele>
        <time>2023-04-10T17:04:04Z</time>
      </trkpt>
      <trkpt lat="47.81605" lon="6.6167">
        <ele>513.9</ele>
        <time>2023-04-10T17:04:11Z</time>
      </trkpt>
      <trkpt lat="47.81601" lon="6.61657">
        <ele>513.9</ele>
        <time>2023-04-10T17:04:18Z</time>
      </trkpt>
      <trkpt lat="47.81598" lon="6.61643">
        <ele>514</ele>
        <time>2023-04-10T17:04:25Z</time>
      </trkpt>
      <trkpt lat="47.81595" lon="6.61629">
        <ele>514.1</ele>
        <time>2023-04-10T17:04:32Z</time>
      </trkpt>
      <trkpt lat="47.81591" lon="6.61616">
        <ele>514.2</ele>
        <time>2023-04-10T17:04:40Z</time>
      </trkpt>
      <trkpt lat="47.81588" lon="6.61603">
        <ele>514.4</ele>
        <time>2023-04-10T17:04:48Z</time>
      </trkpt>
      <trkpt lat="47.81585" lon="6.61589">
        <ele>514.7</ele>
        <time>2023-04-10T17:04:55Z</time>
      </trkpt>
      <trkpt lat="47.81582" lon="6.61576">
        <ele>514.9</ele>
        <time>2023-04-10T17:05:03Z</time>
      </trkpt>
      <trkpt lat="47.81579" lon="6.61561">
        <ele>515.2</ele>
        <time>2023-04-10T17:05:11Z</time>
      </trkpt>
      <trkpt lat="47.81576" lon="6.61547">
        <ele>515.5</ele>
        <time>2023-04-10T17:05:19Z</time>
      </trkpt>
      <trkpt lat="47.81573" lon="6.61533">
        <ele>515.8</ele>
        <time>2023-04-10T17:05:27Z</time>
      </trkpt>
      <trkpt lat="47.8157" lon="6.61519">
        <ele>516.1</ele>
        <time>2023-04-10T17:05:34Z</time>
      </trkpt>
      <trkpt lat="47.81567" lon="6.61506">
        <ele>516.3</ele>
        <time>2023-04-10T17:05:41Z</time>
      </trkpt>
      <trkpt lat="47.81563" lon="6.61492">
        <ele>516.5</ele>
        <time>2023-04-10T17:05:49Z</time>
      </trkpt>
      <trkpt lat="47.8156" lon="6.61479">
        <ele>516.7</ele>
        <time>2023-04-10T17:05:56Z</time>
      </trkpt>
      <trkpt lat="47.81558" lon="6.61463">
        <ele>516.7</ele>
        <time>2023-04-10T17:06:04Z</time>
      </trkpt>
      <trkpt lat="47.81557" lon="6.6145">
        <ele>516.7</ele>
        <time>2023-04-10T17:06:11Z</time>
      </trkpt>
      <trkpt lat="47.81558" lon="6.61435">
        <ele>516.5</ele>
        <time>2023-04-10T17:06:20Z</time>
      </trkpt>
      <trkpt lat="47.81561" lon="6.61422">
        <ele>516.2</ele>
        <time>2023-04-10T17:06:32Z</time>
      </trkpt>
      <trkpt lat="47.81562" lon="6.61408">
        <ele>515.9</ele>
        <time>2023-04-10T17:06:41Z</time>
      </trkpt>
      <trkpt lat="47.81564" lon="6.61394">
        <ele>515.6</ele>
        <time>2023-04-10T17:06:50Z</time>
      </trkpt>
      <trkpt lat="47.81566" lon="6.6138">
        <ele>515.2</ele>
        <time>2023-04-10T17:06:57Z</time>
      </trkpt>
      <trkpt lat="47.81567" lon="6.61366">
        <ele>514.8</ele>
        <time>2023-04-10T17:07:05Z</time>
      </trkpt>
      <trkpt lat="47.81569" lon="6.61352">
        <ele>514.4</ele>
        <time>2023-04-10T17:07:14Z</time>
      </trkpt>
      <trkpt lat="47.81569" lon="6.61337">
        <ele>514</ele>
        <time>2023-04-10T17:07:23Z</time>
      </trkpt>
      <trkpt lat="47.81569" lon="6.61324">
        <ele>513.6</ele>
        <time>2023-04-10T17:07:30Z</time>
      </trkpt>
      <trkpt lat="47.81571" lon="6.61309">
        <ele>513.3</ele>
        <time>2023-04-10T17:07:38Z</time>
      </trkpt>
      <trkpt lat="47.8157" lon="6.61294">
        <ele>512.9</ele>
        <time>2023-04-10T17:07:47Z</time>
      </trkpt>
      <trkpt lat="47.81571" lon="6.6128">
        <ele>512.6</ele>
        <time>2023-04-10T17:07:54Z</time>
      </trkpt>
      <trkpt lat="47.81573" lon="6.61265">
        <ele>512.1</ele>
        <time>2023-04-10T17:08:01Z</time>
      </trkpt>
      <trkpt lat="47.81575" lon="6.6125">
        <ele>511.6</ele>
        <time>2023-04-10T17:08:09Z</time>
      </trkpt>
      <trkpt lat="47.81577" lon="6.61237">
        <ele>511.2</ele>
        <time>2023-04-10T17:08:16Z</time>
      </trkpt>
      <trkpt lat="47.81578" lon="6.61222">
        <ele>510.7</ele>
        <time>2023-04-10T17:08:23Z</time>
      </trkpt>
      <trkpt lat="47.8158" lon="6.61208">
        <ele>510.2</ele>
        <time>2023-04-10T17:08:31Z</time>
      </trkpt>
      <trkpt lat="47.8158" lon="6.61195">
        <ele>509.7</ele>
        <time>2023-04-10T17:08:39Z</time>
      </trkpt>
      <trkpt lat="47.81582" lon="6.61181">
        <ele>509.2</ele>
        <time>2023-04-10T17:08:47Z</time>
      </trkpt>
      <trkpt lat="47.81583" lon="6.61167">
        <ele>508.6</ele>
        <time>2023-04-10T17:08:55Z</time>
      </trkpt>
      <trkpt lat="47.81584" lon="6.61153">
        <ele>508</ele>
        <time>2023-04-10T17:09:03Z</time>
      </trkpt>
      <trkpt lat="47.81585" lon="6.61139">
        <ele>507.3</ele>
        <time>2023-04-10T17:09:12Z</time>
      </trkpt>
      <trkpt lat="47.81587" lon="6.61125">
        <ele>506.5</ele>
        <time>2023-04-10T17:09:22Z</time>
      </trkpt>
      <trkpt lat="47.81588" lon="6.61111">
        <ele>505.7</ele>
        <time>2023-04-10T17:09:31Z</time>
      </trkpt>
      <trkpt lat="47.8159" lon="6.61096">
        <ele>504.8</ele>
        <time>2023-04-10T17:09:40Z</time>
      </trkpt>
      <trkpt lat="47.8159" lon="6.61083">
        <ele>504</ele>
        <time>2023-04-10T17:09:46Z</time>
      </trkpt>
      <trkpt lat="47.81591" lon="6.61067">
        <ele>503.2</ele>
        <time>2023-04-10T17:09:55Z</time>
      </trkpt>
      <trkpt lat="47.81592" lon="6.61052">
        <ele>502.3</ele>
        <time>2023-04-10T17:10:01Z</time>
      </trkpt>
      <trkpt lat="47.81595" lon="6.61039">
        <ele>501.6</ele>
        <time>2023-04-10T17:10:09Z</time>
      </trkpt>
      <trkpt lat="47.81599" lon="6.61026">
        <ele>500.8</ele>
        <time>2023-04-10T17:10:16Z</time>
      </trkpt>
      <trkpt lat="47.81603" lon="6.61014">
        <ele>500.1</ele>
        <time>2023-04-10T17:10:21Z</time>
      </trkpt>
      <trkpt lat="47.81608" lon="6.61001">
        <ele>499.4</ele>
        <time>2023-04-10T17:10:27Z</time>
      </trkpt>
      <trkpt lat="47.81615" lon="6.6099">
        <ele>498.6</ele>
        <time>2023-04-10T17:10:34Z</time>
      </trkpt>
      <trkpt lat="47.81622" lon="6.60979">
        <ele>497.7</ele>
        <time>2023-04-10T17:10:42Z</time>
      </trkpt>
      <trkpt lat="47.81627" lon="6.60967">
        <ele>496.9</ele>
        <time>2023-04-10T17:10:49Z</time>
      </trkpt>
      <trkpt lat="47.8163" lon="6.60954">
        <ele>496</ele>
        <time>2023-04-10T17:10:57Z</time>
      </trkpt>
      <trkpt lat="47.81628" lon="6.60939">
        <ele>495.1</ele>
        <time>2023-04-10T17:11:05Z</time>
      </trkpt>
      <trkpt lat="47.81625" lon="6.60925">
        <ele>494.1</ele>
        <time>2023-04-10T17:11:12Z</time>
      </trkpt>
      <trkpt lat="47.81624" lon="6.60911">
        <ele>493.3</ele>
        <time>2023-04-10T17:11:16Z</time>
      </trkpt>
      <trkpt lat="47.81619" lon="6.60899">
        <ele>492.5</ele>
        <time>2023-04-10T17:11:24Z</time>
      </trkpt>
      <trkpt lat="47.81611" lon="6.60891">
        <ele>491.6</ele>
        <time>2023-04-10T17:11:35Z</time>
      </trkpt>
      <trkpt lat="47.81601" lon="6.60896">
        <ele>490.5</ele>
        <time>2023-04-10T17:11:45Z</time>
      </trkpt>
      <trkpt lat="47.81592" lon="6.60896">
        <ele>489.3</ele>
        <time>2023-04-10T17:11:50Z</time>
      </trkpt>
      <trkpt lat="47.81583" lon="6.60892">
        <ele>488</ele>
        <time>2023-04-10T17:11:56Z</time>
      </trkpt>
      <trkpt lat="47.81579" lon="6.6088">
        <ele>486.9</ele>
        <time>2023-04-10T17:12:06Z</time>
      </trkpt>
      <trkpt lat="47.81579" lon="6.60866">
        <ele>485.8</ele>
        <time>2023-04-10T17:12:14Z</time>
      </trkpt>
      <trkpt lat="47.81582" lon="6.60851">
        <ele>484.5</ele>
        <time>2023-04-10T17:12:22Z</time>
      </trkpt>
      <trkpt lat="47.81585" lon="6.60838">
        <ele>483.5</ele>
        <time>2023-04-10T17:12:31Z</time>
      </trkpt>
      <trkpt lat="47.81588" lon="6.60826">
        <ele>482.5</ele>
        <time>2023-04-10T17:12:40Z</time>
      </trkpt>
      <trkpt lat="47.81593" lon="6.60811">
        <ele>481.3</ele>
        <time>2023-04-10T17:12:50Z</time>
      </trkpt>
      <trkpt lat="47.816" lon="6.60801">
        <ele>480.4</ele>
        <time>2023-04-10T17:13:00Z</time>
      </trkpt>
      <trkpt lat="47.81605" lon="6.60789">
        <ele>479.3</ele>
        <time>2023-04-10T17:13:08Z</time>
      </trkpt>
      <trkpt lat="47.81612" lon="6.60778">
        <ele>478.2</ele>
        <time>2023-04-10T17:13:13Z</time>
      </trkpt>
      <trkpt lat="47.81618" lon="6.60768">
        <ele>477.1</ele>
        <time>2023-04-10T17:13:19Z</time>
      </trkpt>
      <trkpt lat="47.81622" lon="6.60754">
        <ele>475.7</ele>
        <time>2023-04-10T17:13:24Z</time>
      </trkpt>
      <trkpt lat="47.81623" lon="6.60752">
        <ele>475.6</ele>
        <time>2023-04-10T17:13:27Z</time>
      </trkpt>
      <trkpt lat="47.81623" lon="6.60752">
        <ele>475.6</ele>
        <time>2023-04-10T17:13:31Z</time>
      </trkpt>
      <trkpt lat="47.81624" lon="6.60751">
        <ele>475.4</ele>
        <time>2023-04-10T17:13:35Z</time>
      </trkpt>
      <trkpt lat="47.81624" lon="6.6075">
        <ele>475.4</ele>
        <time>2023-04-10T17:13:44Z</time>
      </trkpt>
      <trkpt lat="47.81626" lon="6.6075">
        <ele>475.2</ele>
        <time>2023-04-10T17:13:47Z</time>
      </trkpt>
      <trkpt lat="47.81625" lon="6.6075">
        <ele>475.1</ele>
        <time>2023-04-10T17:13:48Z</time>
      </trkpt>
      <trkpt lat="47.81625" lon="6.6075">
        <ele>475.1</ele>
        <time>2023-04-10T17:13:49Z</time>
      </trkpt>
      <trkpt lat="47.81625" lon="6.6075">
        <ele>475.1</ele>
        <time>2023-04-10T17:13:55Z</time>
      </trkpt>
      <trkpt lat="47.81625" lon="6.60751">
        <ele>475.1</ele>
        <time>2023-04-10T17:13:57Z</time>
      </trkpt>
      <trkpt lat="47.81625" lon="6.6075">
        <ele>475</ele>
        <time>2023-04-10T17:14:16Z</time>
      </trkpt>
      <trkpt lat="47.81631" lon="6.6074">
        <ele>474</ele>
        <time>2023-04-10T17:14:26Z</time>
      </trkpt>
      <trkpt lat="47.81637" lon="6.60728">
        <ele>472.9</ele>
        <time>2023-04-10T17:14:36Z</time>
      </trkpt>
      <trkpt lat="47.81639" lon="6.60713">
        <ele>471.9</ele>
        <time>2023-04-10T17:14:44Z</time>
      </trkpt>
      <trkpt lat="47.81639" lon="6.60698">
        <ele>471</ele>
        <time>2023-04-10T17:14:52Z</time>
      </trkpt>
      <trkpt lat="47.81637" lon="6.60685">
        <ele>470.3</ele>
        <time>2023-04-10T17:15:00Z</time>
      </trkpt>
      <trkpt lat="47.81636" lon="6.6067">
        <ele>469.6</ele>
        <time>2023-04-10T17:15:06Z</time>
      </trkpt>
      <trkpt lat="47.81634" lon="6.60656">
        <ele>469</ele>
        <time>2023-04-10T17:15:11Z</time>
      </trkpt>
      <trkpt lat="47.81629" lon="6.60644">
        <ele>468.5</ele>
        <time>2023-04-10T17:15:18Z</time>
      </trkpt>
      <trkpt lat="47.81624" lon="6.60632">
        <ele>468</ele>
        <time>2023-04-10T17:15:26Z</time>
      </trkpt>
      <trkpt lat="47.81619" lon="6.60619">
        <ele>467.5</ele>
        <time>2023-04-10T17:15:34Z</time>
      </trkpt>
      <trkpt lat="47.81615" lon="6.60607">
        <ele>467</ele>
        <time>2023-04-10T17:15:43Z</time>
      </trkpt>
      <trkpt lat="47.8161" lon="6.60594">
        <ele>466.6</ele>
        <time>2023-04-10T17:15:50Z</time>
      </trkpt>
      <trkpt lat="47.81608" lon="6.6058">
        <ele>466.2</ele>
        <time>2023-04-10T17:15:57Z</time>
      </trkpt>
      <trkpt lat="47.81607" lon="6.60565">
        <ele>465.8</ele>
        <time>2023-04-10T17:16:06Z</time>
      </trkpt>
      <trkpt lat="47.81608" lon="6.6055">
        <ele>465.4</ele>
        <time>2023-04-10T17:16:15Z</time>
      </trkpt>
      <trkpt lat="47.8161" lon="6.60536">
        <ele>465.1</ele>
        <time>2023-04-10T17:16:23Z</time>
      </trkpt>
      <trkpt lat="47.81613" lon="6.60523">
        <ele>464.9</ele>
        <time>2023-04-10T17:16:29Z</time>
      </trkpt>
      <trkpt lat="47.81617" lon="6.60511">
        <ele>464.7</ele>
        <time>2023-04-10T17:16:34Z</time>
      </trkpt>
      <trkpt lat="47.81622" lon="6.60497">
        <ele>464.6</ele>
        <time>2023-04-10T17:16:41Z</time>
      </trkpt>
      <trkpt lat="47.81627" lon="6.60484">
        <ele>464.6</ele>
        <time>2023-04-10T17:16:48Z</time>
      </trkpt>
      <trkpt lat="47.81632" lon="6.60473">
        <ele>464.7</ele>
        <time>2023-04-10T17:16:55Z</time>
      </trkpt>
      <trkpt lat="47.81636" lon="6.60459">
        <ele>464.6</ele>
        <time>2023-04-10T17:17:03Z</time>
      </trkpt>
      <trkpt lat="47.8164" lon="6.60447">
        <ele>464.6</ele>
        <time>2023-04-10T17:17:13Z</time>
      </trkpt>
      <trkpt lat="47.81647" lon="6.60437">
        <ele>464.6</ele>
        <time>2023-04-10T17:17:20Z</time>
      </trkpt>
      <trkpt lat="47.81654" lon="6.60428">
        <ele>464.5</ele>
        <time>2023-04-10T17:17:28Z</time>
      </trkpt>
      <trkpt lat="47.81654" lon="6.60427">
        <ele>464.5</ele>
        <time>2023-04-10T17:17:30Z</time>
      </trkpt>
      <trkpt lat="47.81655" lon="6.60427">
        <ele>464.5</ele>
        <time>2023-04-10T17:17:32Z</time>
      </trkpt>
      <trkpt lat="47.81655" lon="6.60428">
        <ele>464.5</ele>
        <time>2023-04-10T17:17:34Z</time>
      </trkpt>
      <trkpt lat="47.81655" lon="6.60428">
        <ele>464.5</ele>
        <time>2023-04-10T17:17:36Z</time>
      </trkpt>
      <trkpt lat="47.81654" lon="6.60427">
        <ele>464.5</ele>
        <time>2023-04-10T17:17:41Z</time>
      </trkpt>
      <trkpt lat="47.81654" lon="6.60427">
        <ele>464.5</ele>
        <time>2023-04-10T17:18:00Z</time>
      </trkpt>
      <trkpt lat="47.81654" lon="6.60427">
        <ele>464.5</ele>
        <time>2023-04-10T17:18:01Z</time>
      </trkpt>
      <trkpt lat="47.81654" lon="6.60427">
        <ele>464.5</ele>
        <time>2023-04-10T17:18:17Z</time>
      </trkpt>
      <trkpt lat="47.81654" lon="6.60427">
        <ele>464.5</ele>
        <time>2023-04-10T17:18:18Z</time>
      </trkpt>
      <trkpt lat="47.81654" lon="6.60427">
        <ele>464.5</ele>
        <time>2023-04-10T17:18:34Z</time>
      </trkpt>
      <trkpt lat="47.81654" lon="6.60427">
        <ele>464.5</ele>
        <time>2023-04-10T17:18:35Z</time>
      </trkpt>
      <trkpt lat="47.81654" lon="6.60427">
        <ele>464.5</ele>
        <time>2023-04-10T17:18:46Z</time>
      </trkpt>
      <trkpt lat="47.81654" lon="6.60427">
        <ele>464.5</ele>
        <time>2023-04-10T17:18:47Z</time>
      </trkpt>
      <trkpt lat="47.81653" lon="6.60427">
        <ele>464.5</ele>
        <time>2023-04-10T17:19:04Z</time>
      </trkpt>
      <trkpt lat="47.81653" lon="6.60427">
        <ele>464.5</ele>
        <time>2023-04-10T17:19:06Z</time>
      </trkpt>
      <trkpt lat="47.81653" lon="6.60427">
        <ele>464.5</ele>
        <time>2023-04-10T17:19:17Z</time>
      </trkpt>
      <trkpt lat="47.81653" lon="6.60427">
        <ele>464.5</ele>
        <time>2023-04-10T17:19:18Z</time>
      </trkpt>
      <trkpt lat="47.81653" lon="6.60427">
        <ele>464.5</ele>
        <time>2023-04-10T17:20:22Z</time>
      </trkpt>
      <trkpt lat="47.81653" lon="6.60427">
        <ele>464.5</ele>
        <time>2023-04-10T17:20:23Z</time>
      </trkpt>
      <trkpt lat="47.81653" lon="6.60428">
        <ele>464.5</ele>
        <time>2023-04-10T17:20:43Z</time>
      </trkpt>
      <trkpt lat="47.81653" lon="6.60428">
        <ele>464.5</ele>
        <time>2023-04-10T17:20:44Z</time>
      </trkpt>
      <trkpt lat="47.81652" lon="6.60428">
        <ele>464.5</ele>
        <time>2023-04-10T17:20:45Z</time>
      </trkpt>
      <trkpt lat="47.81652" lon="6.60428">
        <ele>464.5</ele>
        <time>2023-04-10T17:20:46Z</time>
      </trkpt>
      <trkpt lat="47.81653" lon="6.60428">
        <ele>464.5</ele>
        <time>2023-04-10T17:21:13Z</time>
      </trkpt>
      <trkpt lat="47.81653" lon="6.60428">
        <ele>464.5</ele>
        <time>2023-04-10T17:21:14Z</time>
      </trkpt>
      <trkpt lat="47.81653" lon="6.60428">
        <ele>464.5</ele>
        <time>2023-04-10T17:21:19Z</time>
      </trkpt>
      <trkpt lat="47.81662" lon="6.60436">
        <ele>464.5</ele>
        <time>2023-04-10T17:21:25Z</time>
      </trkpt>
      <trkpt lat="47.81668" lon="6.60446">
        <ele>464.4</ele>
        <time>2023-04-10T17:21:29Z</time>
      </trkpt>
      <trkpt lat="47.8166" lon="6.60453">
        <ele>464.4</ele>
        <time>2023-04-10T17:21:35Z</time>
      </trkpt>
      <trkpt lat="47.8166" lon="6.60453">
        <ele>464.4</ele>
        <time>2023-04-10T17:21:44Z</time>
      </trkpt>
      <trkpt lat="47.81661" lon="6.60453">
        <ele>464.4</ele>
        <time>2023-04-10T17:21:52Z</time>
      </trkpt>
      <trkpt lat="47.81661" lon="6.60453">
        <ele>464.4</ele>
        <time>2023-04-10T17:21:53Z</time>
      </trkpt>
      <trkpt lat="47.81661" lon="6.60453">
        <ele>464.4</ele>
        <time>2023-04-10T17:22:00Z</time>
      </trkpt>
      <trkpt lat="47.81661" lon="6.60453">
        <ele>464.4</ele>
        <time>2023-04-10T17:22:01Z</time>
      </trkpt>
      <trkpt lat="47.81661" lon="6.60453">
        <ele>464.4</ele>
        <time>2023-04-10T17:22:20Z</time>
      </trkpt>
      <trkpt lat="47.81661" lon="6.60453">
        <ele>464.4</ele>
        <time>2023-04-10T17:22:21Z</time>
      </trkpt>
      <trkpt lat="47.81661" lon="6.60453">
        <ele>464.4</ele>
        <time>2023-04-10T17:22:50Z</time>
      </trkpt>
      <trkpt lat="47.81661" lon="6.60454">
        <ele>464.4</ele>
        <time>2023-04-10T17:22:51Z</time>
      </trkpt>
      <trkpt lat="47.81662" lon="6.60454">
        <ele>464.4</ele>
        <time>2023-04-10T17:24:19Z</time>
      </trkpt>
      <trkpt lat="47.81662" lon="6.60454">
        <ele>464.4</ele>
        <time>2023-04-10T17:24:20Z</time>
      </trkpt>
      <trkpt lat="47.81662" lon="6.60454">
        <ele>464.4</ele>
        <time>2023-04-10T17:25:57Z</time>
      </trkpt>
      <trkpt lat="47.81662" lon="6.60454">
        <ele>464.4</ele>
        <time>2023-04-10T17:25:58Z</time>
      </trkpt>
      <trkpt lat="47.81662" lon="6.60454">
        <ele>464.4</ele>
        <time>2023-04-10T17:33:13Z</time>
      </trkpt>
      <trkpt lat="47.81662" lon="6.60454">
        <ele>464.4</ele>
        <time>2023-04-10T17:33:14Z</time>
      </trkpt>
      <trkpt lat="47.81662" lon="6.60454">
        <ele>464.4</ele>
        <time>2023-04-10T17:34:39Z</time>
      </trkpt>
      <trkpt lat="47.81662" lon="6.60454">
        <ele>464.4</ele>
        <time>2023-04-10T17:34:40Z</time>
      </trkpt>
      <trkpt lat="47.81662" lon="6.60454">
        <ele>464.4</ele>
        <time>2023-04-10T17:37:22Z</time>
      </trkpt>
      <trkpt lat="47.81663" lon="6.60454">
        <ele>464.4</ele>
        <time>2023-04-10T17:37:23Z</time>
      </trkpt>
      <trkpt lat="47.81663" lon="6.60455">
        <ele>464.4</ele>
        <time>2023-04-10T17:39:26Z</time>
      </trkpt>
      <trkpt lat="47.81663" lon="6.60455">
        <ele>464.4</ele>
        <time>2023-04-10T17:39:29Z</time>
      </trkpt>
      <trkpt lat="47.81663" lon="6.60455">
        <ele>464.4</ele>
        <time>2023-04-10T17:39:31Z</time>
      </trkpt>
      <trkpt lat="47.81663" lon="6.60455">
        <ele>464.4</ele>
        <time>2023-04-10T17:39:32Z</time>
      </trkpt>
      <trkpt lat="47.81663" lon="6.60455">
        <ele>464.4</ele>
        <time>2023-04-10T17:39:33Z</time>
      </trkpt>
      <trkpt lat="47.81663" lon="6.60455">
        <ele>464.4</ele>
        <time>2023-04-10T17:39:34Z</time>
      </trkpt>
      <trkpt lat="47.81663" lon="6.60455">
        <ele>464.4</ele>
        <time>2023-04-10T17:39:36Z</time>
      </trkpt>
      <trkpt lat="47.81663" lon="6.60455">
        <ele>464.4</ele>
        <time>2023-04-10T17:39:37Z</time>
      </trkpt>
      <trkpt lat="47.81664" lon="6.60455">
        <ele>464.4</ele>
        <time>2023-04-10T17:39:37Z</time>
      </trkpt>
    </trkseg>
  </trk>
</gpx>